<
# Wetter Temperatur Luftdruck Luftfeuchtigkeit Sichtweite Windgeschwindigkeit Windrichtung Zeit
1 Clear 22 1016 100 10000 1.03 0 12:37 22.04.2021
2 Clear 22 1016 100 10000 1.03 0 12:37 22.04.2021
3 Clear 22 1016 100 10000 1.03 0 12:19 22.04.2021
4 Clear 23 1016 94 10000 1.03 0 11:43 22.04.2021
5 Clear 23 1016 94 10000 1.03 0 11:22 22.04.2021
6 Clear 23 1016 94 10000 1.03 0 10:43 22.04.2021
7 Clear 23 1016 94 10000 1.03 0 10:43 22.04.2021
8 Clear 23 1016 94 10000 1.03 0 10:21 22.04.2021
9 Clear 23 1016 94 10000 1.03 0 09:41 22.04.2021
10 Clear 23 1016 94 10000 1.03 0 09:19 22.04.2021
11 Clear 24 1016 94 10000 0.51 0 08:38 22.04.2021
12 Clear 24 1016 94 10000 0.51 0 08:18 22.04.2021
13 Clear 24 1016 94 10000 1.03 0 07:37 22.04.2021
14 Clear 24 1016 94 10000 1.03 0 07:18 22.04.2021
15 Clouds 25 1017 88 10000 1.54 150 06:22 22.04.2021
16 Clouds 25 1017 88 10000 1.54 150 05:24 22.04.2021
17 Clouds 27 1016 78 10000 1.03 0 02:49 22.04.2021
18 Clouds 28 1015 69 10000 3.09 340 00:41 22.04.2021
19 Clouds 30 1015 54 10000 2.06 330 23:42 21.04.2021
20 Clouds 30 1015 54 10000 2.06 330 23:22 21.04.2021
21 Clouds 30 1016 62 10000 4.12 300 22:41 21.04.2021
22 Clouds 30 1016 62 10000 4.12 300 22:23 21.04.2021
23 Clouds 30 1016 70 10000 4.12 310 21:42 21.04.2021
24 Clouds 30 1016 70 10000 4.12 310 21:42 21.04.2021
25 Clouds 30 1016 70 10000 4.12 310 21:23 21.04.2021
26 Clouds 30 1017 66 10000 5.14 290 20:38 21.04.2021
27 Clouds 30 1017 66 10000 5.14 290 20:18 21.04.2021
28 Clouds 31 1017 66 10000 4.12 280 19:38 21.04.2021
29 Clouds 31 1017 66 10000 4.12 280 19:20 21.04.2021
30 Clouds 30 1017 70 10000 5.14 270 18:44 21.04.2021
31 Clouds 30 1017 70 10000 5.14 270 18:22 21.04.2021
32 Clouds 29 1018 70 10000 4.63 230 17:46 21.04.2021
33 Clouds 29 1018 70 10000 4.63 230 17:24 21.04.2021
34 Clouds 28 1017 78 10000 4.12 220 16:42 21.04.2021
35 Clouds 27 1017 89 10000 4.12 200 15:56 21.04.2021
36 Clouds 27 1017 89 10000 4.12 200 15:37 21.04.2021
37 Clouds 26 1017 89 10000 3.09 200 14:47 21.04.2021
38 Clouds 26 1017 89 10000 3.09 200 14:29 21.04.2021
39 Clouds 25 1017 94 10000 1.54 190 13:51 21.04.2021
40 Clouds 25 1017 94 10000 1.54 190 13:23 21.04.2021
41 Clouds 25 1016 88 10000 3.09 190 12:56 21.04.2021
42 Clouds 25 1016 88 10000 3.09 190 12:28 21.04.2021
43 Clouds 25 1016 88 10000 2.57 190 11:47 21.04.2021
44 Clouds 25 1016 88 10000 2.57 190 11:25 21.04.2021
45 Clouds 26 1016 85 10000 4.3 191 10:42 21.04.2021
46 Clouds 26 1016 85 10000 4.32 186 09:58 21.04.2021
47 Clouds 26 1016 89 10000 2.06 190 09:33 21.04.2021
48 Clouds 26 1016 89 10000 2.06 190 08:53 21.04.2021
49 Clouds 26 1017 89 10000 1.54 190 08:27 21.04.2021
50 Clouds 26 1017 89 10000 1.54 190 07:58 21.04.2021
51 Clouds 26 1017 89 10000 1.54 190 07:29 21.04.2021
52 Clouds 25 1017 88 10000 3.6 180 06:23 21.04.2021
53 Clear 26 1016 89 10000 2.06 150 04:18 21.04.2021
54 Clear 28 1015 78 10000 4.12 200 00:49 21.04.2021
55 Clouds 28 1016 74 10000 4.12 180 23:47 20.04.2021
56 Clear 29 1015 74 10000 5.14 210 22:50 20.04.2021
57 Clear 29 1015 74 10000 5.14 210 22:24 20.04.2021
58 Clear 30 1016 66 10000 5.14 200 21:59 20.04.2021
59 Clear 30 1016 66 10000 5.14 200 21:41 20.04.2021
60 Clear 30 1016 66 10000 5.14 200 21:22 20.04.2021
61 Clouds 29 1016 74 10000 4.12 190 20:41 20.04.2021
62 Clouds 29 1016 74 10000 4.12 190 20:21 20.04.2021
63 Clouds 29 1017 70 10000 4.63 180 19:51 20.04.2021
64 Clouds 29 1017 70 10000 4.63 180 19:33 20.04.2021
65 Clouds 29 1017 70 10000 4.12 200 18:50 20.04.2021
66 Clouds 29 1017 70 10000 4.12 200 18:31 20.04.2021
67 Clouds 29 1017 74 10000 4.12 220 17:43 20.04.2021
68 Clouds 28 1017 74 10000 4.12 210 16:55 20.04.2021
69 Clouds 28 1017 74 10000 4.12 210 16:35 20.04.2021
70 Clouds 28 1017 78 10000 4.12 220 15:41 20.04.2021
71 Clouds 28 1017 78 10000 4.12 220 15:21 20.04.2021
72 Clouds 26 1016 83 10000 2.57 200 14:48 20.04.2021
73 Clouds 26 1016 83 10000 2.57 200 14:23 20.04.2021
74 Clouds 26 1016 83 10000 2.57 200 14:23 20.04.2021
75 Clouds 26 1016 89 10000 2.57 200 13:29 20.04.2021
76 Clouds 25 1015 94 10000 2.06 170 12:55 20.04.2021
77 Clouds 25 1015 94 10000 2.06 170 12:27 20.04.2021
78 Clouds 26 1015 89 10000 2.57 210 11:47 20.04.2021
79 Clouds 26 1015 89 10000 2.57 210 11:25 20.04.2021
80 Clouds 26 1015 89 10000 2.06 230 10:48 20.04.2021
81 Clouds 26 1015 89 10000 2.06 230 10:24 20.04.2021
82 Clouds 26 1015 89 10000 3.09 200 09:47 20.04.2021
83 Clouds 26 1015 89 10000 3.09 200 09:18 20.04.2021
84 Rain 26 1015 89 10000 2.57 180 08:42 20.04.2021
85 Clouds 26 1016 89 10000 2.06 190 07:53 20.04.2021
86 Clouds 26 1016 89 10000 2.06 190 07:22 20.04.2021
87 Clouds 26 1016 89 10000 2.57 100 05:42 20.04.2021
88 Clouds 27 1016 83 10000 1.54 90 04:43 20.04.2021
89 Clouds 27 1015 78 10000 1.54 40 02:58 20.04.2021
90 Clouds 29 1014 70 10000 4.12 300 00:50 20.04.2021
91 Clouds 29 1014 70 10000 4.12 300 00:50 20.04.2021
92 Clouds 30 1014 70 10000 4.63 220 23:52 19.04.2021
93 Clouds 30 1014 70 10000 4.63 220 23:29 19.04.2021
94 Clouds 30 1014 70 10000 5.66 200 22:37 19.04.2021
95 Clouds 30 1014 70 10000 7.2 200 21:59 19.04.2021
96 Clouds 30 1014 70 10000 7.2 200 21:37 19.04.2021
97 Clouds 30 1014 70 10000 7.2 200 21:19 19.04.2021
98 Clear 30 1014 70 10000 7.2 200 20:40 19.04.2021
99 Clear 30 1014 70 10000 7.2 200 20:20 19.04.2021
100 Clouds 29 1015 74 10000 7.72 190 19:43 19.04.2021
101 Clouds 29 1015 74 10000 7.72 190 19:24 19.04.2021
102 Clouds 29 1016 74 10000 7.72 210 18:47 19.04.2021
103 Clouds 29 1016 74 10000 7.72 210 18:47 19.04.2021
104 Clouds 29 1016 74 10000 7.72 210 18:24 19.04.2021
105 Clouds 29 1016 70 10000 7.72 200 17:55 19.04.2021
106 Clouds 29 1016 70 10000 7.72 200 17:30 19.04.2021
107 Clear 28 1016 74 10000 6.17 200 16:58 19.04.2021
108 Clear 28 1016 74 10000 6.17 200 16:39 19.04.2021
109 Clear 28 1016 74 10000 6.17 200 16:20 19.04.2021
110 Clear 27 1016 78 10000 5.66 190 15:40 19.04.2021
111 Clear 27 1016 78 10000 5.66 190 15:20 19.04.2021
112 Clear 26 1015 83 10000 4.63 190 14:37 19.04.2021
113 Clear 26 1015 83 10000 4.63 190 14:18 19.04.2021
114 Clouds 25 1015 88 10000 3.6 180 13:36 19.04.2021
115 Clouds 25 1015 88 10000 3.6 180 13:18 19.04.2021
116 Clouds 25 1015 88 10000 3.6 190 12:40 19.04.2021
117 Clouds 25 1015 88 10000 3.6 190 12:20 19.04.2021
118 Clouds 25 1015 94 10000 4.12 200 11:52 19.04.2021
119 Clouds 25 1015 94 10000 4.12 200 11:21 19.04.2021
120 Clouds 25 1015 94 10000 3.6 200 10:45 19.04.2021
121 Clouds 25 1015 94 10000 3.6 200 10:20 19.04.2021
122 Clouds 25 1016 94 10000 2.06 190 09:48 19.04.2021
123 Clouds 25 1016 94 10000 2.06 190 09:27 19.04.2021
124 Clouds 25 1016 94 10000 2.57 190 08:54 19.04.2021
125 Clouds 25 1016 94 10000 2.57 190 08:24 19.04.2021
126 Clouds 26 1017 89 10000 5.14 300 07:45 19.04.2021
127 Rain 26 1017 89 10000 5.14 300 07:18 19.04.2021
128 Clouds 25 1016 88 10000 3.6 160 05:43 19.04.2021
129 Clouds 26 1015 83 10000 4.12 150 02:34 19.04.2021
130 Clouds 28 1015 74 10000 3.09 40 00:45 19.04.2021
131 Clouds 30 1015 58 10000 2.57 350 23:22 18.04.2021
132 Clouds 30 1015 58 10000 2.57 350 22:58 18.04.2021
133 Clouds 30 1015 58 10000 2.57 350 22:40 18.04.2021
134 Clouds 30 1015 58 10000 2.57 350 22:22 18.04.2021
135 Clouds 29 1015 65 10000 1.54 0 21:29 18.04.2021
136 Clouds 31 1015 62 10000 4.12 290 20:55 18.04.2021
137 Clouds 31 1015 62 10000 4.12 290 20:55 18.04.2021
138 Clouds 31 1015 62 10000 4.12 290 20:37 18.04.2021
139 Clouds 31 1015 62 10000 4.12 290 20:19 18.04.2021
140 Clouds 30 1016 58 10000 3.6 300 19:41 18.04.2021
141 Clouds 30 1016 58 10000 3.6 300 19:21 18.04.2021
142 Clouds 30 1016 62 10000 4.12 230 18:45 18.04.2021
143 Clouds 30 1016 62 10000 4.12 230 18:25 18.04.2021
144 Clouds 29 1017 58 10000 3.6 230 17:46 18.04.2021
145 Clouds 29 1017 58 10000 3.6 230 17:27 18.04.2021
146 Clouds 28 1016 74 10000 4.12 220 16:47 18.04.2021
147 Clouds 28 1016 74 10000 4.12 220 16:29 18.04.2021
148 Clear 27 1016 78 10000 3.6 220 15:46 18.04.2021
149 Clear 27 1016 78 10000 3.6 220 15:27 18.04.2021
150 Clouds 25 1016 94 10000 2.57 210 14:52 18.04.2021
151 Clouds 25 1016 94 10000 2.57 210 14:23 18.04.2021
152 Clouds 24 1016 94 10000 2.06 210 13:56 18.04.2021
153 Clouds 24 1016 94 10000 2.06 210 13:34 18.04.2021
154 Clouds 24 1015 94 10000 2.06 210 12:51 18.04.2021
155 Clouds 24 1015 94 10000 2.06 210 12:29 18.04.2021
156 Clouds 24 1015 94 10000 1.54 230 11:44 18.04.2021
157 Clouds 24 1015 94 10000 1.54 230 11:21 18.04.2021
158 Clouds 24 1015 94 10000 2.06 220 10:48 18.04.2021
159 Clouds 24 1015 94 10000 2.06 220 10:23 18.04.2021
160 Clouds 24 1015 94 10000 1.54 260 09:53 18.04.2021
161 Clouds 24 1015 94 10000 1.54 260 09:34 18.04.2021
162 Clouds 23 1014 94 10000 1.03 0 08:57 18.04.2021
163 Clouds 23 1014 94 10000 1.03 0 08:35 18.04.2021
164 Clouds 24 1015 88 10000 1.54 200 07:58 18.04.2021
165 Clouds 24 1015 88 10000 1.54 200 07:38 18.04.2021
166 Clouds 25 1015 83 10000 1.54 60 05:42 18.04.2021
167 Clouds 25 1015 83 10000 1.54 60 05:24 18.04.2021
168 Clouds 26 1014 83 10000 1.54 10 02:39 18.04.2021
169 Clouds 26 1014 83 10000 1.54 10 02:39 18.04.2021
170 Clouds 26 1014 83 10000 1.54 10 02:20 18.04.2021
171 Clouds 29 1013 61 10000 3.6 210 00:37 18.04.2021
172 Clear 29 1013 65 10000 5.66 210 23:37 17.04.2021
173 Clear 30 1013 58 10000 6.17 210 22:51 17.04.2021
174 Clear 30 1013 58 10000 6.17 210 22:31 17.04.2021
175 Clear 30 1014 58 10000 5.14 210 21:50 17.04.2021
176 Clear 30 1014 58 10000 5.14 210 21:28 17.04.2021
177 Clouds 31 1015 51 10000 4.63 220 20:47 17.04.2021
178 Clouds 31 1015 51 10000 4.63 220 20:27 17.04.2021
179 Clouds 30 1015 58 10000 5.14 220 19:44 17.04.2021
180 Clouds 30 1015 58 10000 5.14 220 19:21 17.04.2021
181 Clouds 28 1015 69 10000 6.17 210 18:55 17.04.2021
182 Clouds 28 1015 69 10000 6.17 210 18:28 17.04.2021
183 Clouds 28 1015 74 10000 7.72 210 17:56 17.04.2021
184 Clouds 28 1015 74 10000 7.72 210 17:38 17.04.2021
185 Clouds 27 1015 74 10000 7.72 210 16:42 17.04.2021
186 Clouds 27 1015 74 10000 7.72 210 16:24 17.04.2021
187 Clear 26 1014 78 10000 5.66 210 15:38 17.04.2021
188 Rain 25 1014 83 10000 5.14 210 14:49 17.04.2021
189 Clouds 25 1014 83 10000 5.14 210 14:29 17.04.2021
190 Clear 23 1014 83 10000 3.6 210 13:45 17.04.2021
191 Rain 23 1014 83 10000 3.6 210 13:18 17.04.2021
192 Clear 23 1013 88 10000 4.12 210 12:35 17.04.2021
193 Clear 23 1013 88 10000 4.63 200 11:58 17.04.2021
194 Clear 23 1013 88 10000 4.63 200 11:38 17.04.2021
195 Clear 23 1013 88 10000 4.63 200 11:19 17.04.2021
196 Clear 22 1013 88 10000 2.57 200 10:39 17.04.2021
197 Clear 22 1013 88 10000 2.57 190 09:51 17.04.2021
198 Clear 22 1013 88 10000 2.57 190 09:51 17.04.2021
199 Clear 22 1013 88 10000 2.06 190 08:55 17.04.2021
200 Clear 22 1013 88 10000 2.06 190 08:33 17.04.2021
201 Clear 22 1013 88 10000 2.06 190 08:33 17.04.2021
202 Clear 22 1013 88 10000 2.57 170 07:51 17.04.2021
203 Clear 23 1014 83 10000 1.54 180 06:26 17.04.2021
204 Clouds 24 1014 78 10000 3.09 190 03:47 17.04.2021
205 Clear 25 1012 69 10000 3.71 154 00:58 17.04.2021
206 Clouds 27 1012 61 10000 4.12 150 00:37 17.04.2021
207 Clouds 27 1012 61 10000 4.12 150 00:19 17.04.2021
208 Clouds 27 1012 61 10000 4.12 150 23:35 16.04.2021
209 Clouds 27 1013 61 10000 4.12 160 22:52 16.04.2021
210 Clouds 27 1013 61 10000 4.12 160 22:25 16.04.2021
211 Clouds 28 1013 57 10000 3.6 180 21:57 16.04.2021
212 Clouds 28 1013 57 10000 3.6 180 21:39 16.04.2021
213 Clouds 28 1014 57 10000 3.09 240 20:56 16.04.2021
214 Clouds 28 1014 57 10000 3.09 240 20:37 16.04.2021
215 Clouds 27 1014 61 10000 3.09 220 19:58 16.04.2021
216 Clouds 27 1014 61 10000 3.09 220 19:40 16.04.2021
217 Clouds 27 1014 61 10000 3.09 220 19:18 16.04.2021
218 Clouds 27 1015 61 10000 3.6 230 18:25 16.04.2021
219 Clouds 26 1015 61 10000 4.63 220 17:48 16.04.2021
220 Clouds 26 1015 61 10000 4.63 220 17:19 16.04.2021
221 Clouds 26 1015 65 10000 4.63 230 16:44 16.04.2021
222 Clouds 26 1015 65 10000 4.63 230 16:26 16.04.2021
223 Clouds 25 1015 65 10000 3.6 230 15:54 16.04.2021
224 Clouds 25 1015 65 10000 3.6 230 15:29 16.04.2021
225 Clouds 23 1015 73 10000 1.03 0 14:43 16.04.2021
226 Clouds 23 1015 73 10000 1.03 0 14:20 16.04.2021
227 Clouds 21 1014 88 10000 1.54 280 13:55 16.04.2021
228 Clouds 21 1014 88 10000 1.54 280 13:22 16.04.2021
229 Clouds 21 1013 88 10000 2.57 230 12:53 16.04.2021
230 Clouds 21 1013 88 10000 2.57 230 12:33 16.04.2021
231 Clouds 21 1013 83 10000 2.06 240 11:58 16.04.2021
232 Clouds 21 1013 83 10000 2.06 240 11:38 16.04.2021
233 Clouds 21 1013 83 10000 2.06 240 11:19 16.04.2021
234 Clouds 21 1013 83 10000 2.06 250 10:40 16.04.2021
235 Clouds 21 1013 83 10000 2.06 250 10:19 16.04.2021
236 Clouds 22 1014 78 10000 1.54 250 09:43 16.04.2021
237 Clouds 22 1014 78 10000 1.54 250 09:20 16.04.2021
238 Clouds 23 1014 78 10000 2.06 200 08:42 16.04.2021
239 Clouds 23 1014 78 10000 2.06 200 08:18 16.04.2021
240 Clouds 23 1014 78 10000 1.54 190 07:37 16.04.2021
241 Clouds 22 1015 78 10000 1.54 190 06:59 16.04.2021
242 Clouds 22 1015 78 10000 1.54 190 06:24 16.04.2021
243 Clouds 23 1016 73 10000 1.03 0 04:23 16.04.2021
244 Clouds 24 1014 64 10000 2.57 180 01:37 16.04.2021
245 Clear 25 1014 61 10000 3.6 170 00:41 16.04.2021
246 Clear 25 1014 61 10000 3.6 170 00:20 16.04.2021
247 Clouds 26 1014 57 10000 3.6 170 23:42 15.04.2021
248 Clouds 26 1014 57 10000 3.6 170 23:23 15.04.2021
249 Clouds 26 1015 57 10000 4.63 200 22:40 15.04.2021
250 Clouds 26 1015 57 10000 4.63 200 22:22 15.04.2021
251 Clouds 25 1015 61 10000 5.14 170 21:42 15.04.2021
252 Clouds 25 1015 61 10000 5.14 170 21:22 15.04.2021
253 Clouds 26 1015 61 10000 4.12 190 20:45 15.04.2021
254 Clouds 26 1015 61 10000 4.12 190 20:24 15.04.2021
255 Clouds 26 1016 57 10000 5.66 160 19:45 15.04.2021
256 Clouds 26 1016 57 10000 5.66 160 19:27 15.04.2021
257 Clouds 24 1017 60 10000 4.12 170 18:43 15.04.2021
258 Clouds 24 1017 60 10000 4.12 170 18:21 15.04.2021
259 Clouds 22 1017 67 10000 3.74 124 17:55 15.04.2021
260 Clouds 25 1017 57 10000 3.6 140 17:36 15.04.2021
261 Clouds 25 1017 57 10000 3.6 140 16:58 15.04.2021
262 Clouds 22 1017 66 10000 3.72 119 16:40 15.04.2021
263 Clouds 23 1018 64 10000 2.06 110 16:21 15.04.2021
264 Clouds 23 1018 64 10000 2.06 110 15:45 15.04.2021
265 Clouds 23 1018 64 10000 2.06 110 15:45 15.04.2021
266 Clouds 23 1018 64 10000 2.06 110 15:25 15.04.2021
267 Clouds 19 1018 82 10000 0.51 0 14:41 15.04.2021
268 Clouds 19 1018 82 10000 0.51 0 14:22 15.04.2021
269 Clouds 18 1017 88 10000 0.51 0 13:42 15.04.2021
270 Clouds 18 1017 88 10000 0.51 0 13:18 15.04.2021
271 Clouds 18 1017 88 10000 1.03 0 12:40 15.04.2021
272 Clouds 18 1017 88 10000 1.03 0 12:21 15.04.2021
273 Clouds 18 1017 88 10000 1.03 0 12:21 15.04.2021
274 Clouds 18 1017 88 10000 4.18 87 11:45 15.04.2021
275 Clouds 18 1017 88 10000 4.03 78 11:23 15.04.2021
276 Clouds 19 1017 82 10000 4.03 78 10:49 15.04.2021
277 Clouds 19 1017 82 10000 4.09 73 10:27 15.04.2021
278 Clouds 19 1017 82 10000 1.03 0 09:46 15.04.2021
279 Clouds 19 1017 82 10000 1.03 0 09:18 15.04.2021
280 Clouds 19 1018 82 10000 1.54 90 08:42 15.04.2021
281 Clouds 20 1019 77 10000 2.06 90 07:52 15.04.2021
282 Clouds 20 1019 77 10000 2.06 90 07:22 15.04.2021
283 Clouds 22 1019 68 10000 2.57 70 06:39 15.04.2021
284 Clouds 22 1019 68 10000 2.57 70 06:20 15.04.2021
285 Clouds 22 1019 73 10000 3.6 70 04:51 15.04.2021
286 Clouds 25 1018 57 10000 5.66 60 00:54 15.04.2021
287 Clouds 25 1018 61 10000 5.66 70 23:40 14.04.2021
288 Clouds 25 1018 61 10000 5.66 70 23:19 14.04.2021
289 Clouds 26 1018 61 10000 5.14 80 22:43 14.04.2021
290 Clouds 26 1018 61 10000 5.14 80 22:25 14.04.2021
291 Clouds 26 1019 57 10000 5.66 50 21:44 14.04.2021
292 Clouds 26 1019 57 10000 5.66 50 21:26 14.04.2021
293 Clouds 25 1020 57 10000 5.66 80 20:56 14.04.2021
294 Clouds 25 1020 57 10000 5.66 80 20:33 14.04.2021
295 Clouds 25 1021 57 10000 5.66 70 19:51 14.04.2021
296 Clouds 25 1021 57 10000 5.66 70 19:20 14.04.2021
297 Clouds 25 1021 57 10000 6.17 60 18:57 14.04.2021
298 Clouds 25 1021 57 10000 6.17 60 18:22 14.04.2021
299 Clouds 25 1021 57 10000 6.17 60 17:58 14.04.2021
300 Clouds 25 1021 57 10000 6.17 60 17:58 14.04.2021
301 Clouds 25 1021 57 10000 6.17 60 17:25 14.04.2021
302 Clouds 24 1021 60 10000 6.69 60 16:54 14.04.2021
303 Clouds 24 1021 60 10000 6.69 60 16:26 14.04.2021
304 Clouds 24 1020 64 10000 5.66 60 15:44 14.04.2021
305 Clouds 24 1020 64 10000 5.66 60 15:26 14.04.2021
306 Clouds 23 1020 68 10000 4.12 60 14:51 14.04.2021
307 Clouds 23 1020 68 10000 4.12 60 14:27 14.04.2021
308 Clouds 23 1019 68 10000 4.63 60 13:58 14.04.2021
309 Clouds 23 1019 68 10000 4.63 60 13:37 14.04.2021
310 Clouds 23 1018 73 10000 5.14 60 12:39 14.04.2021
311 Clouds 23 1018 78 10000 4.12 60 11:44 14.04.2021
312 Clouds 23 1018 78 10000 4.12 60 11:25 14.04.2021
313 Clouds 23 1018 78 10000 4.63 60 10:55 14.04.2021
314 Clouds 23 1018 78 10000 4.63 60 10:33 14.04.2021
315 Clouds 23 1017 78 10000 4.12 50 09:42 14.04.2021
316 Clouds 23 1017 78 10000 4.12 50 09:21 14.04.2021
317 Clouds 24 1018 78 10000 3.6 40 08:46 14.04.2021
318 Clouds 24 1018 78 10000 3.6 40 08:22 14.04.2021
319 Clouds 24 1018 73 10000 3.09 30 07:25 14.04.2021
320 Clouds 24 1018 73 10000 3.6 10 06:26 14.04.2021
321 Clear 24 1018 64 10000 3.6 360 04:53 14.04.2021
322 Clear 25 1016 53 10000 3.09 350 01:52 14.04.2021
323 Clear 26 1016 47 10000 3.09 10 00:40 14.04.2021
324 Clear 27 1016 47 10000 3.6 20 23:55 13.04.2021
325 Clear 27 1016 47 10000 3.6 20 23:30 13.04.2021
326 Clear 27 1017 36 10000 3.09 10 22:43 13.04.2021
327 Clear 27 1017 36 10000 3.09 10 22:19 13.04.2021
328 Clear 27 1017 44 10000 3.09 30 21:46 13.04.2021
329 Clear 27 1017 44 10000 3.09 30 21:28 13.04.2021
330 Clouds 26 1018 53 10000 4.12 30 20:43 13.04.2021
331 Clouds 26 1018 53 10000 4.12 30 20:23 13.04.2021
332 Clouds 26 1019 53 10000 3.6 30 19:48 13.04.2021
333 Clouds 26 1019 53 10000 3.6 30 19:24 13.04.2021
334 Clouds 25 1018 57 10000 4.12 40 18:44 13.04.2021
335 Clouds 25 1018 57 10000 4.12 40 18:23 13.04.2021
336 Clouds 25 1018 100 10000 5.14 40 17:37 13.04.2021
337 Clouds 25 1018 100 10000 5.14 40 17:18 13.04.2021
338 Clouds 24 1018 57 10000 4.63 40 16:44 13.04.2021
339 Clouds 24 1018 57 10000 4.63 40 16:21 13.04.2021
340 Clouds 24 1017 60 10000 4.63 40 15:50 13.04.2021
341 Clouds 24 1017 60 10000 4.63 40 15:30 13.04.2021
342 Clear 24 1017 57 10000 7.56 25 14:47 13.04.2021
343 Clouds 22 1016 73 10000 4.12 20 14:20 13.04.2021
344 Clouds 22 1016 73 10000 4.12 20 13:45 13.04.2021
345 Clouds 22 1016 73 10000 4.12 20 13:24 13.04.2021
346 Clouds 22 1015 73 10000 4.12 30 12:57 13.04.2021
347 Clouds 22 1015 73 10000 4.12 30 12:30 13.04.2021
348 Clear 22 1014 78 10000 3.6 30 11:56 13.04.2021
349 Clear 22 1014 78 10000 3.6 30 11:30 13.04.2021
350 Clear 22 1014 78 10000 3.6 30 11:30 13.04.2021
351 Clear 22 1013 78 10000 3.6 30 10:53 13.04.2021
352 Clouds 22 1014 73 10000 3.6 20 10:21 13.04.2021
353 Clouds 22 1014 73 10000 3.6 20 10:21 13.04.2021
354 Clear 24 1013 62 10000 6.42 10 09:57 13.04.2021
355 Clouds 24 1014 73 10000 3.09 30 09:36 13.04.2021
356 Clouds 24 1014 73 10000 3.09 30 08:56 13.04.2021
357 Clouds 24 1014 73 10000 3.09 30 08:38 13.04.2021
358 Clouds 24 1014 73 10000 3.09 30 08:20 13.04.2021
359 Clouds 24 1014 73 10000 3.09 30 07:36 13.04.2021
360 Clouds 24 1014 78 10000 4.12 30 06:31 13.04.2021
361 Clouds 24 1014 83 10000 4.12 10 04:47 13.04.2021
362 Clouds 25 1012 83 10000 5.14 20 01:39 13.04.2021
363 Clouds 26 1012 78 10000 5.14 360 00:19 13.04.2021
364 Clouds 26 1011 78 10000 4.12 360 23:44 12.04.2021
365 Clouds 26 1011 78 10000 4.12 360 23:24 12.04.2021
366 Clouds 27 1011 74 10000 4.63 350 22:38 12.04.2021
367 Clouds 28 1011 65 10000 3.09 320 21:57 12.04.2021
368 Clouds 28 1011 65 10000 3.09 320 21:38 12.04.2021
369 Clouds 28 1011 65 10000 3.09 320 21:19 12.04.2021
370 Clouds 28 1011 69 10000 1.03 0 20:38 12.04.2021
371 Clouds 28 1011 69 10000 1.03 0 20:20 12.04.2021
372 Clouds 28 1011 69 10000 1.03 0 20:20 12.04.2021
373 Clouds 27 1012 69 10000 3.6 310 19:43 12.04.2021
374 Clouds 27 1012 69 10000 3.6 310 19:22 12.04.2021
375 Clouds 27 1013 74 10000 3.6 250 18:56 12.04.2021
376 Clouds 27 1013 74 10000 3.6 250 18:37 12.04.2021
377 Clouds 27 1013 74 10000 3.6 250 18:18 12.04.2021
378 Clouds 25 1013 83 10000 5.66 230 17:42 12.04.2021
379 Clouds 25 1013 83 10000 5.66 230 17:20 12.04.2021
380 Clouds 25 1012 83 10000 7.2 210 16:43 12.04.2021
381 Clouds 25 1012 83 10000 7.2 210 16:24 12.04.2021
382 Clouds 24 1012 83 10000 5.66 220 15:47 12.04.2021
383 Clouds 24 1012 83 10000 5.66 220 15:21 12.04.2021
384 Clouds 23 1011 88 10000 6.17 210 14:49 12.04.2021
385 Clouds 23 1011 88 10000 6.17 210 14:29 12.04.2021
386 Clouds 23 1011 88 10000 5.14 210 13:43 12.04.2021
387 Clouds 23 1011 88 10000 5.14 210 13:21 12.04.2021
388 Clouds 22 1012 88 10000 3.6 210 12:44 12.04.2021
389 Clouds 22 1012 88 10000 3.6 210 12:23 12.04.2021
390 Clouds 22 1011 94 10000 4.12 190 11:51 12.04.2021
391 Clouds 21 1011 94 10000 3.6 180 10:54 12.04.2021
392 Clouds 21 1011 94 10000 3.6 180 10:29 12.04.2021
393 Clouds 21 1012 94 10000 1.54 280 09:59 12.04.2021
394 Clouds 21 1012 94 10000 1.54 280 09:40 12.04.2021
395 Clear 21 1012 94 10000 0.51 0 08:59 12.04.2021
396 Clear 21 1012 94 10000 0.51 0 08:30 12.04.2021
397 Clouds 21 1012 94 10000 4.12 140 07:31 12.04.2021
398 Rain 22 1012 83 10000 5.66 90 06:49 12.04.2021
399 Clouds 21 1012 88 10000 9.26 60 05:50 12.04.2021
400 Rain 20 1014 94 2000 9.77 330 03:58 12.04.2021
401 Clouds 27 1010 74 10000 5.66 190 00:46 12.04.2021
402 Clouds 27 1010 74 10000 5.66 190 00:23 12.04.2021
403 Clouds 27 1009 74 10000 8.75 180 23:44 11.04.2021
404 Clouds 27 1009 74 10000 8.75 180 23:23 11.04.2021
405 Clouds 27 1009 74 10000 8.75 180 22:39 11.04.2021
406 Clouds 27 1009 74 10000 8.75 180 22:20 11.04.2021
407 Clouds 27 1010 74 10000 8.75 190 21:45 11.04.2021
408 Clouds 27 1010 74 10000 8.75 190 21:26 11.04.2021
409 Clouds 29 1011 65 10000 8.23 180 20:49 11.04.2021
410 Clouds 29 1011 65 10000 8.23 180 20:25 11.04.2021
411 Clouds 27 1012 69 10000 8.75 210 19:44 11.04.2021
412 Clouds 27 1012 69 10000 8.75 210 19:21 11.04.2021
413 Clouds 27 1012 69 10000 8.75 200 18:58 11.04.2021
414 Clouds 27 1012 69 10000 8.75 200 18:40 11.04.2021
415 Clouds 27 1012 69 10000 8.75 200 18:22 11.04.2021
416 Clouds 27 1012 69 10000 9.26 190 17:43 11.04.2021
417 Clouds 27 1012 69 10000 9.26 190 17:24 11.04.2021
418 Clouds 27 1012 69 10000 8.75 180 16:46 11.04.2021
419 Clouds 27 1012 69 10000 8.75 180 16:22 11.04.2021
420 Clouds 25 1012 78 10000 7.2 180 15:47 11.04.2021
421 Clouds 25 1012 78 10000 7.2 180 15:26 11.04.2021
422 Clouds 25 1012 73 10000 5.66 180 14:52 11.04.2021
423 Clouds 25 1012 73 10000 5.66 180 14:30 11.04.2021
424 Clouds 23 1012 78 10000 6.17 190 13:47 11.04.2021
425 Clouds 23 1012 78 10000 6.17 190 13:28 11.04.2021
426 Clouds 23 1012 73 10000 5.66 180 12:44 11.04.2021
427 Clouds 23 1012 73 10000 5.66 180 12:20 11.04.2021
428 Clouds 23 1013 73 10000 5.66 180 11:48 11.04.2021
429 Clouds 23 1013 73 10000 5.66 180 11:22 11.04.2021
430 Clouds 23 1013 73 10000 5.14 180 10:47 11.04.2021
431 Clouds 23 1013 73 10000 5.14 180 10:26 11.04.2021
432 Clouds 23 1014 78 10000 4.63 170 09:53 11.04.2021
433 Clouds 23 1014 78 10000 4.63 170 09:32 11.04.2021
434 Clouds 22 1014 83 10000 3.6 170 08:42 11.04.2021
435 Clouds 22 1015 83 10000 3.6 150 07:59 11.04.2021
436 Clouds 22 1015 83 10000 3.6 150 07:21 11.04.2021
437 Clouds 24 1014 71 10000 7.53 142 05:59 11.04.2021
438 Clouds 23 1015 78 10000 4.63 160 05:37 11.04.2021
439 Clouds 23 1015 78 10000 4.63 160 05:18 11.04.2021
440 Clouds 23 1015 78 10000 4.63 160 04:33 11.04.2021
441 Clouds 26 1013 65 10000 8.23 170 01:31 11.04.2021
442 Clouds 26 1013 65 10000 8.23 170 00:32 11.04.2021
443 Clouds 27 1014 61 10000 7.72 170 23:46 10.04.2021
444 Clouds 27 1015 61 10000 8.75 150 22:58 10.04.2021
445 Clouds 24 1014 68 10000 7.28 143 22:30 10.04.2021
446 Clouds 24 1014 68 10000 7.3 142 21:54 10.04.2021
447 Clouds 27 1016 61 10000 7.72 170 21:32 10.04.2021
448 Clouds 27 1016 61 10000 7.72 170 20:57 10.04.2021
449 Clouds 27 1016 61 10000 7.72 170 20:38 10.04.2021
450 Clouds 27 1016 61 10000 7.72 170 20:19 10.04.2021
451 Clouds 27 1017 61 10000 7.72 170 19:42 10.04.2021
452 Clouds 27 1017 61 10000 7.72 170 19:24 10.04.2021
453 Clouds 27 1017 57 10000 7.72 160 18:42 10.04.2021
454 Clouds 27 1017 57 10000 7.72 160 18:24 10.04.2021
455 Clouds 26 1016 61 10000 6.17 170 17:36 10.04.2021
456 Clouds 24 1017 66 10000 6.73 139 16:50 10.04.2021
457 Clouds 24 1017 69 10000 5.14 160 16:25 10.04.2021
458 Clouds 24 1017 69 10000 5.14 160 15:52 10.04.2021
459 Clouds 23 1017 73 10000 2.57 160 14:57 10.04.2021
460 Clouds 23 1017 73 10000 2.57 160 14:37 10.04.2021
461 Clouds 24 1017 67 10000 5.82 137 13:58 10.04.2021
462 Clouds 20 1016 83 10000 2.06 160 13:36 10.04.2021
463 Clouds 20 1016 83 10000 2.06 160 12:43 10.04.2021
464 Clouds 20 1016 83 10000 1.54 120 12:20 10.04.2021
465 Clouds 20 1016 83 10000 1.54 120 11:46 10.04.2021
466 Clouds 24 1015 67 10000 6.82 140 11:23 10.04.2021
467 Clouds 24 1015 67 10000 6.82 140 10:51 10.04.2021
468 Clouds 24 1015 67 10000 6.82 140 10:31 10.04.2021
469 Clouds 23 1016 68 10000 6.74 136 09:44 10.04.2021
470 Clouds 23 1016 67 10000 7.31 131 09:19 10.04.2021
471 Clouds 23 1016 67 10000 7.31 131 08:34 10.04.2021
472 Clouds 24 1016 66 10000 7.53 124 07:56 10.04.2021
473 Clouds 24 1017 65 10000 7.16 119 07:26 10.04.2021
474 Clouds 22 1019 78 10000 2.06 90 06:29 10.04.2021
475 Clouds 22 1019 78 10000 2.06 90 05:34 10.04.2021
476 Clouds 23 1018 68 10000 2.57 100 03:41 10.04.2021
477 Clouds 23 1018 100 10000 3.6 140 02:42 10.04.2021
478 Clouds 25 1017 61 10000 4.63 160 01:27 10.04.2021
479 Clouds 25 1017 61 10000 4.63 180 00:32 10.04.2021
480 Clouds 25 1017 61 10000 4.63 180 00:32 10.04.2021
481 Clouds 25 1017 61 10000 4.63 180 23:53 09.04.2021
482 Clouds 25 1017 61 10000 4.63 180 23:30 09.04.2021
483 Clouds 26 1018 53 10000 7.2 160 22:53 09.04.2021
484 Clouds 26 1018 53 10000 7.2 160 22:34 09.04.2021
485 Clouds 27 1018 50 10000 6.69 150 21:40 09.04.2021
486 Clouds 27 1018 50 10000 6.69 150 21:22 09.04.2021
487 Clouds 27 1019 50 10000 6.17 160 20:46 09.04.2021
488 Clouds 27 1019 50 10000 6.17 160 20:24 09.04.2021
489 Clouds 23 1018 63 10000 6.09 109 19:58 09.04.2021
490 Clouds 23 1018 63 10000 6.09 109 19:40 09.04.2021
491 Clouds 23 1019 62 10000 5.88 106 19:22 09.04.2021
492 Clouds 23 1019 62 10000 5.88 106 18:42 09.04.2021
493 Clouds 23 1019 62 10000 5.51 104 18:23 09.04.2021
494 Clouds 23 1019 62 10000 5.51 104 17:47 09.04.2021
495 Clouds 25 1019 53 10000 4.12 130 17:29 09.04.2021
496 Clouds 25 1019 53 10000 4.12 130 16:44 09.04.2021
497 Clouds 25 1019 53 10000 4.12 130 16:23 09.04.2021
498 Clouds 24 1018 60 10000 3.09 100 15:43 09.04.2021
499 Clouds 24 1018 60 10000 3.09 100 15:23 09.04.2021
500 Clouds 19 1018 82 10000 1.03 0 14:46 09.04.2021
501 Clouds 19 1018 82 10000 1.03 0 14:21 09.04.2021
502 Clouds 17 1017 88 10000 1.03 0 13:43 09.04.2021
503 Clouds 17 1017 88 10000 1.03 0 13:22 09.04.2021
504 Clouds 17 1017 88 10000 1.03 0 12:47 09.04.2021
505 Clouds 17 1017 88 10000 1.54 100 11:59 09.04.2021
506 Clouds 17 1017 88 10000 1.54 100 11:30 09.04.2021
507 Clouds 16 1016 88 10000 1.03 70 10:56 09.04.2021
508 Clouds 16 1016 88 10000 1.03 70 10:37 09.04.2021
509 Clouds 17 1016 88 10000 1.54 150 09:55 09.04.2021
510 Clouds 17 1016 88 10000 1.54 150 09:27 09.04.2021
511 Clouds 19 1017 82 10000 0.51 0 08:55 09.04.2021
512 Clouds 19 1017 82 10000 0.51 0 08:25 09.04.2021
513 Clouds 19 1018 82 10000 1.03 0 07:21 09.04.2021
514 Clouds 19 1018 77 10000 0.51 0 06:21 09.04.2021
515 Clear 20 1018 73 10000 2.06 100 03:56 09.04.2021
516 Clear 20 1018 73 10000 2.06 100 03:38 09.04.2021
517 Clouds 24 1017 57 10000 4.12 150 00:38 09.04.2021
518 Clouds 24 1017 57 10000 4.12 150 00:20 09.04.2021
519 Clouds 25 1017 53 10000 4.12 170 23:31 08.04.2021
520 Clouds 26 1017 50 10000 4.12 140 22:47 08.04.2021
521 Clouds 26 1017 50 10000 4.12 140 22:27 08.04.2021
522 Clouds 25 1018 53 10000 4.63 160 21:58 08.04.2021
523 Clouds 25 1018 53 10000 4.63 160 21:38 08.04.2021
524 Clouds 25 1018 53 10000 4.63 160 21:20 08.04.2021
525 Clouds 25 1018 50 10000 3.6 170 20:53 08.04.2021
526 Clouds 25 1018 50 10000 3.6 170 20:34 08.04.2021
527 Clouds 25 1018 50 10000 4.12 150 19:57 08.04.2021
528 Clouds 25 1018 50 10000 4.12 150 19:24 08.04.2021
529 Clouds 25 1019 50 10000 5.14 170 18:56 08.04.2021
530 Clouds 25 1019 50 10000 5.14 170 18:24 08.04.2021
531 Clouds 25 1019 50 10000 4.12 130 17:52 08.04.2021
532 Clouds 25 1019 50 10000 4.12 130 17:26 08.04.2021
533 Clouds 23 1018 53 10000 5.14 130 16:57 08.04.2021
534 Clouds 23 1018 53 10000 5.14 130 16:36 08.04.2021
535 Clouds 23 1018 53 10000 5.14 130 16:36 08.04.2021
536 Clouds 22 1018 60 10000 3.09 130 15:55 08.04.2021
537 Clouds 22 1018 60 10000 3.09 130 15:36 08.04.2021
538 Clouds 22 1018 60 10000 3.09 130 15:18 08.04.2021
539 Clouds 20 1018 68 10000 1.54 100 14:39 08.04.2021
540 Clouds 20 1018 68 10000 1.54 100 14:19 08.04.2021
541 Clouds 15 1018 88 10000 1.54 80 13:43 08.04.2021
542 Clouds 15 1018 88 10000 1.54 80 13:23 08.04.2021
543 Clouds 15 1017 94 10000 2.06 60 12:45 08.04.2021
544 Clouds 15 1017 94 10000 2.06 60 12:26 08.04.2021
545 Clouds 16 1017 82 10000 1.03 0 11:47 08.04.2021
546 Clouds 16 1017 82 10000 1.03 0 11:20 08.04.2021
547 Clear 17 1017 77 10000 4.3 107 10:43 08.04.2021
548 Clear 17 1017 77 10000 4.64 112 10:24 08.04.2021
549 Clear 17 1017 77 10000 0.51 0 09:43 08.04.2021
550 Clear 17 1018 77 10000 1.03 0 08:51 08.04.2021
551 Clear 17 1018 77 10000 1.03 0 08:30 08.04.2021
552 Clear 18 1018 77 10000 2.06 100 07:59 08.04.2021
553 Clear 18 1018 77 10000 2.06 100 07:39 08.04.2021
554 Clear 20 1019 68 10000 2.06 100 04:44 08.04.2021
555 Clear 22 1018 53 10000 4.63 130 01:21 08.04.2021
556 Clear 22 1018 53 10000 4.63 130 01:21 08.04.2021
557 Clear 23 1018 49 10000 4.63 110 00:29 08.04.2021
558 Clouds 24 1018 43 10000 5.14 100 23:45 07.04.2021
559 Clouds 24 1018 43 10000 5.14 100 23:22 07.04.2021
560 Clear 22 1017 57 10000 4.87 79 22:54 07.04.2021
561 Clouds 25 1019 47 10000 6.17 60 22:35 07.04.2021
562 Clouds 25 1019 47 10000 6.17 60 21:47 07.04.2021
563 Clouds 25 1019 47 10000 6.17 60 21:26 07.04.2021
564 Clear 22 1019 57 10000 4.56 74 20:47 07.04.2021
565 Clouds 25 1020 47 10000 6.69 50 20:26 07.04.2021
566 Clouds 25 1020 47 10000 6.69 50 19:46 07.04.2021
567 Clouds 25 1020 47 10000 6.69 50 19:26 07.04.2021
568 Clouds 25 1020 44 10000 4.12 80 18:49 07.04.2021
569 Clouds 25 1020 44 10000 4.12 80 18:21 07.04.2021
570 Clouds 25 1020 47 10000 3.6 90 17:56 07.04.2021
571 Clouds 25 1020 47 10000 3.6 90 17:56 07.04.2021
572 Clouds 25 1020 47 10000 3.6 90 17:37 07.04.2021
573 Clouds 23 1020 53 10000 3.6 100 16:58 07.04.2021
574 Clouds 23 1020 53 10000 3.6 100 16:38 07.04.2021
575 Clouds 23 1020 53 10000 3.6 100 16:19 07.04.2021
576 Clouds 22 1020 56 10000 2.57 130 15:39 07.04.2021
577 Clouds 19 1019 77 10000 4.77 79 14:57 07.04.2021
578 Clouds 19 1019 77 10000 4.77 79 14:32 07.04.2021
579 Clouds 14 1019 88 10000 1.03 0 13:52 07.04.2021
580 Clouds 14 1019 88 10000 1.03 0 13:24 07.04.2021
581 Clouds 14 1018 88 10000 4.59 72 12:53 07.04.2021
582 Clouds 14 1018 88 10000 4.44 72 12:25 07.04.2021
583 Clouds 15 1018 82 10000 4.44 72 11:55 07.04.2021
584 Clouds 15 1018 82 10000 4.55 69 11:26 07.04.2021
585 Clouds 15 1019 82 10000 4.55 69 10:52 07.04.2021
586 Clouds 15 1019 82 10000 4.44 71 10:20 07.04.2021
587 Clouds 15 1019 88 10000 4.44 71 09:42 07.04.2021
588 Clouds 15 1019 88 10000 4.23 76 09:23 07.04.2021
589 Clouds 15 1019 88 10000 4.08 80 08:41 07.04.2021
590 Clouds 15 1019 88 10000 4.11 77 08:18 07.04.2021
591 Clouds 16 1020 82 10000 0.51 0 07:42 07.04.2021
592 Clouds 17 1021 77 10000 1.03 0 07:21 07.04.2021
593 Clouds 17 1021 77 10000 1.03 0 06:24 07.04.2021
594 Clouds 18 1020 77 10000 2.57 110 04:23 07.04.2021
595 Clouds 23 1019 56 10000 4.63 60 00:20 07.04.2021
596 Clouds 24 1019 50 10000 5.14 70 23:46 06.04.2021
597 Clouds 24 1019 50 10000 5.14 70 23:18 06.04.2021
598 Clouds 24 1019 50 10000 5.66 60 22:38 06.04.2021
599 Clouds 24 1019 50 10000 5.66 60 22:18 06.04.2021
600 Clouds 23 1020 53 10000 5.14 80 21:40 06.04.2021
601 Clouds 23 1020 53 10000 5.14 80 21:21 06.04.2021
602 Clouds 23 1021 53 10000 5.66 60 20:51 06.04.2021
603 Clouds 23 1021 53 10000 5.66 60 20:21 06.04.2021
604 Clouds 23 1021 53 10000 4.63 70 19:51 06.04.2021
605 Clouds 23 1021 53 10000 4.63 70 19:33 06.04.2021
606 Clouds 24 1022 50 10000 4.63 70 18:49 06.04.2021
607 Clouds 24 1022 50 10000 4.63 70 18:31 06.04.2021
608 Clouds 23 1021 49 10000 5.66 60 17:53 06.04.2021
609 Clouds 23 1021 49 10000 5.66 60 17:30 06.04.2021
610 Clouds 22 1021 53 10000 5.14 90 16:59 06.04.2021
611 Clouds 22 1021 53 10000 5.14 90 16:39 06.04.2021
612 Clouds 22 1021 56 10000 4.63 110 15:44 06.04.2021
613 Clouds 22 1021 56 10000 4.63 110 15:22 06.04.2021
614 Clouds 19 1021 72 10000 2.06 110 14:39 06.04.2021
615 Clouds 19 1021 72 10000 2.06 110 14:19 06.04.2021
616 Clouds 21 1020 57 10000 5.92 76 13:44 06.04.2021
617 Clouds 15 1019 82 10000 5.67 73 13:25 06.04.2021
618 Clouds 15 1019 82 10000 5.67 73 12:42 06.04.2021
619 Clouds 15 1019 82 10000 5.68 72 12:22 06.04.2021
620 Clouds 15 1019 82 10000 5.68 72 11:52 06.04.2021
621 Clouds 15 1019 82 10000 5.41 76 11:21 06.04.2021
622 Clouds 16 1019 72 10000 5.41 76 10:48 06.04.2021
623 Clouds 16 1019 72 10000 5.19 77 10:29 06.04.2021
624 Clouds 16 1019 72 10000 1.03 0 09:57 06.04.2021
625 Clouds 16 1019 72 10000 1.03 0 09:36 06.04.2021
626 Clouds 17 1020 72 10000 2.06 160 08:45 06.04.2021
627 Clouds 17 1020 72 10000 2.06 160 08:18 06.04.2021
628 Clouds 20 1021 60 10000 2.57 100 06:55 06.04.2021
629 Clouds 20 1021 56 10000 2.57 80 05:40 06.04.2021
630 Clouds 21 1020 56 10000 4.63 110 02:57 06.04.2021
631 Clouds 23 1020 49 10000 5.66 80 00:44 06.04.2021
632 Clouds 23 1020 49 10000 5.66 80 00:21 06.04.2021
633 Clouds 23 1019 49 10000 6.17 70 23:43 05.04.2021
634 Clouds 23 1019 49 10000 6.17 70 23:19 05.04.2021
635 Clouds 23 1020 53 10000 6.17 60 22:48 05.04.2021
636 Clouds 23 1020 53 10000 6.17 60 22:26 05.04.2021
637 Clouds 24 1020 50 10000 6.17 80 21:44 05.04.2021
638 Clouds 24 1020 50 10000 6.17 80 21:21 05.04.2021
639 Clouds 25 1021 47 10000 4.63 70 20:43 05.04.2021
640 Clouds 25 1021 47 10000 4.63 70 20:25 05.04.2021
641 Clouds 23 1021 49 10000 6.17 60 19:43 05.04.2021
642 Clouds 23 1021 49 10000 6.17 60 19:22 05.04.2021
643 Clouds 22 1022 53 10000 6.17 90 18:49 05.04.2021
644 Clouds 22 1022 53 10000 6.17 90 18:31 05.04.2021
645 Clouds 23 1022 49 10000 4.63 70 17:59 05.04.2021
646 Clouds 23 1022 49 10000 4.63 70 17:41 05.04.2021
647 Clouds 23 1022 49 10000 4.63 70 17:19 05.04.2021
648 Clouds 23 1022 49 10000 5.14 70 16:42 05.04.2021
649 Clouds 23 1022 49 10000 5.14 70 16:20 05.04.2021
650 Clouds 22 1022 53 10000 3.6 80 15:50 05.04.2021
651 Clouds 22 1022 53 10000 3.6 80 15:27 05.04.2021
652 Clouds 19 1021 68 10000 1.54 100 14:46 05.04.2021
653 Clouds 19 1021 68 10000 1.54 100 14:25 05.04.2021
654 Clouds 18 1021 68 10000 2.06 80 13:31 05.04.2021
655 Clouds 18 1021 68 10000 2.06 80 13:31 05.04.2021
656 Clouds 18 1021 68 10000 2.06 80 13:31 05.04.2021
657 Clouds 17 1021 72 10000 2.57 80 12:48 05.04.2021
658 Clouds 17 1021 72 10000 2.57 80 12:26 05.04.2021
659 Clouds 18 1020 72 10000 2.06 80 11:54 05.04.2021
660 Clouds 18 1020 72 10000 2.06 80 11:33 05.04.2021
661 Clouds 21 1020 57 10000 6.69 53 10:57 05.04.2021
662 Clouds 17 1020 77 10000 2.57 100 10:37 05.04.2021
663 Clouds 17 1020 77 10000 2.57 100 09:56 05.04.2021
664 Clouds 17 1020 77 10000 2.57 100 09:37 05.04.2021
665 Clouds 17 1020 77 10000 2.57 100 09:19 05.04.2021
666 Clouds 18 1021 68 10000 3.09 100 08:40 05.04.2021
667 Clouds 18 1021 68 10000 3.09 100 08:19 05.04.2021
668 Clouds 20 1021 60 10000 4.63 80 07:34 05.04.2021
669 Clouds 21 1022 52 10000 4.63 90 04:23 05.04.2021
670 Clouds 22 1021 46 10000 5.66 70 01:35 05.04.2021
671 Clouds 22 1021 49 10000 7.2 60 00:24 05.04.2021
672 Clouds 23 1021 46 10000 6.69 60 23:38 04.04.2021
673 Clouds 23 1021 46 10000 6.69 60 23:18 04.04.2021
674 Clouds 23 1021 46 10000 6.69 60 22:49 04.04.2021
675 Clouds 23 1021 46 10000 6.69 60 22:26 04.04.2021
676 Clouds 23 1022 40 10000 7.2 70 21:23 04.04.2021
677 Clouds 23 1022 46 10000 6.17 70 20:51 04.04.2021
678 Clouds 23 1022 46 10000 6.17 70 20:25 04.04.2021
679 Clouds 23 1023 40 10000 6.69 70 19:43 04.04.2021
680 Clouds 23 1023 40 10000 6.69 70 19:21 04.04.2021
681 Clouds 23 1023 40 10000 6.69 70 19:21 04.04.2021
682 Clouds 22 1024 46 10000 7.2 80 18:56 04.04.2021
683 Clouds 22 1024 46 10000 7.2 80 18:37 04.04.2021
684 Clouds 22 1024 46 10000 7.2 80 18:19 04.04.2021
685 Clouds 22 1024 46 10000 6.17 70 17:25 04.04.2021
686 Clouds 21 1024 56 10000 5.66 60 16:58 04.04.2021
687 Clouds 21 1024 56 10000 5.66 60 16:40 04.04.2021
688 Clouds 20 1024 60 10000 7.2 60 15:56 04.04.2021
689 Clouds 20 1024 60 10000 7.2 60 15:32 04.04.2021
690 Clouds 20 1024 49 10000 4.12 70 14:42 04.04.2021
691 Clouds 20 1024 49 10000 4.12 70 14:24 04.04.2021
692 Clouds 20 1023 52 10000 4.63 70 13:27 04.04.2021
693 Clouds 20 1023 56 10000 4.12 80 12:52 04.04.2021
694 Clouds 20 1023 56 10000 4.12 80 12:28 04.04.2021
695 Clouds 20 1022 60 10000 4.12 80 11:50 04.04.2021
696 Clouds 20 1022 60 10000 4.12 80 11:30 04.04.2021
697 Clouds 19 1022 59 10000 5.66 90 10:54 04.04.2021
698 Clouds 19 1022 59 10000 5.66 90 10:32 04.04.2021
699 Clouds 20 1022 52 10000 6.17 90 09:50 04.04.2021
700 Clouds 20 1022 52 10000 6.17 90 09:23 04.04.2021
701 Clouds 20 1023 60 10000 5.66 70 08:48 04.04.2021
702 Clouds 20 1023 60 10000 5.66 70 08:30 04.04.2021
703 Clouds 20 1024 64 10000 6.69 60 06:40 04.04.2021
704 Clouds 20 1025 52 10000 7.2 90 05:44 04.04.2021
705 Clouds 21 1023 56 10000 7.2 70 02:59 04.04.2021
706 Clouds 21 1023 49 10000 6.69 80 01:18 04.04.2021
707 Clouds 21 1023 52 10000 7.2 80 00:19 04.04.2021
708 Clouds 21 1023 52 10000 8.23 70 23:42 03.04.2021
709 Clouds 22 1023 53 10000 8.23 50 22:58 03.04.2021
710 Clouds 22 1023 53 10000 8.23 50 22:40 03.04.2021
711 Clouds 22 1023 53 10000 8.23 50 22:19 03.04.2021
712 Clouds 22 1023 49 10000 8.23 60 21:46 03.04.2021
713 Clouds 22 1023 49 10000 8.23 60 21:22 03.04.2021
714 Clouds 23 1024 53 10000 8.75 50 20:43 03.04.2021
715 Clouds 23 1024 53 10000 8.75 50 20:24 03.04.2021
716 Clouds 21 1024 52 10000 8.75 50 19:46 03.04.2021
717 Clouds 21 1024 52 10000 8.75 50 19:20 03.04.2021
718 Clouds 22 1024 49 10000 9.26 60 18:46 03.04.2021
719 Clouds 22 1024 49 10000 9.26 60 18:18 03.04.2021
720 Clouds 21 1024 52 10000 8.23 50 17:41 03.04.2021
721 Clouds 21 1024 52 10000 8.23 50 17:21 03.04.2021
722 Clouds 21 1024 52 10000 9.26 50 16:43 03.04.2021
723 Clouds 21 1024 52 10000 9.26 50 16:21 03.04.2021
724 Clouds 21 1024 52 10000 7.72 50 15:46 03.04.2021
725 Clouds 21 1024 52 10000 7.72 50 15:21 03.04.2021
726 Clouds 20 1023 56 10000 5.66 40 14:42 03.04.2021
727 Clouds 20 1023 56 10000 5.66 40 14:20 03.04.2021
728 Clouds 20 1023 52 10000 6.69 50 13:46 03.04.2021
729 Clouds 20 1023 52 10000 6.69 50 13:21 03.04.2021
730 Clouds 20 1022 56 10000 7.72 30 12:47 03.04.2021
731 Clouds 20 1022 56 10000 7.72 30 12:20 03.04.2021
732 Clouds 20 1021 56 10000 6.69 40 11:35 03.04.2021
733 Clouds 19 1021 59 10000 7.2 30 10:50 03.04.2021
734 Clouds 19 1021 59 10000 7.2 30 10:31 03.04.2021
735 Clouds 20 1021 56 10000 7.2 30 09:51 03.04.2021
736 Clouds 20 1021 56 10000 7.2 30 09:28 03.04.2021
737 Clouds 20 1022 56 10000 6.69 40 08:44 03.04.2021
738 Clouds 20 1022 56 10000 6.69 40 08:26 03.04.2021
739 Clouds 20 1022 56 10000 6.69 40 07:28 03.04.2021
740 Clouds 21 1022 60 10000 8.23 30 05:43 03.04.2021
741 Clouds 21 1020 60 10000 8.75 40 03:35 03.04.2021
742 Clouds 22 1019 56 10000 7.2 50 02:38 03.04.2021
743 Clouds 22 1019 53 10000 7.72 40 01:56 03.04.2021
744 Clouds 23 1018 53 10000 8.23 50 00:20 03.04.2021
745 Clouds 24 1018 53 10000 7.72 40 23:47 02.04.2021
746 Clouds 24 1018 53 10000 7.72 40 23:24 02.04.2021
747 Clouds 23 1018 56 10000 7.2 30 22:50 02.04.2021
748 Clouds 23 1018 56 10000 7.2 30 22:32 02.04.2021
749 Clouds 24 1018 57 10000 7.72 30 21:42 02.04.2021
750 Clouds 24 1018 57 10000 7.72 30 21:23 02.04.2021
751 Clouds 22 1018 68 10000 7.72 30 20:48 02.04.2021
752 Clouds 22 1018 68 10000 7.72 30 20:27 02.04.2021
753 Clouds 23 1018 64 10000 7.72 40 19:56 02.04.2021
754 Clouds 23 1018 64 10000 7.72 40 19:37 02.04.2021
755 Clouds 23 1018 64 10000 7.72 40 19:19 02.04.2021
756 Clouds 23 1018 64 10000 6.69 30 18:38 02.04.2021
757 Clouds 23 1018 64 10000 6.69 30 18:19 02.04.2021
758 Clouds 22 1018 73 10000 7.72 30 17:37 02.04.2021
759 Clouds 22 1017 78 10000 7.2 40 16:48 02.04.2021
760 Clouds 22 1016 83 10000 7.2 40 15:54 02.04.2021
761 Clouds 22 1016 83 10000 7.2 40 15:32 02.04.2021
762 Clouds 21 1016 88 10000 8.23 20 14:45 02.04.2021
763 Clouds 21 1016 88 10000 8.23 20 14:21 02.04.2021
764 Clouds 22 1015 83 10000 6.69 10 13:41 02.04.2021
765 Clouds 22 1015 83 10000 6.69 10 13:19 02.04.2021
766 Clouds 22 1015 88 10000 5.66 360 12:40 02.04.2021
767 Clouds 22 1015 88 10000 5.66 360 12:20 02.04.2021
768 Clouds 22 1015 88 10000 5.66 360 12:20 02.04.2021
769 Clouds 22 1014 88 10000 4.12 360 11:49 02.04.2021
770 Clouds 22 1014 88 10000 4.12 360 11:19 02.04.2021
771 Clouds 22 1014 94 10000 0.51 0 10:44 02.04.2021
772 Clouds 22 1014 94 10000 0.51 0 10:25 02.04.2021
773 Clouds 22 1014 88 10000 1.03 0 09:52 02.04.2021
774 Clouds 22 1014 88 10000 1.03 0 09:26 02.04.2021
775 Clouds 22 1014 94 10000 1.54 140 08:46 02.04.2021
776 Clouds 22 1014 94 10000 1.54 140 08:27 02.04.2021
777 Clouds 22 1015 94 10000 2.57 150 07:22 02.04.2021
778 Clouds 23 1015 94 10000 2.57 120 06:40 02.04.2021
779 Clouds 22 1015 94 10000 4.12 130 03:54 02.04.2021
780 Clouds 23 1015 94 10000 2.06 110 02:19 02.04.2021
781 Rain 23 1015 88 10000 0.51 0 00:44 02.04.2021
782 Clouds 23 1015 88 9000 1.54 190 23:48 01.04.2021
783 Clouds 24 1015 83 10000 3.09 180 23:27 01.04.2021
784 Clouds 24 1015 78 10000 4.12 140 22:50 01.04.2021
785 Clouds 24 1015 78 10000 4.12 140 22:18 01.04.2021
786 Clouds 27 1016 69 10000 4.63 140 21:44 01.04.2021
787 Clouds 27 1016 69 10000 4.63 140 21:23 01.04.2021
788 Clouds 25 1017 73 10000 6.17 160 20:41 01.04.2021
789 Clouds 24 1018 78 10000 6.17 170 20:22 01.04.2021
790 Clouds 24 1018 78 10000 6.17 170 19:43 01.04.2021
791 Rain 24 1018 78 10000 6.17 170 19:24 01.04.2021
792 Clouds 25 1018 83 10000 6.69 180 18:45 01.04.2021
793 Rain 25 1018 83 10000 6.69 180 18:18 01.04.2021
794 Rain 25 1018 78 10000 6.69 190 17:45 01.04.2021
795 Rain 25 1018 78 10000 6.69 190 17:24 01.04.2021
796 Clouds 27 1018 69 10000 4.12 160 16:50 01.04.2021
797 Clouds 27 1018 69 10000 4.12 160 16:18 01.04.2021
798 Clouds 27 1018 69 10000 4.12 160 16:18 01.04.2021
799 Clouds 27 1018 69 10000 4.12 160 16:18 01.04.2021
800 Clouds 27 1017 69 10000 5.66 150 15:40 01.04.2021
801 Clouds 27 1017 69 10000 5.66 150 15:19 01.04.2021
802 Clouds 25 1018 83 10000 2.57 110 14:40 01.04.2021
803 Clouds 25 1018 83 10000 2.57 110 14:40 01.04.2021
804 Clouds 25 1018 83 10000 2.57 110 14:40 01.04.2021
805 Clouds 25 1018 83 10000 2.57 110 14:20 01.04.2021
806 Clouds 25 1017 78 10000 4.74 131 13:49 01.04.2021
807 Clouds 23 1017 88 10000 1.54 140 13:29 01.04.2021
808 Clouds 23 1017 88 10000 1.54 140 12:47 01.04.2021
809 Clouds 23 1017 88 10000 1.54 140 12:29 01.04.2021
810 Clouds 22 1017 88 10000 1.03 0 11:45 01.04.2021
811 Clouds 22 1017 88 10000 1.03 0 11:24 01.04.2021
812 Clouds 23 1017 88 10000 1.54 150 10:53 01.04.2021
813 Clouds 23 1017 88 10000 1.54 150 10:31 01.04.2021
814 Clouds 24 1018 83 10000 1.54 80 09:52 01.04.2021
815 Clouds 24 1018 83 10000 1.54 80 09:23 01.04.2021
816 Clouds 25 1019 78 10000 3.09 120 08:33 01.04.2021
817 Clouds 25 1019 78 10000 3.09 120 07:24 01.04.2021
818 Clouds 25 1019 78 10000 4.12 130 06:59 01.04.2021
819 Clouds 25 1019 78 10000 4.12 130 06:30 01.04.2021
820 Clouds 25 1019 78 10000 3.6 140 03:26 01.04.2021
821 Clouds 27 1018 61 10000 7.2 140 00:38 01.04.2021
822 Clouds 28 1018 57 10000 6.69 140 23:44 31.03.2021
823 Clouds 29 1019 54 10000 7.2 140 22:58 31.03.2021
824 Clouds 29 1019 54 10000 7.2 140 22:39 31.03.2021
825 Clouds 29 1019 54 10000 7.2 140 22:20 31.03.2021
826 Clouds 29 1019 54 10000 6.69 140 21:44 31.03.2021
827 Clouds 29 1019 54 10000 6.69 140 21:20 31.03.2021
828 Clear 25 1019 72 10000 7.37 115 20:42 31.03.2021
829 Clouds 29 1021 54 10000 7.72 130 20:23 31.03.2021
830 Clouds 29 1021 54 10000 7.72 130 19:46 31.03.2021
831 Clouds 29 1021 54 10000 7.72 130 19:25 31.03.2021
832 Clouds 28 1021 54 10000 8.23 140 18:59 31.03.2021
833 Clouds 28 1021 54 10000 8.23 140 18:41 31.03.2021
834 Clouds 28 1022 57 10000 7.72 130 17:53 31.03.2021
835 Clouds 28 1022 57 10000 7.72 130 17:34 31.03.2021
836 Clouds 27 1021 61 10000 7.72 120 16:57 31.03.2021
837 Clouds 27 1021 61 10000 7.72 120 16:37 31.03.2021
838 Clouds 27 1021 61 10000 7.72 120 16:19 31.03.2021
839 Clouds 26 1021 69 10000 7.2 140 15:48 31.03.2021
840 Clouds 26 1021 69 10000 7.2 140 15:19 31.03.2021
841 Clouds 25 1021 73 10000 5.14 140 14:42 31.03.2021
842 Clouds 25 1021 73 10000 5.14 140 14:20 31.03.2021
843 Clouds 24 1021 83 10000 6.17 140 13:40 31.03.2021
844 Clouds 24 1021 83 10000 5.14 130 12:42 31.03.2021
845 Clouds 24 1020 78 10000 4.63 130 12:20 31.03.2021
846 Clear 25 1020 76 10000 8.21 111 11:47 31.03.2021
847 Clouds 24 1020 78 10000 5.14 140 11:20 31.03.2021
848 Clouds 24 1020 78 10000 5.14 140 11:20 31.03.2021
849 Clouds 24 1020 78 10000 5.14 140 10:46 31.03.2021
850 Clouds 24 1020 78 10000 5.14 140 10:24 31.03.2021
851 Clouds 25 1021 73 10000 5.66 130 09:38 31.03.2021
852 Clouds 25 1021 78 10000 5.14 130 08:55 31.03.2021
853 Clouds 25 1021 78 10000 5.14 130 08:33 31.03.2021
854 Clouds 25 1022 78 10000 6.17 130 07:49 31.03.2021
855 Clouds 25 1022 78 10000 5.66 120 06:38 31.03.2021
856 Clouds 26 1021 78 10000 5.14 100 03:46 31.03.2021
857 Clouds 27 1021 74 10000 6.69 120 01:35 31.03.2021
858 Clear 25 1020 80 10000 8 99 00:48 31.03.2021
859 Clear 25 1020 80 10000 7.79 99 00:19 31.03.2021
860 Clouds 30 1021 58 10000 7.2 130 23:29 30.03.2021
861 Clouds 30 1021 58 10000 7.2 130 22:56 30.03.2021
862 Clouds 30 1021 58 10000 7.2 130 22:38 30.03.2021
863 Clouds 30 1021 58 10000 7.2 130 22:20 30.03.2021
864 Clouds 29 1021 58 10000 7.2 140 21:42 30.03.2021
865 Clouds 29 1021 58 10000 7.2 140 21:19 30.03.2021
866 Clouds 29 1022 58 10000 6.69 130 20:51 30.03.2021
867 Clouds 29 1022 58 10000 6.69 130 20:27 30.03.2021
868 Clouds 29 1022 61 10000 7.2 130 19:50 30.03.2021
869 Clouds 29 1022 61 10000 7.2 130 19:23 30.03.2021
870 Clouds 29 1023 61 10000 6.69 130 18:36 30.03.2021
871 Clouds 28 1023 65 10000 7.2 130 17:52 30.03.2021
872 Clouds 28 1023 65 10000 7.2 130 17:32 30.03.2021
873 Clouds 27 1023 65 10000 7.2 130 16:48 30.03.2021
874 Clouds 27 1023 65 10000 7.2 130 16:28 30.03.2021
875 Clouds 26 1022 73 10000 5.66 120 15:43 30.03.2021
876 Clouds 26 1022 73 10000 5.66 120 15:20 30.03.2021
877 Clouds 25 1022 73 10000 4.63 120 14:48 30.03.2021
878 Clouds 25 1022 73 10000 4.63 120 14:21 30.03.2021
879 Clouds 25 1022 73 10000 4.63 120 14:21 30.03.2021
880 Clouds 23 1021 83 10000 3.09 100 13:51 30.03.2021
881 Clouds 23 1021 83 10000 3.09 100 13:30 30.03.2021
882 Clouds 24 1020 78 10000 3.09 110 12:42 30.03.2021
883 Clouds 24 1020 78 10000 3.09 110 12:23 30.03.2021
884 Clouds 24 1020 78 10000 4.12 110 11:50 30.03.2021
885 Clouds 24 1020 78 10000 4.12 110 11:21 30.03.2021
886 Clouds 24 1020 83 10000 4.12 110 10:43 30.03.2021
887 Clouds 24 1020 83 10000 4.12 110 10:19 30.03.2021
888 Clouds 24 1020 83 10000 4.12 110 09:43 30.03.2021
889 Clouds 24 1020 83 10000 4.12 110 09:43 30.03.2021
890 Clouds 24 1020 83 10000 4.12 110 09:24 30.03.2021
891 Clouds 24 1020 83 10000 4.63 120 08:51 30.03.2021
892 Clouds 24 1020 83 10000 4.63 120 08:31 30.03.2021
893 Clouds 25 1021 83 10000 4.63 120 07:45 30.03.2021
894 Clouds 25 1021 83 10000 4.12 120 06:56 30.03.2021
895 Clouds 25 1021 83 10000 3.6 110 05:25 30.03.2021
896 Clouds 26 1020 69 10000 4.12 130 02:32 30.03.2021
897 Clouds 28 1019 61 10000 5.14 150 23:56 29.03.2021
898 Clouds 28 1019 61 10000 5.14 150 23:27 29.03.2021
899 Clouds 28 1019 57 10000 6.17 140 22:43 29.03.2021
900 Clouds 29 1019 54 10000 5.14 140 21:58 29.03.2021
901 Clouds 29 1019 54 10000 5.14 140 21:37 29.03.2021
902 Clouds 29 1020 58 10000 5.14 140 20:57 29.03.2021
903 Clouds 29 1020 58 10000 5.14 140 20:37 29.03.2021
904 Clouds 29 1021 58 10000 5.14 140 19:56 29.03.2021
905 Clouds 29 1021 58 10000 5.14 140 19:32 29.03.2021
906 Clouds 28 1021 61 10000 5.14 140 18:57 29.03.2021
907 Clouds 28 1021 61 10000 5.14 140 18:38 29.03.2021
908 Clouds 28 1021 61 10000 5.14 140 18:20 29.03.2021
909 Clouds 28 1021 61 10000 6.17 140 17:37 29.03.2021
910 Clouds 27 1021 65 10000 5.66 140 16:55 29.03.2021
911 Clouds 27 1021 65 10000 5.66 140 16:34 29.03.2021
912 Clouds 25 1021 73 10000 2.06 100 15:47 29.03.2021
913 Clouds 25 1021 73 10000 2.06 100 15:28 29.03.2021
914 Clouds 22 1020 88 10000 0.51 0 14:49 29.03.2021
915 Clouds 22 1020 88 10000 0.51 0 14:28 29.03.2021
916 Clouds 22 1020 88 10000 2.06 110 13:47 29.03.2021
917 Clouds 22 1020 88 10000 2.06 110 13:22 29.03.2021
918 Clouds 21 1020 88 10000 0.51 0 12:49 29.03.2021
919 Clouds 22 1019 83 10000 1.03 0 11:49 29.03.2021
920 Clouds 22 1019 83 10000 1.03 0 11:30 29.03.2021
921 Clouds 22 1019 88 10000 2.06 150 10:52 29.03.2021
922 Clouds 22 1019 88 10000 2.06 150 10:31 29.03.2021
923 Clouds 25 1019 72 10000 4.49 126 09:34 29.03.2021
924 Clear 25 1019 72 10000 5.34 125 08:51 29.03.2021
925 Clouds 23 1021 83 10000 3.09 160 08:27 29.03.2021
926 Clouds 23 1021 83 10000 3.09 160 07:22 29.03.2021
927 Clouds 23 1021 83 10000 3.09 150 06:26 29.03.2021
928 Clouds 24 1021 78 10000 2.57 150 03:35 29.03.2021
929 Clouds 27 1019 61 10000 5.14 160 00:55 29.03.2021
930 Clouds 27 1019 61 10000 5.14 160 00:20 29.03.2021
931 Clouds 28 1019 65 10000 5.66 150 23:30 28.03.2021
932 Clouds 28 1019 65 10000 7.2 150 22:53 28.03.2021
933 Clouds 28 1019 65 10000 7.2 150 22:35 28.03.2021
934 Clouds 29 1020 61 10000 6.69 170 21:57 28.03.2021
935 Clouds 29 1020 61 10000 6.69 170 21:38 28.03.2021
936 Clouds 29 1020 61 10000 6.69 170 21:18 28.03.2021
937 Clouds 28 1021 65 10000 6.69 150 20:42 28.03.2021
938 Clouds 28 1021 65 10000 6.69 150 20:24 28.03.2021
939 Clouds 29 1021 54 10000 7.72 160 19:42 28.03.2021
940 Clouds 29 1021 54 10000 7.72 160 19:22 28.03.2021
941 Clouds 29 1021 58 10000 7.2 140 18:51 28.03.2021
942 Clouds 29 1021 58 10000 7.2 140 18:24 28.03.2021
943 Clouds 28 1022 61 10000 6.69 160 17:46 28.03.2021
944 Clouds 28 1022 61 10000 6.69 160 17:22 28.03.2021
945 Clouds 27 1021 65 10000 6.17 150 16:43 28.03.2021
946 Clouds 27 1021 65 10000 6.17 150 16:22 28.03.2021
947 Clouds 26 1021 69 10000 6.17 140 15:25 28.03.2021
948 Clouds 24 1020 78 10000 4.63 140 14:50 28.03.2021
949 Clouds 24 1020 78 10000 4.63 140 14:27 28.03.2021
950 Clouds 24 1020 78 10000 4.63 140 13:38 28.03.2021
951 Clouds 24 1019 78 10000 4.63 140 13:00 28.03.2021
952 Clouds 24 1019 78 10000 4.63 140 12:37 28.03.2021
953 Clouds 24 1019 78 10000 4.63 140 12:19 28.03.2021
954 Clouds 24 1019 78 10000 5.66 140 11:39 28.03.2021
955 Clouds 24 1019 78 10000 4.63 130 10:56 28.03.2021
956 Clouds 24 1019 78 10000 4.63 130 10:37 28.03.2021
957 Clouds 24 1019 78 10000 4.63 130 10:18 28.03.2021
958 Clouds 24 1020 78 10000 5.14 120 09:43 28.03.2021
959 Clouds 24 1020 78 10000 5.14 120 09:23 28.03.2021
960 Clouds 24 1021 73 10000 4.63 120 08:38 28.03.2021
961 Clouds 25 1022 73 10000 4.63 120 07:44 28.03.2021
962 Clouds 25 1022 73 10000 4.63 120 06:22 28.03.2021
963 Clouds 25 1022 73 10000 5.14 110 03:51 28.03.2021
964 Clouds 26 1021 69 10000 6.17 120 00:48 28.03.2021
965 Clouds 26 1021 69 10000 6.17 120 00:18 28.03.2021
966 Clouds 27 1020 65 10000 6.69 120 23:36 27.03.2021
967 Clouds 27 1020 65 10000 7.2 140 22:50 27.03.2021
968 Clouds 27 1020 65 10000 7.2 140 22:31 27.03.2021
969 Clouds 27 1021 69 10000 7.72 140 21:45 27.03.2021
970 Clouds 27 1021 69 10000 7.72 140 21:21 27.03.2021
971 Clouds 27 1021 69 10000 7.72 140 21:21 27.03.2021
972 Clouds 29 1022 58 10000 6.69 130 20:59 27.03.2021
973 Clouds 29 1022 58 10000 6.69 130 20:37 27.03.2021
974 Clouds 29 1022 58 10000 7.2 130 19:57 27.03.2021
975 Clouds 29 1022 58 10000 7.2 130 19:38 27.03.2021
976 Clouds 29 1022 58 10000 7.2 130 19:20 27.03.2021
977 Clouds 29 1023 61 10000 7.2 130 18:46 27.03.2021
978 Clouds 29 1023 61 10000 7.2 130 18:22 27.03.2021
979 Clouds 27 1023 65 10000 7.2 130 17:36 27.03.2021
980 Clouds 27 1023 65 10000 7.2 130 17:18 27.03.2021
981 Clouds 28 1023 61 10000 7.72 140 16:43 27.03.2021
982 Clouds 28 1023 61 10000 7.72 140 16:23 27.03.2021
983 Clouds 27 1024 69 10000 6.17 120 15:45 27.03.2021
984 Clouds 26 1023 73 10000 4.63 120 14:59 27.03.2021
985 Clouds 26 1023 73 10000 4.63 120 14:38 27.03.2021
986 Clouds 23 1023 88 10000 2.57 100 13:39 27.03.2021
987 Clouds 23 1023 88 10000 2.57 100 13:19 27.03.2021
988 Clouds 24 1022 78 10000 3.09 110 12:43 27.03.2021
989 Clouds 24 1021 78 10000 3.09 120 11:50 27.03.2021
990 Clouds 24 1021 78 10000 3.09 120 11:31 27.03.2021
991 Clouds 24 1021 83 10000 3.6 120 10:49 27.03.2021
992 Clouds 24 1021 83 10000 3.6 120 10:30 27.03.2021
993 Clouds 24 1021 83 10000 3.09 120 09:47 27.03.2021
994 Clouds 24 1021 83 10000 3.09 120 09:18 27.03.2021
995 Clouds 24 1022 83 10000 3.6 110 08:39 27.03.2021
996 Clouds 25 1022 78 10000 4.12 110 07:49 27.03.2021
997 Clouds 25 1022 78 10000 3.09 120 06:59 27.03.2021
998 Clouds 25 1022 78 10000 3.09 120 06:59 27.03.2021
999 Clouds 25 1022 78 10000 3.09 120 06:39 27.03.2021
1000 Clouds 25 1023 83 10000 2.06 100 04:42 27.03.2021
1001 Clouds 25 1022 83 10000 3.09 70 02:19 27.03.2021
1002 Clouds 26 1021 73 10000 3.6 130 00:32 27.03.2021
1003 Clouds 27 1021 69 10000 4.12 150 23:59 26.03.2021
1004 Clouds 27 1021 69 10000 4.12 150 23:24 26.03.2021
1005 Clouds 28 1021 65 10000 5.14 140 22:39 26.03.2021
1006 Clouds 28 1021 65 10000 5.14 150 21:42 26.03.2021
1007 Clouds 28 1021 65 10000 5.14 150 21:22 26.03.2021
1008 Clouds 29 1021 61 10000 5.66 150 20:49 26.03.2021
1009 Clouds 29 1021 61 10000 5.66 150 20:31 26.03.2021
1010 Clouds 28 1022 65 10000 5.66 150 19:51 26.03.2021
1011 Clouds 28 1022 65 10000 5.66 150 19:32 26.03.2021
1012 Clouds 29 1023 58 10000 6.69 140 18:49 26.03.2021
1013 Clouds 29 1023 58 10000 6.69 140 18:30 26.03.2021
1014 Clouds 28 1023 65 10000 6.69 130 17:50 26.03.2021
1015 Clouds 28 1023 65 10000 6.69 130 17:22 26.03.2021
1016 Clouds 27 1023 65 10000 6.69 140 16:34 26.03.2021
1017 Clouds 26 1023 65 10000 6.17 130 15:59 26.03.2021
1018 Clouds 26 1023 65 10000 6.17 130 15:28 26.03.2021
1019 Clouds 26 1022 69 10000 5.66 130 14:43 26.03.2021
1020 Clouds 24 1021 78 10000 4.63 120 13:46 26.03.2021
1021 Clouds 24 1021 78 10000 4.63 120 13:46 26.03.2021
1022 Clouds 24 1021 78 10000 4.63 120 13:22 26.03.2021
1023 Clouds 23 1021 83 10000 4.63 120 12:35 26.03.2021
1024 Clouds 23 1020 83 10000 4.12 120 11:47 26.03.2021
1025 Clouds 23 1020 83 10000 4.12 120 11:27 26.03.2021
1026 Clouds 23 1020 83 10000 4.63 110 10:42 26.03.2021
1027 Clouds 23 1020 83 10000 4.63 110 10:19 26.03.2021
1028 Clouds 24 1020 83 10000 4.12 110 09:40 26.03.2021
1029 Clouds 24 1020 83 10000 3.6 120 08:46 26.03.2021
1030 Clouds 24 1020 83 10000 3.6 120 08:25 26.03.2021
1031 Clouds 24 1021 83 10000 4.12 120 07:42 26.03.2021
1032 Clouds 24 1021 83 10000 4.12 120 07:21 26.03.2021
1033 Clouds 24 1022 83 10000 3.6 120 06:55 26.03.2021
1034 Clouds 24 1022 83 10000 4.12 120 05:31 26.03.2021
1035 Clouds 25 1021 78 10000 5.14 140 03:19 26.03.2021
1036 Clouds 26 1020 73 10000 6.17 150 00:33 26.03.2021
1037 Clouds 27 1020 69 10000 6.17 150 23:46 25.03.2021
1038 Clouds 27 1020 69 10000 6.17 150 23:21 25.03.2021
1039 Clouds 28 1020 65 10000 6.17 160 22:39 25.03.2021
1040 Clouds 29 1020 65 10000 6.17 150 21:53 25.03.2021
1041 Clouds 29 1020 65 10000 6.17 150 21:35 25.03.2021
1042 Clouds 28 1020 65 10000 6.69 140 20:47 25.03.2021
1043 Clouds 28 1020 65 10000 6.69 140 20:28 25.03.2021
1044 Clouds 29 1021 65 10000 6.69 170 19:51 25.03.2021
1045 Clouds 29 1021 65 10000 6.69 170 19:32 25.03.2021
1046 Clouds 29 1021 61 10000 7.72 140 18:58 25.03.2021
1047 Clouds 29 1021 61 10000 7.72 140 18:39 25.03.2021
1048 Clouds 29 1021 61 10000 7.72 140 18:21 25.03.2021
1049 Clouds 28 1021 69 10000 8.23 160 17:37 25.03.2021
1050 Clouds 28 1021 69 10000 8.75 150 16:57 25.03.2021
1051 Clouds 28 1021 69 10000 8.75 150 16:34 25.03.2021
1052 Clouds 27 1021 69 10000 7.2 150 15:49 25.03.2021
1053 Clouds 27 1021 69 10000 7.2 150 15:26 25.03.2021
1054 Clouds 25 1020 78 10000 5.14 160 14:50 25.03.2021
1055 Clouds 25 1020 78 10000 5.14 160 14:30 25.03.2021
1056 Clouds 24 1020 83 10000 5.14 150 13:28 25.03.2021
1057 Clouds 24 1019 83 10000 5.14 150 12:46 25.03.2021
1058 Clouds 24 1019 83 10000 5.14 150 12:22 25.03.2021
1059 Clouds 24 1019 83 10000 5.14 150 12:22 25.03.2021
1060 Clouds 23 1018 88 10000 4.63 150 11:57 25.03.2021
1061 Clouds 23 1018 88 10000 4.63 150 11:39 25.03.2021
1062 Clouds 23 1018 88 10000 4.63 150 11:21 25.03.2021
1063 Clear 23 1018 88 10000 4.12 140 10:45 25.03.2021
1064 Clear 23 1018 88 10000 4.12 140 10:19 25.03.2021
1065 Clear 24 1018 88 10000 5.14 130 09:43 25.03.2021
1066 Clear 24 1018 88 10000 5.14 130 09:23 25.03.2021
1067 Clear 24 1018 88 10000 3.09 110 08:31 25.03.2021
1068 Clear 23 1019 88 10000 4.12 120 07:29 25.03.2021
1069 Clouds 24 1020 88 10000 4.12 120 06:43 25.03.2021
1070 Clouds 24 1020 88 10000 4.12 120 06:22 25.03.2021
1071 Clouds 24 1020 88 10000 3.6 120 04:50 25.03.2021
1072 Clouds 25 1018 83 10000 4.12 130 01:25 25.03.2021
1073 Clouds 26 1018 78 10000 4.63 150 00:19 25.03.2021
1074 Clouds 28 1017 69 10000 5.14 160 23:40 24.03.2021
1075 Clouds 28 1017 69 10000 5.14 160 23:18 24.03.2021
1076 Clouds 28 1017 65 10000 6.17 150 22:39 24.03.2021
1077 Clouds 29 1017 65 10000 5.66 160 21:51 24.03.2021
1078 Clouds 29 1017 65 10000 5.66 160 21:51 24.03.2021
1079 Clouds 29 1017 65 10000 5.66 160 21:32 24.03.2021
1080 Clouds 29 1017 58 10000 5.66 170 20:56 24.03.2021
1081 Clouds 29 1017 58 10000 5.66 170 20:38 24.03.2021
1082 Clouds 29 1017 58 10000 5.66 170 20:18 24.03.2021
1083 Clouds 29 1018 61 10000 4.63 190 19:33 24.03.2021
1084 Clouds 29 1018 61 10000 4.63 190 19:33 24.03.2021
1085 Clouds 29 1019 61 10000 5.14 160 18:53 24.03.2021
1086 Clouds 29 1019 61 10000 5.14 160 18:24 24.03.2021
1087 Clouds 29 1019 61 10000 5.14 160 18:24 24.03.2021
1088 Clouds 29 1019 65 10000 5.14 190 17:53 24.03.2021
1089 Clouds 29 1019 65 10000 5.14 190 17:32 24.03.2021
1090 Clouds 28 1019 65 10000 4.63 190 16:56 24.03.2021
1091 Clouds 28 1019 65 10000 4.63 190 16:38 24.03.2021
1092 Clouds 28 1019 65 10000 4.63 190 16:18 24.03.2021
1093 Clouds 27 1019 74 10000 4.63 190 15:33 24.03.2021
1094 Clouds 25 1018 78 10000 1.54 200 14:59 24.03.2021
1095 Clouds 25 1018 78 10000 1.54 200 14:29 24.03.2021
1096 Clear 24 1018 74 10000 3.47 145 13:58 24.03.2021
1097 Clouds 20 1017 88 10000 3.63 153 13:28 24.03.2021
1098 Clouds 20 1017 88 10000 3.27 160 12:50 24.03.2021
1099 Clouds 20 1017 88 10000 3.63 166 12:29 24.03.2021
1100 Clouds 20 1017 88 10000 3.63 165 11:54 24.03.2021
1101 Clouds 20 1017 88 10000 3.63 166 11:35 24.03.2021
1102 Clouds 19 1016 88 10000 1.03 0 10:48 24.03.2021
1103 Clouds 19 1016 88 10000 1.03 0 10:28 24.03.2021
1104 Clouds 20 1016 88 10000 2.06 180 09:54 24.03.2021
1105 Clouds 20 1016 88 10000 2.06 180 09:25 24.03.2021
1106 Clouds 21 1016 88 10000 2.57 150 08:57 24.03.2021
1107 Clouds 21 1016 88 10000 2.57 150 08:32 24.03.2021
1108 Clouds 21 1017 88 10000 1.03 150 07:42 24.03.2021
1109 Clouds 21 1017 88 10000 2.06 160 06:58 24.03.2021
1110 Clouds 21 1017 88 10000 2.06 160 06:34 24.03.2021
1111 Clouds 23 1016 68 10000 2.06 160 01:24 24.03.2021
1112 Clouds 24 1015 64 10000 3.09 170 00:33 24.03.2021
1113 Clouds 25 1015 57 10000 3.09 170 23:43 23.03.2021
1114 Clouds 25 1015 57 10000 3.09 170 23:18 23.03.2021
1115 Clouds 27 1015 50 10000 3.09 240 22:40 23.03.2021
1116 Clouds 25 1016 61 10000 4.63 50 21:59 23.03.2021
1117 Clouds 25 1016 61 10000 4.63 50 21:41 23.03.2021
1118 Clouds 25 1016 61 10000 4.63 50 21:20 23.03.2021
1119 Clouds 25 1016 57 10000 4.12 50 20:42 23.03.2021
1120 Clouds 25 1016 57 10000 4.12 50 20:23 23.03.2021
1121 Clouds 27 1017 50 10000 2.06 240 19:45 23.03.2021
1122 Clouds 27 1017 50 10000 2.06 240 19:25 23.03.2021
1123 Clouds 26 1018 53 10000 2.06 240 18:43 23.03.2021
1124 Clouds 26 1018 53 10000 2.06 240 18:21 23.03.2021
1125 Clouds 26 1018 50 10000 2.57 350 17:44 23.03.2021
1126 Clouds 26 1018 50 10000 2.57 350 17:21 23.03.2021
1127 Clouds 26 1018 50 10000 2.57 350 17:21 23.03.2021
1128 Clouds 25 1018 53 10000 2.57 260 16:26 23.03.2021
1129 Clear 24 1018 57 10000 1.54 220 15:59 23.03.2021
1130 Clear 24 1018 57 10000 1.54 220 15:38 23.03.2021
1131 Clouds 22 1017 64 10000 0.51 0 14:50 23.03.2021
1132 Clouds 22 1017 64 10000 0.51 0 14:21 23.03.2021
1133 Clouds 19 1017 82 10000 1.48 219 13:49 23.03.2021
1134 Clouds 19 1017 82 10000 1.55 264 13:25 23.03.2021
1135 Clouds 17 1016 82 10000 1.68 255 12:46 23.03.2021
1136 Clouds 17 1016 82 10000 2.25 271 12:26 23.03.2021
1137 Clouds 17 1016 82 10000 0.51 0 11:49 23.03.2021
1138 Clouds 17 1016 82 10000 0.51 0 11:30 23.03.2021
1139 Clouds 16 1015 88 10000 1.03 0 10:43 23.03.2021
1140 Clouds 16 1015 88 10000 1.03 0 10:21 23.03.2021
1141 Clouds 17 1015 82 10000 1.54 270 09:54 23.03.2021
1142 Clouds 17 1015 82 10000 1.54 270 09:25 23.03.2021
1143 Clouds 17 1016 82 10000 1.54 270 08:56 23.03.2021
1144 Clouds 17 1016 82 10000 1.54 270 08:38 23.03.2021
1145 Clouds 17 1016 82 10000 1.54 270 08:19 23.03.2021
1146 Clouds 17 1016 82 10000 1.54 260 07:28 23.03.2021
1147 Clouds 17 1016 82 10000 1.54 250 06:54 23.03.2021
1148 Clouds 20 1016 73 10000 1.03 0 05:48 23.03.2021
1149 Clouds 21 1016 68 10000 3.09 310 03:20 23.03.2021
1150 Clouds 22 1015 68 10000 5.14 330 00:22 23.03.2021
1151 Clouds 23 1015 64 10000 5.14 340 23:23 22.03.2021
1152 Clouds 23 1015 64 10000 4.63 340 22:44 22.03.2021
1153 Clouds 23 1015 64 10000 4.63 340 22:44 22.03.2021
1154 Clouds 23 1015 64 10000 4.63 340 22:21 22.03.2021
1155 Clouds 25 1015 57 10000 5.14 330 21:51 22.03.2021
1156 Clouds 25 1015 57 10000 5.14 330 21:27 22.03.2021
1157 Clouds 25 1015 57 10000 4.12 310 20:49 22.03.2021
1158 Clouds 25 1015 57 10000 4.12 310 20:29 22.03.2021
1159 Clouds 25 1016 53 10000 4.63 300 19:58 22.03.2021
1160 Clouds 25 1016 53 10000 4.63 300 19:39 22.03.2021
1161 Clouds 25 1016 53 10000 4.63 300 19:20 22.03.2021
1162 Clouds 25 1017 57 10000 5.14 290 18:41 22.03.2021
1163 Clouds 25 1017 57 10000 5.14 290 18:22 22.03.2021
1164 Clouds 25 1017 57 10000 6.17 300 17:49 22.03.2021
1165 Clouds 25 1017 57 10000 6.17 300 17:22 22.03.2021
1166 Clouds 23 1017 64 10000 6.69 290 16:55 22.03.2021
1167 Clouds 23 1017 64 10000 6.69 290 16:37 22.03.2021
1168 Clouds 23 1017 64 10000 5.66 290 15:43 22.03.2021
1169 Clouds 23 1017 64 10000 5.66 290 15:23 22.03.2021
1170 Clouds 22 1016 68 10000 4.63 270 14:57 22.03.2021
1171 Clouds 22 1016 68 10000 4.63 270 14:34 22.03.2021
1172 Clouds 20 1016 77 10000 2.57 270 13:50 22.03.2021
1173 Clouds 20 1016 77 10000 2.57 270 13:29 22.03.2021
1174 Clouds 20 1016 77 10000 2.57 260 12:58 22.03.2021
1175 Clouds 20 1016 77 10000 2.57 260 12:26 22.03.2021
1176 Clouds 20 1015 83 10000 2.57 260 11:51 22.03.2021
1177 Clouds 20 1015 83 10000 2.57 260 11:30 22.03.2021
1178 Clouds 20 1015 83 10000 2.06 260 10:57 22.03.2021
1179 Clouds 20 1015 83 10000 2.06 260 10:37 22.03.2021
1180 Clouds 20 1016 88 10000 2.57 250 10:18 22.03.2021
1181 Clouds 20 1016 88 10000 2.57 250 09:34 22.03.2021
1182 Clouds 22 1014 81 10000 2.97 295 08:55 22.03.2021
1183 Clouds 20 1017 88 10000 2.06 250 08:37 22.03.2021
1184 Clouds 20 1017 88 10000 2.06 250 08:19 22.03.2021
1185 Clouds 22 1015 81 10000 2.7 315 07:41 22.03.2021
1186 Clouds 23 1016 82 10000 3.33 327 06:52 22.03.2021
1187 Clouds 23 1017 78 10000 3.6 310 03:24 22.03.2021
1188 Clouds 25 1016 69 10000 3.6 280 00:53 22.03.2021
1189 Clouds 25 1016 69 10000 3.6 280 00:19 22.03.2021
1190 Clouds 26 1016 69 10000 4.12 170 23:40 21.03.2021
1191 Clouds 26 1016 69 10000 4.12 170 23:18 21.03.2021
1192 Clouds 26 1016 69 10000 3.6 170 22:53 21.03.2021
1193 Clouds 27 1016 61 10000 3.6 230 21:43 21.03.2021
1194 Clouds 27 1016 61 10000 3.6 230 21:25 21.03.2021
1195 Clouds 27 1016 57 10000 3.6 250 20:57 21.03.2021
1196 Clouds 27 1016 57 10000 3.6 250 20:39 21.03.2021
1197 Clouds 27 1016 57 10000 3.6 250 20:21 21.03.2021
1198 Clouds 27 1017 57 10000 3.6 270 19:46 21.03.2021
1199 Clouds 27 1017 57 10000 3.6 270 19:20 21.03.2021
1200 Clouds 26 1018 61 10000 5.14 300 18:41 21.03.2021
1201 Clouds 26 1018 61 10000 5.14 300 18:18 21.03.2021
1202 Clouds 26 1018 61 10000 4.12 270 17:42 21.03.2021
1203 Clouds 26 1018 61 10000 4.12 270 17:18 21.03.2021
1204 Clouds 26 1018 61 10000 4.12 270 17:18 21.03.2021
1205 Clouds 26 1018 61 10000 4.12 300 16:50 21.03.2021
1206 Clouds 26 1018 61 10000 4.12 300 16:26 21.03.2021
1207 Clouds 24 1018 69 10000 4.12 280 15:48 21.03.2021
1208 Clouds 24 1018 69 10000 4.12 280 15:22 21.03.2021
1209 Clouds 24 1018 69 10000 3.09 260 14:48 21.03.2021
1210 Clouds 24 1018 69 10000 3.09 260 14:27 21.03.2021
1211 Clouds 22 1017 78 10000 1.54 240 13:59 21.03.2021
1212 Clouds 22 1017 78 10000 1.54 240 13:40 21.03.2021
1213 Clouds 22 1017 78 10000 2.06 240 12:45 21.03.2021
1214 Clouds 22 1017 78 10000 2.06 240 12:25 21.03.2021
1215 Clouds 22 1017 78 10000 2.06 240 12:25 21.03.2021
1216 Clouds 22 1017 78 10000 1.54 260 11:42 21.03.2021
1217 Clouds 22 1017 78 10000 1.54 260 11:24 21.03.2021
1218 Clouds 20 1016 88 10000 2.06 250 10:46 21.03.2021
1219 Clouds 20 1016 88 10000 2.06 250 10:27 21.03.2021
1220 Clouds 21 1017 78 10000 2.06 240 09:50 21.03.2021
1221 Clouds 21 1017 78 10000 2.06 240 09:32 21.03.2021
1222 Rain 21 1017 78 10000 2.06 240 08:57 21.03.2021
1223 Rain 21 1017 78 10000 2.06 240 08:31 21.03.2021
1224 Rain 21 1017 78 10000 1.54 250 07:51 21.03.2021
1225 Clouds 21 1017 78 10000 1.54 250 07:28 21.03.2021
1226 Clouds 21 1018 78 10000 1.54 240 06:21 21.03.2021
1227 Clouds 23 1018 68 10000 2.06 260 03:41 21.03.2021
1228 Clouds 25 1017 65 10000 4.12 320 00:57 21.03.2021
1229 Clouds 25 1017 65 10000 4.12 320 00:37 21.03.2021
1230 Clouds 25 1017 65 10000 4.12 320 00:19 21.03.2021
1231 Clouds 27 1017 57 10000 5.14 330 23:42 20.03.2021
1232 Clouds 27 1017 57 10000 5.14 330 23:18 20.03.2021
1233 Clouds 27 1017 65 10000 4.63 320 22:24 20.03.2021
1234 Clear 23 1016 80 10000 3.5 285 21:48 20.03.2021
1235 Clouds 28 1017 57 10000 4.63 300 21:26 20.03.2021
1236 Clouds 28 1017 57 10000 4.63 300 20:49 20.03.2021
1237 Clouds 28 1017 57 10000 4.63 300 20:24 20.03.2021
1238 Clouds 27 1018 65 10000 4.63 300 19:52 20.03.2021
1239 Clouds 27 1018 65 10000 4.63 300 19:29 20.03.2021
1240 Clouds 27 1018 65 10000 4.63 300 19:29 20.03.2021
1241 Clouds 27 1018 65 10000 5.14 220 18:52 20.03.2021
1242 Clouds 27 1018 65 10000 5.14 220 18:28 20.03.2021
1243 Clouds 28 1019 65 10000 4.12 250 17:58 20.03.2021
1244 Clouds 28 1019 65 10000 4.12 250 17:40 20.03.2021
1245 Clouds 28 1019 65 10000 4.12 250 17:20 20.03.2021
1246 Clouds 26 1019 73 10000 3.6 240 16:39 20.03.2021
1247 Clouds 26 1019 73 10000 3.6 240 16:18 20.03.2021
1248 Clouds 25 1018 78 10000 3.09 240 15:40 20.03.2021
1249 Clouds 25 1018 78 10000 3.09 240 15:40 20.03.2021
1250 Clouds 25 1018 78 10000 5.14 230 14:55 20.03.2021
1251 Clouds 25 1018 78 10000 5.14 230 14:31 20.03.2021
1252 Clouds 23 1018 88 10000 3.6 220 13:56 20.03.2021
1253 Clouds 23 1018 88 10000 3.6 220 13:24 20.03.2021
1254 Clouds 23 1017 88 10000 3.6 220 12:28 20.03.2021
1255 Clouds 23 1017 88 10000 2.57 190 11:55 20.03.2021
1256 Clouds 23 1017 88 10000 2.57 190 11:36 20.03.2021
1257 Clouds 23 1017 88 10000 2.57 190 11:18 20.03.2021
1258 Clouds 23 1017 88 10000 2.57 200 10:38 20.03.2021
1259 Clouds 23 1017 88 10000 2.57 200 10:19 20.03.2021
1260 Clouds 23 1017 94 10000 1.54 240 09:42 20.03.2021
1261 Clouds 23 1017 94 10000 1.54 240 09:21 20.03.2021
1262 Clouds 23 1017 94 10000 1.54 240 09:21 20.03.2021
1263 Clouds 22 1017 94 10000 1.54 200 08:48 20.03.2021
1264 Clouds 23 1017 88 10000 1.54 230 07:56 20.03.2021
1265 Clouds 23 1017 88 10000 1.54 230 07:37 20.03.2021
1266 Clouds 23 1017 88 10000 1.54 230 07:19 20.03.2021
1267 Clouds 23 1017 94 10000 1.54 230 06:27 20.03.2021
1268 Clouds 24 1017 88 10000 1.54 260 04:44 20.03.2021
1269 Clouds 24 1017 88 10000 2.06 190 03:43 20.03.2021
1270 Clouds 25 1016 78 10000 3.09 180 00:43 20.03.2021
1271 Clouds 26 1016 73 10000 4.63 180 23:36 19.03.2021
1272 Clouds 26 1016 73 10000 4.63 180 23:18 19.03.2021
1273 Clouds 28 1015 69 10000 5.66 180 22:40 19.03.2021
1274 Clouds 28 1015 69 10000 5.66 180 22:40 19.03.2021
1275 Clouds 28 1015 69 10000 5.66 180 22:22 19.03.2021
1276 Clouds 28 1016 65 10000 5.66 200 21:37 19.03.2021
1277 Clouds 28 1016 65 10000 5.66 200 21:18 19.03.2021
1278 Clouds 28 1016 65 10000 6.17 200 20:42 19.03.2021
1279 Clouds 28 1016 65 10000 6.17 200 20:24 19.03.2021
1280 Clouds 28 1017 65 10000 6.17 200 19:47 19.03.2021
1281 Clouds 28 1017 65 10000 6.17 200 19:22 19.03.2021
1282 Clouds 27 1018 69 10000 6.17 210 18:46 19.03.2021
1283 Clouds 27 1018 69 10000 6.17 210 18:21 19.03.2021
1284 Clouds 27 1018 69 10000 7.2 210 17:56 19.03.2021
1285 Clouds 27 1018 69 10000 7.2 210 17:36 19.03.2021
1286 Clouds 26 1018 69 10000 7.72 220 16:57 19.03.2021
1287 Clouds 26 1018 69 10000 7.72 220 16:36 19.03.2021
1288 Clouds 26 1018 69 10000 7.72 220 16:18 19.03.2021
1289 Clouds 24 1017 78 10000 6.69 210 15:32 19.03.2021
1290 Clouds 24 1017 78 10000 6.69 210 14:49 19.03.2021
1291 Clouds 24 1017 78 10000 6.69 210 14:29 19.03.2021
1292 Clouds 23 1017 83 10000 6.17 200 13:45 19.03.2021
1293 Clouds 23 1017 83 10000 6.17 200 13:18 19.03.2021
1294 Clouds 23 1017 83 10000 4.12 210 12:38 19.03.2021
1295 Clouds 23 1017 83 10000 4.12 210 11:53 19.03.2021
1296 Clouds 22 1016 83 10000 3.09 200 10:59 19.03.2021
1297 Clouds 22 1016 83 10000 3.09 200 10:40 19.03.2021
1298 Clouds 22 1016 83 10000 3.09 200 10:40 19.03.2021
1299 Clouds 22 1016 83 10000 3.09 200 10:19 19.03.2021
1300 Clear 22 1016 83 10000 3.09 180 09:43 19.03.2021
1301 Clear 22 1016 83 10000 3.09 180 09:22 19.03.2021
1302 Clear 22 1017 83 10000 3.09 180 08:47 19.03.2021
1303 Clear 22 1017 83 10000 3.09 180 08:25 19.03.2021
1304 Clear 22 1017 83 10000 2.57 190 07:43 19.03.2021
1305 Clear 22 1017 83 10000 3.6 170 06:58 19.03.2021
1306 Clear 22 1018 83 10000 2.57 180 05:19 19.03.2021
1307 Clear 24 1017 73 10000 6.69 180 00:58 19.03.2021
1308 Clear 26 1017 65 10000 7.72 170 23:50 18.03.2021
1309 Clear 26 1017 65 10000 7.72 170 23:26 18.03.2021
1310 Clouds 26 1017 61 10000 7.72 160 22:41 18.03.2021
1311 Clouds 26 1017 61 10000 7.72 160 22:22 18.03.2021
1312 Clouds 26 1018 61 10000 7.72 170 21:40 18.03.2021
1313 Clouds 27 1018 61 10000 8.23 170 20:54 18.03.2021
1314 Clouds 27 1018 61 10000 8.23 170 20:35 18.03.2021
1315 Clouds 27 1019 57 10000 8.23 170 19:59 18.03.2021
1316 Clouds 27 1019 57 10000 8.23 170 19:41 18.03.2021
1317 Clouds 27 1019 57 10000 8.23 170 19:20 18.03.2021
1318 Clouds 27 1020 61 10000 7.72 160 18:38 18.03.2021
1319 Clouds 27 1020 61 10000 7.2 170 17:51 18.03.2021
1320 Clouds 27 1020 61 10000 7.2 170 17:26 18.03.2021
1321 Clouds 27 1020 61 10000 6.69 170 16:50 18.03.2021
1322 Clouds 27 1020 61 10000 6.69 170 16:30 18.03.2021
1323 Clouds 26 1020 65 10000 7.2 170 15:49 18.03.2021
1324 Clouds 26 1020 65 10000 7.2 170 15:29 18.03.2021
1325 Clouds 25 1020 73 10000 6.17 160 14:58 18.03.2021
1326 Clouds 25 1020 73 10000 6.17 160 14:40 18.03.2021
1327 Clouds 25 1020 73 10000 6.17 160 14:40 18.03.2021
1328 Clouds 23 1019 83 10000 3.6 160 13:54 18.03.2021
1329 Clouds 23 1019 83 10000 3.6 160 13:27 18.03.2021
1330 Clouds 21 1019 88 10000 3.09 170 12:46 18.03.2021
1331 Clouds 21 1019 88 10000 3.09 170 12:28 18.03.2021
1332 Clouds 21 1019 88 10000 3.09 170 11:55 18.03.2021
1333 Clouds 21 1019 88 10000 3.09 170 11:34 18.03.2021
1334 Clouds 22 1018 88 10000 4.63 150 10:49 18.03.2021
1335 Clouds 22 1018 88 10000 4.63 150 10:49 18.03.2021
1336 Clouds 22 1018 88 10000 4.63 150 10:28 18.03.2021
1337 Clouds 22 1018 88 10000 3.6 150 09:58 18.03.2021
1338 Clouds 22 1018 88 10000 3.6 150 09:30 18.03.2021
1339 Clouds 23 1018 83 10000 3.6 130 08:57 18.03.2021
1340 Clouds 23 1018 83 10000 3.6 130 08:33 18.03.2021
1341 Clouds 23 1019 83 10000 3.6 130 07:57 18.03.2021
1342 Clouds 23 1019 83 10000 3.6 130 07:38 18.03.2021
1343 Clouds 23 1019 83 10000 3.6 130 06:40 18.03.2021
1344 Clouds 23 1019 83 10000 3.6 130 06:19 18.03.2021
1345 Clouds 23 1020 83 10000 3.6 140 04:27 18.03.2021
1346 Clouds 25 1018 73 10000 5.14 160 00:38 18.03.2021
1347 Clouds 26 1018 65 10000 6.17 160 22:59 17.03.2021
1348 Clouds 26 1018 65 10000 6.17 160 22:36 17.03.2021
1349 Clouds 26 1018 65 10000 6.17 160 22:18 17.03.2021
1350 Clouds 27 1018 61 10000 7.2 150 21:45 17.03.2021
1351 Clouds 27 1018 61 10000 7.2 150 21:27 17.03.2021
1352 Clouds 27 1019 61 10000 7.2 170 20:45 17.03.2021
1353 Clouds 27 1019 61 10000 7.2 170 20:25 17.03.2021
1354 Clouds 27 1019 65 10000 7.2 160 19:51 17.03.2021
1355 Clouds 27 1019 65 10000 7.2 160 19:25 17.03.2021
1356 Clouds 27 1020 65 10000 7.2 140 18:57 17.03.2021
1357 Clouds 27 1020 65 10000 7.2 140 18:38 17.03.2021
1358 Clouds 27 1021 65 10000 7.72 160 17:56 17.03.2021
1359 Clouds 27 1021 65 10000 7.72 160 17:27 17.03.2021
1360 Clouds 27 1021 65 10000 7.2 150 16:54 17.03.2021
1361 Clouds 27 1021 65 10000 7.2 150 16:36 17.03.2021
1362 Clouds 27 1021 65 10000 7.2 150 16:18 17.03.2021
1363 Clouds 25 1021 73 10000 7.2 160 15:37 17.03.2021
1364 Clouds 25 1021 78 10000 5.14 160 14:45 17.03.2021
1365 Clouds 25 1021 78 10000 5.14 160 14:27 17.03.2021
1366 Clouds 22 1020 88 10000 3.6 160 13:56 17.03.2021
1367 Clouds 22 1020 88 10000 3.6 160 13:32 17.03.2021
1368 Clouds 20 1020 94 10000 0.51 0 12:58 17.03.2021
1369 Clouds 20 1020 94 10000 0.51 0 12:34 17.03.2021
1370 Clouds 20 1019 94 10000 0.51 0 11:53 17.03.2021
1371 Clouds 20 1019 94 10000 0.51 0 11:24 17.03.2021
1372 Clouds 20 1019 94 10000 0.51 0 10:57 17.03.2021
1373 Clouds 20 1019 94 10000 0.51 0 10:34 17.03.2021
1374 Clouds 21 1019 88 10000 2.06 140 09:50 17.03.2021
1375 Clouds 21 1019 88 10000 2.06 140 09:32 17.03.2021
1376 Clouds 23 1018 82 10000 6.89 125 09:00 17.03.2021
1377 Clouds 21 1020 88 10000 1.54 140 08:39 17.03.2021
1378 Clouds 21 1020 88 10000 1.54 140 07:55 17.03.2021
1379 Clouds 21 1020 88 10000 1.54 140 07:35 17.03.2021
1380 Clouds 21 1020 88 10000 2.06 120 06:47 17.03.2021
1381 Clouds 22 1021 88 10000 2.06 150 04:26 17.03.2021
1382 Clear 22 1020 88 10000 2.57 140 03:25 17.03.2021
1383 Clouds 24 1019 69 10000 5.14 160 00:40 17.03.2021
1384 Clouds 25 1020 65 10000 5.14 170 23:38 16.03.2021
1385 Clouds 25 1020 65 10000 5.14 170 23:18 16.03.2021
1386 Clouds 26 1019 61 10000 5.66 160 22:40 16.03.2021
1387 Clouds 26 1019 61 10000 5.66 160 22:21 16.03.2021
1388 Clouds 27 1019 57 10000 6.69 170 21:39 16.03.2021
1389 Clouds 27 1019 57 10000 6.69 170 21:21 16.03.2021
1390 Clouds 27 1020 57 10000 7.72 150 20:46 16.03.2021
1391 Clouds 27 1020 57 10000 7.72 150 20:18 16.03.2021
1392 Clouds 26 1021 57 10000 7.72 150 19:43 16.03.2021
1393 Clouds 26 1021 57 10000 7.72 150 19:24 16.03.2021
1394 Clouds 27 1021 57 10000 7.72 150 18:47 16.03.2021
1395 Clouds 27 1021 57 10000 7.72 150 18:29 16.03.2021
1396 Clouds 26 1022 57 10000 7.2 140 17:50 16.03.2021
1397 Clouds 26 1022 57 10000 7.2 140 17:32 16.03.2021
1398 Clouds 25 1022 57 10000 7.2 120 16:53 16.03.2021
1399 Clouds 25 1022 57 10000 7.2 120 16:31 16.03.2021
1400 Clouds 24 1022 64 10000 6.17 120 15:47 16.03.2021
1401 Clouds 24 1022 64 10000 6.17 120 15:22 16.03.2021
1402 Clouds 23 1022 73 10000 3.09 100 14:59 16.03.2021
1403 Clouds 23 1022 73 10000 3.09 100 14:40 16.03.2021
1404 Clouds 23 1022 73 10000 3.09 100 14:21 16.03.2021
1405 Clouds 21 1021 78 10000 2.57 90 13:54 16.03.2021
1406 Clouds 21 1021 78 10000 2.57 90 13:27 16.03.2021
1407 Clouds 20 1020 88 10000 2.06 90 12:54 16.03.2021
1408 Clouds 20 1020 88 10000 2.06 90 12:35 16.03.2021
1409 Clouds 19 1020 88 10000 2.57 100 11:54 16.03.2021
1410 Clouds 19 1020 88 10000 2.57 100 11:27 16.03.2021
1411 Clouds 19 1019 88 10000 2.06 100 10:44 16.03.2021
1412 Clouds 19 1019 88 10000 2.06 100 10:20 16.03.2021
1413 Clouds 19 1019 88 10000 2.06 100 10:20 16.03.2021
1414 Clouds 19 1020 88 10000 1.03 100 09:39 16.03.2021
1415 Clouds 19 1020 88 10000 1.03 100 09:18 16.03.2021
1416 Clouds 19 1020 88 10000 2.57 120 08:49 16.03.2021
1417 Clouds 19 1020 88 10000 2.57 120 08:31 16.03.2021
1418 Clouds 21 1021 83 10000 2.57 100 07:38 16.03.2021
1419 Clouds 21 1021 83 10000 2.06 100 06:57 16.03.2021
1420 Clouds 21 1021 83 10000 2.06 100 06:35 16.03.2021
1421 Clear 21 1022 83 10000 2.57 110 05:35 16.03.2021
1422 Clouds 22 1021 78 10000 2.06 110 02:46 16.03.2021
1423 Clouds 22 1021 78 10000 2.06 110 02:24 16.03.2021
1424 Clouds 24 1020 69 10000 4.12 80 00:25 16.03.2021
1425 Clouds 25 1020 61 10000 3.09 120 23:29 15.03.2021
1426 Clouds 25 1020 61 10000 3.09 120 22:56 15.03.2021
1427 Clouds 25 1020 61 10000 3.09 120 22:36 15.03.2021
1428 Clouds 26 1020 61 10000 2.57 130 21:58 15.03.2021
1429 Clouds 26 1020 61 10000 2.57 130 21:38 15.03.2021
1430 Clouds 26 1020 61 10000 2.57 130 21:20 15.03.2021
1431 Clouds 27 1020 57 10000 5.14 70 20:43 15.03.2021
1432 Clouds 27 1020 57 10000 5.14 70 20:43 15.03.2021
1433 Clouds 27 1020 57 10000 5.14 70 20:24 15.03.2021
1434 Clouds 25 1021 65 10000 5.66 80 19:51 15.03.2021
1435 Clouds 25 1021 65 10000 5.66 80 19:33 15.03.2021
1436 Clouds 25 1021 65 10000 3.09 110 18:57 15.03.2021
1437 Clouds 25 1021 65 10000 3.09 110 18:32 15.03.2021
1438 Clouds 26 1021 57 10000 4.63 90 17:56 15.03.2021
1439 Clouds 26 1021 57 10000 4.63 90 17:33 15.03.2021
1440 Clouds 25 1022 61 10000 3.09 130 16:56 15.03.2021
1441 Clouds 25 1022 61 10000 3.09 130 16:35 15.03.2021
1442 Clouds 24 1021 64 10000 3.09 120 15:47 15.03.2021
1443 Clouds 24 1021 64 10000 3.09 120 15:27 15.03.2021
1444 Clouds 23 1021 78 10000 2.06 100 14:45 15.03.2021
1445 Clouds 23 1021 78 10000 2.06 100 14:45 15.03.2021
1446 Clouds 23 1021 78 10000 2.06 100 14:27 15.03.2021
1447 Clouds 16 1021 94 10000 0.51 0 13:55 15.03.2021
1448 Clouds 16 1021 94 10000 0.51 0 13:34 15.03.2021
1449 Clouds 16 1020 94 10000 3.24 87 12:51 15.03.2021
1450 Clouds 16 1020 94 10000 3.39 80 12:20 15.03.2021
1451 Clouds 17 1020 94 10000 3.39 80 11:57 15.03.2021
1452 Clouds 17 1020 94 10000 3.39 80 11:38 15.03.2021
1453 Clouds 17 1020 94 10000 3.64 72 11:18 15.03.2021
1454 Clouds 17 1019 88 10000 3.64 72 10:34 15.03.2021
1455 Clouds 17 1019 94 10000 3.9 69 09:59 15.03.2021
1456 Clouds 17 1019 94 10000 3.9 69 09:40 15.03.2021
1457 Clouds 17 1019 94 10000 4.12 72 09:20 15.03.2021
1458 Clouds 17 1020 94 10000 4.12 72 08:41 15.03.2021
1459 Clouds 17 1020 94 10000 4.37 68 08:19 15.03.2021
1460 Clouds 17 1020 94 10000 4.37 68 07:33 15.03.2021
1461 Clouds 19 1021 94 10000 4.62 60 06:45 15.03.2021
1462 Clear 19 1021 88 10000 0.51 120 05:35 15.03.2021
1463 Clear 20 1021 88 10000 1.54 110 03:18 15.03.2021
1464 Clouds 23 1019 73 10000 3.09 130 00:21 15.03.2021
1465 Clouds 25 1019 57 10000 3.09 80 23:22 14.03.2021
1466 Clouds 26 1019 57 10000 3.09 70 22:49 14.03.2021
1467 Clouds 26 1019 57 10000 3.09 70 22:25 14.03.2021
1468 Clouds 25 1020 65 10000 4.12 70 21:50 14.03.2021
1469 Clouds 25 1020 65 10000 4.12 70 21:21 14.03.2021
1470 Clouds 26 1020 57 10000 4.12 80 20:50 14.03.2021
1471 Clouds 26 1020 57 10000 4.12 80 20:27 14.03.2021
1472 Clouds 27 1021 57 10000 4.12 60 19:50 14.03.2021
1473 Clouds 27 1021 57 10000 4.12 60 19:27 14.03.2021
1474 Clouds 25 1022 65 10000 5.14 70 18:58 14.03.2021
1475 Clouds 25 1022 65 10000 5.14 70 18:28 14.03.2021
1476 Clouds 25 1023 61 10000 5.66 60 17:41 14.03.2021
1477 Clouds 25 1023 61 10000 5.66 60 17:23 14.03.2021
1478 Clouds 25 1023 61 10000 3.09 120 16:52 14.03.2021
1479 Clouds 25 1023 61 10000 3.09 120 16:32 14.03.2021
1480 Clouds 24 1022 69 10000 3.09 110 15:57 14.03.2021
1481 Clouds 24 1022 69 10000 3.09 110 15:39 14.03.2021
1482 Clouds 22 1022 78 10000 2.06 110 14:42 14.03.2021
1483 Clouds 22 1022 78 10000 2.06 110 14:42 14.03.2021
1484 Clouds 22 1022 78 10000 2.06 110 14:23 14.03.2021
1485 Clouds 20 1021 88 10000 1.54 100 13:50 14.03.2021
1486 Clouds 20 1021 88 10000 1.54 100 13:29 14.03.2021
1487 Clouds 20 1021 88 10000 1.54 110 12:47 14.03.2021
1488 Clouds 20 1021 88 10000 1.54 110 12:28 14.03.2021
1489 Clouds 20 1020 88 10000 1.54 110 11:54 14.03.2021
1490 Clouds 20 1020 88 10000 1.54 110 11:36 14.03.2021
1491 Clouds 21 1020 83 10000 2.06 100 10:56 14.03.2021
1492 Clouds 21 1020 83 10000 2.06 100 10:37 14.03.2021
1493 Clouds 21 1020 83 10000 2.06 100 10:18 14.03.2021
1494 Clouds 21 1021 83 10000 2.06 100 09:43 14.03.2021
1495 Clouds 21 1021 83 10000 2.06 100 09:22 14.03.2021
1496 Clouds 21 1021 83 10000 2.06 90 08:48 14.03.2021
1497 Clouds 21 1021 83 10000 2.06 90 08:29 14.03.2021
1498 Clouds 22 1022 78 10000 3.6 90 07:46 14.03.2021
1499 Clouds 22 1022 73 10000 3.09 90 06:51 14.03.2021
1500 Clouds 22 1023 78 10000 3.6 80 04:51 14.03.2021
1501 Clouds 23 1022 73 10000 5.66 70 00:51 14.03.2021
1502 Clouds 23 1022 73 10000 5.66 70 00:19 14.03.2021
1503 Clouds 24 1022 69 10000 5.66 70 23:47 13.03.2021
1504 Clouds 24 1022 69 10000 5.66 70 23:25 13.03.2021
1505 Clouds 24 1022 69 10000 7.2 50 22:52 13.03.2021
1506 Clouds 24 1022 69 10000 7.2 50 22:26 13.03.2021
1507 Clouds 25 1022 65 10000 6.69 70 21:43 13.03.2021
1508 Clouds 25 1022 65 10000 6.69 70 21:25 13.03.2021
1509 Clouds 26 1023 61 10000 6.69 60 20:50 13.03.2021
1510 Clouds 26 1023 61 10000 6.69 60 20:30 13.03.2021
1511 Clouds 24 1023 64 10000 6.69 50 19:53 13.03.2021
1512 Clouds 24 1023 64 10000 6.69 50 19:29 13.03.2021
1513 Clouds 26 1024 61 10000 6.17 70 18:43 13.03.2021
1514 Clouds 26 1024 61 10000 6.17 70 18:22 13.03.2021
1515 Clouds 25 1024 61 10000 6.17 70 17:58 13.03.2021
1516 Clouds 25 1024 61 10000 6.17 70 17:35 13.03.2021
1517 Clouds 24 1024 64 10000 7.2 70 16:59 13.03.2021
1518 Clouds 24 1024 64 10000 7.2 70 16:39 13.03.2021
1519 Clouds 24 1024 64 10000 6.17 70 15:58 13.03.2021
1520 Clouds 24 1024 64 10000 6.17 70 15:22 13.03.2021
1521 Clouds 23 1023 64 10000 5.66 70 14:43 13.03.2021
1522 Clouds 23 1023 64 10000 5.66 70 14:24 13.03.2021
1523 Clouds 22 1023 64 10000 4.12 70 13:30 13.03.2021
1524 Clouds 22 1022 64 10000 3.09 70 12:56 13.03.2021
1525 Clouds 22 1022 64 10000 3.09 70 12:38 13.03.2021
1526 Clouds 22 1022 64 10000 4.63 70 11:58 13.03.2021
1527 Clouds 22 1022 64 10000 4.63 70 11:39 13.03.2021
1528 Clouds 22 1022 64 10000 4.63 70 11:21 13.03.2021
1529 Clouds 22 1022 64 10000 4.63 70 10:36 13.03.2021
1530 Clouds 22 1022 64 10000 4.63 70 10:18 13.03.2021
1531 Clouds 22 1022 64 10000 3.09 80 09:33 13.03.2021
1532 Clouds 22 1023 64 10000 4.12 80 08:54 13.03.2021
1533 Clouds 22 1023 64 10000 4.12 80 08:54 13.03.2021
1534 Clouds 22 1023 64 10000 4.12 80 08:26 13.03.2021
1535 Clouds 22 1024 64 10000 4.63 80 07:57 13.03.2021
1536 Clouds 22 1024 64 10000 4.63 80 07:38 13.03.2021
1537 Clouds 22 1025 68 10000 5.14 80 05:30 13.03.2021
1538 Clouds 23 1024 60 10000 6.17 90 02:42 13.03.2021
1539 Clouds 23 1023 64 10000 5.14 80 00:36 13.03.2021
1540 Clouds 24 1023 64 10000 6.69 90 23:46 12.03.2021
1541 Clouds 24 1023 64 10000 6.69 90 23:26 12.03.2021
1542 Clouds 24 1023 64 10000 7.2 90 22:32 12.03.2021
1543 Clouds 25 1023 57 10000 8.23 90 21:59 12.03.2021
1544 Clouds 25 1023 57 10000 8.23 90 21:38 12.03.2021
1545 Clouds 25 1023 57 10000 8.23 90 21:18 12.03.2021
1546 Clouds 25 1024 61 10000 8.23 90 20:48 12.03.2021
1547 Clouds 25 1024 61 10000 8.23 90 20:23 12.03.2021
1548 Clouds 25 1025 61 10000 7.2 80 19:45 12.03.2021
1549 Clouds 25 1025 61 10000 7.2 80 19:45 12.03.2021
1550 Clouds 25 1025 61 10000 7.2 80 19:26 12.03.2021
1551 Clouds 24 1025 69 10000 8.23 70 18:50 12.03.2021
1552 Clouds 24 1025 69 10000 8.23 70 18:28 12.03.2021
1553 Clouds 24 1026 64 10000 7.72 80 17:44 12.03.2021
1554 Clouds 24 1026 64 10000 7.72 80 17:26 12.03.2021
1555 Clouds 23 1026 68 10000 7.72 70 16:44 12.03.2021
1556 Clouds 23 1026 68 10000 7.72 70 16:24 12.03.2021
1557 Clouds 23 1026 68 10000 7.72 70 16:24 12.03.2021
1558 Clouds 24 1025 64 10000 6.69 70 15:38 12.03.2021
1559 Clouds 23 1025 64 10000 6.17 80 14:53 12.03.2021
1560 Clouds 23 1025 64 10000 6.17 80 14:22 12.03.2021
1561 Clouds 22 1025 60 10000 4.63 80 13:58 12.03.2021
1562 Clouds 22 1025 60 10000 4.63 80 13:58 12.03.2021
1563 Clouds 22 1025 60 10000 4.63 80 13:37 12.03.2021
1564 Clouds 22 1025 60 10000 4.63 80 13:18 12.03.2021
1565 Clouds 21 1024 64 10000 4.63 80 12:48 12.03.2021
1566 Clouds 21 1024 64 10000 4.63 80 12:27 12.03.2021
1567 Clouds 22 1024 60 10000 5.66 70 11:53 12.03.2021
1568 Clouds 22 1024 60 10000 5.66 70 11:24 12.03.2021
1569 Clouds 22 1023 60 10000 5.14 80 10:55 12.03.2021
1570 Clouds 22 1023 60 10000 5.14 80 10:27 12.03.2021
1571 Clouds 21 1024 64 10000 6.17 90 09:57 12.03.2021
1572 Clouds 21 1024 64 10000 6.17 90 09:26 12.03.2021
1573 Clouds 21 1025 73 10000 4.63 100 08:47 12.03.2021
1574 Clouds 21 1025 73 10000 4.63 100 08:26 12.03.2021
1575 Clouds 22 1025 60 10000 4.12 100 07:40 12.03.2021
1576 Clouds 22 1025 64 10000 4.63 100 06:57 12.03.2021
1577 Clouds 22 1025 64 10000 4.63 100 06:28 12.03.2021
1578 Clouds 22 1025 68 10000 7.2 90 02:58 12.03.2021
1579 Clouds 23 1024 64 10000 8.75 80 00:51 12.03.2021
1580 Clouds 24 1024 60 10000 8.75 80 23:34 11.03.2021
1581 Clouds 24 1024 64 10000 8.75 70 22:51 11.03.2021
1582 Clouds 24 1024 64 10000 8.75 70 22:31 11.03.2021
1583 Clouds 25 1024 53 10000 7.72 80 21:55 11.03.2021
1584 Clouds 25 1024 53 10000 7.72 80 21:36 11.03.2021
1585 Clouds 25 1024 53 10000 7.72 80 21:18 11.03.2021
1586 Clouds 24 1025 57 10000 8.75 100 20:41 11.03.2021
1587 Clouds 24 1025 57 10000 8.75 100 20:19 11.03.2021
1588 Clouds 24 1025 53 10000 8.23 90 19:44 11.03.2021
1589 Clouds 24 1025 53 10000 8.23 90 19:26 11.03.2021
1590 Clouds 24 1026 50 10000 8.75 100 18:46 11.03.2021
1591 Clouds 24 1026 50 10000 8.75 100 18:28 11.03.2021
1592 Clouds 24 1027 57 10000 7.72 90 17:44 11.03.2021
1593 Clouds 24 1027 57 10000 7.2 90 16:54 11.03.2021
1594 Clouds 24 1027 57 10000 7.2 90 16:28 11.03.2021
1595 Clouds 24 1026 57 10000 7.2 110 15:49 11.03.2021
1596 Clouds 24 1026 57 10000 7.2 110 15:22 11.03.2021
1597 Clear 22 1026 66 10000 9.19 72 14:49 11.03.2021
1598 Clouds 21 1025 64 10000 3.09 90 14:19 11.03.2021
1599 Clouds 21 1025 64 10000 3.09 90 14:19 11.03.2021
1600 Clouds 21 1025 64 10000 3.09 90 13:49 11.03.2021
1601 Clouds 21 1025 64 10000 3.09 90 13:30 11.03.2021
1602 Clouds 20 1025 68 10000 3.6 90 12:58 11.03.2021
1603 Clouds 20 1025 68 10000 3.6 90 12:38 11.03.2021
1604 Clouds 20 1025 68 10000 3.6 90 12:38 11.03.2021
1605 Clouds 20 1025 68 10000 3.6 90 12:20 11.03.2021
1606 Clouds 20 1024 68 10000 3.6 100 11:43 11.03.2021
1607 Clouds 20 1024 68 10000 3.6 100 11:21 11.03.2021
1608 Clouds 20 1024 68 10000 3.6 100 10:39 11.03.2021
1609 Clouds 20 1024 68 10000 3.6 100 10:19 11.03.2021
1610 Clouds 20 1024 73 10000 5.14 110 09:39 11.03.2021
1611 Clouds 20 1024 73 10000 5.14 110 09:21 11.03.2021
1612 Clouds 21 1025 68 10000 6.17 110 08:47 11.03.2021
1613 Clouds 21 1025 68 10000 6.17 110 08:18 11.03.2021
1614 Clouds 21 1026 68 10000 6.69 110 07:29 11.03.2021
1615 Clouds 21 1026 64 10000 4.12 100 06:50 11.03.2021
1616 Clouds 21 1026 64 10000 4.12 100 06:25 11.03.2021
1617 Clouds 22 1026 56 10000 6.69 100 02:50 11.03.2021
1618 Clouds 23 1025 53 10000 8.23 90 00:56 11.03.2021
1619 Clouds 24 1024 50 10000 8.23 90 23:32 10.03.2021
1620 Clouds 24 1024 50 10000 8.23 90 23:32 10.03.2021
1621 Clouds 24 1024 50 10000 8.23 90 22:54 10.03.2021
1622 Clouds 24 1024 50 10000 8.23 90 22:30 10.03.2021
1623 Clouds 25 1025 50 10000 8.23 90 21:47 10.03.2021
1624 Clouds 25 1025 50 10000 8.23 90 21:24 10.03.2021
1625 Clear 24 1025 46 10000 8.23 80 20:46 10.03.2021
1626 Clear 24 1025 46 10000 8.23 80 20:28 10.03.2021
1627 Clear 25 1026 44 10000 8.75 90 19:50 10.03.2021
1628 Clear 25 1026 44 10000 8.75 90 19:30 10.03.2021
1629 Clear 25 1027 44 10000 8.23 90 18:47 10.03.2021
1630 Clear 25 1027 44 10000 8.23 90 18:28 10.03.2021
1631 Clouds 24 1028 43 10000 8.23 100 17:57 10.03.2021
1632 Clouds 24 1028 43 10000 8.23 100 17:37 10.03.2021
1633 Clouds 24 1028 43 10000 8.23 100 17:19 10.03.2021
1634 Clouds 24 1028 50 10000 8.23 110 16:44 10.03.2021
1635 Clouds 24 1028 50 10000 8.23 110 16:24 10.03.2021
1636 Clouds 23 1027 53 10000 7.2 110 15:47 10.03.2021
1637 Clouds 23 1027 53 10000 7.2 110 15:23 10.03.2021
1638 Clouds 21 1027 64 10000 5.14 110 14:56 10.03.2021
1639 Clouds 21 1027 64 10000 5.14 110 14:20 10.03.2021
1640 Clouds 21 1027 64 10000 5.14 110 14:20 10.03.2021
1641 Clouds 19 1026 72 10000 4.12 100 13:51 10.03.2021
1642 Clouds 19 1026 72 10000 4.12 100 13:30 10.03.2021
1643 Clouds 20 1026 73 10000 3.6 100 12:46 10.03.2021
1644 Clouds 20 1026 73 10000 3.6 100 12:19 10.03.2021
1645 Clouds 19 1025 77 10000 4.63 90 11:43 10.03.2021
1646 Clouds 19 1025 77 10000 4.63 90 11:19 10.03.2021
1647 Clouds 20 1025 68 10000 5.14 100 10:46 10.03.2021
1648 Clouds 20 1025 68 10000 5.14 100 10:28 10.03.2021
1649 Clouds 20 1025 60 10000 4.63 90 09:45 10.03.2021
1650 Clouds 20 1025 60 10000 4.63 90 09:24 10.03.2021
1651 Clouds 20 1025 60 10000 4.63 90 09:24 10.03.2021
1652 Clouds 20 1026 64 10000 4.63 80 08:57 10.03.2021
1653 Clouds 20 1026 64 10000 4.63 80 08:39 10.03.2021
1654 Clouds 20 1026 64 10000 4.63 80 08:20 10.03.2021
1655 Clouds 20 1027 68 10000 6.17 90 07:33 10.03.2021
1656 Clouds 19 1028 77 10000 5.66 120 06:57 10.03.2021
1657 Clouds 19 1028 77 10000 5.66 120 06:32 10.03.2021
1658 Clouds 21 1027 60 10000 7.72 80 02:42 10.03.2021
1659 Clouds 22 1027 49 10000 8.23 90 23:52 09.03.2021
1660 Clouds 22 1027 49 10000 8.23 90 23:24 09.03.2021
1661 Clouds 22 1027 53 10000 8.23 70 22:42 09.03.2021
1662 Clouds 22 1027 53 10000 8.23 70 22:23 09.03.2021
1663 Clouds 22 1027 49 10000 7.72 80 21:46 09.03.2021
1664 Clouds 22 1027 49 10000 7.72 80 21:25 09.03.2021
1665 Clouds 22 1028 46 10000 8.23 80 20:58 09.03.2021
1666 Clouds 22 1028 46 10000 8.23 80 20:40 09.03.2021
1667 Clouds 22 1028 46 10000 8.23 80 20:21 09.03.2021
1668 Clouds 23 1028 49 10000 8.75 80 19:47 09.03.2021
1669 Clouds 23 1028 49 10000 8.75 80 19:26 09.03.2021
1670 Clouds 22 1029 49 10000 8.23 90 18:50 09.03.2021
1671 Clouds 22 1029 49 10000 8.23 90 18:26 09.03.2021
1672 Clouds 21 1029 60 10000 7.72 100 17:53 09.03.2021
1673 Clouds 21 1029 60 10000 7.72 100 17:30 09.03.2021
1674 Clouds 20 1030 64 10000 8.75 100 16:55 09.03.2021
1675 Clouds 20 1030 64 10000 8.75 100 16:36 09.03.2021
1676 Clouds 20 1030 64 10000 8.75 100 16:18 09.03.2021
1677 Clouds 21 1029 56 10000 8.23 100 15:40 09.03.2021
1678 Clouds 21 1029 56 10000 8.23 100 15:20 09.03.2021
1679 Clouds 21 1028 52 10000 6.17 100 14:28 09.03.2021
1680 Clouds 20 1028 60 10000 7.2 90 13:57 09.03.2021
1681 Clouds 20 1028 60 10000 7.2 90 13:36 09.03.2021
1682 Clouds 20 1028 60 10000 7.2 90 13:18 09.03.2021
1683 Clouds 20 1027 60 10000 7.72 80 12:39 09.03.2021
1684 Clouds 20 1027 60 10000 7.72 80 12:18 09.03.2021
1685 Clouds 20 1027 64 10000 5.66 80 11:41 09.03.2021
1686 Clouds 20 1027 64 10000 5.66 80 11:20 09.03.2021
1687 Clouds 20 1027 60 10000 6.17 80 10:47 09.03.2021
1688 Clouds 20 1027 60 10000 6.17 80 10:23 09.03.2021
1689 Clear 20 1027 64 10000 6.17 100 09:58 09.03.2021
1690 Clear 20 1027 64 10000 6.17 100 09:39 09.03.2021
1691 Clear 20 1027 64 10000 6.17 100 09:21 09.03.2021
1692 Clear 21 1027 46 10000 6.17 90 08:35 09.03.2021
1693 Clear 21 1027 46 10000 6.17 90 08:35 09.03.2021
1694 Clear 21 1028 56 10000 6.17 80 07:52 09.03.2021
1695 Clear 21 1028 56 10000 6.17 80 07:31 09.03.2021
1696 Clouds 21 1028 43 10000 6.17 80 06:59 09.03.2021
1697 Clouds 21 1028 49 10000 6.69 70 05:54 09.03.2021
1698 Clouds 21 1028 56 10000 6.69 70 03:51 09.03.2021
1699 Clouds 21 1027 52 10000 7.2 70 00:18 09.03.2021
1700 Clouds 21 1026 60 10000 7.2 90 23:42 08.03.2021
1701 Clouds 21 1026 60 10000 7.2 90 23:23 08.03.2021
1702 Clouds 22 1026 56 10000 7.72 70 22:44 08.03.2021
1703 Clouds 22 1026 56 10000 7.72 70 22:26 08.03.2021
1704 Clouds 23 1026 49 10000 7.2 70 21:53 08.03.2021
1705 Clouds 23 1026 49 10000 7.2 70 21:34 08.03.2021
1706 Clouds 23 1026 53 10000 7.2 70 20:45 08.03.2021
1707 Clouds 23 1026 53 10000 7.2 70 20:25 08.03.2021
1708 Clouds 23 1026 56 10000 8.23 60 19:55 08.03.2021
1709 Clouds 23 1026 56 10000 8.23 60 19:28 08.03.2021
1710 Clouds 22 1027 60 10000 6.17 50 18:39 08.03.2021
1711 Clouds 22 1027 60 10000 6.17 50 18:20 08.03.2021
1712 Clouds 22 1027 56 10000 6.17 30 17:50 08.03.2021
1713 Clouds 22 1027 56 10000 6.17 30 17:25 08.03.2021
1714 Clouds 21 1027 52 10000 6.69 40 16:46 08.03.2021
1715 Clouds 21 1027 52 10000 6.69 40 16:27 08.03.2021
1716 Clouds 21 1026 49 10000 6.17 30 15:48 08.03.2021
1717 Clouds 21 1026 49 10000 6.17 30 15:25 08.03.2021
1718 Clouds 20 1026 49 10000 6.17 30 14:38 08.03.2021
1719 Clouds 20 1026 49 10000 6.17 30 14:19 08.03.2021
1720 Clouds 19 1025 52 10000 5.14 30 13:25 08.03.2021
1721 Clouds 19 1025 52 10000 5.14 30 12:59 08.03.2021
1722 Clouds 19 1025 52 10000 5.14 30 12:41 08.03.2021
1723 Clouds 19 1025 52 10000 5.14 30 12:20 08.03.2021
1724 Clouds 20 1024 49 10000 6.17 40 11:37 08.03.2021
1725 Clouds 20 1024 49 10000 6.17 40 11:18 08.03.2021
1726 Clouds 20 1023 49 10000 6.69 50 10:41 08.03.2021
1727 Clouds 20 1023 49 10000 6.69 50 10:19 08.03.2021
1728 Clouds 20 1023 52 10000 6.69 30 09:30 08.03.2021
1729 Clouds 20 1022 52 10000 7.72 20 08:54 08.03.2021
1730 Clouds 20 1022 52 10000 7.72 20 08:27 08.03.2021
1731 Clouds 21 1023 52 10000 8.23 30 07:23 08.03.2021
1732 Clouds 21 1023 56 10000 7.72 30 06:38 08.03.2021
1733 Clouds 22 1021 64 10000 7.72 30 02:59 08.03.2021
1734 Clouds 22 1019 68 10000 8.23 20 00:43 08.03.2021
1735 Clouds 23 1018 64 10000 6.69 20 23:54 07.03.2021
1736 Clouds 23 1018 64 10000 6.69 20 23:23 07.03.2021
1737 Clouds 23 1018 68 10000 8.23 360 22:50 07.03.2021
1738 Clouds 23 1018 68 10000 8.23 360 22:29 07.03.2021
1739 Clouds 24 1018 60 10000 7.72 360 21:58 07.03.2021
1740 Clouds 24 1018 60 10000 7.72 360 21:39 07.03.2021
1741 Clouds 24 1018 60 10000 7.72 360 21:21 07.03.2021
1742 Clouds 25 1017 57 10000 8.23 350 20:41 07.03.2021
1743 Clouds 25 1017 57 10000 8.23 350 20:23 07.03.2021
1744 Clouds 25 1018 61 10000 8.75 340 19:55 07.03.2021
1745 Clouds 25 1018 61 10000 8.75 340 19:37 07.03.2021
1746 Clouds 25 1018 61 10000 8.75 340 19:19 07.03.2021
1747 Clouds 25 1018 65 10000 7.2 330 18:40 07.03.2021
1748 Clouds 25 1018 65 10000 7.2 330 18:18 07.03.2021
1749 Clouds 24 1018 64 10000 6.69 330 17:39 07.03.2021
1750 Clouds 24 1018 64 10000 6.69 330 17:20 07.03.2021
1751 Clouds 25 1017 61 10000 4.63 340 16:43 07.03.2021
1752 Clouds 25 1017 61 10000 4.63 340 16:21 07.03.2021
1753 Clouds 23 1017 73 10000 4.12 360 15:52 07.03.2021
1754 Clouds 23 1017 73 10000 4.12 360 15:32 07.03.2021
1755 Clouds 23 1015 78 10000 2.57 30 14:56 07.03.2021
1756 Clouds 23 1015 78 10000 2.57 30 14:29 07.03.2021
1757 Clouds 21 1015 88 10000 1.54 10 13:51 07.03.2021
1758 Clouds 21 1015 88 10000 1.54 10 13:30 07.03.2021
1759 Clouds 21 1014 88 10000 2.06 50 12:56 07.03.2021
1760 Clouds 21 1014 88 10000 2.06 50 12:37 07.03.2021
1761 Clouds 21 1014 88 10000 2.06 50 12:18 07.03.2021
1762 Clouds 21 1013 88 10000 2.57 30 11:24 07.03.2021
1763 Clouds 22 1012 88 10000 2.06 40 10:55 07.03.2021
1764 Clouds 22 1012 88 10000 2.06 40 10:37 07.03.2021
1765 Clouds 22 1012 83 10000 3.09 10 09:54 07.03.2021
1766 Clouds 22 1012 83 10000 3.09 10 09:29 07.03.2021
1767 Clouds 20 1013 89 10000 8.55 37 08:59 07.03.2021
1768 Clouds 20 1013 89 10000 8.55 37 08:39 07.03.2021
1769 Clouds 20 1013 89 10000 8.55 37 08:39 07.03.2021
1770 Clouds 22 1013 80 10000 5.31 339 08:21 07.03.2021
1771 Clouds 24 1013 73 10000 5.14 180 05:26 07.03.2021
1772 Clouds 23 1013 73 10000 3.09 140 02:33 07.03.2021
1773 Clouds 23 1012 68 10000 6.17 150 00:33 07.03.2021
1774 Clear 24 1013 64 10000 6.69 170 23:40 06.03.2021
1775 Clear 24 1013 64 10000 6.69 170 23:20 06.03.2021
1776 Clouds 25 1013 53 10000 5.14 140 22:45 06.03.2021
1777 Clouds 25 1013 53 10000 5.14 140 22:21 06.03.2021
1778 Clouds 26 1013 47 10000 6.17 140 21:41 06.03.2021
1779 Clouds 26 1013 47 10000 6.17 140 21:41 06.03.2021
1780 Clouds 26 1013 47 10000 6.17 140 21:20 06.03.2021
1781 Clouds 26 1014 38 10000 4.63 130 20:41 06.03.2021
1782 Clouds 25 1015 50 10000 3.09 170 19:55 06.03.2021
1783 Clouds 25 1015 50 10000 3.09 170 19:37 06.03.2021
1784 Clouds 25 1015 50 10000 3.09 170 19:18 06.03.2021
1785 Clouds 23 1016 60 10000 3.09 250 18:41 06.03.2021
1786 Clouds 23 1016 60 10000 3.09 250 18:20 06.03.2021
1787 Clouds 24 1017 50 10000 2.57 110 17:48 06.03.2021
1788 Clouds 24 1017 50 10000 2.57 110 17:27 06.03.2021
1789 Clouds 23 1017 56 10000 3.6 70 16:53 06.03.2021
1790 Clouds 23 1017 56 10000 3.6 70 16:31 06.03.2021
1791 Clouds 24 1017 50 10000 3.09 110 15:55 06.03.2021
1792 Clouds 24 1017 50 10000 3.09 110 15:35 06.03.2021
1793 Clouds 23 1017 56 10000 2.06 100 14:57 06.03.2021
1794 Clouds 23 1017 56 10000 2.06 100 14:31 06.03.2021
1795 Clouds 18 1016 82 10000 0.51 0 13:50 06.03.2021
1796 Clouds 18 1016 82 10000 0.51 0 13:32 06.03.2021
1797 Clouds 19 1015 77 10000 0.51 0 12:58 06.03.2021
1798 Clouds 19 1015 77 10000 0.51 0 12:38 06.03.2021
1799 Clouds 19 1015 77 10000 0.51 0 12:18 06.03.2021
1800 Clouds 19 1014 72 10000 3.09 110 11:29 06.03.2021
1801 Clouds 20 1014 73 10000 2.06 80 10:59 06.03.2021
1802 Clouds 20 1014 73 10000 2.06 80 10:41 06.03.2021
1803 Clouds 19 1014 77 10000 2.57 100 09:56 06.03.2021
1804 Clouds 19 1014 77 10000 2.57 100 09:24 06.03.2021
1805 Clouds 20 1014 73 10000 2.57 90 08:54 06.03.2021
1806 Clouds 20 1014 73 10000 2.57 90 08:30 06.03.2021
1807 Clouds 19 1015 77 10000 1.54 110 07:54 06.03.2021
1808 Clouds 19 1015 77 10000 1.54 110 07:22 06.03.2021
1809 Clouds 22 1016 64 10000 2.57 90 05:52 06.03.2021
1810 Clouds 23 1015 64 10000 3.09 60 03:47 06.03.2021
1811 Clouds 23 1014 60 10000 2.57 50 01:32 06.03.2021
1812 Clouds 23 1014 60 10000 4.12 50 00:46 06.03.2021
1813 Clouds 24 1014 53 10000 4.12 50 23:44 05.03.2021
1814 Clouds 24 1014 53 10000 4.12 50 23:19 05.03.2021
1815 Clouds 25 1014 57 10000 5.14 40 22:43 05.03.2021
1816 Clouds 25 1014 57 10000 5.14 40 22:21 05.03.2021
1817 Clouds 25 1014 53 10000 5.14 50 21:43 05.03.2021
1818 Clouds 25 1014 53 10000 5.14 50 21:25 05.03.2021
1819 Clouds 24 1014 60 10000 5.66 40 20:47 05.03.2021
1820 Clouds 24 1014 60 10000 5.66 40 20:25 05.03.2021
1821 Clouds 25 1014 57 10000 5.66 40 19:48 05.03.2021
1822 Clouds 25 1014 57 10000 5.66 40 19:22 05.03.2021
1823 Clouds 25 1015 53 10000 6.17 60 18:52 05.03.2021
1824 Clouds 25 1015 53 10000 6.17 60 18:27 05.03.2021
1825 Clouds 25 1015 57 10000 5.66 50 17:51 05.03.2021
1826 Clouds 25 1015 57 10000 5.66 50 17:33 05.03.2021
1827 Clouds 24 1015 60 10000 5.66 40 16:44 05.03.2021
1828 Clouds 24 1015 60 10000 5.66 40 16:24 05.03.2021
1829 Clouds 24 1015 60 10000 5.66 40 16:24 05.03.2021
1830 Clouds 23 1014 64 10000 6.69 50 15:55 05.03.2021
1831 Clouds 23 1014 64 10000 6.69 50 15:27 05.03.2021
1832 Clouds 23 1014 64 10000 6.17 40 14:52 05.03.2021
1833 Clouds 23 1014 64 10000 6.17 40 14:34 05.03.2021
1834 Clouds 22 1014 73 10000 6.17 30 13:44 05.03.2021
1835 Clouds 22 1014 73 10000 6.17 30 13:21 05.03.2021
1836 Clouds 21 1013 78 10000 6.17 40 12:45 05.03.2021
1837 Clouds 20 1012 94 10000 2.57 350 11:40 05.03.2021
1838 Clouds 20 1012 94 10000 2.57 350 11:20 05.03.2021
1839 Clouds 20 1012 88 10000 4.63 350 10:57 05.03.2021
1840 Rain 20 1012 88 10000 4.63 350 10:37 05.03.2021
1841 Rain 21 1012 83 10000 5.14 340 10:18 05.03.2021
1842 Rain 21 1012 83 10000 5.14 340 09:39 05.03.2021
1843 Clouds 21 1012 83 10000 5.14 340 09:20 05.03.2021
1844 Clouds 21 1012 88 10000 4.63 340 08:39 05.03.2021
1845 Clouds 21 1012 88 10000 4.63 340 08:20 05.03.2021
1846 Clouds 21 1013 78 10000 4.12 270 07:34 05.03.2021
1847 Clouds 19 1013 82 10000 2.57 280 06:35 05.03.2021
1848 Clouds 20 1014 73 10000 4.12 300 05:42 05.03.2021
1849 Clouds 22 1013 64 10000 4.12 300 01:35 05.03.2021
1850 Clouds 24 1013 57 10000 5.14 310 23:55 04.03.2021
1851 Clouds 24 1013 57 10000 5.14 310 23:24 04.03.2021
1852 Clouds 25 1013 61 10000 6.17 320 22:31 04.03.2021
1853 Clouds 25 1013 61 10000 5.66 310 21:54 04.03.2021
1854 Clouds 25 1013 61 10000 5.66 310 21:33 04.03.2021
1855 Clouds 24 1013 64 10000 5.66 330 20:58 04.03.2021
1856 Clouds 24 1013 64 10000 5.66 330 20:39 04.03.2021
1857 Clouds 24 1013 64 10000 5.66 330 20:20 04.03.2021
1858 Clouds 25 1014 61 10000 5.14 340 19:50 04.03.2021
1859 Clouds 25 1014 61 10000 5.14 340 19:23 04.03.2021
1860 Clouds 25 1015 61 10000 4.63 350 18:52 04.03.2021
1861 Clouds 25 1015 61 10000 4.63 350 18:30 04.03.2021
1862 Clouds 24 1015 69 10000 4.63 350 17:48 04.03.2021
1863 Clouds 24 1015 69 10000 4.63 350 17:30 04.03.2021
1864 Clouds 24 1015 69 10000 3.6 360 16:50 04.03.2021
1865 Clouds 23 1015 73 10000 3.6 350 16:32 04.03.2021
1866 Clouds 23 1015 73 10000 3.6 350 15:57 04.03.2021
1867 Clouds 23 1015 73 10000 3.6 350 15:38 04.03.2021
1868 Clouds 23 1015 73 10000 3.6 350 15:19 04.03.2021
1869 Clouds 23 1015 78 10000 2.57 350 14:39 04.03.2021
1870 Clouds 23 1014 78 10000 3.09 10 13:54 04.03.2021
1871 Clouds 23 1014 78 10000 3.09 10 13:33 04.03.2021
1872 Clouds 24 1014 69 10000 5.66 320 12:58 04.03.2021
1873 Clouds 24 1014 69 10000 5.66 320 12:40 04.03.2021
1874 Clouds 24 1014 73 10000 6.69 330 11:49 04.03.2021
1875 Clouds 24 1014 73 10000 6.69 330 11:28 04.03.2021
1876 Clouds 24 1013 73 10000 6.69 310 10:56 04.03.2021
1877 Clouds 24 1013 73 10000 6.69 310 10:34 04.03.2021
1878 Clouds 24 1013 78 10000 7.2 320 09:47 04.03.2021
1879 Clouds 24 1013 78 10000 7.2 320 09:25 04.03.2021
1880 Clouds 24 1014 83 10000 6.69 320 08:42 04.03.2021
1881 Clouds 24 1014 83 10000 6.69 320 08:22 04.03.2021
1882 Clear 25 1014 83 10000 4.63 290 07:33 04.03.2021
1883 Clear 25 1014 83 10000 4.63 280 06:25 04.03.2021
1884 Clear 24 1015 83 10000 4.12 270 05:40 04.03.2021
1885 Clear 25 1015 73 10000 4.12 280 01:44 04.03.2021
1886 Clouds 29 1014 51 10000 5.66 300 22:56 03.03.2021
1887 Clouds 29 1014 51 10000 5.66 300 22:28 03.03.2021
1888 Clouds 29 1014 54 10000 6.17 270 21:46 03.03.2021
1889 Clouds 29 1014 54 10000 6.17 270 21:25 03.03.2021
1890 Clouds 28 1014 54 10000 5.66 290 20:59 03.03.2021
1891 Clouds 28 1014 54 10000 5.66 290 20:41 03.03.2021
1892 Clouds 28 1014 54 10000 5.66 290 20:23 03.03.2021
1893 Clouds 28 1015 57 10000 6.69 220 19:45 03.03.2021
1894 Clouds 28 1015 57 10000 6.69 220 19:26 03.03.2021
1895 Clouds 28 1016 57 10000 4.63 240 18:48 03.03.2021
1896 Clouds 28 1016 57 10000 4.63 240 18:29 03.03.2021
1897 Clouds 27 1017 65 10000 6.69 240 17:54 03.03.2021
1898 Clouds 27 1017 65 10000 6.69 240 17:20 03.03.2021
1899 Clouds 27 1016 65 10000 6.69 210 16:44 03.03.2021
1900 Clouds 27 1016 65 10000 6.69 210 16:26 03.03.2021
1901 Clouds 25 1017 73 10000 6.17 220 15:45 03.03.2021
1902 Clouds 25 1017 73 10000 6.17 220 15:27 03.03.2021
1903 Clouds 24 1017 78 10000 3.6 260 14:31 03.03.2021
1904 Clouds 23 1016 78 10000 2.57 230 13:53 03.03.2021
1905 Clouds 23 1016 78 10000 2.57 230 13:33 03.03.2021
1906 Clouds 22 1015 78 10000 3.09 220 12:58 03.03.2021
1907 Clouds 22 1015 78 10000 3.09 220 12:39 03.03.2021
1908 Clouds 22 1015 78 10000 3.09 220 12:19 03.03.2021
1909 Clouds 23 1014 73 10000 5.66 200 11:42 03.03.2021
1910 Clouds 23 1014 73 10000 5.66 200 11:21 03.03.2021
1911 Clouds 23 1014 78 10000 5.14 190 10:41 03.03.2021
1912 Clouds 23 1014 78 10000 5.14 190 10:19 03.03.2021
1913 Clouds 22 1016 78 10000 1.54 200 09:40 03.03.2021
1914 Clouds 21 1016 83 10000 2.06 190 08:46 03.03.2021
1915 Clouds 21 1016 83 10000 2.06 190 08:23 03.03.2021
1916 Clouds 21 1017 88 10000 2.57 190 07:52 03.03.2021
1917 Clouds 22 1017 83 10000 1.54 190 06:52 03.03.2021
1918 Clouds 23 1018 78 10000 2.57 180 05:49 03.03.2021
1919 Clouds 23 1018 78 10000 2.57 180 05:29 03.03.2021
1920 Clouds 22 1018 83 10000 2.06 170 04:35 03.03.2021
1921 Clouds 22 1018 83 10000 2.06 160 03:52 03.03.2021
1922 Clear 25 1017 69 10000 4.12 170 00:18 03.03.2021
1923 Clear 26 1017 61 10000 4.63 180 23:31 02.03.2021
1924 Clouds 27 1017 61 10000 4.12 190 22:43 02.03.2021
1925 Clouds 27 1017 61 10000 4.12 190 22:20 02.03.2021
1926 Clouds 26 1017 65 10000 4.12 180 21:41 02.03.2021
1927 Clouds 26 1017 65 10000 4.12 180 21:22 02.03.2021
1928 Clouds 27 1018 65 10000 5.14 190 20:49 02.03.2021
1929 Clouds 27 1018 65 10000 5.14 190 20:23 02.03.2021
1930 Clouds 28 1018 61 10000 5.14 170 19:57 02.03.2021
1931 Clouds 28 1018 61 10000 5.14 170 19:39 02.03.2021
1932 Clouds 28 1018 61 10000 5.14 170 19:20 02.03.2021
1933 Clouds 28 1019 61 10000 5.14 160 18:41 02.03.2021
1934 Clouds 28 1019 61 10000 5.14 160 18:21 02.03.2021
1935 Clouds 27 1020 65 10000 5.14 180 17:49 02.03.2021
1936 Clouds 27 1020 65 10000 5.14 180 17:30 02.03.2021
1937 Clouds 27 1020 65 10000 5.14 180 16:56 02.03.2021
1938 Clouds 27 1020 65 10000 5.14 180 16:23 02.03.2021
1939 Clouds 26 1019 69 10000 5.66 180 15:51 02.03.2021
1940 Clouds 26 1019 69 10000 5.66 180 15:25 02.03.2021
1941 Clouds 25 1019 73 10000 3.09 160 14:24 02.03.2021
1942 Clouds 20 1019 88 10000 1.54 160 13:54 02.03.2021
1943 Clouds 20 1019 88 10000 1.54 160 13:36 02.03.2021
1944 Clouds 20 1019 88 10000 1.54 160 13:18 02.03.2021
1945 Clouds 20 1018 88 10000 2.57 180 12:29 02.03.2021
1946 Clouds 19 1018 94 10000 1.54 150 11:54 02.03.2021
1947 Clouds 19 1018 94 10000 1.54 150 11:54 02.03.2021
1948 Clouds 19 1018 94 10000 1.54 150 11:34 02.03.2021
1949 Clouds 19 1018 94 10000 0.51 0 10:58 02.03.2021
1950 Clouds 19 1018 94 10000 0.51 0 10:32 02.03.2021
1951 Clouds 19 1018 88 10000 0.51 0 09:57 02.03.2021
1952 Clouds 19 1018 88 10000 0.51 0 09:39 02.03.2021
1953 Clouds 19 1018 88 10000 0.51 0 09:39 02.03.2021
1954 Clouds 19 1018 88 10000 0.51 0 09:18 02.03.2021
1955 Clouds 19 1019 94 10000 1.03 0 08:36 02.03.2021
1956 Clouds 20 1019 94 10000 0.51 0 07:52 02.03.2021
1957 Clouds 21 1020 88 10000 1.54 140 06:59 02.03.2021
1958 Clouds 22 1020 83 10000 2.06 150 05:54 02.03.2021
1959 Clouds 22 1020 83 10000 2.06 150 05:34 02.03.2021
1960 Clear 24 1020 78 10000 2.06 120 04:58 02.03.2021
1961 Clouds 24 1019 78 10000 2.57 150 01:44 02.03.2021
1962 Clouds 24 1019 78 10000 2.57 150 01:22 02.03.2021
1963 Clouds 26 1018 65 10000 4.63 150 23:45 01.03.2021
1964 Clouds 26 1018 65 10000 4.63 150 23:21 01.03.2021
1965 Clouds 27 1018 57 10000 5.14 160 22:40 01.03.2021
1966 Clouds 27 1018 57 10000 5.14 160 22:21 01.03.2021
1967 Clouds 27 1019 61 10000 5.66 160 21:43 01.03.2021
1968 Clouds 27 1019 61 10000 5.66 160 21:23 01.03.2021
1969 Clouds 27 1019 61 10000 5.66 150 20:46 01.03.2021
1970 Clouds 27 1019 61 10000 5.66 150 20:46 01.03.2021
1971 Clouds 27 1019 61 10000 5.66 150 20:27 01.03.2021
1972 Clouds 27 1020 65 10000 6.17 150 19:45 01.03.2021
1973 Clouds 27 1020 65 10000 6.17 150 19:27 01.03.2021
1974 Clouds 27 1021 65 10000 6.69 150 18:44 01.03.2021
1975 Clouds 27 1021 65 10000 6.69 150 18:24 01.03.2021
1976 Clouds 27 1021 65 10000 7.72 150 17:49 01.03.2021
1977 Clouds 27 1021 65 10000 7.72 150 17:24 01.03.2021
1978 Clouds 27 1021 65 10000 7.2 140 16:48 01.03.2021
1979 Clouds 27 1021 65 10000 7.2 140 16:30 01.03.2021
1980 Clouds 26 1021 69 10000 7.2 140 15:58 01.03.2021
1981 Clouds 26 1021 69 10000 7.2 140 15:38 01.03.2021
1982 Clouds 26 1021 69 10000 7.2 140 15:18 01.03.2021
1983 Clouds 25 1021 73 10000 5.66 140 14:40 01.03.2021
1984 Clouds 25 1021 73 10000 5.66 140 14:21 01.03.2021
1985 Clouds 23 1020 83 10000 3.6 140 13:38 01.03.2021
1986 Clouds 23 1020 83 10000 3.6 140 13:20 01.03.2021
1987 Clouds 22 1020 88 10000 3.09 140 12:42 01.03.2021
1988 Clouds 22 1020 88 10000 3.09 140 12:24 01.03.2021
1989 Clouds 23 1020 83 10000 4.12 130 11:56 01.03.2021
1990 Clouds 23 1020 83 10000 4.12 130 11:26 01.03.2021
1991 Clouds 23 1020 83 10000 4.63 140 10:42 01.03.2021
1992 Clouds 23 1020 83 10000 4.63 140 10:22 01.03.2021
1993 Clouds 24 1020 78 10000 5.14 140 09:50 01.03.2021
1994 Clouds 24 1020 78 10000 5.14 140 09:31 01.03.2021
1995 Clouds 24 1020 78 10000 5.14 140 08:56 01.03.2021
1996 Clouds 24 1020 78 10000 5.14 140 08:30 01.03.2021
1997 Clouds 24 1021 83 10000 5.66 140 07:32 01.03.2021
1998 Clouds 24 1021 78 10000 5.66 130 06:25 01.03.2021
1999 Clouds 25 1022 78 10000 5.66 130 02:38 01.03.2021
2000 Clouds 26 1021 69 10000 8.23 140 23:47 28.02.2021
2001 Clouds 27 1021 61 10000 7.72 130 22:57 28.02.2021
2002 Clouds 27 1021 61 10000 7.72 130 22:38 28.02.2021
2003 Clouds 27 1021 61 10000 7.72 130 22:20 28.02.2021
2004 Clouds 27 1021 61 10000 8.75 150 21:43 28.02.2021
2005 Clouds 27 1021 61 10000 8.75 150 21:23 28.02.2021
2006 Clouds 28 1022 65 10000 8.75 130 20:39 28.02.2021
2007 Clouds 28 1022 65 10000 8.75 130 20:19 28.02.2021
2008 Clouds 28 1023 65 10000 8.75 130 19:46 28.02.2021
2009 Clouds 28 1023 65 10000 8.75 130 19:25 28.02.2021
2010 Clear 25 1023 76 10000 9.87 118 18:44 28.02.2021
2011 Clouds 27 1024 69 10000 9.77 140 18:26 28.02.2021
2012 Clouds 27 1024 69 10000 9.77 140 17:53 28.02.2021
2013 Clouds 27 1024 69 10000 9.77 140 17:28 28.02.2021
2014 Clouds 27 1024 69 10000 8.75 130 16:57 28.02.2021
2015 Clouds 27 1024 69 10000 8.75 130 16:38 28.02.2021
2016 Clouds 27 1024 69 10000 8.75 130 16:18 28.02.2021
2017 Clouds 26 1024 69 10000 7.72 120 15:47 28.02.2021
2018 Clouds 26 1024 69 10000 7.72 120 15:24 28.02.2021
2019 Clouds 25 1023 78 10000 7.2 120 14:52 28.02.2021
2020 Clouds 25 1023 78 10000 7.2 120 14:29 28.02.2021
2021 Clouds 24 1023 78 10000 6.69 120 13:52 28.02.2021
2022 Clouds 24 1023 78 10000 6.69 120 13:21 28.02.2021
2023 Clouds 24 1022 78 10000 5.66 110 12:56 28.02.2021
2024 Clouds 24 1022 78 10000 5.66 110 12:38 28.02.2021
2025 Clouds 24 1022 78 10000 5.66 110 12:20 28.02.2021
2026 Clouds 24 1022 78 10000 5.14 110 11:46 28.02.2021
2027 Clouds 24 1022 78 10000 5.14 110 11:26 28.02.2021
2028 Clouds 23 1022 83 10000 3.6 110 10:55 28.02.2021
2029 Clouds 23 1022 83 10000 3.6 110 10:29 28.02.2021
2030 Clouds 23 1023 78 10000 4.63 120 09:54 28.02.2021
2031 Clouds 23 1023 78 10000 4.63 120 09:34 28.02.2021
2032 Clouds 23 1023 78 10000 4.63 120 08:52 28.02.2021
2033 Clouds 23 1023 78 10000 4.63 120 08:32 28.02.2021
2034 Clouds 24 1024 73 10000 5.14 120 07:57 28.02.2021
2035 Clouds 24 1024 73 10000 5.14 120 07:38 28.02.2021
2036 Clouds 24 1024 78 10000 5.14 120 06:55 28.02.2021
2037 Clouds 24 1024 78 10000 5.14 120 05:52 28.02.2021
2038 Clouds 25 1024 69 10000 5.66 120 03:45 28.02.2021
2039 Clouds 25 1023 78 10000 5.14 120 01:59 28.02.2021
2040 Clouds 26 1022 69 10000 5.66 120 00:53 28.02.2021
2041 Clouds 26 1022 69 10000 5.66 120 00:34 28.02.2021
2042 Clouds 27 1022 65 10000 6.17 120 23:47 27.02.2021
2043 Clouds 27 1022 65 10000 6.17 120 23:20 27.02.2021
2044 Clouds 27 1022 61 10000 6.69 130 22:49 27.02.2021
2045 Clouds 27 1022 61 10000 6.69 130 22:21 27.02.2021
2046 Clouds 27 1022 61 10000 7.72 150 21:46 27.02.2021
2047 Clouds 27 1022 61 10000 7.72 150 21:24 27.02.2021
2048 Clouds 28 1022 61 10000 7.72 130 20:49 27.02.2021
2049 Clouds 28 1022 61 10000 7.72 130 20:28 27.02.2021
2050 Clouds 27 1023 65 10000 8.23 130 19:46 27.02.2021
2051 Clouds 27 1023 65 10000 8.23 130 19:27 27.02.2021
2052 Clouds 27 1024 65 10000 7.72 130 18:46 27.02.2021
2053 Clouds 27 1024 65 10000 7.72 130 18:22 27.02.2021
2054 Clouds 28 1024 61 10000 7.2 130 17:58 27.02.2021
2055 Clouds 28 1024 61 10000 7.2 130 17:38 27.02.2021
2056 Clouds 28 1024 61 10000 7.2 130 17:19 27.02.2021
2057 Clouds 27 1024 65 10000 7.2 120 16:49 27.02.2021
2058 Clouds 27 1024 65 10000 7.2 120 16:27 27.02.2021
2059 Clouds 25 1024 73 10000 6.69 120 15:44 27.02.2021
2060 Clouds 25 1024 73 10000 6.69 120 15:19 27.02.2021
2061 Clouds 25 1023 73 10000 5.14 140 14:40 27.02.2021
2062 Clouds 25 1023 73 10000 5.14 140 14:21 27.02.2021
2063 Clouds 23 1023 83 10000 4.63 140 13:43 27.02.2021
2064 Clouds 23 1023 83 10000 4.63 140 13:19 27.02.2021
2065 Clouds 23 1022 83 10000 2.06 90 12:45 27.02.2021
2066 Clouds 23 1022 83 10000 2.06 90 12:45 27.02.2021
2067 Clouds 23 1022 83 10000 2.06 90 12:24 27.02.2021
2068 Clouds 23 1022 83 10000 3.09 110 11:47 27.02.2021
2069 Clouds 24 1021 78 10000 3.09 110 11:29 27.02.2021
2070 Clouds 24 1021 78 10000 3.09 110 10:50 27.02.2021
2071 Clouds 24 1021 78 10000 3.09 110 10:32 27.02.2021
2072 Clear 24 1021 79 10000 8.28 112 09:52 27.02.2021
2073 Clouds 24 1021 78 10000 4.63 120 09:31 27.02.2021
2074 Clouds 24 1021 78 10000 4.63 120 08:43 27.02.2021
2075 Clouds 24 1021 78 10000 4.63 120 08:22 27.02.2021
2076 Clouds 24 1022 83 10000 4.63 120 07:44 27.02.2021
2077 Clouds 24 1022 83 10000 4.12 120 06:55 27.02.2021
2078 Clouds 25 1022 78 10000 4.63 110 01:22 27.02.2021
2079 Clouds 25 1022 78 10000 4.63 110 01:22 27.02.2021
2080 Clouds 26 1021 69 10000 4.12 110 00:26 27.02.2021
2081 Clouds 27 1021 61 10000 5.66 120 23:40 26.02.2021
2082 Clouds 27 1021 61 10000 5.66 120 23:20 26.02.2021
2083 Clouds 27 1021 61 10000 5.14 120 22:33 26.02.2021
2084 Clouds 28 1021 57 10000 5.66 140 21:53 26.02.2021
2085 Clouds 28 1021 57 10000 5.66 140 21:35 26.02.2021
2086 Clouds 27 1021 61 10000 6.69 140 20:45 26.02.2021
2087 Clouds 27 1021 61 10000 6.69 140 20:25 26.02.2021
2088 Clouds 28 1022 61 10000 6.17 140 19:53 26.02.2021
2089 Clouds 28 1022 61 10000 6.17 140 19:26 26.02.2021
2090 Clouds 28 1022 65 10000 6.17 140 18:49 26.02.2021
2091 Clouds 28 1022 65 10000 6.17 140 18:24 26.02.2021
2092 Clouds 27 1023 65 10000 6.17 130 17:48 26.02.2021
2093 Clouds 27 1023 65 10000 6.17 130 17:30 26.02.2021
2094 Clouds 26 1022 69 10000 5.14 120 16:57 26.02.2021
2095 Clouds 26 1022 69 10000 5.14 120 16:38 26.02.2021
2096 Clouds 26 1022 69 10000 5.14 120 16:20 26.02.2021
2097 Clouds 26 1022 69 10000 5.14 140 15:43 26.02.2021
2098 Clouds 26 1022 69 10000 5.14 140 15:23 26.02.2021
2099 Clouds 24 1022 83 10000 3.09 110 14:51 26.02.2021
2100 Clouds 24 1022 83 10000 3.09 110 14:32 26.02.2021
2101 Clouds 22 1021 88 10000 1.54 80 13:47 26.02.2021
2102 Clouds 22 1021 88 10000 1.54 80 13:28 26.02.2021
2103 Clouds 23 1020 83 10000 2.57 120 12:48 26.02.2021
2104 Clouds 23 1020 83 10000 2.57 120 12:26 26.02.2021
2105 Clouds 23 1020 83 10000 3.09 110 11:39 26.02.2021
2106 Clouds 23 1020 88 10000 3.09 130 10:54 26.02.2021
2107 Clouds 23 1020 88 10000 3.09 130 10:21 26.02.2021
2108 Clear 23 1020 88 10000 3.09 130 09:47 26.02.2021
2109 Clear 23 1020 88 10000 3.09 130 09:27 26.02.2021
2110 Clear 24 1020 83 10000 3.09 120 08:32 26.02.2021
2111 Clear 24 1021 78 10000 2.57 100 07:54 26.02.2021
2112 Clear 24 1021 78 10000 2.57 100 07:20 26.02.2021
2113 Clouds 24 1022 78 10000 2.57 100 05:40 26.02.2021
2114 Clouds 23 1022 88 10000 2.06 100 04:49 26.02.2021
2115 Clouds 24 1021 83 10000 2.57 90 02:36 26.02.2021
2116 Clouds 25 1021 73 10000 3.6 140 00:24 26.02.2021
2117 Clouds 27 1020 65 10000 3.6 140 23:30 25.02.2021
2118 Clouds 28 1020 65 10000 4.63 160 22:50 25.02.2021
2119 Clouds 28 1020 65 10000 4.63 160 22:31 25.02.2021
2120 Clouds 28 1021 61 10000 4.63 140 21:45 25.02.2021
2121 Clouds 28 1021 61 10000 4.63 140 21:27 25.02.2021
2122 Clouds 28 1021 57 10000 3.6 130 20:42 25.02.2021
2123 Clouds 28 1021 57 10000 3.6 130 20:23 25.02.2021
2124 Clouds 28 1021 57 10000 3.6 130 20:23 25.02.2021
2125 Clouds 27 1022 65 10000 4.12 150 19:52 25.02.2021
2126 Clouds 27 1022 65 10000 4.12 150 19:22 25.02.2021
2127 Clouds 28 1023 61 10000 4.12 150 18:58 25.02.2021
2128 Clouds 28 1023 61 10000 4.12 150 18:27 25.02.2021
2129 Clouds 27 1023 61 10000 3.6 160 17:50 25.02.2021
2130 Clouds 27 1023 61 10000 3.6 160 17:27 25.02.2021
2131 Clouds 25 1023 78 10000 4.12 140 16:48 25.02.2021
2132 Clouds 25 1023 78 10000 4.12 140 16:25 25.02.2021
2133 Clouds 25 1023 78 10000 4.12 140 15:31 25.02.2021
2134 Clouds 24 1022 88 10000 2.06 110 14:58 25.02.2021
2135 Clouds 24 1022 88 10000 2.06 110 14:26 25.02.2021
2136 Clouds 20 1021 94 10000 1.03 0 13:53 25.02.2021
2137 Clouds 20 1021 94 10000 1.03 0 13:26 25.02.2021
2138 Clouds 20 1021 94 10000 0.51 0 12:56 25.02.2021
2139 Clouds 20 1020 94 10000 0.51 0 12:22 25.02.2021
2140 Clouds 23 1020 88 10000 1.54 120 11:47 25.02.2021
2141 Clouds 23 1020 88 10000 1.54 120 11:20 25.02.2021
2142 Clouds 24 1020 82 10000 3.56 118 10:45 25.02.2021
2143 Clouds 24 1019 82 10000 3.79 124 10:26 25.02.2021
2144 Clouds 24 1019 82 10000 3.79 124 09:43 25.02.2021
2145 Clouds 24 1019 82 10000 4.23 119 08:56 25.02.2021
2146 Clouds 24 1020 83 10000 4.41 114 08:25 25.02.2021
2147 Clouds 24 1020 83 10000 4.41 114 07:56 25.02.2021
2148 Clouds 24 1020 83 10000 4.41 114 07:31 25.02.2021
2149 Clear 24 1020 83 10000 4.65 106 06:53 25.02.2021
2150 Clouds 24 1021 83 10000 3.09 100 01:59 25.02.2021
2151 Clouds 24 1021 83 10000 3.09 100 01:37 25.02.2021
2152 Clouds 25 1020 78 10000 4.12 90 00:41 25.02.2021
2153 Clouds 24 1020 83 10000 6.16 74 23:52 24.02.2021
2154 Clouds 24 1019 83 10000 5.86 71 23:27 24.02.2021
2155 Clouds 24 1019 83 10000 5.86 71 22:44 24.02.2021
2156 Clouds 24 1019 82 10000 5.02 76 22:25 24.02.2021
2157 Clouds 24 1019 82 10000 5.02 76 21:45 24.02.2021
2158 Clouds 24 1019 81 10000 4.17 70 20:56 24.02.2021
2159 Clouds 28 1021 61 10000 4.63 140 20:37 24.02.2021
2160 Clouds 28 1021 61 10000 4.63 140 20:18 24.02.2021
2161 Clouds 28 1021 61 10000 4.63 140 19:29 24.02.2021
2162 Clouds 24 1021 82 10000 4.57 75 18:56 24.02.2021
2163 Clouds 24 1021 82 10000 4.57 75 18:34 24.02.2021
2164 Clouds 24 1021 82 10000 4.22 82 17:52 24.02.2021
2165 Clouds 24 1022 82 10000 4.54 85 17:29 24.02.2021
2166 Clouds 24 1022 82 10000 4.54 85 16:57 24.02.2021
2167 Clouds 25 1022 78 10000 2.57 110 16:36 24.02.2021
2168 Clouds 25 1022 78 10000 2.57 110 16:18 24.02.2021
2169 Clouds 25 1022 78 10000 2.57 110 15:37 24.02.2021
2170 Clouds 23 1021 88 10000 2.06 100 14:53 24.02.2021
2171 Clouds 23 1021 88 10000 2.06 100 14:32 24.02.2021
2172 Clouds 20 1021 100 10000 1.54 100 13:57 24.02.2021
2173 Clouds 20 1021 100 10000 1.54 100 13:38 24.02.2021
2174 Clouds 20 1021 100 10000 1.54 100 13:19 24.02.2021
2175 Clouds 20 1020 100 10000 1.03 0 12:43 24.02.2021
2176 Clouds 20 1020 100 10000 1.03 0 12:23 24.02.2021
2177 Clouds 20 1020 100 10000 1.03 0 12:23 24.02.2021
2178 Clouds 21 1019 94 10000 1.03 0 11:42 24.02.2021
2179 Clouds 20 1019 100 10000 2.57 100 10:48 24.02.2021
2180 Clouds 20 1019 100 10000 2.57 100 10:26 24.02.2021
2181 Clouds 21 1019 94 10000 0.51 0 09:33 24.02.2021
2182 Clouds 21 1019 94 10000 1.03 0 08:58 24.02.2021
2183 Clouds 21 1019 94 10000 1.03 0 08:33 24.02.2021
2184 Clouds 22 1020 94 10000 1.54 100 07:47 24.02.2021
2185 Clouds 22 1020 94 10000 1.54 100 07:19 24.02.2021
2186 Clouds 23 1020 88 10000 2.06 70 05:49 24.02.2021
2187 Clouds 24 1019 83 10000 3.09 10 02:35 24.02.2021
2188 Clouds 26 1018 69 10000 3.09 350 23:39 23.02.2021
2189 Clouds 28 1017 57 10000 4.12 330 22:51 23.02.2021
2190 Clouds 28 1017 57 10000 4.12 330 22:23 23.02.2021
2191 Clouds 29 1018 54 10000 3.09 310 21:49 23.02.2021
2192 Clouds 29 1018 54 10000 3.09 310 21:27 23.02.2021
2193 Clouds 28 1018 57 10000 3.09 250 20:59 23.02.2021
2194 Clouds 28 1018 57 10000 3.09 250 20:39 23.02.2021
2195 Clouds 28 1018 57 10000 3.09 250 20:20 23.02.2021
2196 Clouds 27 1019 69 10000 4.12 210 19:46 23.02.2021
2197 Clouds 27 1019 69 10000 4.12 210 19:26 23.02.2021
2198 Clouds 26 1020 69 10000 5.66 210 18:44 23.02.2021
2199 Clouds 26 1020 69 10000 5.66 210 18:26 23.02.2021
2200 Clouds 26 1021 69 10000 5.14 220 17:53 23.02.2021
2201 Clouds 26 1021 69 10000 5.14 220 17:27 23.02.2021
2202 Clouds 26 1021 73 10000 4.63 220 16:46 23.02.2021
2203 Clouds 26 1021 73 10000 4.63 220 16:24 23.02.2021
2204 Clouds 25 1021 78 10000 6.17 210 15:50 23.02.2021
2205 Clouds 25 1021 78 10000 6.17 210 15:31 23.02.2021
2206 Clouds 24 1020 83 10000 4.63 220 14:55 23.02.2021
2207 Clouds 24 1020 83 10000 4.63 220 14:37 23.02.2021
2208 Clouds 24 1020 83 10000 4.63 220 14:19 23.02.2021
2209 Clouds 23 1019 88 10000 3.6 200 13:38 23.02.2021
2210 Clouds 23 1018 83 10000 5.14 180 12:59 23.02.2021
2211 Clouds 23 1018 83 10000 5.14 180 12:41 23.02.2021
2212 Clouds 23 1018 83 10000 5.14 180 12:18 23.02.2021
2213 Clouds 22 1018 88 10000 4.63 180 11:45 23.02.2021
2214 Clouds 22 1018 88 10000 4.63 180 11:18 23.02.2021
2215 Clouds 23 1018 83 10000 3.6 170 10:38 23.02.2021
2216 Clouds 23 1018 83 10000 6.17 170 09:59 23.02.2021
2217 Clouds 23 1018 83 10000 6.17 170 09:41 23.02.2021
2218 Clouds 23 1018 83 10000 6.17 170 09:21 23.02.2021
2219 Clouds 23 1019 83 10000 5.14 170 08:45 23.02.2021
2220 Clouds 23 1019 83 10000 5.14 170 08:20 23.02.2021
2221 Clouds 23 1020 83 10000 5.14 170 06:56 23.02.2021
2222 Clouds 23 1021 88 10000 4.12 150 05:27 23.02.2021
2223 Clouds 24 1022 78 10000 3.09 130 02:37 23.02.2021
2224 Clouds 24 1022 78 10000 3.09 130 02:19 23.02.2021
2225 Clouds 24 1021 73 10000 6.17 130 00:19 23.02.2021
2226 Clouds 25 1020 73 10000 6.69 120 23:30 22.02.2021
2227 Clouds 25 1020 69 10000 6.69 130 22:43 22.02.2021
2228 Clouds 25 1020 69 10000 6.69 130 22:22 22.02.2021
2229 Clouds 25 1021 69 10000 7.72 120 21:57 22.02.2021
2230 Clouds 25 1021 69 10000 7.72 120 21:38 22.02.2021
2231 Clouds 25 1021 69 10000 7.72 120 21:19 22.02.2021
2232 Clouds 25 1021 69 10000 7.72 120 20:44 22.02.2021
2233 Clouds 25 1021 69 10000 7.72 120 20:24 22.02.2021
2234 Clouds 27 1022 65 10000 7.2 120 19:44 22.02.2021
2235 Clouds 27 1022 65 10000 7.2 120 19:26 22.02.2021
2236 Clouds 26 1023 65 10000 7.72 120 18:47 22.02.2021
2237 Clouds 26 1023 65 10000 7.72 120 18:29 22.02.2021
2238 Clouds 25 1024 69 10000 8.23 120 17:48 22.02.2021
2239 Clouds 25 1024 69 10000 8.23 120 17:19 22.02.2021
2240 Clouds 25 1024 69 10000 6.69 110 16:48 22.02.2021
2241 Clouds 25 1024 69 10000 6.69 110 16:25 22.02.2021
2242 Clouds 24 1023 73 10000 6.17 100 15:31 22.02.2021
2243 Clouds 22 1023 78 10000 6.17 100 14:50 22.02.2021
2244 Clouds 22 1023 78 10000 6.17 100 14:32 22.02.2021
2245 Clouds 22 1022 78 10000 5.14 110 13:51 22.02.2021
2246 Clouds 22 1022 78 10000 5.14 110 13:29 22.02.2021
2247 Clouds 22 1022 78 10000 5.14 100 12:45 22.02.2021
2248 Clouds 22 1022 78 10000 5.14 100 12:22 22.02.2021
2249 Clouds 22 1022 78 10000 5.14 100 12:22 22.02.2021
2250 Clouds 22 1022 73 10000 5.14 100 11:48 22.02.2021
2251 Clouds 22 1022 73 10000 5.14 100 11:28 22.02.2021
2252 Clouds 22 1022 78 10000 6.69 110 10:50 22.02.2021
2253 Clouds 22 1022 78 10000 6.69 110 10:32 22.02.2021
2254 Clouds 21 1022 78 10000 5.66 100 09:52 22.02.2021
2255 Clouds 21 1022 78 10000 5.66 100 09:32 22.02.2021
2256 Clouds 21 1022 78 10000 6.17 110 08:58 22.02.2021
2257 Clouds 21 1022 78 10000 6.17 110 08:39 22.02.2021
2258 Clouds 21 1023 78 10000 6.17 100 07:59 22.02.2021
2259 Clouds 21 1023 78 10000 6.17 100 07:27 22.02.2021
2260 Clouds 21 1024 83 10000 6.17 110 06:46 22.02.2021
2261 Clouds 21 1024 78 10000 6.69 100 05:46 22.02.2021
2262 Clouds 21 1025 78 10000 6.69 100 03:44 22.02.2021
2263 Clouds 21 1024 78 10000 8.23 80 02:51 22.02.2021
2264 Clouds 21 1024 73 10000 7.72 90 00:46 22.02.2021
2265 Clouds 21 1024 73 10000 7.72 90 00:23 22.02.2021
2266 Clouds 21 1024 78 10000 9.26 90 23:33 21.02.2021
2267 Clouds 20 1024 83 10000 9.26 80 22:54 21.02.2021
2268 Clouds 20 1024 83 10000 9.26 80 22:24 21.02.2021
2269 Clouds 19 1024 88 9000 8.23 80 21:45 21.02.2021
2270 Clouds 19 1024 88 9000 8.23 80 21:27 21.02.2021
2271 Clouds 20 1024 83 10000 8.23 80 20:47 21.02.2021
2272 Clouds 20 1024 83 10000 8.23 80 20:20 21.02.2021
2273 Clouds 22 1024 73 10000 9.26 80 19:54 21.02.2021
2274 Clouds 22 1024 73 10000 9.26 80 19:33 21.02.2021
2275 Clouds 22 1025 64 10000 8.23 80 18:52 21.02.2021
2276 Clouds 22 1025 64 10000 8.23 80 18:26 21.02.2021
2277 Clouds 22 1025 64 10000 8.23 80 18:26 21.02.2021
2278 Clouds 22 1025 64 10000 9.77 80 17:33 21.02.2021
2279 Clouds 21 1025 73 10000 7.2 70 16:59 21.02.2021
2280 Clouds 21 1025 73 10000 7.2 70 16:39 21.02.2021
2281 Clouds 21 1025 73 10000 7.2 70 16:20 21.02.2021
2282 Clouds 21 1025 73 10000 8.23 80 15:23 21.02.2021
2283 Clouds 21 1024 68 10000 8.23 80 14:56 21.02.2021
2284 Clouds 21 1024 68 10000 8.23 80 14:37 21.02.2021
2285 Clouds 21 1024 73 10000 8.23 70 13:49 21.02.2021
2286 Clouds 21 1024 73 10000 8.23 70 13:28 21.02.2021
2287 Clouds 21 1023 73 10000 9.26 70 12:32 21.02.2021
2288 Clouds 21 1022 73 10000 8.23 70 11:59 21.02.2021
2289 Clouds 21 1022 73 10000 8.23 70 11:40 21.02.2021
2290 Clouds 21 1022 73 10000 8.23 60 10:40 21.02.2021
2291 Clouds 21 1022 73 10000 8.23 60 10:21 21.02.2021
2292 Clouds 22 1022 68 10000 8.75 60 09:43 21.02.2021
2293 Clouds 22 1022 68 10000 8.75 60 09:24 21.02.2021
2294 Clouds 22 1022 73 10000 8.75 60 08:34 21.02.2021
2295 Clouds 22 1022 73 10000 8.75 50 07:45 21.02.2021
2296 Clouds 22 1022 73 10000 8.75 50 07:22 21.02.2021
2297 Clouds 23 1023 73 10000 8.23 50 05:59 21.02.2021
2298 Clouds 23 1021 73 10000 7.2 50 02:40 21.02.2021
2299 Clouds 23 1020 73 10000 6.69 60 00:59 21.02.2021
2300 Clouds 23 1020 73 10000 6.69 60 00:21 21.02.2021
2301 Clouds 23 1019 73 10000 7.2 60 23:38 20.02.2021
2302 Clouds 23 1019 78 10000 5.66 40 22:55 20.02.2021
2303 Clouds 23 1019 78 10000 5.66 40 22:31 20.02.2021
2304 Clouds 23 1018 86 10000 8.6 30 21:47 20.02.2021
2305 Clouds 24 1019 78 10000 5.14 30 21:29 20.02.2021
2306 Clouds 24 1019 78 10000 5.14 30 20:56 20.02.2021
2307 Clouds 24 1019 78 10000 5.14 30 20:36 20.02.2021
2308 Clouds 23 1020 88 10000 4.63 50 19:59 20.02.2021
2309 Clouds 23 1020 88 10000 4.63 50 19:40 20.02.2021
2310 Clouds 24 1020 83 10000 5.14 20 18:48 20.02.2021
2311 Clouds 24 1020 83 10000 5.14 20 18:29 20.02.2021
2312 Clouds 24 1021 83 10000 5.66 10 17:45 20.02.2021
2313 Clouds 24 1021 83 10000 5.66 10 17:26 20.02.2021
2314 Clouds 24 1020 83 10000 5.66 350 16:48 20.02.2021
2315 Clouds 24 1020 83 10000 5.66 350 16:22 20.02.2021
2316 Clouds 23 1020 88 10000 4.63 350 15:40 20.02.2021
2317 Clouds 25 1020 83 10000 2.06 220 14:51 20.02.2021
2318 Clouds 25 1020 83 10000 2.06 220 14:25 20.02.2021
2319 Clouds 21 1019 94 10000 1.03 0 13:53 20.02.2021
2320 Clouds 21 1019 94 10000 1.03 0 13:28 20.02.2021
2321 Clouds 22 1018 88 10000 1.03 0 12:56 20.02.2021
2322 Clouds 22 1018 88 10000 1.03 0 12:33 20.02.2021
2323 Clouds 22 1018 94 10000 1.54 210 11:49 20.02.2021
2324 Clouds 22 1018 94 10000 1.54 210 11:30 20.02.2021
2325 Clouds 22 1018 94 10000 2.06 190 10:50 20.02.2021
2326 Clouds 23 1018 88 10000 2.06 190 10:21 20.02.2021
2327 Clouds 23 1018 88 10000 2.06 190 09:41 20.02.2021
2328 Clouds 23 1019 88 10000 1.03 0 08:49 20.02.2021
2329 Clouds 23 1019 88 10000 1.03 0 08:22 20.02.2021
2330 Clouds 23 1020 88 10000 3.09 180 03:41 20.02.2021
2331 Clouds 24 1019 83 10000 3.6 170 02:31 20.02.2021
2332 Clouds 24 1019 83 10000 4.12 170 01:51 20.02.2021
2333 Clouds 25 1018 78 10000 6.17 160 00:48 20.02.2021
2334 Clouds 25 1018 78 10000 6.17 160 00:24 20.02.2021
2335 Clouds 26 1018 73 10000 5.66 160 23:19 19.02.2021
2336 Clouds 27 1019 69 10000 6.17 180 22:37 19.02.2021
2337 Clouds 27 1019 69 10000 6.17 180 22:19 19.02.2021
2338 Clouds 28 1019 65 10000 5.14 210 21:36 19.02.2021
2339 Clouds 27 1019 69 10000 5.66 170 20:58 19.02.2021
2340 Clouds 27 1019 69 10000 5.66 170 20:40 19.02.2021
2341 Clouds 27 1019 69 10000 5.66 170 20:22 19.02.2021
2342 Clouds 27 1020 69 10000 7.72 180 19:41 19.02.2021
2343 Clouds 27 1020 69 10000 7.72 180 19:19 19.02.2021
2344 Clouds 27 1021 65 10000 6.69 180 18:42 19.02.2021
2345 Clouds 27 1021 65 10000 6.69 180 18:23 19.02.2021
2346 Clouds 28 1021 65 10000 7.72 170 17:24 19.02.2021
2347 Clouds 27 1021 69 10000 7.72 170 16:39 19.02.2021
2348 Clouds 27 1021 69 10000 7.72 170 16:20 19.02.2021
2349 Clouds 26 1021 73 10000 8.23 170 15:47 19.02.2021
2350 Clouds 26 1021 73 10000 8.23 170 15:27 19.02.2021
2351 Clouds 25 1020 78 10000 6.17 160 14:41 19.02.2021
2352 Clouds 25 1020 78 10000 6.17 160 14:23 19.02.2021
2353 Clouds 24 1020 83 10000 6.17 160 13:44 19.02.2021
2354 Clouds 24 1020 83 10000 6.17 160 13:24 19.02.2021
2355 Clouds 24 1019 83 10000 6.17 170 12:44 19.02.2021
2356 Clouds 24 1019 83 10000 6.17 170 12:23 19.02.2021
2357 Clouds 24 1019 83 10000 6.17 160 11:51 19.02.2021
2358 Clouds 24 1019 83 10000 6.17 160 11:26 19.02.2021
2359 Clouds 24 1019 88 10000 5.14 150 10:51 19.02.2021
2360 Clouds 24 1019 88 10000 5.14 150 10:22 19.02.2021
2361 Clouds 24 1020 83 10000 5.66 150 09:47 19.02.2021
2362 Clouds 24 1020 83 10000 5.66 150 09:25 19.02.2021
2363 Clouds 24 1020 88 10000 7.2 150 08:50 19.02.2021
2364 Clouds 24 1020 88 10000 7.2 150 08:24 19.02.2021
2365 Clouds 25 1020 83 10000 6.17 140 07:48 19.02.2021
2366 Clouds 25 1020 83 10000 6.17 140 07:29 19.02.2021
2367 Clouds 25 1021 83 10000 5.66 140 06:53 19.02.2021
2368 Clouds 24 1021 88 10000 5.66 150 05:27 19.02.2021
2369 Clouds 25 1021 83 10000 4.12 140 04:41 19.02.2021
2370 Clouds 25 1020 78 10000 3.09 170 01:47 19.02.2021
2371 Clouds 25 1020 78 10000 4.12 170 00:37 19.02.2021
2372 Clouds 27 1019 69 10000 6.17 160 23:54 18.02.2021
2373 Clouds 27 1019 69 10000 6.17 160 23:34 18.02.2021
2374 Clouds 28 1019 69 10000 8.23 170 22:47 18.02.2021
2375 Clouds 28 1019 69 10000 8.23 170 22:28 18.02.2021
2376 Clouds 28 1019 69 10000 8.23 170 21:47 18.02.2021
2377 Clouds 28 1019 69 10000 8.23 170 21:25 18.02.2021
2378 Clouds 28 1019 69 10000 8.23 170 21:25 18.02.2021
2379 Clouds 28 1019 69 10000 8.23 170 20:41 18.02.2021
2380 Clouds 28 1019 69 10000 8.23 170 20:23 18.02.2021
2381 Clouds 28 1019 69 10000 9.77 160 19:46 18.02.2021
2382 Clouds 28 1019 69 10000 9.77 160 19:26 18.02.2021
2383 Clouds 28 1020 69 10000 10.29 170 18:52 18.02.2021
2384 Clouds 28 1020 69 10000 10.29 170 18:27 18.02.2021
2385 Clouds 28 1021 69 10000 9.26 170 17:52 18.02.2021
2386 Clouds 28 1021 69 10000 9.26 170 17:25 18.02.2021
2387 Clouds 27 1021 74 10000 10.8 170 16:52 18.02.2021
2388 Clouds 27 1021 74 10000 10.8 170 16:34 18.02.2021
2389 Clouds 26 1021 78 10000 10.29 160 15:44 18.02.2021
2390 Clouds 26 1021 78 10000 10.29 160 15:24 18.02.2021
2391 Clouds 26 1020 78 10000 9.26 160 14:58 18.02.2021
2392 Clouds 26 1020 78 10000 9.26 160 14:36 18.02.2021
2393 Clouds 25 1020 83 10000 7.72 150 13:58 18.02.2021
2394 Clouds 25 1020 83 10000 7.72 150 13:40 18.02.2021
2395 Clouds 25 1020 83 10000 7.72 150 13:18 18.02.2021
2396 Clouds 25 1020 83 10000 8.23 150 12:41 18.02.2021
2397 Clouds 25 1020 83 10000 8.23 150 12:18 18.02.2021
2398 Clouds 24 1019 83 10000 7.72 150 11:46 18.02.2021
2399 Clouds 24 1019 83 10000 7.72 150 11:25 18.02.2021
2400 Clouds 25 1019 83 10000 6.69 150 10:44 18.02.2021
2401 Clouds 25 1019 83 10000 6.69 150 10:25 18.02.2021
2402 Clouds 24 1019 83 10000 7.2 150 09:39 18.02.2021
2403 Clouds 24 1019 83 10000 7.2 150 09:20 18.02.2021
2404 Clouds 24 1020 83 10000 7.72 150 08:37 18.02.2021
2405 Clouds 24 1020 83 10000 7.72 150 08:19 18.02.2021
2406 Clouds 24 1020 83 10000 7.2 150 07:30 18.02.2021
2407 Clouds 23 1020 94 10000 4.63 170 06:29 18.02.2021
2408 Clouds 24 1020 83 10000 3.6 130 01:20 18.02.2021
2409 Clouds 26 1019 69 10000 5.14 150 23:48 17.02.2021
2410 Clouds 26 1019 69 10000 5.14 150 23:20 17.02.2021
2411 Clouds 27 1019 65 10000 5.66 160 22:44 17.02.2021
2412 Clouds 27 1019 65 10000 5.66 160 22:22 17.02.2021
2413 Clouds 28 1019 65 10000 5.14 170 21:46 17.02.2021
2414 Clouds 28 1019 65 10000 5.14 170 21:21 17.02.2021
2415 Clouds 28 1019 61 10000 5.66 170 20:43 17.02.2021
2416 Clouds 28 1019 61 10000 5.66 170 20:24 17.02.2021
2417 Clouds 28 1020 61 10000 7.2 170 19:41 17.02.2021
2418 Clouds 28 1020 61 10000 7.2 170 19:22 17.02.2021
2419 Clouds 28 1021 61 10000 7.2 160 18:41 17.02.2021
2420 Clouds 28 1021 61 10000 7.2 160 18:18 17.02.2021
2421 Clouds 28 1021 65 10000 7.72 170 17:37 17.02.2021
2422 Clouds 28 1021 65 10000 7.72 170 17:18 17.02.2021
2423 Clouds 27 1021 65 10000 7.72 160 16:43 17.02.2021
2424 Clouds 27 1021 65 10000 7.72 160 16:22 17.02.2021
2425 Clouds 25 1021 73 10000 7.72 160 15:44 17.02.2021
2426 Clouds 25 1021 73 10000 7.72 160 15:23 17.02.2021
2427 Clouds 25 1020 73 10000 6.69 170 14:45 17.02.2021
2428 Clouds 25 1020 73 10000 6.69 170 14:26 17.02.2021
2429 Clouds 24 1020 83 10000 4.63 150 13:45 17.02.2021
2430 Clouds 24 1020 83 10000 4.63 150 13:24 17.02.2021
2431 Clouds 24 1019 83 10000 5.14 150 12:39 17.02.2021
2432 Clouds 24 1019 83 10000 5.14 150 12:20 17.02.2021
2433 Clouds 24 1019 83 10000 5.66 150 11:36 17.02.2021
2434 Clouds 24 1019 83 10000 5.66 150 11:18 17.02.2021
2435 Clouds 24 1018 83 10000 6.69 150 10:44 17.02.2021
2436 Clouds 24 1018 83 10000 6.69 150 10:23 17.02.2021
2437 Clouds 24 1018 88 10000 6.17 150 09:44 17.02.2021
2438 Clouds 24 1018 88 10000 6.17 150 09:25 17.02.2021
2439 Clouds 24 1019 88 10000 5.14 150 08:42 17.02.2021
2440 Clouds 24 1019 88 10000 5.14 150 08:42 17.02.2021
2441 Clouds 24 1019 88 10000 5.14 150 08:21 17.02.2021
2442 Clouds 24 1019 88 10000 5.14 150 07:25 17.02.2021
2443 Clear 24 1019 88 10000 4.63 160 04:54 17.02.2021
2444 Clear 25 1019 83 10000 4.63 160 02:33 17.02.2021
2445 Clear 25 1018 83 10000 5.14 160 01:49 17.02.2021
2446 Clouds 25 1018 83 10000 4.12 170 00:32 17.02.2021
2447 Clouds 26 1018 78 10000 6.69 180 23:53 16.02.2021
2448 Clouds 26 1018 78 10000 6.69 180 23:34 16.02.2021
2449 Clouds 27 1018 74 10000 6.69 180 22:42 16.02.2021
2450 Clouds 27 1018 74 10000 6.69 180 22:23 16.02.2021
2451 Clouds 28 1017 69 10000 7.72 180 21:41 16.02.2021
2452 Clouds 28 1017 69 10000 7.72 180 21:22 16.02.2021
2453 Clouds 29 1018 70 10000 8.23 180 20:58 16.02.2021
2454 Clouds 29 1018 70 10000 8.23 180 20:38 16.02.2021
2455 Clouds 29 1018 70 10000 8.23 180 20:20 16.02.2021
2456 Clouds 28 1018 74 10000 9.26 180 19:40 16.02.2021
2457 Clouds 28 1018 74 10000 9.26 180 19:21 16.02.2021
2458 Clouds 28 1019 74 10000 7.72 190 18:40 16.02.2021
2459 Clouds 28 1019 74 10000 7.72 190 18:21 16.02.2021
2460 Clouds 29 1019 70 10000 8.23 180 17:49 16.02.2021
2461 Clouds 29 1019 70 10000 8.23 180 17:23 16.02.2021
2462 Clouds 28 1019 74 10000 8.23 180 16:51 16.02.2021
2463 Clouds 28 1019 74 10000 8.23 180 16:24 16.02.2021
2464 Clouds 27 1019 74 10000 7.72 180 15:47 16.02.2021
2465 Clouds 27 1019 74 10000 7.72 180 15:26 16.02.2021
2466 Clouds 26 1019 78 10000 6.69 180 14:48 16.02.2021
2467 Clouds 26 1019 78 10000 6.69 180 14:30 16.02.2021
2468 Clouds 24 1019 88 10000 4.63 180 13:57 16.02.2021
2469 Clouds 24 1019 88 10000 4.63 180 13:34 16.02.2021
2470 Clouds 24 1018 88 10000 5.14 190 12:46 16.02.2021
2471 Clouds 24 1018 88 10000 5.14 190 12:24 16.02.2021
2472 Clouds 24 1018 88 10000 4.63 180 11:49 16.02.2021
2473 Clouds 24 1018 88 10000 4.63 180 11:23 16.02.2021
2474 Clouds 24 1018 88 10000 4.63 180 10:55 16.02.2021
2475 Clouds 24 1018 88 10000 4.63 180 10:55 16.02.2021
2476 Clouds 24 1018 88 10000 4.63 180 10:36 16.02.2021
2477 Clouds 24 1018 88 10000 4.63 180 10:18 16.02.2021
2478 Clouds 25 1018 83 10000 5.14 170 09:44 16.02.2021
2479 Clouds 25 1018 83 10000 5.14 170 09:25 16.02.2021
2480 Clouds 24 1018 88 10000 4.63 180 08:42 16.02.2021
2481 Clouds 24 1018 88 10000 4.63 180 08:19 16.02.2021
2482 Clouds 24 1018 88 10000 4.63 170 07:21 16.02.2021
2483 Clouds 24 1018 88 10000 4.63 160 04:39 16.02.2021
2484 Clouds 25 1017 83 10000 6.17 160 00:45 16.02.2021
2485 Clouds 27 1017 78 10000 7.2 170 23:32 15.02.2021
2486 Clouds 28 1017 69 10000 7.2 160 22:59 15.02.2021
2487 Clouds 28 1017 69 10000 7.2 160 22:41 15.02.2021
2488 Clouds 27 1018 74 10000 7.2 170 21:59 15.02.2021
2489 Clouds 27 1018 74 10000 7.2 170 21:38 15.02.2021
2490 Clouds 27 1018 74 10000 7.2 170 21:19 15.02.2021
2491 Clouds 27 1018 74 10000 6.69 170 20:44 15.02.2021
2492 Clouds 27 1018 74 10000 6.69 170 20:24 15.02.2021
2493 Clouds 27 1018 74 10000 6.69 170 20:24 15.02.2021
2494 Clouds 27 1018 74 10000 7.2 160 19:43 15.02.2021
2495 Clouds 27 1018 74 10000 7.2 160 19:22 15.02.2021
2496 Clouds 27 1019 74 10000 7.2 170 18:44 15.02.2021
2497 Clouds 27 1019 74 10000 7.2 170 18:25 15.02.2021
2498 Clouds 27 1020 78 10000 7.2 170 17:41 15.02.2021
2499 Clouds 27 1020 78 10000 7.2 170 17:22 15.02.2021
2500 Clouds 27 1020 74 10000 8.23 160 16:53 15.02.2021
2501 Clouds 27 1020 74 10000 8.23 160 16:26 15.02.2021
2502 Clouds 26 1019 83 10000 6.17 160 15:49 15.02.2021
2503 Clouds 26 1019 83 10000 6.17 160 15:22 15.02.2021
2504 Clouds 25 1019 88 10000 5.66 160 14:49 15.02.2021
2505 Clouds 25 1019 88 10000 5.66 160 14:21 15.02.2021
2506 Clouds 24 1019 88 10000 4.12 170 13:51 15.02.2021
2507 Clouds 24 1019 88 10000 4.12 170 13:28 15.02.2021
2508 Clouds 24 1018 88 10000 4.12 170 12:54 15.02.2021
2509 Clouds 24 1018 88 10000 4.12 170 12:36 15.02.2021
2510 Clouds 24 1018 88 10000 4.12 180 11:59 15.02.2021
2511 Clouds 24 1018 88 10000 4.12 180 11:39 15.02.2021
2512 Clouds 24 1018 88 10000 4.12 180 11:18 15.02.2021
2513 Clouds 24 1018 88 10000 5.14 180 10:42 15.02.2021
2514 Clouds 24 1018 88 10000 5.14 180 10:21 15.02.2021
2515 Clouds 24 1018 88 10000 4.63 180 09:52 15.02.2021
2516 Clouds 24 1018 88 10000 4.63 180 09:32 15.02.2021
2517 Clouds 24 1018 94 10000 4.63 160 08:34 15.02.2021
2518 Clouds 24 1018 94 10000 4.12 150 07:32 15.02.2021
2519 Clouds 24 1018 94 10000 4.63 160 06:42 15.02.2021
2520 Clouds 24 1018 94 10000 3.6 150 04:58 15.02.2021
2521 Clouds 24 1017 94 10000 4.12 160 02:21 15.02.2021
2522 Clouds 25 1017 83 10000 4.63 180 00:24 15.02.2021
2523 Clouds 26 1016 83 10000 7.72 170 23:30 14.02.2021
2524 Clouds 27 1016 74 10000 7.72 180 22:51 14.02.2021
2525 Clouds 27 1016 74 10000 7.72 180 22:30 14.02.2021
2526 Clouds 28 1016 74 10000 7.72 170 21:55 14.02.2021
2527 Clouds 28 1016 74 10000 7.72 170 21:32 14.02.2021
2528 Clouds 27 1016 78 10000 8.75 170 20:56 14.02.2021
2529 Clouds 27 1016 78 10000 8.75 170 20:31 14.02.2021
2530 Clouds 28 1017 74 10000 9.26 170 19:57 14.02.2021
2531 Clouds 28 1017 74 10000 9.26 170 19:35 14.02.2021
2532 Clouds 28 1018 74 10000 8.75 170 18:45 14.02.2021
2533 Clouds 28 1018 74 10000 8.75 170 18:24 14.02.2021
2534 Clouds 26 1018 78 10000 8.75 160 17:45 14.02.2021
2535 Clouds 26 1018 78 10000 8.75 160 17:25 14.02.2021
2536 Clouds 26 1018 83 10000 7.72 160 16:40 14.02.2021
2537 Clouds 26 1018 83 10000 7.72 160 16:20 14.02.2021
2538 Clouds 25 1018 83 10000 7.2 160 15:44 14.02.2021
2539 Clouds 25 1017 88 10000 6.17 160 14:59 14.02.2021
2540 Clouds 25 1017 88 10000 6.17 160 14:32 14.02.2021
2541 Clouds 24 1017 94 10000 4.12 150 13:57 14.02.2021
2542 Clouds 24 1017 94 10000 4.12 150 13:32 14.02.2021
2543 Clouds 24 1017 88 10000 4.12 170 12:49 14.02.2021
2544 Clouds 24 1017 88 10000 4.12 170 12:22 14.02.2021
2545 Clouds 24 1016 88 10000 5.66 160 11:51 14.02.2021
2546 Clouds 24 1016 88 10000 5.66 160 11:25 14.02.2021
2547 Clouds 24 1016 88 10000 6.69 150 10:49 14.02.2021
2548 Clouds 24 1016 88 10000 5.66 160 09:57 14.02.2021
2549 Clouds 24 1016 88 10000 5.66 160 09:39 14.02.2021
2550 Clouds 24 1016 88 10000 5.66 160 09:21 14.02.2021
2551 Clouds 24 1017 94 10000 5.66 160 08:41 14.02.2021
2552 Clouds 24 1017 94 9990 5.66 150 07:57 14.02.2021
2553 Clouds 24 1017 94 10000 5.66 150 06:51 14.02.2021
2554 Clouds 24 1017 94 10000 5.14 140 05:42 14.02.2021
2555 Clouds 24 1016 88 10000 5.14 150 03:32 14.02.2021
2556 Clouds 24 1016 88 10000 4.12 150 02:21 14.02.2021
2557 Clouds 25 1015 83 10000 5.66 160 00:47 14.02.2021
2558 Clouds 25 1015 83 10000 5.66 160 00:26 14.02.2021
2559 Clouds 26 1015 83 10000 7.2 170 23:40 13.02.2021
2560 Clouds 26 1015 83 10000 7.2 170 23:20 13.02.2021
2561 Clouds 27 1014 78 10000 8.75 160 22:41 13.02.2021
2562 Clouds 27 1014 78 10000 8.75 160 22:18 13.02.2021
2563 Clouds 27 1015 74 10000 8.75 160 21:42 13.02.2021
2564 Clouds 28 1015 69 10000 8.23 170 20:53 13.02.2021
2565 Clouds 28 1015 69 10000 8.23 170 20:28 13.02.2021
2566 Clouds 28 1016 69 10000 8.23 160 19:51 13.02.2021
2567 Clouds 28 1016 69 10000 8.23 160 19:25 13.02.2021
2568 Clouds 28 1017 69 10000 7.72 160 18:54 13.02.2021
2569 Clouds 28 1017 69 10000 7.72 160 18:34 13.02.2021
2570 Clouds 27 1018 74 10000 7.72 150 17:46 13.02.2021
2571 Clouds 27 1018 74 10000 7.72 150 17:26 13.02.2021
2572 Clouds 27 1018 74 10000 8.23 160 16:59 13.02.2021
2573 Clouds 27 1018 74 10000 8.23 160 16:41 13.02.2021
2574 Clouds 26 1018 78 10000 6.69 160 15:57 13.02.2021
2575 Clouds 26 1018 78 10000 6.69 160 15:27 13.02.2021
2576 Clouds 25 1017 83 10000 5.66 160 14:41 13.02.2021
2577 Clouds 25 1017 83 10000 5.66 160 14:19 13.02.2021
2578 Clouds 23 1017 88 10000 4.63 150 13:40 13.02.2021
2579 Clouds 23 1017 88 10000 4.63 150 13:22 13.02.2021
2580 Clouds 23 1016 88 10000 5.14 160 12:36 13.02.2021
2581 Clouds 23 1016 88 10000 5.14 160 12:18 13.02.2021
2582 Clouds 23 1016 88 10000 5.14 160 11:40 13.02.2021
2583 Clouds 23 1016 88 10000 5.14 160 11:18 13.02.2021
2584 Clouds 23 1016 88 10000 6.17 160 10:43 13.02.2021
2585 Clouds 23 1016 88 10000 6.17 160 10:43 13.02.2021
2586 Clouds 23 1016 88 10000 6.17 160 10:22 13.02.2021
2587 Clouds 23 1016 88 10000 4.63 150 09:46 13.02.2021
2588 Clouds 23 1016 88 10000 4.63 150 09:28 13.02.2021
2589 Clouds 23 1016 94 10000 5.14 150 08:47 13.02.2021
2590 Clouds 23 1016 94 10000 5.14 150 08:18 13.02.2021
2591 Clear 23 1017 94 10000 4.12 150 06:59 13.02.2021
2592 Clear 23 1017 94 10000 4.12 150 06:24 13.02.2021
2593 Clear 23 1017 94 10000 4.12 150 04:31 13.02.2021
2594 Clouds 24 1016 88 10000 5.14 170 02:37 13.02.2021
2595 Clouds 24 1016 88 10000 5.66 160 00:54 13.02.2021
2596 Clouds 26 1015 78 10000 8.23 160 23:57 12.02.2021
2597 Clouds 26 1015 78 10000 8.23 160 23:39 12.02.2021
2598 Clouds 26 1015 78 10000 8.23 160 23:18 12.02.2021
2599 Clouds 26 1015 78 10000 8.23 160 22:31 12.02.2021
2600 Clouds 27 1016 69 10000 8.23 150 21:56 12.02.2021
2601 Clouds 27 1016 69 10000 8.23 150 21:37 12.02.2021
2602 Clouds 27 1016 69 10000 8.23 150 21:18 12.02.2021
2603 Clouds 28 1016 69 10000 7.2 160 20:39 12.02.2021
2604 Clouds 28 1016 69 10000 7.2 160 20:20 12.02.2021
2605 Clouds 27 1017 69 10000 7.72 160 19:49 12.02.2021
2606 Clouds 27 1017 69 10000 7.72 160 19:26 12.02.2021
2607 Clouds 28 1018 65 10000 7.2 160 18:31 12.02.2021
2608 Clouds 27 1018 69 10000 7.2 150 17:51 12.02.2021
2609 Clouds 27 1018 69 10000 7.2 150 17:31 12.02.2021
2610 Clouds 26 1018 78 10000 7.2 150 16:41 12.02.2021
2611 Clouds 25 1018 83 10000 6.17 150 15:47 12.02.2021
2612 Clouds 25 1018 83 10000 6.17 150 15:22 12.02.2021
2613 Clouds 24 1018 88 10000 3.6 150 14:53 12.02.2021
2614 Clouds 24 1018 88 10000 3.6 150 14:30 12.02.2021
2615 Clouds 22 1017 94 10000 3.09 150 13:42 12.02.2021
2616 Clouds 22 1017 94 10000 3.09 150 13:23 12.02.2021
2617 Clouds 22 1016 94 10000 3.6 150 12:50 12.02.2021
2618 Clouds 22 1016 94 10000 3.6 150 12:31 12.02.2021
2619 Clouds 22 1016 94 10000 3.6 150 11:46 12.02.2021
2620 Clouds 22 1016 94 10000 3.6 150 11:20 12.02.2021
2621 Clouds 22 1016 94 10000 2.57 150 10:47 12.02.2021
2622 Clouds 22 1016 94 10000 2.06 160 09:53 12.02.2021
2623 Clouds 22 1016 94 10000 2.06 160 09:29 12.02.2021
2624 Clouds 23 1017 83 10000 5.14 120 08:57 12.02.2021
2625 Clouds 23 1017 83 10000 5.14 120 08:39 12.02.2021
2626 Clouds 23 1017 83 10000 5.14 120 08:18 12.02.2021
2627 Rain 23 1017 94 10000 3.09 120 07:50 12.02.2021
2628 Clear 23 1018 94 10000 3.6 110 06:55 12.02.2021
2629 Clear 23 1018 88 10000 1.54 100 05:49 12.02.2021
2630 Clear 23 1018 88 10000 1.54 100 05:23 12.02.2021
2631 Clear 23 1018 88 10000 1.54 100 05:23 12.02.2021
2632 Clear 24 1017 83 10000 3.6 140 01:48 12.02.2021
2633 Clouds 26 1017 73 10000 6.69 150 23:41 11.02.2021
2634 Clouds 26 1017 73 10000 6.69 150 23:22 11.02.2021
2635 Clouds 27 1017 69 10000 6.69 150 22:57 11.02.2021
2636 Clouds 27 1017 69 10000 6.69 150 22:38 11.02.2021
2637 Clouds 27 1017 69 10000 6.69 150 22:20 11.02.2021
2638 Clouds 26 1017 78 10000 6.69 140 21:38 11.02.2021
2639 Clouds 26 1017 78 10000 6.69 140 21:18 11.02.2021
2640 Clouds 26 1017 78 10000 7.2 140 20:42 11.02.2021
2641 Clouds 26 1017 78 10000 7.2 140 20:21 11.02.2021
2642 Clouds 26 1018 78 10000 7.72 150 19:48 11.02.2021
2643 Clouds 26 1018 78 10000 7.72 150 19:28 11.02.2021
2644 Clouds 26 1019 78 10000 4.12 160 18:49 11.02.2021
2645 Clouds 26 1019 78 10000 4.12 160 18:28 11.02.2021
2646 Clouds 26 1019 78 10000 4.12 160 18:28 11.02.2021
2647 Clouds 26 1020 73 10000 7.72 140 17:52 11.02.2021
2648 Clouds 26 1020 73 10000 7.72 140 17:22 11.02.2021
2649 Clouds 26 1020 69 10000 6.69 130 16:53 11.02.2021
2650 Clouds 26 1020 69 10000 6.69 130 16:53 11.02.2021
2651 Clouds 26 1020 69 10000 6.69 130 16:35 11.02.2021
2652 Clouds 25 1020 73 10000 5.66 120 15:59 11.02.2021
2653 Clouds 25 1020 73 10000 5.66 120 15:40 11.02.2021
2654 Clouds 25 1020 73 10000 5.66 120 15:40 11.02.2021
2655 Clouds 25 1020 73 10000 5.66 120 15:20 11.02.2021
2656 Clouds 24 1020 83 10000 3.6 120 14:44 11.02.2021
2657 Clouds 24 1020 83 10000 3.6 120 14:25 11.02.2021
2658 Clouds 23 1019 88 10000 3.6 100 13:38 11.02.2021
2659 Clouds 23 1019 88 10000 3.6 100 13:18 11.02.2021
2660 Clouds 22 1019 94 10000 3.09 110 12:44 11.02.2021
2661 Clouds 22 1019 94 10000 3.09 110 12:21 11.02.2021
2662 Clear 22 1019 88 10000 3.6 100 11:41 11.02.2021
2663 Clear 22 1019 88 10000 3.6 100 11:20 11.02.2021
2664 Clear 23 1019 83 10000 3.6 110 10:42 11.02.2021
2665 Clear 23 1019 83 10000 3.6 110 10:23 11.02.2021
2666 Clouds 23 1019 83 10000 4.12 120 09:42 11.02.2021
2667 Clouds 23 1019 83 10000 4.12 120 09:19 11.02.2021
2668 Clear 23 1019 83 10000 3.6 110 08:50 11.02.2021
2669 Clear 23 1020 83 10000 2.57 110 07:58 11.02.2021
2670 Clear 23 1020 83 10000 2.57 110 07:58 11.02.2021
2671 Clear 22 1020 88 10000 3.09 110 06:49 11.02.2021
2672 Clear 22 1020 88 10000 3.09 110 06:29 11.02.2021
2673 Clouds 23 1021 88 10000 3.6 100 03:48 11.02.2021
2674 Clouds 24 1020 83 10000 4.12 100 02:28 11.02.2021
2675 Clouds 24 1020 83 10000 3.09 80 00:36 11.02.2021
2676 Clouds 24 1020 83 10000 3.09 80 00:18 11.02.2021
2677 Clouds 26 1020 69 10000 4.12 90 23:35 10.02.2021
2678 Clouds 26 1019 73 10000 4.63 90 22:48 10.02.2021
2679 Clouds 26 1019 73 10000 4.63 90 22:25 10.02.2021
2680 Clouds 27 1019 69 10000 4.63 90 21:40 10.02.2021
2681 Clouds 27 1019 69 10000 4.63 90 21:21 10.02.2021
2682 Clouds 27 1020 65 10000 5.66 130 20:58 10.02.2021
2683 Clouds 27 1020 65 10000 5.66 130 20:30 10.02.2021
2684 Clouds 27 1021 65 10000 6.69 140 19:59 10.02.2021
2685 Clouds 27 1021 65 10000 6.69 140 19:40 10.02.2021
2686 Clouds 27 1021 65 10000 6.69 140 19:19 10.02.2021
2687 Clouds 27 1021 65 10000 6.17 130 18:39 10.02.2021
2688 Clouds 27 1021 65 10000 6.17 130 18:18 10.02.2021
2689 Clouds 27 1022 69 10000 5.66 130 17:45 10.02.2021
2690 Clouds 27 1022 69 10000 5.66 130 17:21 10.02.2021
2691 Clouds 25 1022 73 10000 5.14 120 16:49 10.02.2021
2692 Clouds 25 1022 73 10000 5.14 120 16:49 10.02.2021
2693 Clouds 25 1022 73 10000 5.14 120 16:28 10.02.2021
2694 Clouds 25 1022 83 10000 4.63 110 15:39 10.02.2021
2695 Clouds 25 1022 83 10000 4.63 110 15:21 10.02.2021
2696 Clouds 23 1021 94 10000 3.09 100 14:39 10.02.2021
2697 Clouds 22 1021 94 10000 2.57 90 13:55 10.02.2021
2698 Clouds 22 1021 94 10000 2.57 90 13:31 10.02.2021
2699 Clouds 22 1020 94 10000 2.06 90 12:56 10.02.2021
2700 Clouds 22 1020 94 10000 2.06 90 12:37 10.02.2021
2701 Clouds 22 1020 94 10000 2.06 90 12:18 10.02.2021
2702 Clouds 23 1020 88 10000 2.57 100 11:41 10.02.2021
2703 Clouds 23 1020 88 10000 2.57 100 11:22 10.02.2021
2704 Clouds 22 1020 100 10000 2.06 60 10:37 10.02.2021
2705 Clouds 22 1020 100 10000 2.06 60 10:18 10.02.2021
2706 Clouds 22 1020 100 10000 2.57 80 09:35 10.02.2021
2707 Clouds 22 1020 94 10000 3.6 120 08:57 10.02.2021
2708 Clouds 22 1020 94 10000 3.6 120 08:39 10.02.2021
2709 Clouds 22 1021 100 10000 2.06 100 07:52 10.02.2021
2710 Clouds 22 1021 94 10000 4.63 140 06:44 10.02.2021
2711 Clouds 24 1022 83 10000 2.06 80 02:45 10.02.2021
2712 Clouds 25 1021 78 10000 2.06 120 00:25 10.02.2021
2713 Clouds 25 1020 78 10000 2.57 120 23:34 09.02.2021
2714 Clear 24 1020 82 10000 4.34 120 22:54 09.02.2021
2715 Clear 24 1019 82 10000 4.39 126 22:24 09.02.2021
2716 Clear 24 1019 82 10000 4.39 126 21:52 09.02.2021
2717 Clouds 28 1019 61 10000 5.66 150 21:27 09.02.2021
2718 Clouds 28 1019 61 10000 5.66 150 20:49 09.02.2021
2719 Clouds 28 1019 61 10000 5.66 150 20:26 09.02.2021
2720 Clouds 27 1020 69 10000 6.17 160 19:58 09.02.2021
2721 Clouds 27 1020 69 10000 6.17 160 19:35 09.02.2021
2722 Clouds 27 1022 69 10000 5.66 140 18:58 09.02.2021
2723 Clouds 27 1022 69 10000 5.66 140 18:58 09.02.2021
2724 Clouds 27 1022 69 10000 5.66 140 18:58 09.02.2021
2725 Clouds 27 1022 69 10000 5.66 140 18:36 09.02.2021
2726 Clouds 27 1022 69 10000 5.66 140 17:57 09.02.2021
2727 Clouds 27 1022 69 10000 5.66 140 17:37 09.02.2021
2728 Clouds 27 1022 69 10000 5.66 140 17:18 09.02.2021
2729 Clouds 26 1022 78 10000 4.63 140 16:40 09.02.2021
2730 Clouds 26 1022 78 10000 4.63 140 16:18 09.02.2021
2731 Clouds 25 1022 83 10000 4.63 130 15:48 09.02.2021
2732 Clouds 25 1022 83 10000 4.63 130 15:24 09.02.2021
2733 Clouds 24 1021 88 10000 3.09 120 14:53 09.02.2021
2734 Clouds 24 1021 88 10000 3.09 120 14:26 09.02.2021
2735 Clouds 22 1021 100 10000 2.06 100 13:45 09.02.2021
2736 Clouds 22 1021 100 10000 2.06 100 13:21 09.02.2021
2737 Clouds 22 1020 100 10000 3.6 110 12:48 09.02.2021
2738 Clouds 22 1020 100 10000 3.6 110 12:30 09.02.2021
2739 Clouds 22 1020 100 10000 3.09 90 11:45 09.02.2021
2740 Clouds 22 1020 100 10000 3.09 90 11:24 09.02.2021
2741 Clouds 22 1020 94 10000 3.09 110 10:58 09.02.2021
2742 Clouds 22 1020 94 10000 3.09 110 10:38 09.02.2021
2743 Clouds 22 1020 94 10000 3.09 110 10:18 09.02.2021
2744 Clear 24 1020 87 10000 5.55 98 09:41 09.02.2021
2745 Clouds 22 1021 100 10000 3.6 110 09:21 09.02.2021
2746 Clouds 22 1021 100 10000 3.6 110 08:34 09.02.2021
2747 Clouds 23 1021 94 10000 2.57 100 07:57 09.02.2021
2748 Clouds 23 1022 94 10000 2.57 90 05:40 09.02.2021
2749 Clouds 23 1021 94 10000 2.06 100 03:49 09.02.2021
2750 Clouds 24 1021 83 10000 3.09 110 02:26 09.02.2021
2751 Clouds 25 1020 83 10000 3.09 80 00:31 09.02.2021
2752 Clouds 27 1020 69 10000 3.6 100 23:44 08.02.2021
2753 Clouds 27 1020 69 10000 3.6 100 23:19 08.02.2021
2754 Clear 24 1019 84 10000 3.82 104 22:43 08.02.2021
2755 Clouds 27 1019 69 10000 4.12 140 22:22 08.02.2021
2756 Clouds 27 1019 69 10000 4.12 140 21:49 08.02.2021
2757 Clouds 28 1020 65 10000 3.6 120 21:30 08.02.2021
2758 Clouds 28 1020 65 10000 3.6 120 20:55 08.02.2021
2759 Clouds 28 1020 65 10000 3.6 120 20:36 08.02.2021
2760 Clouds 28 1020 65 10000 3.6 120 20:36 08.02.2021
2761 Clouds 28 1020 65 10000 3.6 120 20:18 08.02.2021
2762 Clouds 27 1021 74 10000 3.6 80 19:41 08.02.2021
2763 Clouds 27 1021 74 10000 3.6 80 19:21 08.02.2021
2764 Clouds 27 1021 74 10000 3.6 150 18:44 08.02.2021
2765 Clouds 27 1021 74 10000 3.6 150 18:19 08.02.2021
2766 Clouds 26 1022 78 10000 4.12 160 17:43 08.02.2021
2767 Clouds 26 1022 78 10000 4.12 160 17:23 08.02.2021
2768 Clouds 26 1022 73 10000 3.6 140 16:42 08.02.2021
2769 Clouds 26 1022 73 10000 3.6 140 16:21 08.02.2021
2770 Clear 24 1021 86 10000 4.62 127 15:42 08.02.2021
2771 Clear 24 1020 87 10000 4.62 130 15:20 08.02.2021
2772 Clouds 23 1021 100 800 2.06 160 14:51 08.02.2021
2773 Fog 22 1020 100 200 1.54 150 14:31 08.02.2021
2774 Fog 22 1019 100 200 2.57 150 13:56 08.02.2021
2775 Fog 22 1019 100 200 2.57 150 13:32 08.02.2021
2776 Fog 23 1019 100 200 2.57 140 12:53 08.02.2021
2777 Fog 23 1019 100 200 2.57 140 12:34 08.02.2021
2778 Fog 22 1018 100 400 2.06 170 11:44 08.02.2021
2779 Fog 22 1018 100 400 2.06 170 11:19 08.02.2021
2780 Mist 22 1018 100 4800 1.54 170 10:44 08.02.2021
2781 Mist 22 1018 100 4800 1.54 170 10:23 08.02.2021
2782 Mist 23 1018 94 1000 1.54 190 09:50 08.02.2021
2783 Mist 23 1018 94 1000 1.54 190 09:29 08.02.2021
2784 Mist 23 1018 100 1000 1.54 190 08:32 08.02.2021
2785 Fog 23 1018 100 400 2.06 190 07:51 08.02.2021
2786 Fog 23 1018 100 400 2.06 190 07:22 08.02.2021
2787 Fog 23 1019 100 800 1.54 170 05:29 08.02.2021
2788 Clear 23 1018 100 10000 2.06 140 02:28 08.02.2021
2789 Clear 25 1016 88 10000 3.09 160 00:43 08.02.2021
2790 Clear 25 1016 88 10000 3.09 160 00:18 08.02.2021
2791 Clear 27 1016 78 10000 3.6 190 23:46 07.02.2021
2792 Clear 27 1016 78 10000 3.6 190 23:19 07.02.2021
2793 Clouds 28 1016 74 10000 4.12 200 22:43 07.02.2021
2794 Clouds 28 1016 74 10000 4.12 200 22:24 07.02.2021
2795 Clouds 28 1016 74 10000 3.6 210 21:51 07.02.2021
2796 Clouds 28 1016 74 10000 3.6 210 21:26 07.02.2021
2797 Clouds 28 1017 74 10000 5.14 210 20:51 07.02.2021
2798 Clouds 28 1017 74 10000 5.14 210 20:33 07.02.2021
2799 Clouds 27 1017 78 10000 5.66 200 19:55 07.02.2021
2800 Clouds 27 1017 78 10000 5.66 200 19:30 07.02.2021
2801 Clouds 27 1017 78 10000 5.66 200 19:30 07.02.2021
2802 Clouds 27 1018 78 10000 5.14 210 18:52 07.02.2021
2803 Clouds 27 1018 78 10000 5.14 210 18:52 07.02.2021
2804 Clouds 27 1018 78 10000 5.14 210 18:34 07.02.2021
2805 Clouds 26 1018 83 10000 7.2 220 17:59 07.02.2021
2806 Clouds 26 1018 83 10000 7.2 220 17:40 07.02.2021
2807 Clouds 26 1018 83 10000 7.2 220 17:18 07.02.2021
2808 Clouds 25 1018 88 10000 5.66 210 16:44 07.02.2021
2809 Clouds 25 1018 88 10000 5.66 210 16:22 07.02.2021
2810 Clouds 25 1018 88 10000 5.66 210 16:22 07.02.2021
2811 Clouds 26 1017 83 10000 5.66 200 15:47 07.02.2021
2812 Clouds 26 1017 83 10000 5.66 200 15:28 07.02.2021
2813 Clouds 25 1017 88 10000 4.63 200 14:47 07.02.2021
2814 Clouds 25 1017 88 10000 4.63 200 14:29 07.02.2021
2815 Clouds 24 1016 94 10000 4.12 200 13:52 07.02.2021
2816 Clouds 24 1016 94 10000 4.12 200 13:34 07.02.2021
2817 Clouds 24 1016 94 10000 4.12 190 12:45 07.02.2021
2818 Clouds 24 1016 94 10000 4.12 190 12:22 07.02.2021
2819 Clouds 24 1015 94 10000 4.63 180 11:50 07.02.2021
2820 Clouds 24 1015 94 10000 4.63 180 11:27 07.02.2021
2821 Fog 24 1015 94 800 4.63 180 10:49 07.02.2021
2822 Fog 24 1015 94 800 4.63 180 10:49 07.02.2021
2823 Fog 24 1015 94 800 4.63 180 10:25 07.02.2021
2824 Clear 24 1015 87 10000 7.72 164 09:48 07.02.2021
2825 Fog 23 1016 100 800 4.63 180 09:21 07.02.2021
2826 Fog 23 1016 100 800 4.63 180 09:21 07.02.2021
2827 Fog 23 1016 100 800 4.63 180 08:26 07.02.2021
2828 Fog 23 1016 94 800 4.63 180 07:32 07.02.2021
2829 Clouds 23 1017 94 10000 5.66 170 05:57 07.02.2021
2830 Clouds 23 1016 94 10000 6.17 160 03:52 07.02.2021
2831 Clouds 23 1016 94 10000 5.14 170 01:37 07.02.2021
2832 Clouds 23 1016 94 10000 5.66 160 00:35 07.02.2021
2833 Clouds 24 1016 88 10000 6.17 160 23:46 06.02.2021
2834 Clouds 25 1016 83 10000 6.69 170 22:41 06.02.2021
2835 Clouds 26 1016 78 10000 7.2 170 21:42 06.02.2021
2836 Clouds 26 1016 78 10000 7.2 170 21:22 06.02.2021
2837 Clouds 27 1016 74 10000 8.75 170 20:52 06.02.2021
2838 Clouds 27 1016 74 10000 8.75 170 20:25 06.02.2021
2839 Clouds 28 1017 74 10000 9.26 170 19:57 06.02.2021
2840 Clouds 28 1017 74 10000 9.26 170 19:32 06.02.2021
2841 Clouds 27 1018 78 10000 8.75 160 18:52 06.02.2021
2842 Clouds 27 1018 78 10000 8.75 160 18:32 06.02.2021
2843 Clouds 26 1019 78 10000 8.23 160 17:49 06.02.2021
2844 Clouds 26 1019 78 10000 8.23 160 17:49 06.02.2021
2845 Clouds 26 1019 78 10000 8.23 160 17:22 06.02.2021
2846 Clouds 26 1019 78 10000 7.72 160 16:59 06.02.2021
2847 Clouds 26 1019 78 10000 7.72 160 16:41 06.02.2021
2848 Clouds 26 1019 78 10000 7.72 160 16:22 06.02.2021
2849 Clouds 25 1018 83 10000 6.17 160 15:48 06.02.2021
2850 Clouds 25 1018 83 10000 6.17 160 15:22 06.02.2021
2851 Clouds 22 1018 94 10000 5.14 160 14:45 06.02.2021
2852 Clouds 22 1018 94 10000 5.14 160 14:27 06.02.2021
2853 Clear 22 1018 94 10000 4.63 160 13:49 06.02.2021
2854 Clear 22 1018 94 10000 4.63 160 13:29 06.02.2021
2855 Clear 21 1017 100 10000 5.14 160 12:22 06.02.2021
2856 Clear 21 1017 100 10000 4.12 160 11:48 06.02.2021
2857 Clear 21 1017 100 10000 4.12 160 11:25 06.02.2021
2858 Clear 22 1017 94 10000 4.12 160 10:57 06.02.2021
2859 Clear 22 1017 94 10000 4.12 160 10:39 06.02.2021
2860 Clear 22 1017 94 10000 4.12 160 10:20 06.02.2021
2861 Clouds 21 1016 94 10000 3.6 170 09:37 06.02.2021
2862 Clouds 21 1016 94 10000 3.6 170 09:18 06.02.2021
2863 Clouds 21 1016 94 10000 3.6 170 09:18 06.02.2021
2864 Clear 21 1017 94 10000 4.12 160 08:39 06.02.2021
2865 Clear 21 1017 94 10000 4.12 160 08:20 06.02.2021
2866 Clouds 21 1018 88 10000 3.09 160 05:44 06.02.2021
2867 Clouds 20 1018 94 10000 3.6 150 04:36 06.02.2021
2868 Clouds 21 1017 88 10000 3.09 160 02:26 06.02.2021
2869 Clouds 22 1016 78 10000 4.63 160 00:48 06.02.2021
2870 Clouds 22 1016 78 10000 4.63 160 00:20 06.02.2021
2871 Clouds 24 1016 69 10000 6.17 160 23:44 05.02.2021
2872 Clouds 24 1016 69 10000 6.17 160 23:26 05.02.2021
2873 Clouds 24 1016 69 10000 6.69 160 22:47 05.02.2021
2874 Clouds 24 1016 69 10000 6.69 160 22:23 05.02.2021
2875 Clouds 24 1016 64 10000 6.69 170 21:47 05.02.2021
2876 Clouds 24 1016 64 10000 6.69 170 21:28 05.02.2021
2877 Clouds 24 1017 64 10000 7.2 170 20:46 05.02.2021
2878 Clouds 25 1017 61 10000 6.69 170 19:52 05.02.2021
2879 Clouds 25 1017 61 10000 6.69 170 19:20 05.02.2021
2880 Clouds 24 1018 60 10000 7.2 170 18:53 05.02.2021
2881 Clouds 24 1018 60 10000 7.2 170 18:27 05.02.2021
2882 Clouds 24 1019 60 10000 6.17 170 17:44 05.02.2021
2883 Clouds 24 1019 60 10000 6.17 170 17:24 05.02.2021
2884 Clouds 23 1019 60 10000 5.66 170 16:49 05.02.2021
2885 Clouds 23 1019 60 10000 5.66 170 16:24 05.02.2021
2886 Clouds 21 1019 73 10000 4.63 170 15:57 05.02.2021
2887 Clouds 21 1019 73 10000 4.63 170 15:26 05.02.2021
2888 Clouds 17 1019 88 10000 1.54 150 14:41 05.02.2021
2889 Clouds 17 1019 88 10000 1.54 150 14:23 05.02.2021
2890 Clouds 17 1019 88 10000 1.54 150 14:23 05.02.2021
2891 Clouds 12 1018 87 10000 1.03 0 13:59 05.02.2021
2892 Clouds 12 1018 87 10000 1.03 0 13:59 05.02.2021
2893 Clouds 12 1018 87 10000 1.03 0 13:36 05.02.2021
2894 Clouds 11 1018 87 10000 0.51 0 12:55 05.02.2021
2895 Clouds 11 1018 87 10000 0.51 0 12:36 05.02.2021
2896 Clouds 11 1018 93 10000 0.51 0 11:41 05.02.2021
2897 Clouds 11 1018 93 10000 0.51 0 11:21 05.02.2021
2898 Clouds 11 1018 93 10000 5.53 147 10:58 05.02.2021
2899 Clouds 11 1018 93 10000 5.61 141 10:27 05.02.2021
2900 Clouds 11 1018 87 10000 5.61 141 09:48 05.02.2021
2901 Clouds 11 1018 87 10000 5.44 139 09:28 05.02.2021
2902 Clouds 11 1019 93 10000 0.51 0 08:58 05.02.2021
2903 Clouds 11 1019 93 10000 0.51 0 08:23 05.02.2021
2904 Clouds 11 1019 93 10000 5.6 134 07:37 05.02.2021
2905 Clouds 12 1020 94 10000 0.51 0 06:54 05.02.2021
2906 Clouds 12 1020 87 10000 5.5 124 05:38 05.02.2021
2907 Clear 13 1020 82 10000 0.51 0 03:22 05.02.2021
2908 Clear 14 1020 77 10000 0.51 0 02:24 05.02.2021
2909 Clear 17 1020 67 10000 3.6 160 00:41 05.02.2021
2910 Clear 17 1020 67 10000 3.6 160 00:20 05.02.2021
2911 Clear 19 1020 59 10000 4.12 150 23:57 04.02.2021
2912 Clear 19 1020 59 10000 4.12 150 23:39 04.02.2021
2913 Clear 19 1020 59 10000 4.12 150 23:20 04.02.2021
2914 Clear 19 1020 59 10000 4.12 150 23:20 04.02.2021
2915 Clear 20 1020 52 10000 3.6 90 22:51 04.02.2021
2916 Clear 20 1020 52 10000 3.6 90 22:51 04.02.2021
2917 Clear 20 1020 52 10000 3.6 90 22:26 04.02.2021
2918 Clear 20 1020 52 10000 4.12 50 21:42 04.02.2021
2919 Clear 20 1020 52 10000 4.12 50 21:20 04.02.2021
2920 Clear 21 1020 46 10000 4.12 60 20:48 04.02.2021
2921 Clear 21 1020 46 10000 4.12 60 20:29 04.02.2021
2922 Clear 20 1021 42 10000 4.12 20 19:43 04.02.2021
2923 Clear 20 1022 42 10000 4.12 60 18:57 04.02.2021
2924 Clear 20 1022 42 10000 4.12 60 18:26 04.02.2021
2925 Clear 20 1022 52 10000 3.09 90 17:53 04.02.2021
2926 Clear 20 1022 52 10000 3.09 90 17:27 04.02.2021
2927 Clear 19 1022 55 10000 3.6 80 16:56 04.02.2021
2928 Clear 19 1022 55 10000 3.6 80 16:38 04.02.2021
2929 Clear 19 1022 55 10000 3.6 80 16:18 04.02.2021
2930 Clear 19 1022 55 10000 3.6 80 16:18 04.02.2021
2931 Clear 19 1021 52 10000 3.6 60 15:39 04.02.2021
2932 Clear 19 1021 52 10000 3.6 60 15:20 04.02.2021
2933 Clear 15 1021 72 10000 1.54 70 14:42 04.02.2021
2934 Clear 15 1021 72 10000 1.54 70 14:20 04.02.2021
2935 Clouds 10 1021 81 10000 2.06 30 13:45 04.02.2021
2936 Clouds 10 1021 81 10000 2.06 30 13:24 04.02.2021
2937 Clouds 10 1020 81 10000 2.06 20 12:52 04.02.2021
2938 Clear 13 1019 71 10000 2.57 350 11:54 04.02.2021
2939 Clear 13 1019 71 10000 2.57 350 11:34 04.02.2021
2940 Clear 14 1019 62 10000 3.6 350 10:54 04.02.2021
2941 Clear 14 1019 62 10000 3.6 350 10:33 04.02.2021
2942 Clear 15 1019 55 10000 3.09 350 09:45 04.02.2021
2943 Clear 15 1019 55 10000 3.09 350 09:20 04.02.2021
2944 Clear 15 1019 55 10000 3.6 350 08:51 04.02.2021
2945 Clear 15 1019 55 10000 3.6 350 08:25 04.02.2021
2946 Clear 15 1019 58 10000 4.12 350 07:51 04.02.2021
2947 Clear 15 1019 58 10000 4.12 350 07:32 04.02.2021
2948 Clear 14 1020 67 10000 3.6 350 06:45 04.02.2021
2949 Clear 16 1020 59 10000 4.12 340 05:32 04.02.2021
2950 Clouds 17 1019 51 10000 5.66 330 02:30 04.02.2021
2951 Clouds 17 1018 59 10000 6.17 320 01:20 04.02.2021
2952 Clouds 18 1017 55 10000 6.69 320 23:54 03.02.2021
2953 Clouds 18 1017 55 10000 6.69 320 23:30 03.02.2021
2954 Clouds 18 1017 55 10000 6.69 320 22:37 03.02.2021
2955 Clouds 18 1017 55 10000 6.69 320 22:19 03.02.2021
2956 Clear 18 1017 55 10000 6.17 310 21:42 03.02.2021
2957 Clear 18 1017 55 10000 6.17 310 21:22 03.02.2021
2958 Clear 19 1017 52 10000 7.2 310 20:48 03.02.2021
2959 Clear 19 1017 52 10000 7.2 310 20:29 03.02.2021
2960 Clear 20 1017 49 10000 6.69 310 19:54 03.02.2021
2961 Clear 20 1017 49 10000 6.69 310 19:24 03.02.2021
2962 Clear 19 1018 48 10000 7.72 320 18:55 03.02.2021
2963 Clear 19 1018 48 10000 7.72 320 18:36 03.02.2021
2964 Clear 19 1018 48 10000 7.72 320 18:18 03.02.2021
2965 Clear 19 1018 55 10000 7.72 330 17:42 03.02.2021
2966 Clear 19 1018 55 10000 7.72 330 17:19 03.02.2021
2967 Clear 18 1018 52 10000 7.2 330 16:37 03.02.2021
2968 Clouds 17 1018 59 10000 8.23 340 15:58 03.02.2021
2969 Clouds 17 1018 59 10000 8.23 340 15:38 03.02.2021
2970 Clouds 17 1018 59 10000 8.23 340 15:20 03.02.2021
2971 Clouds 17 1017 63 10000 7.72 330 14:43 03.02.2021
2972 Clouds 17 1017 63 10000 7.72 330 14:20 03.02.2021
2973 Clouds 16 1017 63 10000 7.2 320 13:43 03.02.2021
2974 Clouds 16 1017 63 10000 7.2 320 13:43 03.02.2021
2975 Clouds 16 1017 63 10000 7.2 320 13:19 03.02.2021
2976 Clouds 16 1016 67 10000 6.17 320 12:39 03.02.2021
2977 Clouds 16 1016 67 10000 6.17 320 12:19 03.02.2021
2978 Clouds 16 1015 63 10000 6.17 320 11:41 03.02.2021
2979 Clouds 16 1015 63 10000 6.17 320 11:21 03.02.2021
2980 Clouds 16 1015 63 10000 6.69 310 10:28 03.02.2021
2981 Clouds 16 1015 67 10000 7.2 320 09:58 03.02.2021
2982 Clouds 16 1015 67 10000 7.2 320 09:58 03.02.2021
2983 Clouds 16 1015 67 10000 7.2 320 09:38 03.02.2021
2984 Clouds 16 1015 67 10000 7.2 320 09:19 03.02.2021
2985 Clear 18 1015 70 10000 9.75 303 08:43 03.02.2021
2986 Clear 16 1015 59 10000 6.69 310 07:54 03.02.2021
2987 Clouds 17 1015 51 10000 7.2 320 06:42 03.02.2021
2988 Clouds 17 1015 51 10000 7.2 320 06:42 03.02.2021
2989 Clouds 17 1016 48 10000 7.72 310 04:56 03.02.2021
2990 Clouds 17 1016 48 10000 7.72 310 04:37 03.02.2021
2991 Clouds 16 1015 55 10000 6.17 300 03:49 03.02.2021
2992 Clouds 16 1015 59 10000 6.69 300 02:39 03.02.2021
2993 Clouds 16 1014 59 10000 7.2 300 01:24 03.02.2021
2994 Clouds 16 1014 55 10000 8.75 310 00:23 03.02.2021
2995 Clouds 17 1013 51 10000 8.23 310 23:42 02.02.2021
2996 Clouds 17 1013 51 10000 8.23 310 23:23 02.02.2021
2997 Clouds 17 1013 51 10000 9.77 310 22:43 02.02.2021
2998 Clouds 17 1013 51 10000 9.77 310 22:19 02.02.2021
2999 Clouds 18 1013 52 10000 10.29 310 21:44 02.02.2021
3000 Clouds 18 1013 52 10000 10.29 310 21:22 02.02.2021
3001 Clouds 17 1013 51 10000 10.8 310 20:48 02.02.2021
3002 Clouds 17 1013 51 10000 10.8 310 20:21 02.02.2021
3003 Clouds 18 1013 52 10000 11.83 310 19:49 02.02.2021
3004 Clouds 18 1013 52 10000 11.83 310 19:30 02.02.2021
3005 Clouds 17 1014 51 10000 11.32 300 18:48 02.02.2021
3006 Clouds 17 1014 51 10000 11.32 300 18:26 02.02.2021
3007 Clouds 16 1015 55 10000 10.29 300 17:59 02.02.2021
3008 Clouds 16 1015 55 10000 10.29 300 17:36 02.02.2021
3009 Clouds 16 1015 59 10000 10.8 300 17:18 02.02.2021
3010 Clouds 16 1015 59 10000 10.8 300 16:42 02.02.2021
3011 Clouds 16 1015 59 10000 10.8 300 16:23 02.02.2021
3012 Clouds 16 1014 59 10000 9.77 300 15:42 02.02.2021
3013 Clouds 16 1014 59 10000 9.77 300 15:22 02.02.2021
3014 Clouds 16 1014 55 10000 10.29 300 14:49 02.02.2021
3015 Clouds 16 1014 55 10000 10.29 300 14:28 02.02.2021
3016 Clouds 16 1013 55 10000 10.29 300 13:55 02.02.2021
3017 Clouds 16 1013 55 10000 10.29 300 13:37 02.02.2021
3018 Clouds 16 1013 55 10000 10.29 300 13:18 02.02.2021
3019 Clouds 16 1013 59 10000 9.26 300 12:36 02.02.2021
3020 Clouds 16 1012 59 10000 10.29 310 11:45 02.02.2021
3021 Clouds 16 1012 59 10000 10.29 310 11:22 02.02.2021
3022 Clouds 17 1012 63 10000 11.32 310 10:55 02.02.2021
3023 Clouds 17 1012 63 10000 11.32 310 10:27 02.02.2021
3024 Clouds 17 1012 63 10000 11.32 310 09:47 02.02.2021
3025 Clouds 17 1012 63 10000 11.32 310 09:25 02.02.2021
3026 Clouds 18 1012 55 10000 10.8 300 08:54 02.02.2021
3027 Clouds 18 1012 55 10000 10.8 300 08:25 02.02.2021
3028 Clouds 19 1012 52 10000 10.29 300 07:29 02.02.2021
3029 Clouds 18 1012 59 10000 11.32 310 06:43 02.02.2021
3030 Clouds 19 1012 55 10000 10.29 300 05:53 02.02.2021
3031 Clouds 20 1012 60 10000 10.8 290 04:37 02.02.2021
3032 Clouds 21 1011 64 10000 9.26 290 02:26 02.02.2021
3033 Clouds 22 1010 68 10000 9.26 290 01:46 02.02.2021
3034 Clouds 22 1009 68 10000 7.72 280 00:34 02.02.2021
3035 Clouds 24 1009 64 10000 8.23 280 23:19 01.02.2021
3036 Clouds 25 1009 65 10000 9.26 280 22:43 01.02.2021
3037 Clouds 25 1009 65 10000 9.26 280 22:24 01.02.2021
3038 Clouds 26 1009 61 10000 7.72 260 21:49 01.02.2021
3039 Clouds 26 1009 61 10000 7.72 260 21:27 01.02.2021
3040 Clouds 27 1009 57 10000 8.23 270 20:47 01.02.2021
3041 Clouds 27 1009 57 10000 8.23 270 20:25 01.02.2021
3042 Clouds 26 1011 65 10000 6.69 250 19:55 01.02.2021
3043 Clouds 26 1011 65 10000 6.69 250 19:37 01.02.2021
3044 Clouds 26 1011 65 10000 6.69 250 19:18 01.02.2021
3045 Clouds 26 1012 65 10000 7.2 280 18:41 01.02.2021
3046 Clouds 26 1012 65 10000 7.2 280 18:22 01.02.2021
3047 Clouds 26 1013 73 10000 7.2 270 17:45 01.02.2021
3048 Clouds 26 1013 73 10000 7.2 270 17:22 01.02.2021
3049 Clouds 24 1013 83 10000 6.69 260 16:42 01.02.2021
3050 Clouds 24 1013 83 10000 6.69 260 16:42 01.02.2021
3051 Clouds 24 1013 83 10000 6.69 260 16:22 01.02.2021
3052 Clouds 22 1014 94 10000 4.63 260 15:41 01.02.2021
3053 Clouds 22 1014 94 10000 4.63 260 15:19 01.02.2021
3054 Clouds 23 1013 94 9000 5.14 200 14:51 01.02.2021
3055 Rain 23 1013 94 9000 5.14 200 14:23 01.02.2021
3056 Rain 24 1013 79 10000 9.9 203 13:44 01.02.2021
3057 Rain 23 1014 88 10000 4.63 210 13:25 01.02.2021
3058 Rain 23 1014 88 10000 4.63 210 12:44 01.02.2021
3059 Rain 23 1014 88 10000 4.63 210 12:44 01.02.2021
3060 Rain 23 1014 88 10000 4.63 210 12:25 01.02.2021
3061 Clouds 23 1014 88 10000 4.63 210 11:43 01.02.2021
3062 Clouds 23 1014 88 10000 4.63 210 11:20 01.02.2021
3063 Clear 24 1013 81 10000 8.41 187 10:47 01.02.2021
3064 Clouds 22 1015 88 10000 4.12 190 10:21 01.02.2021
3065 Clouds 22 1015 88 10000 4.12 190 09:49 01.02.2021
3066 Clouds 22 1015 88 10000 4.12 190 09:25 01.02.2021
3067 Clouds 22 1015 88 10000 4.12 190 09:25 01.02.2021
3068 Clouds 22 1016 88 10000 4.63 190 08:56 01.02.2021
3069 Clouds 22 1016 88 10000 4.63 190 08:22 01.02.2021
3070 Clouds 22 1016 88 10000 4.12 180 06:51 01.02.2021
3071 Clear 22 1018 88 10000 3.6 170 04:32 01.02.2021
3072 Clear 21 1018 88 10000 2.06 170 02:37 01.02.2021
3073 Clouds 23 1018 73 10000 5.14 130 23:47 31.01.2021
3074 Clouds 24 1018 69 10000 5.66 120 22:56 31.01.2021
3075 Clouds 24 1018 69 10000 5.66 120 22:36 31.01.2021
3076 Clouds 24 1018 69 10000 5.66 120 22:18 31.01.2021
3077 Clouds 24 1019 64 10000 5.66 130 21:41 31.01.2021
3078 Clouds 24 1019 64 10000 5.66 130 21:19 31.01.2021
3079 Clouds 24 1020 60 10000 6.17 140 20:41 31.01.2021
3080 Clouds 24 1020 60 10000 6.17 140 20:19 31.01.2021
3081 Clouds 24 1020 60 10000 6.17 140 20:19 31.01.2021
3082 Clouds 25 1020 53 10000 6.69 140 19:37 31.01.2021
3083 Clouds 25 1020 53 10000 6.69 140 19:19 31.01.2021
3084 Clouds 26 1021 50 10000 6.17 140 18:44 31.01.2021
3085 Clouds 26 1021 50 10000 6.17 140 18:24 31.01.2021
3086 Clouds 25 1021 53 10000 7.72 140 17:49 31.01.2021
3087 Clouds 25 1021 53 10000 7.72 140 17:24 31.01.2021
3088 Clouds 24 1022 57 10000 6.69 140 16:58 31.01.2021
3089 Clouds 24 1022 57 10000 6.69 140 16:39 31.01.2021
3090 Clouds 24 1022 57 10000 6.69 140 16:19 31.01.2021
3091 Clouds 23 1021 64 10000 6.17 140 15:43 31.01.2021
3092 Clouds 22 1021 68 10000 4.12 140 14:50 31.01.2021
3093 Clouds 22 1021 68 10000 4.12 140 14:26 31.01.2021
3094 Clouds 19 1021 77 10000 1.54 110 13:57 31.01.2021
3095 Clouds 19 1021 77 10000 1.54 110 13:38 31.01.2021
3096 Clouds 20 1021 73 10000 3.09 120 12:51 31.01.2021
3097 Clouds 20 1021 73 10000 3.09 120 12:29 31.01.2021
3098 Clouds 20 1020 73 10000 3.6 110 11:58 31.01.2021
3099 Clouds 20 1020 73 10000 3.6 110 11:38 31.01.2021
3100 Clouds 20 1020 73 10000 3.6 110 11:19 31.01.2021
3101 Clouds 20 1020 73 10000 2.57 100 10:43 31.01.2021
3102 Clouds 20 1020 73 10000 2.57 100 10:24 31.01.2021
3103 Clouds 20 1021 68 10000 4.63 110 09:33 31.01.2021
3104 Clouds 20 1021 68 10000 4.63 110 08:34 31.01.2021
3105 Clouds 20 1022 68 10000 4.63 90 07:48 31.01.2021
3106 Clouds 20 1023 68 10000 3.09 100 05:53 31.01.2021
3107 Clear 21 1023 56 10000 5.14 100 00:52 31.01.2021
3108 Clear 21 1023 56 10000 5.14 100 00:26 31.01.2021
3109 Clouds 21 1023 56 10000 6.17 90 23:34 30.01.2021
3110 Clouds 22 1022 53 10000 5.66 100 22:59 30.01.2021
3111 Clouds 22 1022 53 10000 5.66 100 22:31 30.01.2021
3112 Clouds 22 1022 49 10000 4.63 110 21:43 30.01.2021
3113 Clouds 22 1022 49 10000 4.63 110 21:23 30.01.2021
3114 Clouds 22 1022 49 10000 5.14 100 20:50 30.01.2021
3115 Clouds 22 1022 49 10000 5.14 100 20:31 30.01.2021
3116 Clouds 23 1023 46 10000 5.66 110 19:54 30.01.2021
3117 Clouds 23 1023 46 10000 5.66 110 19:54 30.01.2021
3118 Clouds 23 1023 46 10000 5.66 110 19:36 30.01.2021
3119 Clouds 23 1023 46 10000 5.66 110 19:18 30.01.2021
3120 Clouds 21 1024 49 10000 5.14 100 18:39 30.01.2021
3121 Clouds 21 1024 49 10000 5.14 100 18:19 30.01.2021
3122 Clouds 23 1024 49 10000 5.14 100 17:23 30.01.2021
3123 Clouds 22 1024 49 10000 5.14 110 16:56 30.01.2021
3124 Clouds 22 1024 49 10000 5.14 110 16:37 30.01.2021
3125 Clouds 22 1024 49 10000 5.14 110 16:18 30.01.2021
3126 Clouds 21 1023 49 10000 6.17 110 15:40 30.01.2021
3127 Clouds 21 1023 49 10000 6.17 110 15:21 30.01.2021
3128 Clouds 19 1023 63 10000 2.57 130 14:52 30.01.2021
3129 Clouds 19 1023 63 10000 2.57 130 14:22 30.01.2021
3130 Clouds 15 1023 77 10000 1.54 140 13:35 30.01.2021
3131 Clouds 15 1023 77 10000 1.54 140 13:35 30.01.2021
3132 Clouds 15 1022 77 10000 1.54 100 12:53 30.01.2021
3133 Clouds 15 1022 77 10000 1.54 100 12:33 30.01.2021
3134 Clouds 16 1022 72 10000 2.57 110 11:59 30.01.2021
3135 Clouds 16 1022 72 10000 2.57 110 11:31 30.01.2021
3136 Clouds 16 1022 72 10000 2.57 100 10:49 30.01.2021
3137 Clouds 17 1022 72 10000 1.54 110 09:52 30.01.2021
3138 Clouds 17 1022 72 10000 1.54 110 09:31 30.01.2021
3139 Clouds 19 1022 63 10000 2.06 90 08:47 30.01.2021
3140 Clouds 19 1022 63 10000 2.06 90 08:25 30.01.2021
3141 Clouds 19 1023 63 10000 3.6 40 06:53 30.01.2021
3142 Clouds 19 1023 68 10000 4.12 40 05:59 30.01.2021
3143 Clouds 20 1023 56 10000 3.6 50 03:35 30.01.2021
3144 Clouds 20 1023 52 10000 3.09 60 02:25 30.01.2021
3145 Clouds 20 1022 56 10000 3.09 40 01:30 30.01.2021
3146 Clouds 20 1022 56 10000 3.09 40 00:39 30.01.2021
3147 Clouds 20 1022 56 10000 3.09 40 00:20 30.01.2021
3148 Clouds 20 1022 56 10000 4.63 30 23:45 29.01.2021
3149 Clouds 20 1022 56 10000 4.63 30 23:21 29.01.2021
3150 Clouds 21 1022 49 10000 5.14 50 22:44 29.01.2021
3151 Clouds 21 1022 49 10000 5.14 50 22:20 29.01.2021
3152 Clouds 21 1021 56 10000 6.17 40 21:29 29.01.2021
3153 Clouds 21 1022 56 10000 6.17 30 20:46 29.01.2021
3154 Clouds 21 1022 56 10000 6.17 30 20:28 29.01.2021
3155 Clouds 20 1022 56 10000 7.2 30 19:57 29.01.2021
3156 Clouds 20 1022 56 10000 7.2 30 19:38 29.01.2021
3157 Clouds 20 1022 56 10000 7.2 30 19:18 29.01.2021
3158 Clouds 20 1023 60 10000 6.69 30 18:28 29.01.2021
3159 Clouds 20 1024 60 10000 7.72 30 17:40 29.01.2021
3160 Clouds 20 1024 60 10000 7.72 30 17:21 29.01.2021
3161 Clouds 20 1024 60 10000 7.72 30 17:21 29.01.2021
3162 Clouds 20 1023 60 10000 7.2 30 16:45 29.01.2021
3163 Clouds 20 1023 60 10000 7.2 30 16:23 29.01.2021
3164 Clouds 20 1023 60 10000 5.66 30 15:48 29.01.2021
3165 Clouds 20 1023 60 10000 5.66 30 15:27 29.01.2021
3166 Clouds 19 1022 59 10000 5.66 30 14:32 29.01.2021
3167 Clouds 19 1022 52 10000 3.09 40 13:59 29.01.2021
3168 Clouds 19 1022 52 10000 3.09 40 13:59 29.01.2021
3169 Clouds 19 1022 52 10000 3.09 40 13:37 29.01.2021
3170 Clouds 19 1022 52 10000 3.09 40 13:18 29.01.2021
3171 Clouds 19 1022 52 10000 6.17 40 12:24 29.01.2021
3172 Clouds 19 1021 55 10000 5.66 20 11:47 29.01.2021
3173 Clouds 19 1021 55 10000 6.17 30 11:19 29.01.2021
3174 Clouds 19 1021 55 10000 6.17 30 11:19 29.01.2021
3175 Clouds 19 1021 55 10000 6.17 30 10:48 29.01.2021
3176 Clouds 19 1021 55 10000 6.17 30 10:27 29.01.2021
3177 Clouds 19 1022 55 10000 6.17 30 09:45 29.01.2021
3178 Clouds 19 1022 52 10000 7.2 30 08:57 29.01.2021
3179 Clouds 19 1022 52 10000 7.2 30 08:33 29.01.2021
3180 Clouds 19 1022 55 10000 5.66 40 07:58 29.01.2021
3181 Clouds 19 1022 55 10000 5.66 40 07:39 29.01.2021
3182 Clouds 19 1022 55 10000 5.66 40 07:39 29.01.2021
3183 Clouds 19 1022 59 10000 7.2 40 06:58 29.01.2021
3184 Clouds 19 1023 52 10000 6.69 30 05:19 29.01.2021
3185 Clouds 20 1022 60 10000 8.75 30 02:48 29.01.2021
3186 Clouds 20 1021 56 10000 10.29 10 00:38 29.01.2021
3187 Clouds 20 1021 56 10000 10.29 10 00:19 29.01.2021
3188 Clouds 21 1020 60 10000 9.26 20 23:41 28.01.2021
3189 Clouds 21 1020 60 10000 9.26 20 23:41 28.01.2021
3190 Clouds 21 1020 60 10000 9.26 20 23:23 28.01.2021
3191 Clouds 23 1020 56 10000 9.26 10 22:43 28.01.2021
3192 Clouds 23 1020 56 10000 9.26 10 22:25 28.01.2021
3193 Clouds 24 1019 60 10000 10.8 360 21:50 28.01.2021
3194 Clouds 24 1019 60 10000 10.8 360 21:31 28.01.2021
3195 Clouds 23 1019 73 10000 10.29 360 20:54 28.01.2021
3196 Clouds 23 1019 73 10000 10.29 360 20:36 28.01.2021
3197 Clouds 23 1019 73 10000 10.29 360 20:18 28.01.2021
3198 Clouds 25 1019 73 10000 9.26 360 19:37 28.01.2021
3199 Clouds 25 1019 73 10000 9.26 360 19:18 28.01.2021
3200 Clouds 25 1019 73 10000 7.72 330 18:42 28.01.2021
3201 Clouds 25 1019 73 10000 7.72 330 18:20 28.01.2021
3202 Clouds 25 1019 78 10000 7.2 310 17:44 28.01.2021
3203 Clouds 25 1019 78 10000 7.2 310 17:26 28.01.2021
3204 Clouds 26 1019 78 10000 5.14 300 16:44 28.01.2021
3205 Clouds 26 1019 78 10000 5.14 300 16:22 28.01.2021
3206 Clouds 24 1019 88 10000 3.6 290 15:41 28.01.2021
3207 Clouds 23 1018 94 10000 4.63 290 14:58 28.01.2021
3208 Clouds 23 1018 94 10000 4.63 290 14:39 28.01.2021
3209 Clouds 23 1018 94 10000 4.63 290 14:20 28.01.2021
3210 Clouds 23 1018 88 10000 4.12 290 13:45 28.01.2021
3211 Fog 22 1018 94 3600 2.57 290 12:53 28.01.2021
3212 Fog 22 1018 94 3600 2.57 290 12:34 28.01.2021
3213 Fog 21 1018 94 800 2.06 260 11:59 28.01.2021
3214 Fog 21 1018 94 800 2.06 260 11:40 28.01.2021
3215 Fog 21 1018 94 800 2.06 260 11:19 28.01.2021
3216 Clouds 20 1018 100 10000 2.06 230 10:50 28.01.2021
3217 Clouds 20 1018 100 10000 2.06 230 10:32 28.01.2021
3218 Clear 21 1018 100 10000 2.06 250 09:45 28.01.2021
3219 Clear 21 1018 100 10000 2.06 250 09:22 28.01.2021
3220 Clear 21 1019 94 10000 1.54 240 08:54 28.01.2021
3221 Clear 21 1019 94 10000 1.54 240 08:18 28.01.2021
3222 Clear 21 1019 100 10000 2.06 270 07:44 28.01.2021
3223 Clouds 22 1020 94 10000 1.54 250 06:49 28.01.2021
3224 Clouds 23 1020 88 10000 1.54 290 05:35 28.01.2021
3225 Clouds 23 1019 94 10000 1.54 220 03:52 28.01.2021
3226 Clouds 23 1019 94 10000 1.54 170 01:38 28.01.2021
3227 Clouds 25 1018 78 10000 5.14 190 23:47 27.01.2021
3228 Clouds 25 1018 78 10000 5.14 190 23:23 27.01.2021
3229 Clouds 26 1018 73 10000 5.14 200 22:41 27.01.2021
3230 Clouds 26 1018 73 10000 5.14 200 22:21 27.01.2021
3231 Clouds 27 1018 74 10000 5.14 190 21:42 27.01.2021
3232 Clouds 27 1018 74 10000 5.14 190 21:22 27.01.2021
3233 Clouds 27 1018 74 10000 6.69 180 20:50 27.01.2021
3234 Clouds 27 1018 74 10000 6.69 180 20:20 27.01.2021
3235 Clouds 26 1019 78 10000 6.17 180 19:49 27.01.2021
3236 Clouds 26 1019 78 10000 6.17 180 19:22 27.01.2021
3237 Clouds 27 1020 74 10000 5.66 180 18:45 27.01.2021
3238 Clouds 27 1020 74 10000 5.66 180 18:24 27.01.2021
3239 Clouds 26 1020 73 10000 6.69 170 17:52 27.01.2021
3240 Clouds 26 1020 73 10000 6.69 170 17:32 27.01.2021
3241 Clouds 26 1020 78 10000 6.17 170 16:54 27.01.2021
3242 Clouds 26 1020 78 10000 6.17 170 16:36 27.01.2021
3243 Clouds 26 1020 78 10000 6.17 170 16:18 27.01.2021
3244 Clouds 25 1020 83 10000 5.14 170 15:41 27.01.2021
3245 Clouds 25 1020 83 10000 5.14 170 15:23 27.01.2021
3246 Clouds 22 1019 94 10000 2.06 170 14:23 27.01.2021
3247 Clouds 22 1019 94 10000 2.06 170 13:49 27.01.2021
3248 Clouds 22 1019 94 10000 2.06 170 13:49 27.01.2021
3249 Clouds 22 1019 94 10000 2.06 170 13:29 27.01.2021
3250 Clouds 22 1019 94 10000 2.57 160 12:42 27.01.2021
3251 Clouds 22 1019 94 10000 2.57 160 12:22 27.01.2021
3252 Clouds 21 1018 100 10000 1.54 160 11:46 27.01.2021
3253 Clouds 21 1018 100 10000 1.54 160 11:23 27.01.2021
3254 Clear 24 1017 84 10000 6.75 149 10:41 27.01.2021
3255 Clear 24 1017 85 10000 7.26 148 10:21 27.01.2021
3256 Clear 24 1017 85 10000 7.26 148 09:49 27.01.2021
3257 Clouds 24 1017 86 10000 6.93 150 09:25 27.01.2021
3258 Clouds 24 1017 86 10000 6.93 150 08:32 27.01.2021
3259 Clouds 24 1018 86 10000 6.54 148 07:43 27.01.2021
3260 Clouds 24 1018 85 10000 6.23 141 07:19 27.01.2021
3261 Clouds 24 1018 87 10000 5.49 139 06:19 27.01.2021
3262 Clouds 24 1018 87 10000 5.49 139 05:44 27.01.2021
3263 Clouds 24 1019 87 10000 5.38 139 03:35 27.01.2021
3264 Clouds 24 1019 86 10000 4.99 121 02:23 27.01.2021
3265 Clouds 24 1019 86 10000 4.99 121 01:50 27.01.2021
3266 Clear 24 1019 85 10000 4.78 126 00:34 27.01.2021
3267 Clear 24 1018 84 10000 3.22 127 23:49 26.01.2021
3268 Clear 24 1017 82 10000 3.77 137 23:28 26.01.2021
3269 Clear 24 1017 82 10000 3.77 137 22:50 26.01.2021
3270 Clouds 27 1018 69 10000 5.14 160 22:23 26.01.2021
3271 Clouds 27 1018 69 10000 5.14 160 21:54 26.01.2021
3272 Clouds 27 1018 69 10000 5.14 160 21:34 26.01.2021
3273 Clouds 27 1018 69 10000 5.66 170 20:58 26.01.2021
3274 Clouds 27 1018 69 10000 5.66 170 20:39 26.01.2021
3275 Clouds 27 1018 69 10000 5.66 170 20:21 26.01.2021
3276 Clouds 26 1019 73 10000 5.14 190 19:45 26.01.2021
3277 Clouds 26 1019 73 10000 5.14 190 19:20 26.01.2021
3278 Clouds 27 1020 69 10000 5.66 170 18:47 26.01.2021
3279 Clouds 27 1020 69 10000 5.66 170 18:27 26.01.2021
3280 Clouds 26 1020 73 10000 5.66 170 17:51 26.01.2021
3281 Clouds 26 1020 73 10000 5.66 170 17:30 26.01.2021
3282 Clouds 25 1020 78 10000 4.12 170 16:55 26.01.2021
3283 Clouds 25 1020 78 10000 4.12 170 16:37 26.01.2021
3284 Clouds 25 1020 78 10000 4.12 170 16:18 26.01.2021
3285 Clouds 24 1019 88 10000 3.09 170 15:40 26.01.2021
3286 Clouds 24 1019 88 10000 3.09 170 15:20 26.01.2021
3287 Fog 21 1019 100 4000 5.14 153 14:37 26.01.2021
3288 Fog 21 1019 100 4000 5.98 151 14:18 26.01.2021
3289 Fog 17 1018 94 400 0.51 90 13:33 26.01.2021
3290 Fog 17 1018 100 2400 1.03 60 12:57 26.01.2021
3291 Fog 17 1018 100 2400 1.03 60 12:38 26.01.2021
3292 Fog 17 1018 100 2400 1.03 60 12:19 26.01.2021
3293 Fog 16 1017 100 400 0.51 0 11:49 26.01.2021
3294 Fog 16 1017 100 400 0.51 0 11:19 26.01.2021
3295 Fog 16 1017 100 600 0.51 0 10:34 26.01.2021
3296 Fog 16 1017 100 400 0.51 180 09:57 26.01.2021
3297 Clouds 17 1018 100 10000 6.26 155 09:39 26.01.2021
3298 Clouds 17 1018 100 10000 6.4 152 09:21 26.01.2021
3299 Clouds 17 1018 100 10000 6.4 152 08:44 26.01.2021
3300 Clouds 24 1017 82 10000 5.35 149 07:56 26.01.2021
3301 Clouds 19 1019 94 10000 0.51 0 06:58 26.01.2021
3302 Clouds 24 1018 83 10000 6.29 151 05:51 26.01.2021
3303 Clouds 24 1018 83 10000 6.29 151 05:32 26.01.2021
3304 Clouds 22 1019 88 10000 3.09 140 03:32 26.01.2021
3305 Clouds 23 1018 83 10000 4.12 140 00:59 26.01.2021
3306 Clouds 23 1018 83 10000 4.12 140 00:24 26.01.2021
3307 Clouds 24 1018 78 10000 5.66 140 23:28 25.01.2021
3308 Clouds 24 1018 73 10000 5.66 130 22:44 25.01.2021
3309 Clouds 24 1018 73 10000 5.66 130 22:44 25.01.2021
3310 Clouds 24 1018 73 10000 5.66 130 22:25 25.01.2021
3311 Clouds 25 1018 69 10000 6.17 120 21:41 25.01.2021
3312 Clouds 25 1018 69 10000 6.17 120 21:18 25.01.2021
3313 Clouds 25 1018 69 10000 6.17 130 20:40 25.01.2021
3314 Clouds 25 1018 69 10000 6.17 130 20:20 25.01.2021
3315 Clouds 26 1018 65 10000 6.69 130 19:47 25.01.2021
3316 Clouds 26 1018 65 10000 6.69 130 19:22 25.01.2021
3317 Clouds 24 1019 83 10000 10.1 106 18:44 25.01.2021
3318 Clouds 25 1020 69 10000 5.66 120 18:24 25.01.2021
3319 Clouds 25 1020 69 10000 5.66 120 17:48 25.01.2021
3320 Clouds 25 1020 69 10000 5.66 120 17:24 25.01.2021
3321 Clouds 24 1020 78 10000 5.66 110 16:49 25.01.2021
3322 Clouds 24 1020 78 10000 5.66 110 16:25 25.01.2021
3323 Clouds 23 1020 83 10000 3.6 120 15:55 25.01.2021
3324 Clouds 23 1020 83 10000 3.6 120 15:34 25.01.2021
3325 Clouds 22 1019 88 10000 2.57 100 14:57 25.01.2021
3326 Clouds 22 1019 88 10000 2.57 100 14:38 25.01.2021
3327 Clouds 22 1019 88 10000 2.57 100 14:18 25.01.2021
3328 Clouds 20 1019 94 10000 2.57 100 13:40 25.01.2021
3329 Clouds 20 1019 94 10000 2.57 100 13:19 25.01.2021
3330 Clouds 20 1018 94 10000 2.06 120 12:40 25.01.2021
3331 Clouds 20 1018 94 10000 2.06 120 12:18 25.01.2021
3332 Clouds 20 1018 94 10000 3.09 110 11:27 25.01.2021
3333 Clouds 20 1018 94 10000 3.09 110 10:46 25.01.2021
3334 Clouds 20 1018 94 10000 3.09 110 10:22 25.01.2021
3335 Clouds 19 1019 94 10000 1.54 120 09:49 25.01.2021
3336 Clouds 19 1019 94 10000 1.03 0 09:28 25.01.2021
3337 Clouds 19 1019 94 10000 1.03 0 08:35 25.01.2021
3338 Clouds 18 1019 100 10000 0.51 0 07:56 25.01.2021
3339 Clouds 18 1019 100 10000 0.51 0 07:28 25.01.2021
3340 Clouds 18 1020 94 10000 0.51 0 06:27 25.01.2021
3341 Clouds 21 1019 83 10000 3.86 56 02:23 25.01.2021
3342 Clouds 23 1019 73 10000 1.54 60 00:37 25.01.2021
3343 Clouds 23 1019 73 10000 2.06 20 23:21 24.01.2021
3344 Clouds 24 1019 69 10000 2.06 30 22:48 24.01.2021
3345 Clouds 24 1019 69 10000 2.06 30 22:28 24.01.2021
3346 Clouds 24 1019 69 10000 2.06 40 21:58 24.01.2021
3347 Clouds 24 1019 69 10000 2.06 40 21:27 24.01.2021
3348 Clouds 24 1019 69 10000 2.06 10 20:47 24.01.2021
3349 Clouds 24 1019 69 10000 2.06 10 20:23 24.01.2021
3350 Clouds 24 1019 69 10000 2.06 10 20:23 24.01.2021
3351 Clouds 24 1020 73 10000 2.06 350 19:57 24.01.2021
3352 Clouds 24 1020 73 10000 2.06 350 19:38 24.01.2021
3353 Clouds 24 1020 73 10000 2.06 350 19:19 24.01.2021
3354 Clouds 24 1020 69 10000 3.6 360 18:41 24.01.2021
3355 Clouds 24 1020 69 10000 3.6 360 18:21 24.01.2021
3356 Clouds 25 1021 65 10000 1.54 0 17:57 24.01.2021
3357 Clouds 25 1021 65 10000 1.54 0 17:38 24.01.2021
3358 Clouds 25 1021 65 10000 1.54 0 17:18 24.01.2021
3359 Clouds 24 1021 69 10000 1.03 0 16:41 24.01.2021
3360 Clouds 24 1021 69 10000 1.03 0 16:20 24.01.2021
3361 Clouds 24 1020 73 10000 1.03 0 15:45 24.01.2021
3362 Clouds 24 1020 73 10000 1.03 0 15:20 24.01.2021
3363 Clouds 20 1020 88 10000 2.55 100 14:47 24.01.2021
3364 Clouds 20 1020 88 10000 2.36 89 14:24 24.01.2021
3365 Fog 16 1019 94 10000 2.36 89 13:34 24.01.2021
3366 Fog 15 1019 100 10000 1.79 74 12:51 24.01.2021
3367 Fog 17 1019 94 10000 1.48 73 12:22 24.01.2021
3368 Mist 17 1018 94 10000 1.48 73 11:55 24.01.2021
3369 Mist 17 1018 94 10000 1.4 86 11:25 24.01.2021
3370 Mist 18 1018 94 10000 1.4 86 10:59 24.01.2021
3371 Mist 18 1018 94 10000 1.4 86 10:30 24.01.2021
3372 Clouds 17 1018 94 10000 1.5 85 09:47 24.01.2021
3373 Clouds 17 1018 94 10000 1.5 85 09:47 24.01.2021
3374 Clouds 17 1018 94 10000 1.91 85 09:19 24.01.2021
3375 Clouds 18 1018 94 10000 1.91 85 08:37 24.01.2021
3376 Clouds 18 1019 94 10000 0.51 0 03:51 24.01.2021
3377 Clouds 20 1019 83 10000 1.54 10 02:19 24.01.2021
3378 Clouds 22 1018 73 10000 2.57 10 00:56 24.01.2021
3379 Clouds 22 1018 73 10000 2.57 10 00:21 24.01.2021
3380 Clouds 23 1018 68 10000 3.6 10 23:34 23.01.2021
3381 Clouds 23 1018 68 10000 4.63 10 22:59 23.01.2021
3382 Clouds 23 1018 68 10000 4.63 10 22:40 23.01.2021
3383 Clouds 24 1018 64 10000 4.12 10 21:59 23.01.2021
3384 Clouds 24 1018 64 10000 4.12 10 21:23 23.01.2021
3385 Clouds 25 1018 61 10000 4.12 340 20:53 23.01.2021
3386 Clouds 25 1018 61 10000 4.12 340 20:33 23.01.2021
3387 Clouds 25 1018 61 10000 4.12 330 19:56 23.01.2021
3388 Clouds 25 1018 61 10000 4.12 330 19:38 23.01.2021
3389 Clouds 25 1018 61 10000 4.12 330 19:20 23.01.2021
3390 Clouds 25 1019 61 10000 4.12 330 18:42 23.01.2021
3391 Clouds 25 1019 61 10000 4.12 330 18:20 23.01.2021
3392 Clouds 25 1019 61 10000 1.54 0 17:29 23.01.2021
3393 Clouds 23 1020 64 10000 1.54 0 16:53 23.01.2021
3394 Clouds 23 1020 64 10000 1.54 0 16:32 23.01.2021
3395 Clouds 22 1019 78 10000 1.03 0 15:53 23.01.2021
3396 Clouds 22 1019 78 10000 1.03 0 15:28 23.01.2021
3397 Clouds 18 1019 94 10000 1.96 224 14:40 23.01.2021
3398 Clouds 18 1019 94 10000 1.66 221 14:19 23.01.2021
3399 Clouds 15 1018 94 10000 1.66 221 13:40 23.01.2021
3400 Clouds 15 1018 94 10000 1.86 218 13:22 23.01.2021
3401 Clouds 15 1018 94 10000 1.74 204 12:43 23.01.2021
3402 Clouds 15 1018 94 10000 1.71 205 12:23 23.01.2021
3403 Clouds 15 1017 94 10000 1.71 205 11:35 23.01.2021
3404 Clouds 14 1017 100 10000 0.51 0 10:55 23.01.2021
3405 Clouds 14 1017 100 10000 0.51 0 10:24 23.01.2021
3406 Clouds 15 1018 94 10000 2.31 186 09:52 23.01.2021
3407 Clouds 15 1018 94 10000 2.5 175 09:28 23.01.2021
3408 Clouds 16 1018 94 10000 2.5 175 08:43 23.01.2021
3409 Clouds 16 1018 94 10000 1.55 170 07:48 23.01.2021
3410 Clouds 16 1018 94 10000 1.03 0 06:49 23.01.2021
3411 Clouds 18 1018 88 10000 2.57 180 02:20 23.01.2021
3412 Clouds 22 1018 78 10000 1.54 290 00:23 23.01.2021
3413 Clouds 23 1017 73 10000 2.06 330 23:36 22.01.2021
3414 Clouds 23 1017 68 10000 3.6 340 22:42 22.01.2021
3415 Clouds 24 1017 64 10000 1.54 320 21:59 22.01.2021
3416 Clouds 24 1017 64 10000 1.54 320 21:38 22.01.2021
3417 Clouds 24 1017 64 10000 1.54 320 21:20 22.01.2021
3418 Clouds 25 1017 57 10000 3.09 310 20:46 22.01.2021
3419 Clouds 25 1017 57 10000 3.09 310 20:25 22.01.2021
3420 Clouds 24 1018 64 10000 3.6 200 19:37 22.01.2021
3421 Clouds 24 1018 64 10000 3.6 200 19:18 22.01.2021
3422 Clouds 25 1018 61 10000 3.09 200 18:43 22.01.2021
3423 Clouds 25 1018 61 10000 3.09 200 18:24 22.01.2021
3424 Clouds 24 1018 64 10000 3.09 200 17:44 22.01.2021
3425 Clouds 24 1018 64 10000 3.09 200 17:25 22.01.2021
3426 Clouds 24 1019 64 10000 2.06 110 16:45 22.01.2021
3427 Clouds 24 1019 64 10000 2.06 110 16:24 22.01.2021
3428 Clouds 22 1019 73 10000 1.03 0 15:41 22.01.2021
3429 Clouds 22 1019 73 10000 1.03 0 15:18 22.01.2021
3430 Clouds 17 1018 94 10000 1.03 0 14:31 22.01.2021
3431 Clouds 14 1018 94 10000 2.46 171 13:51 22.01.2021
3432 Clouds 14 1018 94 10000 2.75 163 13:31 22.01.2021
3433 Clear 14 1017 88 10000 2.96 150 12:52 22.01.2021
3434 Clear 14 1017 88 10000 2.84 143 12:23 22.01.2021
3435 Clear 14 1017 94 10000 0.51 0 11:46 22.01.2021
3436 Clear 14 1017 94 10000 2.91 133 10:56 22.01.2021
3437 Clear 14 1017 94 10000 2.91 133 10:35 22.01.2021
3438 Clear 14 1017 94 10000 3.3 133 09:59 22.01.2021
3439 Clear 14 1017 94 10000 2.89 129 09:29 22.01.2021
3440 Clear 14 1018 94 10000 2.89 129 08:51 22.01.2021
3441 Clear 14 1018 94 10000 2.99 128 08:27 22.01.2021
3442 Clear 15 1019 94 10000 2.99 128 07:34 22.01.2021
3443 Clear 16 1020 88 10000 2.55 96 03:38 22.01.2021
3444 Clouds 20 1019 73 10000 1.03 0 00:39 22.01.2021
3445 Clouds 22 1018 60 10000 3.09 190 23:52 21.01.2021
3446 Clouds 22 1018 60 10000 3.09 190 23:31 21.01.2021
3447 Clouds 24 1018 53 10000 2.57 170 22:51 21.01.2021
3448 Clouds 24 1018 53 10000 2.57 170 22:30 21.01.2021
3449 Clouds 23 1018 60 10000 2.57 120 21:43 21.01.2021
3450 Clouds 23 1018 60 10000 2.57 120 21:43 21.01.2021
3451 Clouds 23 1018 60 10000 2.57 120 21:20 21.01.2021
3452 Clouds 24 1019 53 10000 3.09 50 20:48 21.01.2021
3453 Clouds 24 1019 53 10000 3.09 50 20:29 21.01.2021
3454 Clouds 23 1019 56 10000 4.12 50 19:52 21.01.2021
3455 Clouds 23 1019 56 10000 4.12 50 19:29 21.01.2021
3456 Clouds 24 1021 53 10000 3.09 80 18:57 21.01.2021
3457 Clouds 24 1021 53 10000 3.09 80 18:38 21.01.2021
3458 Clouds 24 1021 53 10000 3.09 80 18:19 21.01.2021
3459 Clouds 23 1022 56 10000 3.6 90 17:42 21.01.2021
3460 Clouds 23 1022 56 10000 3.6 90 17:19 21.01.2021
3461 Clouds 22 1022 60 10000 4.63 110 16:42 21.01.2021
3462 Clouds 22 1022 60 10000 4.63 110 16:24 21.01.2021
3463 Clouds 22 1022 64 10000 2.57 130 15:58 21.01.2021
3464 Clouds 22 1022 64 10000 2.57 130 15:33 21.01.2021
3465 Clouds 19 1021 77 10000 1.03 0 14:52 21.01.2021
3466 Clouds 19 1021 77 10000 1.03 0 14:31 21.01.2021
3467 Clouds 20 1021 68 10000 2.06 100 13:48 21.01.2021
3468 Clouds 20 1021 68 10000 2.06 100 13:27 21.01.2021
3469 Clouds 20 1021 68 10000 2.57 60 12:47 21.01.2021
3470 Clouds 20 1021 68 10000 2.57 60 12:27 21.01.2021
3471 Clouds 20 1021 68 10000 2.06 50 11:59 21.01.2021
3472 Clouds 20 1021 68 10000 2.06 50 11:41 21.01.2021
3473 Clouds 20 1021 68 10000 1.54 70 10:57 21.01.2021
3474 Clouds 20 1021 68 10000 1.54 70 10:39 21.01.2021
3475 Clouds 20 1021 68 10000 1.54 70 10:20 21.01.2021
3476 Clouds 20 1021 73 10000 3.09 40 09:39 21.01.2021
3477 Clouds 20 1021 73 10000 3.09 40 09:18 21.01.2021
3478 Clouds 20 1021 73 10000 3.6 40 08:34 21.01.2021
3479 Clouds 21 1022 68 10000 4.12 40 07:46 21.01.2021
3480 Clouds 21 1022 68 10000 4.12 40 07:26 21.01.2021
3481 Clouds 21 1022 68 10000 3.6 50 06:26 21.01.2021
3482 Clouds 18 1022 77 10000 3.09 60 04:54 21.01.2021
3483 Clouds 20 1022 68 10000 2.57 60 02:19 21.01.2021
3484 Clouds 21 1022 64 10000 4.12 60 00:42 21.01.2021
3485 Clouds 22 1022 64 10000 5.14 30 23:44 20.01.2021
3486 Clouds 22 1022 64 10000 5.14 30 23:24 20.01.2021
3487 Clouds 23 1022 56 10000 5.14 40 22:52 20.01.2021
3488 Clouds 23 1022 56 10000 5.14 40 22:29 20.01.2021
3489 Clouds 23 1022 56 10000 5.14 40 21:49 20.01.2021
3490 Clouds 23 1022 56 10000 5.14 40 21:23 20.01.2021
3491 Clouds 23 1022 53 10000 4.63 30 20:52 20.01.2021
3492 Clouds 23 1022 53 10000 4.63 30 20:23 20.01.2021
3493 Clouds 23 1023 53 10000 3.6 60 19:48 20.01.2021
3494 Clouds 23 1023 53 10000 3.6 60 19:48 20.01.2021
3495 Clouds 23 1023 53 10000 3.6 60 19:28 20.01.2021
3496 Clouds 23 1024 56 10000 4.12 50 18:43 20.01.2021
3497 Clouds 23 1024 56 10000 4.12 50 18:43 20.01.2021
3498 Clouds 23 1024 56 10000 4.12 50 18:21 20.01.2021
3499 Clouds 24 1025 53 10000 5.14 50 17:48 20.01.2021
3500 Clouds 24 1025 53 10000 5.14 50 17:27 20.01.2021
3501 Clouds 23 1025 56 10000 6.17 50 16:49 20.01.2021
3502 Clouds 23 1025 56 10000 6.17 50 16:22 20.01.2021
3503 Clouds 22 1024 56 10000 3.09 70 15:38 20.01.2021
3504 Clouds 18 1024 77 10000 2.06 70 14:58 20.01.2021
3505 Clouds 18 1024 77 10000 2.06 70 14:39 20.01.2021
3506 Clouds 18 1024 77 10000 2.06 70 14:19 20.01.2021
3507 Clouds 15 1024 88 10000 5.52 49 13:37 20.01.2021
3508 Clouds 16 1023 82 10000 0.51 0 12:56 20.01.2021
3509 Clouds 16 1023 82 10000 0.51 0 12:22 20.01.2021
3510 Clouds 16 1023 82 10000 0.51 0 12:22 20.01.2021
3511 Clouds 15 1023 88 10000 0.51 0 11:41 20.01.2021
3512 Clouds 15 1023 88 10000 0.51 0 11:20 20.01.2021
3513 Clouds 15 1023 88 10000 0.51 0 10:46 20.01.2021
3514 Clouds 15 1023 88 10000 0.51 0 10:25 20.01.2021
3515 Clouds 16 1023 82 10000 1.03 0 09:38 20.01.2021
3516 Clouds 16 1023 82 10000 1.03 0 09:19 20.01.2021
3517 Clouds 17 1024 77 10000 1.54 100 08:41 20.01.2021
3518 Clouds 17 1024 77 10000 1.54 100 08:21 20.01.2021
3519 Clouds 18 1025 77 10000 2.06 90 07:48 20.01.2021
3520 Clouds 18 1025 77 10000 2.06 90 07:18 20.01.2021
3521 Clouds 20 1026 68 10000 4.12 80 04:29 20.01.2021
3522 Clouds 21 1026 64 10000 5.14 60 01:51 20.01.2021
3523 Clouds 21 1025 64 10000 5.14 60 00:58 20.01.2021
3524 Clouds 22 1025 60 10000 5.66 60 23:54 19.01.2021
3525 Clouds 22 1025 60 10000 5.66 60 23:34 19.01.2021
3526 Clouds 22 1025 60 10000 5.66 60 23:34 19.01.2021
3527 Clouds 23 1025 56 10000 5.66 60 22:58 19.01.2021
3528 Clouds 23 1025 56 10000 5.66 60 22:40 19.01.2021
3529 Clouds 23 1025 56 10000 5.66 60 22:21 19.01.2021
3530 Clouds 23 1024 56 10000 5.14 60 21:54 19.01.2021
3531 Clouds 23 1024 56 10000 5.14 60 21:34 19.01.2021
3532 Clouds 24 1024 50 10000 5.66 70 20:49 19.01.2021
3533 Clouds 24 1024 50 10000 5.66 70 20:28 19.01.2021
3534 Clouds 23 1025 53 10000 5.66 70 19:56 19.01.2021
3535 Clouds 23 1025 53 10000 5.66 70 19:34 19.01.2021
3536 Clouds 23 1026 56 10000 6.17 60 18:59 19.01.2021
3537 Clouds 23 1026 56 10000 6.17 60 18:38 19.01.2021
3538 Clouds 23 1026 56 10000 6.17 60 18:20 19.01.2021
3539 Clouds 23 1026 53 10000 6.69 70 17:42 19.01.2021
3540 Clouds 23 1026 53 10000 6.69 70 17:19 19.01.2021
3541 Clouds 23 1026 56 10000 5.14 80 16:39 19.01.2021
3542 Clouds 23 1026 56 10000 5.14 80 16:18 19.01.2021
3543 Clouds 22 1025 56 10000 5.14 90 15:48 19.01.2021
3544 Clouds 22 1025 56 10000 5.14 90 15:29 19.01.2021
3545 Clouds 21 1025 60 10000 3.09 90 14:43 19.01.2021
3546 Clouds 21 1025 60 10000 3.09 90 14:24 19.01.2021
3547 Clouds 20 1024 64 10000 3.09 80 13:49 19.01.2021
3548 Clouds 20 1024 64 10000 3.09 80 13:22 19.01.2021
3549 Clouds 20 1023 68 10000 2.57 70 12:49 19.01.2021
3550 Clouds 20 1023 68 10000 2.57 70 12:30 19.01.2021
3551 Clouds 20 1023 68 10000 2.57 70 12:30 19.01.2021
3552 Clouds 20 1023 64 10000 2.06 70 11:50 19.01.2021
3553 Clouds 20 1023 64 10000 2.06 70 11:28 19.01.2021
3554 Clouds 20 1023 64 10000 2.06 70 11:28 19.01.2021
3555 Clouds 20 1022 64 10000 2.57 70 10:52 19.01.2021
3556 Clouds 20 1022 64 10000 2.57 70 10:32 19.01.2021
3557 Clouds 20 1022 64 10000 3.09 50 09:53 19.01.2021
3558 Clouds 20 1022 64 10000 3.09 50 09:31 19.01.2021
3559 Clouds 20 1023 64 10000 3.6 60 08:59 19.01.2021
3560 Clouds 20 1023 64 10000 3.6 60 08:26 19.01.2021
3561 Clouds 20 1023 64 10000 4.12 60 07:47 19.01.2021
3562 Clouds 20 1023 68 10000 4.12 60 06:54 19.01.2021
3563 Clouds 21 1023 73 10000 2.57 50 02:33 19.01.2021
3564 Clouds 20 1022 77 10000 1.54 40 01:27 19.01.2021
3565 Clouds 22 1021 64 10000 3.6 340 23:58 18.01.2021
3566 Clouds 22 1021 64 10000 3.6 340 23:34 18.01.2021
3567 Clouds 22 1020 64 10000 4.63 360 22:51 18.01.2021
3568 Clouds 22 1020 64 10000 4.63 360 22:26 18.01.2021
3569 Clouds 22 1020 60 10000 4.63 340 21:58 18.01.2021
3570 Clouds 22 1020 60 10000 4.63 340 21:39 18.01.2021
3571 Clouds 22 1020 60 10000 4.63 340 21:20 18.01.2021
3572 Clouds 21 1020 61 10000 3.76 335 20:42 18.01.2021
3573 Clouds 23 1020 56 10000 5.14 330 20:22 18.01.2021
3574 Clouds 23 1020 56 10000 5.14 330 19:48 18.01.2021
3575 Clouds 23 1020 56 10000 5.14 330 19:30 18.01.2021
3576 Clouds 23 1021 53 10000 4.63 340 18:47 18.01.2021
3577 Clouds 23 1021 53 10000 4.63 340 18:47 18.01.2021
3578 Clouds 23 1021 53 10000 4.63 340 18:23 18.01.2021
3579 Clouds 22 1022 56 10000 5.14 330 17:44 18.01.2021
3580 Clouds 22 1022 56 10000 5.14 330 17:21 18.01.2021
3581 Clouds 22 1022 60 10000 3.6 330 16:46 18.01.2021
3582 Clouds 19 1021 77 10000 3.22 345 16:21 18.01.2021
3583 Clouds 19 1021 77 10000 3.22 345 15:45 18.01.2021
3584 Clouds 19 1021 77 10000 4.22 335 15:25 18.01.2021
3585 Clouds 16 1021 88 10000 0.51 0 14:44 18.01.2021
3586 Clouds 16 1021 88 10000 0.51 0 14:26 18.01.2021
3587 Clear 16 1020 82 10000 0.51 0 13:47 18.01.2021
3588 Clear 16 1020 82 10000 0.51 0 13:27 18.01.2021
3589 Clear 15 1019 88 10000 1.03 0 12:53 18.01.2021
3590 Clear 15 1019 88 10000 1.03 0 12:21 18.01.2021
3591 Clear 16 1019 88 10000 3.73 312 11:56 18.01.2021
3592 Clear 16 1019 88 10000 3.73 312 11:37 18.01.2021
3593 Clear 16 1019 88 10000 4.19 309 11:19 18.01.2021
3594 Clouds 21 1018 65 10000 4.19 309 10:42 18.01.2021
3595 Clear 19 1018 68 10000 0.51 0 09:47 18.01.2021
3596 Clear 19 1018 68 10000 0.51 0 09:27 18.01.2021
3597 Clear 19 1019 68 10000 1.03 0 08:52 18.01.2021
3598 Clear 19 1019 68 10000 1.03 0 08:18 18.01.2021
3599 Clear 19 1019 68 10000 2.06 320 07:33 18.01.2021
3600 Clouds 19 1019 68 10000 2.06 320 05:32 18.01.2021
3601 Clouds 20 1020 64 10000 3.6 350 04:33 18.01.2021
3602 Clouds 19 1019 68 10000 3.09 340 03:59 18.01.2021
3603 Clouds 19 1019 68 10000 3.09 340 03:41 18.01.2021
3604 Clouds 19 1019 68 10000 3.09 340 03:19 18.01.2021
3605 Clouds 19 1019 63 10000 3.09 360 02:37 18.01.2021
3606 Clouds 20 1018 60 10000 4.63 330 00:46 18.01.2021
3607 Clouds 20 1018 60 10000 4.63 330 00:27 18.01.2021
3608 Clouds 20 1018 60 10000 4.12 320 23:46 17.01.2021
3609 Clouds 20 1018 60 10000 4.12 320 23:20 17.01.2021
3610 Clouds 20 1017 60 10000 4.63 320 22:39 17.01.2021
3611 Clouds 20 1017 60 10000 4.63 320 22:39 17.01.2021
3612 Clouds 20 1017 60 10000 4.63 320 22:19 17.01.2021
3613 Clouds 21 1017 60 10000 4.63 330 21:39 17.01.2021
3614 Clouds 21 1017 60 10000 4.63 330 21:21 17.01.2021
3615 Clouds 21 1016 67 10000 4.89 302 20:47 17.01.2021
3616 Clouds 21 1016 67 10000 4.89 302 20:47 17.01.2021
3617 Clouds 22 1018 56 10000 3.6 310 20:25 17.01.2021
3618 Clouds 22 1018 56 10000 3.6 310 19:42 17.01.2021
3619 Clouds 22 1018 56 10000 3.6 310 19:21 17.01.2021
3620 Clouds 21 1019 60 10000 3.09 320 18:38 17.01.2021
3621 Clouds 21 1019 60 10000 3.09 320 18:19 17.01.2021
3622 Clouds 21 1019 60 10000 3.09 320 17:45 17.01.2021
3623 Clouds 21 1019 60 10000 3.09 320 17:24 17.01.2021
3624 Clouds 22 1019 56 10000 3.09 330 16:43 17.01.2021
3625 Clouds 22 1019 56 10000 3.09 330 16:20 17.01.2021
3626 Clouds 21 1019 60 10000 4.12 330 15:42 17.01.2021
3627 Clouds 21 1019 60 10000 4.12 330 15:21 17.01.2021
3628 Clouds 20 1018 64 10000 3.09 320 14:47 17.01.2021
3629 Clouds 20 1018 64 10000 3.09 320 14:26 17.01.2021
3630 Clouds 20 1017 64 10000 3.6 340 13:44 17.01.2021
3631 Clouds 20 1017 64 10000 3.6 340 13:26 17.01.2021
3632 Clouds 20 1017 64 10000 4.12 340 12:52 17.01.2021
3633 Clouds 20 1017 64 10000 4.12 340 12:30 17.01.2021
3634 Clouds 20 1016 64 10000 4.12 350 11:48 17.01.2021
3635 Clouds 20 1016 64 10000 4.12 350 11:22 17.01.2021
3636 Clouds 20 1016 64 10000 3.09 350 10:44 17.01.2021
3637 Clouds 20 1016 64 10000 3.09 350 10:20 17.01.2021
3638 Clouds 21 1016 61 10000 4.47 312 09:20 17.01.2021
3639 Clouds 19 1017 68 10000 2.06 320 08:43 17.01.2021
3640 Clouds 18 1017 72 10000 1.54 270 06:29 17.01.2021
3641 Clouds 20 1017 64 10000 3.6 330 04:28 17.01.2021
3642 Clouds 20 1017 64 10000 4.12 320 02:38 17.01.2021
3643 Clouds 20 1017 60 10000 6.17 330 00:47 17.01.2021
3644 Clouds 20 1017 60 10000 6.17 330 00:18 17.01.2021
3645 Clouds 20 1016 60 10000 6.17 330 23:48 16.01.2021
3646 Clouds 20 1016 60 10000 6.17 330 23:19 16.01.2021
3647 Clouds 22 1016 56 10000 7.2 330 22:34 16.01.2021
3648 Clouds 21 1016 60 10000 7.2 330 21:58 16.01.2021
3649 Clouds 21 1016 60 10000 7.2 330 21:24 16.01.2021
3650 Clouds 22 1016 60 10000 7.2 330 20:53 16.01.2021
3651 Clouds 22 1016 60 10000 7.2 330 20:53 16.01.2021
3652 Clouds 22 1016 60 10000 7.2 330 20:29 16.01.2021
3653 Clouds 22 1016 68 10000 7.2 320 19:50 16.01.2021
3654 Clouds 22 1016 68 10000 7.2 320 19:31 16.01.2021
3655 Clouds 22 1016 78 10000 8.23 320 18:49 16.01.2021
3656 Clouds 22 1016 78 10000 8.23 320 18:28 16.01.2021
3657 Clouds 24 1016 73 10000 6.17 310 17:59 16.01.2021
3658 Clouds 24 1016 73 10000 6.17 310 17:40 16.01.2021
3659 Clouds 24 1016 73 10000 6.17 310 17:21 16.01.2021
3660 Clouds 23 1016 83 10000 6.17 310 16:44 16.01.2021
3661 Clouds 23 1016 83 10000 6.17 310 16:21 16.01.2021
3662 Clouds 23 1015 83 10000 4.12 300 15:43 16.01.2021
3663 Clouds 21 1015 94 10000 4.63 310 14:53 16.01.2021
3664 Clouds 21 1014 94 10000 3.6 290 13:54 16.01.2021
3665 Rain 21 1014 94 10000 3.6 290 13:34 16.01.2021
3666 Clouds 22 1013 94 10000 2.06 230 12:58 16.01.2021
3667 Clouds 22 1013 94 10000 2.06 230 12:37 16.01.2021
3668 Clouds 22 1013 94 10000 2.06 230 12:19 16.01.2021
3669 Clouds 22 1013 94 10000 1.03 0 11:45 16.01.2021
3670 Clouds 22 1013 94 10000 1.03 0 11:20 16.01.2021
3671 Clouds 22 1013 94 10000 2.57 260 10:42 16.01.2021
3672 Clouds 22 1013 94 10000 3.09 270 09:57 16.01.2021
3673 Clouds 23 1013 88 10000 2.06 240 09:22 16.01.2021
3674 Clouds 23 1013 88 10000 2.06 240 08:21 16.01.2021
3675 Clouds 22 1014 94 10000 2.06 230 07:18 16.01.2021
3676 Clouds 23 1014 88 10000 2.57 250 05:45 16.01.2021
3677 Clouds 23 1013 94 10000 3.09 250 04:36 16.01.2021
3678 Clouds 23 1013 88 10000 4.12 240 02:54 16.01.2021
3679 Clouds 24 1013 88 10000 4.12 240 00:48 16.01.2021
3680 Clouds 24 1013 88 10000 4.12 240 00:24 16.01.2021
3681 Clouds 24 1012 88 10000 4.12 230 23:39 15.01.2021
3682 Clouds 23 1012 94 10000 6.17 200 22:42 15.01.2021
3683 Clouds 23 1012 94 10000 6.17 200 22:22 15.01.2021
3684 Clouds 24 1012 88 10000 6.17 200 21:44 15.01.2021
3685 Rain 26 1012 78 10000 7.2 190 20:50 15.01.2021
3686 Clouds 26 1012 78 10000 7.2 190 20:24 15.01.2021
3687 Clouds 24 1013 83 10000 5.66 170 19:58 15.01.2021
3688 Clouds 24 1013 83 10000 5.66 170 19:39 15.01.2021
3689 Rain 24 1013 83 10000 5.66 170 19:21 15.01.2021
3690 Clouds 25 1014 78 10000 7.72 170 18:42 15.01.2021
3691 Rain 25 1014 78 10000 7.72 170 18:18 15.01.2021
3692 Clouds 25 1015 78 10000 5.14 150 17:42 15.01.2021
3693 Clouds 25 1015 78 10000 5.14 150 17:21 15.01.2021
3694 Clouds 25 1016 78 10000 5.14 150 16:46 15.01.2021
3695 Clouds 25 1016 78 10000 5.14 150 16:24 15.01.2021
3696 Clouds 23 1016 88 10000 3.6 140 15:41 15.01.2021
3697 Clouds 23 1016 88 10000 3.6 140 15:21 15.01.2021
3698 Clouds 22 1015 88 10000 2.06 110 14:44 15.01.2021
3699 Clouds 22 1015 88 10000 2.06 110 14:25 15.01.2021
3700 Clouds 21 1015 94 10000 2.57 120 13:42 15.01.2021
3701 Clouds 21 1015 94 10000 2.57 120 13:22 15.01.2021
3702 Clouds 21 1015 88 10000 2.06 160 12:51 15.01.2021
3703 Clouds 21 1015 88 10000 2.06 160 12:31 15.01.2021
3704 Clouds 21 1014 88 10000 0.51 0 11:46 15.01.2021
3705 Clouds 21 1014 88 10000 0.51 0 11:27 15.01.2021
3706 Clouds 21 1014 88 10000 1.03 140 10:56 15.01.2021
3707 Clouds 21 1014 88 10000 1.03 140 10:37 15.01.2021
3708 Clouds 21 1014 94 10000 2.57 120 09:54 15.01.2021
3709 Clouds 21 1014 94 10000 2.57 120 09:34 15.01.2021
3710 Clouds 21 1015 88 10000 1.54 180 08:42 15.01.2021
3711 Clouds 21 1015 88 10000 1.54 180 08:19 15.01.2021
3712 Clouds 22 1015 83 10000 1.54 100 07:41 15.01.2021
3713 Clouds 22 1015 83 10000 1.54 100 07:19 15.01.2021
3714 Clouds 22 1015 83 10000 2.57 80 04:33 15.01.2021
3715 Clouds 22 1015 83 10000 3.09 40 01:39 15.01.2021
3716 Clouds 23 1014 83 10000 3.09 50 23:50 14.01.2021
3717 Clouds 23 1014 83 10000 3.09 50 23:21 14.01.2021
3718 Clouds 23 1014 83 10000 3.6 40 22:42 14.01.2021
3719 Clouds 23 1014 83 10000 3.6 40 22:24 14.01.2021
3720 Clouds 24 1014 78 10000 3.09 40 21:44 14.01.2021
3721 Clouds 24 1014 78 10000 3.09 40 21:21 14.01.2021
3722 Clouds 25 1015 73 10000 4.12 30 20:49 14.01.2021
3723 Clouds 25 1015 73 10000 4.12 30 20:25 14.01.2021
3724 Clouds 25 1015 73 10000 3.6 60 19:44 14.01.2021
3725 Clouds 25 1015 73 10000 3.6 60 19:26 14.01.2021
3726 Clouds 24 1016 78 10000 3.6 50 18:55 14.01.2021
3727 Clouds 24 1016 78 10000 3.6 50 18:27 14.01.2021
3728 Clouds 23 1016 85 10000 3.39 19 17:46 14.01.2021
3729 Clouds 23 1017 83 10000 3.09 30 17:27 14.01.2021
3730 Clouds 23 1017 83 10000 3.09 30 16:43 14.01.2021
3731 Clouds 23 1017 83 10000 3.09 30 16:18 14.01.2021
3732 Clouds 23 1017 83 10000 2.57 70 15:45 14.01.2021
3733 Clouds 22 1016 88 10000 2.57 70 14:59 14.01.2021
3734 Clouds 22 1016 88 10000 2.57 70 14:38 14.01.2021
3735 Clouds 22 1016 88 10000 2.57 70 14:19 14.01.2021
3736 Clouds 22 1016 88 10000 3.09 50 13:52 14.01.2021
3737 Clouds 22 1016 88 10000 3.09 50 13:21 14.01.2021
3738 Clouds 22 1016 88 10000 3.6 20 12:47 14.01.2021
3739 Clouds 22 1016 88 10000 3.6 20 12:19 14.01.2021
3740 Clouds 22 1015 88 10000 4.12 20 11:43 14.01.2021
3741 Clouds 22 1015 88 10000 4.12 20 11:21 14.01.2021
3742 Clouds 22 1015 88 10000 4.12 360 10:52 14.01.2021
3743 Clouds 22 1015 88 10000 4.12 360 10:25 14.01.2021
3744 Clouds 21 1015 94 10000 1.54 270 09:48 14.01.2021
3745 Clouds 21 1015 94 10000 1.54 270 09:23 14.01.2021
3746 Clouds 22 1015 88 10000 2.06 170 08:49 14.01.2021
3747 Clouds 22 1015 88 10000 2.06 170 08:25 14.01.2021
3748 Clouds 22 1016 88 10000 1.03 0 07:48 14.01.2021
3749 Clouds 22 1016 88 10000 4.34 13 06:52 14.01.2021
3750 Clouds 23 1016 83 10000 1.54 100 05:46 14.01.2021
3751 Clear 23 1017 83 10000 2.06 160 00:45 14.01.2021
3752 Clear 25 1017 65 10000 3.6 130 23:54 13.01.2021
3753 Clear 25 1017 65 10000 3.6 130 23:22 13.01.2021
3754 Clear 25 1016 69 10000 4.12 130 22:29 13.01.2021
3755 Clouds 26 1016 73 10000 4.63 140 21:57 13.01.2021
3756 Clouds 26 1016 73 10000 4.63 140 21:38 13.01.2021
3757 Clouds 25 1017 73 10000 5.14 110 20:58 13.01.2021
3758 Clouds 25 1017 73 10000 5.14 110 20:30 13.01.2021
3759 Clouds 24 1018 78 10000 4.63 40 19:58 13.01.2021
3760 Clouds 24 1018 78 10000 4.63 40 19:37 13.01.2021
3761 Clouds 24 1018 78 10000 4.63 40 19:19 13.01.2021
3762 Clouds 25 1019 73 10000 4.12 60 18:40 13.01.2021
3763 Clouds 26 1020 73 10000 4.63 50 17:51 13.01.2021
3764 Clouds 26 1020 73 10000 4.63 50 17:25 13.01.2021
3765 Clouds 25 1021 78 10000 3.09 70 16:51 13.01.2021
3766 Clouds 25 1021 78 10000 3.09 70 16:22 13.01.2021
3767 Clouds 24 1020 83 10000 3.09 80 15:52 13.01.2021
3768 Clouds 24 1020 83 10000 3.09 80 15:34 13.01.2021
3769 Clouds 23 1020 88 10000 2.06 60 14:46 13.01.2021
3770 Clouds 23 1019 83 10000 2.57 60 13:53 13.01.2021
3771 Clouds 23 1019 83 10000 2.57 60 13:27 13.01.2021
3772 Clouds 23 1019 83 10000 3.09 50 12:47 13.01.2021
3773 Clouds 23 1019 83 10000 3.09 50 12:28 13.01.2021
3774 Clouds 23 1019 88 10000 3.6 50 11:55 13.01.2021
3775 Clouds 23 1019 88 10000 3.6 50 11:35 13.01.2021
3776 Clouds 23 1019 88 10000 3.09 40 10:55 13.01.2021
3777 Clouds 23 1019 88 10000 3.09 40 10:37 13.01.2021
3778 Clouds 23 1019 88 10000 2.06 60 09:55 13.01.2021
3779 Clouds 23 1019 88 10000 2.06 60 09:30 13.01.2021
3780 Clouds 22 1020 94 10000 1.54 60 08:51 13.01.2021
3781 Clouds 22 1020 94 10000 1.54 60 08:31 13.01.2021
3782 Clouds 21 1020 100 10000 1.03 0 07:35 13.01.2021
3783 Clear 21 1020 100 10000 1.03 0 06:54 13.01.2021
3784 Clear 22 1021 88 10000 1.54 50 04:20 13.01.2021
3785 Clouds 22 1020 94 10000 2.06 130 03:45 13.01.2021
3786 Clouds 22 1020 94 10000 2.06 130 03:27 13.01.2021
3787 Clouds 22 1020 88 10000 1.54 50 01:19 13.01.2021
3788 Clouds 22 1021 88 10000 1.54 340 23:55 12.01.2021
3789 Clouds 22 1021 88 10000 1.54 340 23:22 12.01.2021
3790 Clouds 22 1020 94 10000 1.54 350 22:46 12.01.2021
3791 Clouds 22 1020 94 10000 1.54 350 22:23 12.01.2021
3792 Rain 22 1021 94 10000 3.09 350 21:49 12.01.2021
3793 Rain 22 1020 88 10000 2.57 140 21:30 12.01.2021
3794 Rain 22 1020 88 9000 3.6 120 20:49 12.01.2021
3795 Rain 23 1021 88 2100 4.12 110 20:27 12.01.2021
3796 Clouds 27 1021 69 10000 3.09 120 19:48 12.01.2021
3797 Clouds 27 1021 69 10000 3.09 120 19:27 12.01.2021
3798 Clouds 27 1022 69 10000 2.57 130 18:44 12.01.2021
3799 Clouds 27 1022 69 10000 2.57 130 18:23 12.01.2021
3800 Clouds 26 1023 78 10000 3.09 120 17:40 12.01.2021
3801 Clouds 26 1023 78 10000 3.09 120 17:22 12.01.2021
3802 Clouds 26 1023 83 10000 3.09 130 16:43 12.01.2021
3803 Clouds 26 1023 83 10000 3.09 130 16:23 12.01.2021
3804 Clouds 23 1023 94 10000 2.06 130 15:39 12.01.2021
3805 Clouds 23 1023 94 10000 2.06 130 15:18 12.01.2021
3806 Clouds 21 1022 100 9000 1.54 140 14:41 12.01.2021
3807 Clouds 21 1022 100 9000 1.54 140 14:21 12.01.2021
3808 Clouds 21 1022 94 10000 4.38 119 13:52 12.01.2021
3809 Clouds 21 1021 94 10000 2.06 120 12:54 12.01.2021
3810 Clouds 21 1021 94 10000 2.06 120 12:22 12.01.2021
3811 Clouds 22 1020 94 10000 2.06 110 11:40 12.01.2021
3812 Clouds 20 1021 94 10000 1.03 0 10:52 12.01.2021
3813 Clouds 20 1021 94 10000 1.03 0 10:22 12.01.2021
3814 Clouds 20 1021 94 10000 4.65 71 09:57 12.01.2021
3815 Clouds 20 1021 94 10000 4.47 68 09:28 12.01.2021
3816 Clouds 21 1021 94 10000 1.54 120 08:51 12.01.2021
3817 Clouds 21 1021 94 10000 1.54 120 08:25 12.01.2021
3818 Clouds 22 1021 94 10000 2.57 110 07:36 12.01.2021
3819 Clouds 22 1022 88 10000 2.06 100 06:35 12.01.2021
3820 Clouds 22 1023 88 10000 2.06 120 05:33 12.01.2021
3821 Clouds 22 1022 88 10000 2.06 100 03:26 12.01.2021
3822 Clouds 23 1022 78 10000 2.57 90 02:19 12.01.2021
3823 Clouds 23 1022 78 10000 2.57 100 01:28 12.01.2021
3824 Clouds 24 1021 73 10000 4.12 140 23:54 11.01.2021
3825 Clouds 24 1021 73 10000 4.12 140 23:23 11.01.2021
3826 Clouds 25 1021 69 10000 5.14 150 22:59 11.01.2021
3827 Clouds 25 1021 69 10000 5.14 150 22:40 11.01.2021
3828 Clouds 25 1021 69 10000 5.14 150 22:19 11.01.2021
3829 Clouds 26 1021 61 10000 5.14 160 21:38 11.01.2021
3830 Clouds 26 1021 61 10000 5.14 160 21:20 11.01.2021
3831 Clouds 26 1021 61 10000 5.66 150 20:41 11.01.2021
3832 Clouds 26 1021 61 10000 5.66 150 20:41 11.01.2021
3833 Clouds 26 1021 61 10000 5.66 150 20:22 11.01.2021
3834 Clouds 25 1022 61 10000 6.17 150 19:54 11.01.2021
3835 Clouds 25 1022 61 10000 6.17 150 19:25 11.01.2021
3836 Clouds 26 1023 57 10000 5.66 150 18:45 11.01.2021
3837 Clouds 26 1023 57 10000 5.66 150 18:25 11.01.2021
3838 Clouds 26 1024 57 10000 5.14 140 17:44 11.01.2021
3839 Clouds 26 1024 57 10000 5.14 140 17:26 11.01.2021
3840 Clouds 24 1024 64 10000 2.57 110 16:57 11.01.2021
3841 Clouds 24 1024 64 10000 2.57 110 16:36 11.01.2021
3842 Clouds 24 1024 64 10000 2.57 110 16:18 11.01.2021
3843 Clouds 21 1024 78 10000 1.03 0 15:44 11.01.2021
3844 Clouds 21 1024 78 10000 1.03 0 15:25 11.01.2021
3845 Clouds 20 1023 77 10000 2.06 120 14:39 11.01.2021
3846 Clouds 16 1023 88 10000 6.61 104 13:49 11.01.2021
3847 Clouds 16 1023 88 10000 7.28 101 13:25 11.01.2021
3848 Clouds 18 1022 82 10000 1.54 120 12:46 11.01.2021
3849 Clouds 18 1022 82 10000 1.54 120 12:27 11.01.2021
3850 Clouds 18 1022 82 10000 1.03 0 11:53 11.01.2021
3851 Clouds 18 1022 82 10000 1.03 0 11:26 11.01.2021
3852 Clouds 17 1022 88 10000 1.54 90 10:42 11.01.2021
3853 Clouds 17 1022 88 10000 1.54 90 10:24 11.01.2021
3854 Clouds 17 1022 82 10000 1.54 100 09:38 11.01.2021
3855 Clouds 17 1022 82 10000 1.54 100 09:19 11.01.2021
3856 Clouds 16 1022 88 10000 1.03 0 08:44 11.01.2021
3857 Clouds 16 1023 88 10000 6.31 71 07:58 11.01.2021
3858 Clouds 16 1023 88 10000 6.03 68 07:25 11.01.2021
3859 Clouds 17 1023 82 10000 6.28 74 06:57 11.01.2021
3860 Clouds 17 1023 77 10000 4.77 63 03:22 11.01.2021
3861 Clouds 19 1023 68 10000 1.54 160 01:29 11.01.2021
3862 Clouds 21 1021 60 10000 3.6 70 23:53 10.01.2021
3863 Clouds 21 1021 60 10000 3.6 70 23:26 10.01.2021
3864 Clouds 21 1021 56 10000 4.12 80 22:47 10.01.2021
3865 Clouds 21 1021 56 10000 4.12 80 22:20 10.01.2021
3866 Clouds 22 1021 56 10000 4.63 70 21:44 10.01.2021
3867 Clouds 22 1021 56 10000 4.63 70 21:20 10.01.2021
3868 Clouds 21 1021 52 10000 4.12 60 20:53 10.01.2021
3869 Clouds 21 1021 52 10000 4.12 60 20:32 10.01.2021
3870 Clouds 22 1021 49 10000 4.12 80 19:43 10.01.2021
3871 Clouds 22 1021 49 10000 4.12 80 19:43 10.01.2021
3872 Clouds 22 1021 49 10000 4.12 80 19:24 10.01.2021
3873 Clouds 21 1023 56 10000 4.12 50 18:47 10.01.2021
3874 Clouds 21 1023 56 10000 4.12 50 18:21 10.01.2021
3875 Clouds 21 1023 56 10000 4.12 50 18:21 10.01.2021
3876 Clouds 20 1024 56 10000 4.63 60 17:28 10.01.2021
3877 Clouds 20 1024 52 10000 2.57 50 16:58 10.01.2021
3878 Clouds 20 1024 52 10000 2.57 50 16:32 10.01.2021
3879 Clouds 20 1023 56 10000 1.54 50 15:48 10.01.2021
3880 Clouds 20 1023 56 10000 1.54 50 15:25 10.01.2021
3881 Clouds 20 1023 56 10000 1.54 50 15:25 10.01.2021
3882 Clouds 19 1022 59 10000 2.06 30 14:44 10.01.2021
3883 Clouds 19 1022 59 10000 2.06 30 14:25 10.01.2021
3884 Clouds 17 1021 63 10000 2.57 30 13:54 10.01.2021
3885 Clouds 17 1021 63 10000 2.57 30 13:36 10.01.2021
3886 Clouds 17 1021 63 10000 2.57 30 13:36 10.01.2021
3887 Clouds 17 1021 63 10000 2.57 30 13:18 10.01.2021
3888 Clouds 17 1021 63 10000 4.12 30 12:42 10.01.2021
3889 Clouds 17 1020 67 10000 3.09 350 11:58 10.01.2021
3890 Clouds 17 1020 67 10000 3.09 350 11:22 10.01.2021
3891 Clouds 17 1020 63 10000 2.57 10 10:58 10.01.2021
3892 Clouds 17 1020 63 10000 2.57 10 10:28 10.01.2021
3893 Clouds 17 1020 63 10000 3.09 10 09:57 10.01.2021
3894 Clouds 18 1020 59 10000 3.09 20 08:50 10.01.2021
3895 Clouds 18 1020 59 10000 3.09 20 08:19 10.01.2021
3896 Clouds 18 1020 59 10000 4.12 360 07:27 10.01.2021
3897 Clouds 18 1021 59 10000 3.6 10 06:18 10.01.2021
3898 Clouds 18 1021 55 10000 4.12 360 05:34 10.01.2021
3899 Clouds 18 1020 59 10000 3.6 330 02:42 10.01.2021
3900 Clouds 18 1019 59 10000 4.63 300 00:38 10.01.2021
3901 Clouds 19 1018 63 10000 5.14 310 23:42 09.01.2021
3902 Clouds 19 1018 63 10000 5.14 310 23:23 09.01.2021
3903 Clouds 20 1018 56 10000 6.17 320 22:25 09.01.2021
3904 Clouds 20 1018 60 10000 6.69 320 21:59 09.01.2021
3905 Clouds 20 1018 60 10000 6.69 320 21:40 09.01.2021
3906 Clouds 20 1018 60 10000 6.69 320 21:21 09.01.2021
3907 Clouds 21 1018 52 10000 7.2 320 20:58 09.01.2021
3908 Clouds 21 1018 52 10000 7.2 320 20:37 09.01.2021
3909 Clouds 21 1018 56 10000 7.2 310 19:43 09.01.2021
3910 Clouds 21 1018 56 10000 7.2 310 19:21 09.01.2021
3911 Clouds 21 1019 52 10000 7.2 310 18:39 09.01.2021
3912 Clouds 21 1019 52 10000 7.2 310 18:19 09.01.2021
3913 Clouds 20 1020 60 10000 7.2 320 17:43 09.01.2021
3914 Clouds 20 1020 60 10000 7.2 320 17:23 09.01.2021
3915 Clouds 21 1019 56 10000 6.17 320 16:31 09.01.2021
3916 Clouds 20 1019 60 10000 7.2 310 15:47 09.01.2021
3917 Clouds 20 1019 60 10000 7.2 310 15:27 09.01.2021
3918 Clouds 20 1018 60 10000 6.17 310 14:38 09.01.2021
3919 Clouds 20 1018 60 10000 6.17 310 14:20 09.01.2021
3920 Clouds 20 1017 56 10000 7.2 310 13:47 09.01.2021
3921 Clouds 20 1017 56 10000 7.2 310 13:28 09.01.2021
3922 Clouds 20 1016 56 10000 7.2 320 12:47 09.01.2021
3923 Clouds 20 1016 56 10000 7.2 320 12:21 09.01.2021
3924 Clouds 20 1016 56 10000 8.75 310 11:50 09.01.2021
3925 Clouds 20 1016 56 10000 8.75 310 11:27 09.01.2021
3926 Clouds 20 1016 64 10000 8.23 310 10:52 09.01.2021
3927 Clouds 20 1016 64 10000 8.23 310 10:27 09.01.2021
3928 Clouds 20 1015 64 10000 8.75 320 09:46 09.01.2021
3929 Clouds 21 1015 64 10000 7.2 310 09:21 09.01.2021
3930 Clouds 21 1015 64 10000 7.2 310 08:26 09.01.2021
3931 Clouds 21 1016 73 10000 7.2 300 06:55 09.01.2021
3932 Clouds 21 1016 73 10000 7.2 300 06:37 09.01.2021
3933 Clouds 22 1016 78 10000 5.66 300 04:40 09.01.2021
3934 Clouds 22 1015 83 10000 4.12 310 02:47 09.01.2021
3935 Clouds 22 1015 83 10000 4.12 310 02:28 09.01.2021
3936 Clouds 22 1015 88 10000 4.12 300 01:35 09.01.2021
3937 Clouds 22 1014 88 10000 3.6 270 00:34 09.01.2021
3938 Clouds 23 1014 83 9000 5.66 290 23:50 08.01.2021
3939 Clouds 26 1013 65 10000 5.14 250 22:49 08.01.2021
3940 Clouds 26 1013 65 10000 6.69 240 21:57 08.01.2021
3941 Clouds 26 1013 65 10000 6.69 240 21:27 08.01.2021
3942 Clouds 26 1014 65 10000 7.2 240 20:41 08.01.2021
3943 Clouds 27 1014 69 10000 7.72 230 19:59 08.01.2021
3944 Clouds 27 1014 69 10000 7.72 230 19:25 08.01.2021
3945 Clouds 26 1015 73 10000 9.26 230 18:59 08.01.2021
3946 Clouds 26 1015 73 10000 9.26 230 18:33 08.01.2021
3947 Clouds 26 1016 73 10000 8.75 220 17:55 08.01.2021
3948 Clouds 26 1016 73 10000 8.75 220 17:25 08.01.2021
3949 Clouds 25 1017 73 10000 6.69 220 16:49 08.01.2021
3950 Clouds 24 1017 83 10000 6.17 220 15:52 08.01.2021
3951 Clouds 24 1017 83 10000 6.17 220 15:32 08.01.2021
3952 Clouds 23 1016 83 10000 3.6 200 14:40 08.01.2021
3953 Clouds 22 1016 88 10000 2.57 190 13:55 08.01.2021
3954 Clouds 22 1016 88 10000 2.57 190 13:22 08.01.2021
3955 Clouds 22 1015 83 10000 2.57 190 12:52 08.01.2021
3956 Clouds 22 1015 83 10000 2.57 190 12:22 08.01.2021
3957 Clouds 22 1015 83 10000 2.57 190 12:22 08.01.2021
3958 Clouds 22 1015 83 10000 2.57 190 12:22 08.01.2021
3959 Clouds 22 1015 83 10000 2.57 190 11:50 08.01.2021
3960 Clouds 21 1015 83 10000 2.57 190 11:30 08.01.2021
3961 Clouds 21 1015 83 10000 2.57 190 10:56 08.01.2021
3962 Clouds 21 1015 83 10000 2.57 190 10:38 08.01.2021
3963 Clouds 21 1015 83 10000 1.54 190 09:53 08.01.2021
3964 Clouds 21 1015 83 10000 1.54 190 09:34 08.01.2021
3965 Clouds 22 1016 83 10000 2.57 180 08:41 08.01.2021
3966 Clouds 22 1017 83 10000 2.57 240 07:29 08.01.2021
3967 Clear 21 1017 88 10000 3.6 170 06:40 08.01.2021
3968 Clouds 23 1017 64 10000 4.63 140 00:32 08.01.2021
3969 Clouds 23 1017 64 10000 4.63 140 23:41 07.01.2021
3970 Clouds 24 1017 57 10000 4.63 150 22:50 07.01.2021
3971 Clouds 24 1017 57 10000 4.63 150 22:32 07.01.2021
3972 Clouds 25 1017 50 10000 4.12 180 21:49 07.01.2021
3973 Clouds 25 1017 50 10000 4.12 180 21:27 07.01.2021
3974 Clouds 25 1017 50 10000 4.12 170 20:48 07.01.2021
3975 Clouds 25 1017 50 10000 4.12 170 20:29 07.01.2021
3976 Clouds 25 1018 50 10000 3.6 170 19:46 07.01.2021
3977 Clouds 25 1018 50 10000 3.6 170 19:23 07.01.2021
3978 Clouds 24 1019 57 10000 4.63 160 18:38 07.01.2021
3979 Clouds 24 1019 57 10000 4.63 160 18:19 07.01.2021
3980 Clouds 24 1020 57 10000 0.51 0 17:30 07.01.2021
3981 Clouds 23 1021 56 10000 2.06 100 16:55 07.01.2021
3982 Clouds 23 1021 56 10000 2.06 100 16:30 07.01.2021
3983 Clouds 22 1020 64 10000 1.03 0 15:48 07.01.2021
3984 Clouds 22 1020 64 10000 1.03 0 15:30 07.01.2021
3985 Clouds 22 1020 64 10000 1.03 0 15:30 07.01.2021
3986 Clouds 16 1019 88 10000 1.03 350 14:27 07.01.2021
3987 Clouds 13 1019 88 10000 3.1 97 13:49 07.01.2021
3988 Clouds 13 1019 88 10000 2.94 100 13:19 07.01.2021
3989 Clouds 22 1019 54 10000 2.94 100 12:47 07.01.2021
3990 Clouds 13 1018 93 10000 2.86 98 11:57 07.01.2021
3991 Clouds 13 1018 93 10000 2.86 98 11:38 07.01.2021
3992 Clouds 22 1018 55 10000 2.98 95 10:51 07.01.2021
3993 Clear 13 1018 93 10000 1 50 10:32 07.01.2021
3994 Clear 13 1018 93 10000 1 50 09:48 07.01.2021
3995 Clear 13 1018 87 10000 3.4 104 09:22 07.01.2021
3996 Clear 13 1018 87 10000 3.4 104 08:30 07.01.2021
3997 Clouds 22 1017 55 10000 3.16 106 07:53 07.01.2021
3998 Clear 14 1018 82 10000 3.16 106 07:32 07.01.2021
3999 Clear 15 1019 82 10000 3.69 75 05:26 07.01.2021
4000 Clouds 21 1018 56 10000 1.5 70 00:32 07.01.2021
4001 Clouds 22 1018 53 10000 2.6 40 23:49 06.01.2021
4002 Clouds 22 1017 53 10000 3.1 80 22:44 06.01.2021
4003 Clouds 23 1017 49 10000 3.1 60 21:47 06.01.2021
4004 Clouds 23 1017 46 10000 3.1 70 21:23 06.01.2021
4005 Clouds 23 1017 46 10000 3.1 70 20:58 06.01.2021
4006 Clouds 23 1017 46 10000 3.1 70 20:36 06.01.2021
4007 Clouds 23 1018 49 10000 3.1 10 20:18 06.01.2021
4008 Clouds 23 1018 49 10000 3.1 10 19:38 06.01.2021
4009 Clouds 22 1018 49 10000 3.6 10 19:18 06.01.2021
4010 Clouds 22 1018 49 10000 3.6 10 18:41 06.01.2021
4011 Clouds 23 1019 49 10000 3.1 10 18:22 06.01.2021
4012 Clouds 23 1019 49 10000 3.1 10 17:42 06.01.2021
4013 Clouds 22 1020 49 10000 3.6 20 17:23 06.01.2021
4014 Clouds 22 1020 49 10000 3.6 20 16:41 06.01.2021
4015 Clouds 21 1020 52 10000 4.1 50 16:19 06.01.2021
4016 Clouds 21 1020 52 10000 4.1 50 15:52 06.01.2021
4017 Clouds 21 1020 52 10000 4.1 50 15:31 06.01.2021
4018 Clouds 20 1019 56 10000 4.1 40 14:46 06.01.2021
4019 Clouds 20 1018 56 10000 3.6 40 14:20 06.01.2021
4020 Clouds 20 1018 56 10000 3.6 40 14:20 06.01.2021
4021 Clouds 20 1018 56 10000 3.6 40 13:42 06.01.2021
4022 Clouds 20 1017 52 10000 3.6 10 13:21 06.01.2021
4023 Clouds 20 1017 52 10000 3.6 10 12:47 06.01.2021
4024 Clouds 20 1017 52 10000 3.6 20 11:51 06.01.2021
4025 Clouds 20 1017 52 10000 3.6 20 11:25 06.01.2021
4026 Clouds 21 1016 55 10000 6.12 2 10:56 06.01.2021
4027 Clouds 21 1016 54 10000 6.3 358 09:58 06.01.2021
4028 Clouds 21 1016 54 10000 6.3 358 09:40 06.01.2021
4029 Clouds 20 1017 60 10000 3.6 360 08:56 06.01.2021
4030 Clouds 20 1018 60 10000 4.1 350 08:21 06.01.2021
4031 Clouds 20 1018 60 10000 4.1 350 07:53 06.01.2021
4032 Clouds 20 1018 52 10000 2.1 330 06:45 06.01.2021
4033 Clouds 19 1018 59 10000 3.6 350 05:31 06.01.2021
4034 Clouds 21 1017 56 10000 4.1 350 04:21 06.01.2021
4035 Clouds 21 1017 56 10000 4.1 340 02:44 06.01.2021
4036 Clouds 21 1017 56 10000 4.6 350 02:21 06.01.2021
4037 Clouds 22 1016 60 10000 4.6 360 23:57 05.01.2021
4038 Clear 23 1015 56 10000 4.6 350 22:57 05.01.2021
4039 Clear 23 1015 56 10000 4.6 350 22:39 05.01.2021
4040 Clear 24 1015 57 10000 4.6 10 22:19 05.01.2021
4041 Clear 24 1015 57 10000 4.6 10 21:34 05.01.2021
4042 Clouds 23 1015 56 10000 5.1 350 20:31 05.01.2021
4043 Clouds 23 1016 64 10000 6.2 360 19:59 05.01.2021
4044 Clouds 23 1016 64 10000 6.2 360 19:40 05.01.2021
4045 Clouds 23 1016 64 10000 5.1 330 19:20 05.01.2021
4046 Clouds 23 1016 64 10000 5.1 330 18:42 05.01.2021
4047 Clouds 24 1017 64 10000 5.1 360 18:19 05.01.2021
4048 Clouds 24 1017 64 10000 5.1 360 17:42 05.01.2021
4049 Clouds 23 1018 73 10000 3.6 350 17:21 05.01.2021
4050 Clouds 23 1018 73 10000 3.6 350 16:45 05.01.2021
4051 Clouds 23 1017 73 10000 3.6 10 16:21 05.01.2021
4052 Clouds 23 1017 73 10000 3.6 10 15:49 05.01.2021
4053 Clouds 23 1017 73 10000 2.6 10 14:49 05.01.2021
4054 Clouds 22 1016 83 10000 3.6 360 14:20 05.01.2021
4055 Clouds 22 1016 83 10000 3.6 360 13:46 05.01.2021
4056 Clouds 22 1015 83 10000 3.6 10 13:21 05.01.2021
4057 Clouds 22 1015 83 10000 3.6 10 12:47 05.01.2021
4058 Clouds 22 1015 83 10000 3.1 340 12:22 05.01.2021
4059 -273 0 0 0 0 0 11:38 05.01.2021
4060 -273 0 0 0 0 0 11:38 05.01.2021
4061 Clouds 22 1015 83 10000 3.1 340 11:37 05.01.2021
4062 Clouds 22 1015 83 10000 3.1 340 11:36 05.01.2021
4063 Clouds 21 1015 88 10000 3.1 350 10:46 05.01.2021
4064 Clouds 21 1015 88 10000 3.1 350 10:26 05.01.2021
4065 Clouds 20 1015 94 10000 0.5 0 09:48 05.01.2021
4066 Clouds 20 1015 94 10000 0.5 0 09:27 05.01.2021
4067 Clouds 21 1015 88 10000 1.5 340 08:23 05.01.2021
4068 Clouds 21 1015 94 10000 0.5 0 06:46 05.01.2021
4069 Clouds 23 1016 83 10000 1 0 03:48 05.01.2021
4070 Clouds 24 1016 83 10000 4.1 350 00:45 05.01.2021
4071 Clouds 24 1016 78 10000 3.1 330 23:44 04.01.2021
4072 Clouds 26 1015 69 10000 3.6 310 23:24 04.01.2021
4073 Clouds 26 1015 69 10000 3.6 310 22:49 04.01.2021
4074 Clouds 26 1015 65 10000 3.6 310 22:22 04.01.2021
4075 Clouds 26 1015 65 10000 3.6 310 21:45 04.01.2021
4076 Clouds 26 1015 65 10000 3.6 310 21:25 04.01.2021
4077 Clouds 27 1016 65 10000 4.6 260 20:43 04.01.2021
4078 Clouds 27 1016 65 10000 4.6 230 20:22 04.01.2021
4079 Clouds 27 1016 65 10000 4.6 230 19:48 04.01.2021
4080 Clouds 27 1017 65 10000 4.1 250 19:22 04.01.2021
4081 Clouds 27 1017 65 10000 4.1 250 18:48 04.01.2021
4082 Clouds 26 1018 69 10000 4.1 220 18:18 04.01.2021
4083 Clouds 26 1018 69 10000 4.1 220 17:39 04.01.2021
4084 Clouds 26 1018 74 10000 3.6 220 17:21 04.01.2021
4085 Clouds 26 1018 74 10000 3.6 220 16:44 04.01.2021
4086 Clouds 26 1018 74 10000 3.6 220 16:26 04.01.2021
4087 Clouds 24 1018 88 10000 2.1 180 15:49 04.01.2021
4088 Mist 20 1018 100 10000 0.5 0 15:25 04.01.2021
4089 Fog 18 1017 100 10000 2.1 150 14:21 04.01.2021
4090 Fog 18 1017 100 10000 2.1 150 13:37 04.01.2021
4091 Fog 16 1017 100 8000 2.73 212 12:57 04.01.2021
4092 Fog 16 1017 100 8000 2.13 216 12:31 04.01.2021
4093 Fog 17 1017 100 8000 0.5 0 11:52 04.01.2021
4094 Clear 17 1017 93 10000 1.5 150 11:19 04.01.2021
4095 Clear 17 1017 93 10000 1.5 150 10:46 04.01.2021
4096 Clear 17 1017 93 10000 1.5 150 10:23 04.01.2021
4097 Clear 18 1017 93 10000 1.5 140 09:44 04.01.2021
4098 Clear 18 1017 93 10000 1 0 09:18 04.01.2021
4099 Clear 18 1017 93 10000 1 0 08:23 04.01.2021
4100 Clear 19 1017 93 10000 0.5 0 07:47 04.01.2021
4101 Clouds 20 1018 94 10000 3.46 199 05:42 04.01.2021
4102 Clouds 22 1019 88 10000 1.5 210 05:20 04.01.2021
4103 Clouds 22 1019 94 10000 1.5 200 02:26 04.01.2021
4104 Clouds 23 1018 83 10000 2.6 170 00:24 04.01.2021
4105 Clouds 25 1018 73 10000 4.6 170 23:37 03.01.2021
4106 Clouds 26 1018 69 10000 5.1 180 22:58 03.01.2021
4107 Clouds 26 1018 69 10000 5.1 180 22:39 03.01.2021
4108 Clouds 26 1018 69 10000 5.1 180 22:39 03.01.2021
4109 Clear 27 1018 57 10000 5.1 190 22:21 03.01.2021
4110 Clear 27 1018 57 10000 5.1 190 21:40 03.01.2021
4111 Clear 27 1018 57 10000 5.1 190 21:22 03.01.2021
4112 Clouds 27 1018 51 10000 7.2 180 20:40 03.01.2021
4113 Clouds 27 1018 54 10000 5.7 190 20:18 03.01.2021
4114 Clouds 27 1018 54 10000 5.7 190 19:44 03.01.2021
4115 Clouds 27 1018 54 10000 5.7 190 19:24 03.01.2021
4116 Clouds 27 1020 54 10000 6.2 180 18:45 03.01.2021
4117 Clouds 26 1021 65 10000 5.1 210 18:23 03.01.2021
4118 Clouds 26 1021 65 10000 5.1 210 17:51 03.01.2021
4119 Clouds 26 1021 65 10000 5.1 210 17:27 03.01.2021
4120 Clouds 26 1021 69 10000 4.6 180 16:54 03.01.2021
4121 Clouds 26 1021 69 10000 4.6 180 16:36 03.01.2021
4122 Clouds 24 1021 78 10000 2.6 150 16:18 03.01.2021
4123 Clouds 24 1021 78 10000 2.6 150 15:39 03.01.2021
4124 Clouds 22 1021 94 10000 1.5 160 14:58 03.01.2021
4125 Clouds 22 1021 94 10000 1.5 160 14:31 03.01.2021
4126 Clouds 19 1020 93 10000 5.82 151 13:47 03.01.2021
4127 Clouds 19 1020 93 10000 5.94 149 13:23 03.01.2021
4128 Clouds 19 1020 93 10000 5.94 149 13:23 03.01.2021
4129 Clouds 18 1020 93 10000 0.5 0 12:50 03.01.2021
4130 Clouds 18 1020 93 10000 1.5 110 11:43 03.01.2021
4131 Clouds 18 1020 93 10000 1.5 110 11:24 03.01.2021
4132 Clouds 18 1020 93 10000 1 0 10:52 03.01.2021
4133 Clouds 18 1020 93 10000 1 0 10:30 03.01.2021
4134 Clouds 24 1019 78 10000 4.76 126 09:41 03.01.2021
4135 Mist 18 1020 93 5000 1 0 09:22 03.01.2021
4136 Clear 18 1021 88 10000 1 0 07:50 03.01.2021
4137 Clear 20 1022 94 10000 1 0 05:58 03.01.2021
4138 Clouds 22 1021 88 10000 1 0 02:28 03.01.2021
4139 Clear 22 1021 88 10000 1.5 120 01:45 03.01.2021
4140 Clear 25 1021 73 10000 4.6 150 00:19 03.01.2021
4141 Clear 25 1021 73 10000 4.6 150 23:28 02.01.2021
4142 Clear 26 1021 69 10000 5.1 170 22:55 02.01.2021
4143 Clear 26 1021 69 10000 5.1 170 22:32 02.01.2021
4144 Clear 26 1021 69 10000 5.1 170 22:32 02.01.2021
4145 Clouds 27 1021 61 10000 6.2 170 21:50 02.01.2021
4146 Clouds 27 1021 61 10000 6.2 170 21:31 02.01.2021
4147 Clouds 27 1021 61 10000 7.7 170 20:50 02.01.2021
4148 Clouds 27 1021 61 10000 7.7 170 20:28 02.01.2021
4149 Clouds 27 1021 69 10000 6.7 160 19:52 02.01.2021
4150 Clouds 27 1022 65 10000 7.2 150 19:20 02.01.2021
4151 Clouds 27 1022 65 10000 7.2 150 18:53 02.01.2021
4152 Clouds 27 1022 65 10000 7.2 150 18:33 02.01.2021
4153 Clouds 26 1022 69 10000 7.2 150 17:57 02.01.2021
4154 Clouds 26 1022 69 10000 7.2 150 17:38 02.01.2021
4155 Clear 27 1023 57 10000 7.7 160 16:49 02.01.2021
4156 Clear 27 1023 57 10000 7.7 160 16:23 02.01.2021
4157 Clear 25 1023 65 10000 6.2 150 15:51 02.01.2021
4158 Clear 25 1023 65 10000 6.2 150 15:28 02.01.2021
4159 Clouds 24 1023 78 10000 4.1 140 14:53 02.01.2021
4160 Clouds 24 1023 78 10000 4.1 140 14:33 02.01.2021
4161 Clouds 22 1022 83 10000 5.1 140 13:44 02.01.2021
4162 Clouds 22 1022 83 10000 4.1 140 12:59 02.01.2021
4163 Clouds 22 1022 83 10000 4.1 140 12:40 02.01.2021
4164 Clouds 22 1022 83 10000 4.6 150 12:19 02.01.2021
4165 Clouds 22 1022 83 10000 4.6 150 11:38 02.01.2021
4166 Clear 22 1022 83 10000 4.1 140 11:20 02.01.2021
4167 Clear 22 1022 83 10000 4.1 140 10:41 02.01.2021
4168 Clear 22 1022 83 10000 4.1 140 10:23 02.01.2021
4169 Clear 22 1022 88 10000 4.1 140 09:43 02.01.2021
4170 Clear 23 1022 78 10000 3.1 130 09:20 02.01.2021
4171 Clear 23 1022 78 10000 3.1 130 08:48 02.01.2021
4172 Clouds 24 1021 78 10000 8.59 121 08:19 02.01.2021
4173 Clear 23 1023 83 10000 3.1 120 07:25 02.01.2021
4174 Clear 23 1023 83 10000 3.1 120 06:57 02.01.2021
4175 Clear 23 1023 83 10000 3.1 120 06:57 02.01.2021
4176 Clouds 23 1023 88 10000 3.6 130 05:57 02.01.2021
4177 Clouds 24 1023 83 10000 3.6 140 01:59 02.01.2021
4178 Clear 24 1022 78 10000 4.6 150 00:39 02.01.2021
4179 Clear 25 1022 73 10000 6.7 140 23:59 01.01.2021
4180 Clear 25 1022 73 10000 6.7 140 23:24 01.01.2021
4181 Clouds 26 1021 69 10000 8.2 150 22:57 01.01.2021
4182 Clouds 26 1021 69 10000 8.2 150 22:57 01.01.2021
4183 Clouds 26 1021 69 10000 8.2 150 22:37 01.01.2021
4184 Clouds 27 1021 65 10000 9.3 140 22:18 01.01.2021
4185 Clouds 27 1021 65 10000 9.3 140 21:42 01.01.2021
4186 Clouds 27 1022 65 10000 8.2 150 21:20 01.01.2021
4187 Clouds 27 1022 65 10000 8.2 150 20:50 01.01.2021
4188 Clouds 23 1023 88 10000 7.7 160 20:18 01.01.2021
4189 Clouds 23 1023 88 10000 7.7 160 19:42 01.01.2021
4190 Clouds 27 1023 69 10000 8.2 130 19:22 01.01.2021
4191 Clouds 27 1023 69 10000 8.2 130 18:46 01.01.2021
4192 Clouds 27 1023 69 10000 8.2 130 18:27 01.01.2021
4193 Clouds 26 1024 69 10000 8.2 130 17:48 01.01.2021
4194 Clouds 26 1024 69 10000 8.2 130 17:23 01.01.2021
4195 Clouds 26 1025 69 10000 7.7 130 16:51 01.01.2021
4196 Clouds 26 1025 69 10000 7.7 130 16:26 01.01.2021
4197 Clouds 25 1025 78 10000 5.7 130 15:42 01.01.2021
4198 Clouds 25 1024 73 10000 5.7 130 14:49 01.01.2021
4199 Clouds 25 1024 73 10000 5.7 130 14:28 01.01.2021
4200 Clouds 23 1023 88 10000 3.1 110 13:40 01.01.2021
4201 Clouds 23 1023 88 10000 4.6 130 12:57 01.01.2021
4202 Clouds 23 1023 88 10000 4.6 130 12:57 01.01.2021
4203 Clouds 23 1023 88 10000 4.6 130 12:36 01.01.2021
4204 Clear 25 1022 80 10000 10.49 119 11:43 01.01.2021
4205 Clear 25 1021 80 10000 10.62 117 11:23 01.01.2021
4206 Clear 25 1021 80 10000 10.62 117 10:59 01.01.2021
4207 Clear 25 1021 80 10000 10.62 117 10:30 01.01.2021
4208 Clouds 23 1022 88 10000 5.1 120 09:39 01.01.2021
4209 Clouds 23 1022 88 10000 5.1 120 08:49 01.01.2021
4210 Clouds 23 1022 88 10000 5.1 120 08:25 01.01.2021
4211 Clear 25 1022 79 10000 11.06 114 04:51 01.01.2021
4212 Clouds 24 1021 78 10000 5.7 120 01:58 01.01.2021
4213 Clouds 24 1021 78 10000 6.2 120 00:35 01.01.2021
4214 Clear 24 1020 77 10000 10.24 112 23:43 31.12.2020
4215 Clouds 26 1020 65 10000 7.7 130 23:21 31.12.2020
4216 Clouds 26 1020 65 10000 7.7 130 22:55 31.12.2020
4217 Clouds 26 1020 65 10000 7.7 130 22:36 31.12.2020
4218 Clouds 26 1020 65 10000 7.7 130 22:36 31.12.2020
4219 Clouds 26 1020 65 10000 8.2 130 22:18 31.12.2020
4220 Clouds 26 1020 65 10000 8.2 130 21:43 31.12.2020
4221 Clouds 26 1020 65 10000 9.8 130 21:20 31.12.2020
4222 Clouds 26 1020 65 10000 9.8 130 20:31 31.12.2020
4223 Clouds 27 1021 65 10000 8.7 130 19:52 31.12.2020
4224 Clouds 27 1021 65 10000 8.7 130 19:34 31.12.2020
4225 Clouds 26 1021 69 10000 8.7 130 18:58 31.12.2020
4226 Clouds 26 1021 69 10000 8.7 130 18:26 31.12.2020
4227 Clouds 27 1022 69 10000 8.2 130 17:59 31.12.2020
4228 Clouds 27 1022 69 10000 8.2 130 17:40 31.12.2020
4229 Clouds 25 1022 78 10000 6.7 120 17:21 31.12.2020
4230 Clouds 25 1022 78 10000 6.7 120 16:39 31.12.2020
4231 Clouds 24 1022 83 10000 6.2 120 16:20 31.12.2020
4232 Clouds 24 1022 83 10000 6.2 120 15:43 31.12.2020
4233 Clouds 23 1021 88 10000 5.1 110 15:20 31.12.2020
4234 Clouds 23 1021 88 10000 5.1 110 14:42 31.12.2020
4235 Clouds 21 1021 94 10000 3.6 100 14:23 31.12.2020
4236 Clouds 21 1021 94 10000 3.6 100 13:58 31.12.2020
4237 Clouds 21 1021 94 10000 3.6 100 13:37 31.12.2020
4238 Clouds 21 1020 88 10000 3.1 110 13:19 31.12.2020
4239 Clouds 21 1020 88 10000 3.1 110 12:46 31.12.2020
4240 Clouds 21 1020 88 10000 3.1 110 12:28 31.12.2020
4241 Clouds 20 1020 94 10000 2.6 100 11:47 31.12.2020
4242 Clouds 20 1020 94 10000 2.6 100 11:28 31.12.2020
4243 Clouds 20 1020 94 10000 2.6 100 11:28 31.12.2020
4244 Clouds 21 1020 83 10000 4.1 120 10:41 31.12.2020
4245 Clouds 21 1020 88 10000 4.1 110 10:23 31.12.2020
4246 Clouds 21 1020 88 10000 4.1 110 09:48 31.12.2020
4247 Clouds 21 1020 88 10000 4.1 110 09:24 31.12.2020
4248 Clouds 22 1020 83 10000 3.6 100 08:47 31.12.2020
4249 Clouds 22 1020 83 10000 3.6 100 08:29 31.12.2020
4250 Clouds 21 1021 88 10000 3.6 110 07:54 31.12.2020
4251 Clouds 21 1021 88 10000 3.6 110 07:24 31.12.2020
4252 Clouds 22 1022 83 10000 5.1 110 05:30 31.12.2020
4253 Clouds 23 1022 73 10000 5.1 100 03:33 31.12.2020
4254 Clouds 23 1021 73 10000 6.7 100 02:36 31.12.2020
4255 Clouds 23 1021 73 10000 6.7 100 01:55 31.12.2020
4256 Clouds 23 1021 73 10000 6.7 100 01:34 31.12.2020
4257 Clouds 23 1020 78 10000 7.2 110 00:56 31.12.2020
4258 Clouds 23 1020 78 10000 7.2 110 00:26 31.12.2020
4259 Clouds 24 1020 69 10000 7.7 110 23:21 30.12.2020
4260 Clouds 24 1020 69 10000 7.7 110 22:59 30.12.2020
4261 Clouds 24 1020 69 10000 7.7 110 22:35 30.12.2020
4262 Clouds 24 1019 74 10000 10.87 90 21:52 30.12.2020
4263 Clouds 24 1019 75 10000 10.64 88 21:27 30.12.2020
4264 Clouds 24 1019 75 10000 10.64 88 20:53 30.12.2020
4265 Clear 26 1021 54 10000 8.2 110 20:28 30.12.2020
4266 Clear 26 1021 54 10000 8.2 110 19:58 30.12.2020
4267 Clear 26 1021 54 10000 8.2 110 19:37 30.12.2020
4268 Clear 26 1022 57 10000 8.7 110 19:18 30.12.2020
4269 Clear 26 1022 57 10000 8.7 110 18:38 30.12.2020
4270 Clear 25 1023 61 10000 8.2 110 18:20 30.12.2020
4271 Clear 25 1023 61 10000 8.2 110 17:43 30.12.2020
4272 Clear 25 1023 61 10000 8.7 90 17:22 30.12.2020
4273 Clear 25 1023 61 10000 8.7 90 16:43 30.12.2020
4274 Clear 24 1023 64 10000 6.7 100 15:51 30.12.2020
4275 Clear 24 1023 64 10000 6.7 100 15:51 30.12.2020
4276 Clear 24 1023 64 10000 6.7 100 15:30 30.12.2020
4277 Clear 23 1022 64 10000 6.2 100 14:52 30.12.2020
4278 Clear 23 1022 64 10000 6.2 100 14:29 30.12.2020
4279 Clear 22 1022 68 10000 5.1 100 13:59 30.12.2020
4280 Clear 23 1021 69 10000 5.7 90 12:56 30.12.2020
4281 Clear 22 1021 73 10000 6.2 90 12:26 30.12.2020
4282 Clear 22 1021 73 10000 6.2 90 11:39 30.12.2020
4283 Clear 22 1021 73 10000 5.7 90 11:21 30.12.2020
4284 Clear 22 1021 73 10000 5.7 90 11:21 30.12.2020
4285 Clear 22 1021 73 10000 5.7 90 10:56 30.12.2020
4286 Clear 22 1021 73 10000 5.7 90 10:37 30.12.2020
4287 Clouds 23 1021 69 10000 6.2 100 09:55 30.12.2020
4288 Clouds 23 1021 69 10000 6.2 100 09:36 30.12.2020
4289 Clouds 22 1021 73 10000 6.7 90 08:35 30.12.2020
4290 Clouds 22 1021 73 10000 6.7 90 08:35 30.12.2020
4291 Clouds 22 1021 73 10000 6.7 90 07:32 30.12.2020
4292 Clouds 21 1022 77 10000 7.2 90 06:54 30.12.2020
4293 Clouds 21 1022 77 10000 7.2 90 06:32 30.12.2020
4294 Clouds 23 1022 64 10000 6.2 80 05:45 30.12.2020
4295 Clouds 23 1022 64 10000 6.2 80 05:27 30.12.2020
4296 Clouds 23 1022 56 10000 7.2 80 03:28 30.12.2020
4297 Clouds 23 1022 56 10000 7.2 80 02:45 30.12.2020
4298 Clouds 23 1022 60 10000 6.7 70 02:25 30.12.2020
4299 Clouds 23 1022 60 10000 6.7 70 02:25 30.12.2020
4300 Clouds 23 1022 60 10000 6.7 70 01:33 30.12.2020
4301 Clouds 22 1021 68 10000 6.7 70 00:51 30.12.2020
4302 Clouds 22 1021 68 10000 6.7 70 00:31 30.12.2020
4303 Clouds 22 1021 73 10000 7.2 80 23:57 29.12.2020
4304 Clouds 22 1021 73 10000 7.2 80 23:39 29.12.2020
4305 Clouds 23 1021 64 10000 5.1 60 23:18 29.12.2020
4306 Clouds 23 1021 64 10000 5.1 60 22:40 29.12.2020
4307 Clouds 22 1021 78 10000 3.6 90 22:22 29.12.2020
4308 Clouds 22 1021 78 10000 3.6 90 21:46 29.12.2020
4309 Clouds 21 1022 83 9000 4.6 90 21:25 29.12.2020
4310 Clouds 21 1022 83 9000 4.6 90 20:46 29.12.2020
4311 Rain 21 1022 83 9000 4.6 90 20:26 29.12.2020
4312 Rain 21 1022 83 9000 4.6 90 20:26 29.12.2020
4313 Clouds 23 1022 69 10000 5.7 90 19:49 29.12.2020
4314 Clouds 23 1022 69 10000 5.7 90 19:24 29.12.2020
4315 Clouds 23 1023 69 10000 6.7 90 18:54 29.12.2020
4316 Clouds 23 1023 69 10000 6.7 90 18:32 29.12.2020
4317 Clouds 22 1024 78 10000 4.6 80 17:57 29.12.2020
4318 Clouds 22 1024 78 10000 4.6 80 17:37 29.12.2020
4319 Clouds 24 1024 57 10000 7.2 80 17:18 29.12.2020
4320 Clouds 24 1024 57 10000 7.2 80 16:35 29.12.2020
4321 Clouds 23 1024 64 10000 5.1 60 15:53 29.12.2020
4322 Clouds 23 1024 64 10000 5.1 60 15:34 29.12.2020
4323 Clouds 23 1024 64 10000 5.1 60 15:34 29.12.2020
4324 Clouds 22 1023 64 10000 5.1 80 14:56 29.12.2020
4325 Clouds 22 1023 64 10000 5.1 80 14:36 29.12.2020
4326 Clouds 22 1022 64 10000 6.2 70 14:18 29.12.2020
4327 Clouds 22 1022 64 10000 6.2 70 13:37 29.12.2020
4328 Clouds 22 1022 68 10000 4.1 70 13:18 29.12.2020
4329 Clouds 22 1022 68 10000 4.1 70 12:37 29.12.2020
4330 Clouds 21 1021 64 10000 4.1 80 12:19 29.12.2020
4331 Clouds 21 1021 64 10000 4.1 80 11:50 29.12.2020
4332 Clouds 21 1021 64 10000 4.1 80 11:31 29.12.2020
4333 Clouds 18 1021 72 10000 1 0 10:22 29.12.2020
4334 Clouds 18 1021 72 10000 1 0 09:42 29.12.2020
4335 Clouds 21 1022 56 10000 3.1 100 09:19 29.12.2020
4336 Clouds 21 1022 56 10000 3.1 100 09:19 29.12.2020
4337 Clouds 21 1022 56 10000 3.1 100 09:19 29.12.2020
4338 Clouds 21 1022 56 10000 3.1 100 08:49 29.12.2020
4339 Clouds 21 1023 56 10000 3.6 90 07:44 29.12.2020
4340 Clouds 21 1023 56 10000 3.6 90 07:26 29.12.2020
4341 Clouds 22 1023 53 10000 5.7 80 05:54 29.12.2020
4342 Clouds 22 1022 64 10000 6.7 80 02:41 29.12.2020
4343 Clouds 22 1021 64 10000 5.7 80 00:44 29.12.2020
4344 Clouds 22 1021 64 10000 5.7 80 00:44 29.12.2020
4345 Clouds 22 1021 73 10000 5.7 80 23:39 28.12.2020
4346 Clouds 20 1021 82 10000 3.1 90 22:56 28.12.2020
4347 Clouds 20 1021 82 10000 6.2 70 22:22 28.12.2020
4348 Clouds 20 1021 82 10000 6.2 70 21:42 28.12.2020
4349 Rain 21 1021 88 10000 1.5 50 21:21 28.12.2020
4350 Clouds 21 1021 88 10000 1.5 50 20:40 28.12.2020
4351 Clouds 22 1021 73 10000 4.6 80 20:21 28.12.2020
4352 Clouds 22 1021 73 10000 4.6 80 19:42 28.12.2020
4353 Rain 22 1021 73 10000 4.6 80 19:23 28.12.2020
4354 Clouds 22 1022 78 10000 5.7 40 18:50 28.12.2020
4355 Clouds 22 1022 78 10000 5.7 40 18:28 28.12.2020
4356 Clouds 20 1023 82 10000 6.7 20 17:42 28.12.2020
4357 Clouds 19 1023 88 8000 4.6 100 17:20 28.12.2020
4358 Clouds 19 1023 88 8000 4.6 100 16:34 28.12.2020
4359 Clouds 19 1022 93 10000 5.1 100 15:59 28.12.2020
4360 Clouds 19 1022 93 10000 5.1 100 15:41 28.12.2020
4361 Clouds 21 1021 73 10000 5.7 60 14:54 28.12.2020
4362 Clouds 21 1021 77 10000 2.1 60 13:54 28.12.2020
4363 Clouds 17 1020 88 10000 1 100 13:25 28.12.2020
4364 Clouds 17 1020 88 10000 1 100 13:25 28.12.2020
4365 Clouds 17 1020 88 10000 1 100 12:41 28.12.2020
4366 Clouds 20 1020 72 10000 1.5 90 12:20 28.12.2020
4367 Clouds 20 1020 72 10000 1.5 90 11:45 28.12.2020
4368 Clouds 20 1020 72 10000 1.5 90 11:23 28.12.2020
4369 Clouds 21 1020 64 10000 2.6 80 10:44 28.12.2020
4370 Clouds 21 1020 64 10000 2.6 80 10:26 28.12.2020
4371 Clouds 21 1020 68 10000 3.6 80 09:46 28.12.2020
4372 Clouds 21 1020 68 10000 3.6 90 09:19 28.12.2020
4373 Clouds 21 1020 64 10000 4.6 80 07:30 28.12.2020
4374 Clear 22 1019 64 10000 6.99 60 06:48 28.12.2020
4375 Clouds 22 1021 60 10000 5.1 90 04:26 28.12.2020
4376 Clouds 22 1020 56 10000 4.1 100 01:57 28.12.2020
4377 Clouds 22 1019 53 10000 3.6 100 00:30 28.12.2020
4378 Clouds 23 1019 53 10000 5.7 100 23:46 27.12.2020
4379 Clouds 24 1019 50 10000 5.1 90 23:18 27.12.2020
4380 Clouds 24 1019 50 10000 5.1 90 21:56 27.12.2020
4381 Clouds 24 1019 50 10000 5.1 90 21:25 27.12.2020
4382 Clouds 23 1019 53 10000 5.1 100 20:42 27.12.2020
4383 Clouds 23 1019 53 10000 5.1 90 19:25 27.12.2020
4384 Clouds 23 1020 56 10000 5.7 70 18:54 27.12.2020
4385 Clouds 23 1020 56 10000 5.7 70 18:36 27.12.2020
4386 Clouds 23 1020 56 10000 4.6 80 18:18 27.12.2020
4387 Clouds 23 1020 56 10000 4.6 80 18:18 27.12.2020
4388 Clouds 23 1020 56 10000 4.6 80 17:42 27.12.2020
4389 Clouds 24 1020 53 10000 4.6 80 17:21 27.12.2020
4390 Clouds 24 1020 53 10000 4.6 80 16:26 27.12.2020
4391 Clouds 23 1020 53 10000 4.6 90 15:37 27.12.2020
4392 Clouds 21 1019 64 10000 2.6 90 14:57 27.12.2020
4393 Clouds 21 1019 64 10000 2.6 90 14:38 27.12.2020
4394 Clouds 21 1019 60 10000 2.1 90 13:42 27.12.2020
4395 Clouds 21 1018 64 10000 3.6 30 12:59 27.12.2020
4396 Clouds 21 1018 64 10000 3.6 30 12:38 27.12.2020
4397 Clouds 21 1018 64 10000 4.6 40 11:43 27.12.2020
4398 Clouds 20 1018 68 10000 4.6 40 11:23 27.12.2020
4399 Clouds 20 1018 68 10000 4.6 40 10:49 27.12.2020
4400 Clouds 20 1018 68 10000 4.6 40 10:23 27.12.2020
4401 Clouds 20 1018 68 10000 4.1 40 09:39 27.12.2020
4402 Clouds 20 1018 64 10000 5.7 20 08:29 27.12.2020
4403 Clouds 20 1018 64 10000 5.7 20 07:47 27.12.2020
4404 Clouds 20 1019 64 10000 4.6 20 07:18 27.12.2020
4405 Clouds 20 1019 60 10000 4.6 20 05:39 27.12.2020
4406 Clouds 19 1019 63 10000 4.1 30 03:26 27.12.2020
4407 Clouds 19 1019 63 10000 3.6 30 02:30 27.12.2020
4408 Clouds 20 1018 56 10000 3.1 50 00:58 27.12.2020
4409 Clouds 20 1018 56 10000 4.1 50 23:44 26.12.2020
4410 Clouds 20 1018 56 10000 4.1 50 23:26 26.12.2020
4411 Clouds 20 1017 67 10000 6.86 31 22:46 26.12.2020
4412 Clouds 21 1017 52 10000 4.6 360 22:20 26.12.2020
4413 Clouds 21 1017 52 10000 4.6 360 21:54 26.12.2020
4414 Clouds 21 1017 52 10000 4.6 360 21:29 26.12.2020
4415 Clouds 20 1018 52 10000 4.1 10 20:46 26.12.2020
4416 Clouds 20 1018 52 10000 4.1 10 20:24 26.12.2020
4417 Clouds 21 1018 49 10000 3.1 30 19:42 26.12.2020
4418 Clouds 21 1018 49 10000 3.1 30 19:20 26.12.2020
4419 Clouds 20 1019 56 10000 4.1 350 18:35 26.12.2020
4420 Clouds 19 1020 55 10000 3.6 20 17:48 26.12.2020
4421 Clouds 19 1020 55 10000 3.6 20 17:29 26.12.2020
4422 Clouds 19 1021 52 10000 3.6 40 16:40 26.12.2020
4423 Clouds 18 1020 55 10000 3.1 50 16:19 26.12.2020
4424 Clouds 18 1020 55 10000 3.1 50 15:23 26.12.2020
4425 Clouds 18 1020 55 10000 4.1 40 14:41 26.12.2020
4426 Clouds 17 1019 59 10000 5.7 20 14:20 26.12.2020
4427 Clouds 17 1019 59 10000 5.7 20 13:38 26.12.2020
4428 Clouds 17 1019 59 10000 6.7 30 13:18 26.12.2020
4429 Clouds 17 1019 59 10000 6.7 30 12:41 26.12.2020
4430 Clouds 17 1019 59 10000 5.7 20 12:19 26.12.2020
4431 Clouds 17 1019 59 10000 5.7 20 11:42 26.12.2020
4432 Clouds 17 1019 59 10000 6.7 10 11:20 26.12.2020
4433 Clouds 17 1019 59 10000 6.7 10 10:47 26.12.2020
4434 Clouds 17 1019 59 10000 6.7 10 10:26 26.12.2020
4435 Clouds 16 1020 59 10000 7.2 10 09:47 26.12.2020
4436 Clouds 16 1020 63 10000 7.7 360 08:55 26.12.2020
4437 Clouds 17 1021 59 10000 7.7 360 08:20 26.12.2020
4438 Clouds 17 1021 63 10000 8.2 360 07:21 26.12.2020
4439 Clouds 17 1021 63 10000 8.7 360 05:38 26.12.2020
4440 Clouds 17 1020 67 10000 8.2 360 02:47 26.12.2020
4441 Clouds 17 1019 67 10000 8.7 360 00:39 26.12.2020
4442 Clouds 18 1018 82 10000 11.67 345 23:50 25.12.2020
4443 Clouds 18 1018 72 10000 9.3 350 23:29 25.12.2020
4444 Clouds 18 1018 72 10000 9.3 350 22:58 25.12.2020
4445 Clouds 18 1018 72 10000 9.3 350 22:26 25.12.2020
4446 Clouds 18 1018 72 10000 9.3 350 21:43 25.12.2020
4447 Clouds 19 1018 72 10000 10.3 350 21:25 25.12.2020
4448 Clouds 19 1018 72 10000 10.3 350 20:45 25.12.2020
4449 Clouds 19 1018 72 10000 10.3 350 20:26 25.12.2020
4450 Clouds 19 1018 77 10000 10.8 350 19:43 25.12.2020
4451 Clouds 20 1018 82 10000 10.3 340 18:47 25.12.2020
4452 Clouds 20 1018 82 10000 10.3 340 18:29 25.12.2020
4453 Clouds 23 1018 73 10000 6.7 350 17:35 25.12.2020
4454 Clouds 23 1017 86 10000 9.56 351 16:51 25.12.2020
4455 Clouds 22 1018 88 10000 6.2 350 16:24 25.12.2020
4456 Clouds 22 1018 88 10000 6.2 350 15:49 25.12.2020
4457 Clouds 22 1018 88 10000 6.2 350 15:26 25.12.2020
4458 Clouds 22 1018 83 10000 9.3 340 14:32 25.12.2020
4459 Clouds 22 1016 88 10000 6.2 280 13:49 25.12.2020
4460 Clouds 22 1016 88 10000 6.2 280 13:26 25.12.2020
4461 Rain 24 1016 94 10000 5.7 220 12:58 25.12.2020
4462 Clouds 24 1016 94 10000 5.7 220 12:27 25.12.2020
4463 Clouds 23 1015 88 10000 1 0 11:47 25.12.2020
4464 Clouds 24 1015 94 10000 3.1 190 11:24 25.12.2020
4465 Clouds 24 1015 94 10000 3.1 190 10:43 25.12.2020
4466 Clouds 24 1015 94 10000 5.1 170 09:49 25.12.2020
4467 Clouds 24 1015 88 10000 5.7 180 08:53 25.12.2020
4468 Clouds 24 1015 88 10000 5.7 180 08:35 25.12.2020
4469 Clouds 24 1016 88 10000 5.1 170 06:51 25.12.2020
4470 Clouds 24 1017 88 10000 4.1 170 05:38 25.12.2020
4471 Clouds 23 1017 94 10000 3.6 170 02:21 25.12.2020
4472 Clouds 25 1016 78 10000 5.1 170 00:25 25.12.2020
4473 Clouds 25 1016 78 10000 5.1 170 23:31 24.12.2020
4474 Clouds 27 1016 74 10000 6.7 170 22:54 24.12.2020
4475 Clouds 27 1016 69 10000 6.7 170 22:25 24.12.2020
4476 Clouds 27 1016 69 10000 6.7 170 21:47 24.12.2020
4477 Clouds 27 1016 74 10000 8.2 160 20:59 24.12.2020
4478 Clouds 27 1017 74 10000 6.2 160 19:48 24.12.2020
4479 Clear 25 1018 80 10000 8.88 139 18:21 24.12.2020
4480 Clouds 27 1019 69 10000 8.2 160 17:38 24.12.2020
4481 Clouds 27 1019 69 10000 8.2 160 17:20 24.12.2020
4482 Clouds 27 1019 69 10000 8.2 160 17:20 24.12.2020
4483 Clouds 27 1019 69 10000 8.2 160 16:25 24.12.2020
4484 Clouds 26 1019 78 10000 5.7 140 15:45 24.12.2020
4485 Clouds 24 1018 88 10000 2.1 160 15:23 24.12.2020
4486 Clouds 24 1018 88 10000 2.1 160 14:56 24.12.2020
4487 Clouds 24 1018 88 10000 2.1 160 14:24 24.12.2020
4488 Clouds 23 1018 88 10000 2.6 150 13:49 24.12.2020
4489 Clouds 23 1018 88 10000 2.6 150 13:30 24.12.2020
4490 Clouds 23 1017 88 10000 3.6 140 12:56 24.12.2020
4491 Clouds 23 1017 88 10000 3.6 140 12:37 24.12.2020
4492 Clouds 23 1017 88 10000 4.6 140 12:18 24.12.2020
4493 Clouds 23 1017 88 10000 4.6 140 11:38 24.12.2020
4494 Clouds 23 1017 88 10000 4.6 140 11:18 24.12.2020
4495 Clouds 23 1017 88 10000 4.6 140 10:43 24.12.2020
4496 Clear 24 1016 81 10000 8.38 125 09:54 24.12.2020
4497 Clouds 23 1019 88 10000 2.6 110 09:35 24.12.2020
4498 Clouds 23 1019 88 10000 2.6 110 08:48 24.12.2020
4499 Rain 23 1019 88 10000 3.1 110 07:48 24.12.2020
4500 Rain 23 1019 88 10000 3.1 110 07:28 24.12.2020
4501 Clouds 23 1020 88 10000 4.1 110 06:20 24.12.2020
4502 Clear 24 1020 83 10000 5.1 90 02:50 24.12.2020
4503 Clear 24 1020 78 10000 4.6 90 01:47 24.12.2020
4504 Clouds 24 1020 78 10000 4.6 90 01:18 24.12.2020
4505 Clouds 24 1019 78 10000 5.1 100 00:23 24.12.2020
4506 Clouds 24 1019 78 10000 5.1 100 23:49 23.12.2020
4507 Clouds 24 1019 78 10000 5.1 100 23:31 23.12.2020
4508 Clouds 25 1019 69 10000 5.7 90 22:59 23.12.2020
4509 Clouds 25 1019 69 10000 5.7 90 22:40 23.12.2020
4510 Clouds 24 1019 80 10000 8.35 73 22:18 23.12.2020
4511 Clouds 25 1020 65 10000 6.2 100 21:31 23.12.2020
4512 Clouds 25 1020 65 10000 6.2 100 20:57 23.12.2020
4513 Clouds 25 1020 65 10000 6.2 100 20:37 23.12.2020
4514 Clouds 26 1020 61 10000 7.2 90 20:19 23.12.2020
4515 Clouds 26 1020 61 10000 7.2 90 19:41 23.12.2020
4516 Clouds 26 1021 61 10000 6.2 90 19:22 23.12.2020
4517 Clouds 26 1021 61 10000 6.2 90 18:51 23.12.2020
4518 Clouds 26 1021 61 10000 6.2 90 18:33 23.12.2020
4519 Clouds 25 1022 61 10000 7.2 90 17:43 23.12.2020
4520 Clouds 25 1023 57 10000 6.7 90 17:22 23.12.2020
4521 Clouds 25 1023 57 10000 6.7 90 16:52 23.12.2020
4522 Clouds 25 1023 57 10000 6.7 90 16:30 23.12.2020
4523 Clouds 24 1022 60 10000 6.2 90 15:59 23.12.2020
4524 Clouds 24 1022 60 10000 6.2 90 15:39 23.12.2020
4525 Clouds 21 1022 73 10000 2.1 110 15:20 23.12.2020
4526 Clouds 21 1022 73 10000 2.1 110 14:42 23.12.2020
4527 Clouds 21 1021 68 10000 2.1 90 14:21 23.12.2020
4528 Clouds 21 1021 68 10000 2.1 90 13:45 23.12.2020
4529 Clouds 21 1021 68 10000 2.6 100 13:20 23.12.2020
4530 Clouds 21 1021 68 10000 2.6 100 12:54 23.12.2020
4531 Clouds 21 1021 68 10000 2.6 100 12:30 23.12.2020
4532 Clouds 21 1021 68 10000 2.1 90 11:56 23.12.2020
4533 Clouds 21 1021 68 10000 2.1 90 11:32 23.12.2020
4534 Clear 23 1021 72 10000 8.56 66 10:56 23.12.2020
4535 Clouds 22 1021 60 10000 3.6 90 10:37 23.12.2020
4536 Clouds 22 1021 60 10000 3.6 90 09:38 23.12.2020
4537 Clear 23 1020 71 10000 8.74 65 08:57 23.12.2020
4538 Clear 23 1020 71 10000 8.74 65 08:31 23.12.2020
4539 Clouds 22 1021 60 10000 4.1 90 07:48 23.12.2020
4540 Clouds 22 1022 60 10000 3.6 80 06:42 23.12.2020
4541 Clouds 22 1022 60 10000 4.6 70 05:55 23.12.2020
4542 Clouds 22 1023 56 10000 4.6 70 05:20 23.12.2020
4543 Clouds 23 1022 56 10000 4.6 50 01:38 23.12.2020
4544 Clouds 23 1021 56 10000 4.1 60 00:32 23.12.2020
4545 Clouds 23 1021 56 10000 4.6 50 23:39 22.12.2020
4546 Clouds 24 1020 57 10000 5.1 50 23:21 22.12.2020
4547 Clouds 24 1020 57 10000 5.1 50 22:42 22.12.2020
4548 Clouds 24 1020 57 10000 5.1 50 22:22 22.12.2020
4549 Clouds 24 1020 57 10000 5.1 50 21:48 22.12.2020
4550 Clouds 24 1020 57 10000 5.1 40 21:20 22.12.2020
4551 Clouds 24 1020 57 10000 5.1 40 20:51 22.12.2020
4552 Clouds 24 1020 57 10000 5.1 40 20:31 22.12.2020
4553 Clouds 24 1021 60 10000 4.6 40 19:50 22.12.2020
4554 Clouds 24 1021 60 10000 4.6 40 19:26 22.12.2020
4555 Clouds 24 1021 57 10000 4.6 50 18:57 22.12.2020
4556 Clouds 24 1021 57 10000 4.6 50 18:38 22.12.2020
4557 Clouds 24 1022 57 10000 5.1 30 18:19 22.12.2020
4558 Clouds 24 1022 57 10000 5.1 30 17:36 22.12.2020
4559 Clouds 24 1023 57 10000 4.6 20 17:18 22.12.2020
4560 Clouds 24 1023 57 10000 4.6 20 16:46 22.12.2020
4561 Clouds 23 1022 60 10000 4.1 20 16:19 22.12.2020
4562 Clouds 23 1022 60 10000 4.1 20 15:45 22.12.2020
4563 Clouds 23 1022 60 10000 4.1 20 15:27 22.12.2020
4564 Clouds 22 1021 64 10000 3.1 30 14:46 22.12.2020
4565 Clouds 22 1021 68 10000 2.1 40 14:28 22.12.2020
4566 Clouds 22 1021 68 10000 2.1 40 13:55 22.12.2020
4567 Clouds 22 1021 68 10000 2.1 40 13:36 22.12.2020
4568 Clouds 22 1020 68 10000 2.6 40 13:18 22.12.2020
4569 Clouds 22 1020 68 10000 2.6 40 13:18 22.12.2020
4570 Clouds 22 1020 68 10000 2.6 40 12:42 22.12.2020
4571 Clouds 22 1020 68 10000 3.1 40 12:20 22.12.2020
4572 Clouds 22 1020 68 10000 3.1 40 11:43 22.12.2020
4573 Clouds 22 1019 73 10000 5.1 30 11:23 22.12.2020
4574 Clouds 22 1019 73 10000 5.1 30 10:56 22.12.2020
4575 Clouds 22 1019 73 10000 5.1 30 10:30 22.12.2020
4576 Clouds 22 1019 73 10000 4.6 30 09:59 22.12.2020
4577 Clouds 22 1019 73 10000 4.6 30 09:40 22.12.2020
4578 Clouds 23 1019 73 10000 4.1 30 09:20 22.12.2020
4579 Clouds 23 1019 73 10000 4.1 30 08:43 22.12.2020
4580 Clouds 23 1019 73 10000 4.6 20 08:20 22.12.2020
4581 Clouds 23 1019 73 10000 4.6 20 07:47 22.12.2020
4582 Clouds 23 1019 78 10000 4.6 20 06:37 22.12.2020
4583 Clouds 23 1019 78 10000 4.1 20 05:34 22.12.2020
4584 Clouds 24 1019 83 10000 5.1 340 02:35 22.12.2020
4585 Clouds 25 1018 78 10000 3.1 320 00:30 22.12.2020
4586 Clouds 26 1017 74 10000 4.1 320 23:51 21.12.2020
4587 Clouds 27 1017 65 10000 4.1 310 23:22 21.12.2020
4588 Clouds 27 1017 65 10000 4.1 310 22:37 21.12.2020
4589 Clouds 27 1016 65 10000 4.1 290 22:19 21.12.2020
4590 Clouds 27 1016 65 10000 4.1 290 22:19 21.12.2020
4591 Clouds 27 1016 65 10000 4.1 290 21:47 21.12.2020
4592 Clouds 27 1016 65 10000 4.1 290 21:28 21.12.2020
4593 Clouds 28 1017 65 10000 4.6 280 20:45 21.12.2020
4594 Clouds 28 1017 61 10000 4.1 280 20:21 21.12.2020
4595 Clouds 28 1017 61 10000 4.1 280 19:47 21.12.2020
4596 Clouds 27 1018 69 10000 4.1 270 19:23 21.12.2020
4597 Clouds 27 1018 69 10000 4.1 270 18:59 21.12.2020
4598 Clouds 27 1018 69 10000 4.1 270 18:41 21.12.2020
4599 Clouds 27 1019 74 10000 5.7 230 18:23 21.12.2020
4600 Clouds 27 1019 74 10000 5.7 230 17:42 21.12.2020
4601 Clouds 26 1019 83 10000 6.2 220 17:23 21.12.2020
4602 Clouds 26 1019 83 10000 6.2 220 17:23 21.12.2020
4603 Clouds 26 1019 83 10000 6.2 220 16:45 21.12.2020
4604 Clouds 26 1019 83 10000 4.6 210 16:21 21.12.2020
4605 Clouds 26 1019 83 10000 4.6 210 15:43 21.12.2020
4606 Clouds 24 1018 94 10000 2.6 190 14:58 21.12.2020
4607 Clouds 24 1018 94 10000 2.6 190 14:36 21.12.2020
4608 Clouds 23 1018 94 10000 2.6 180 14:18 21.12.2020
4609 Clouds 23 1018 94 10000 2.6 180 13:40 21.12.2020
4610 Clouds 23 1017 94 10000 3.6 180 13:21 21.12.2020
4611 Clouds 23 1017 94 10000 3.6 180 12:42 21.12.2020
4612 Clouds 22 1017 100 10000 2.6 170 12:22 21.12.2020
4613 Clouds 22 1017 100 10000 2.6 170 11:43 21.12.2020
4614 Clouds 22 1017 94 10000 3.6 160 11:22 21.12.2020
4615 Clouds 22 1017 94 10000 3.6 160 11:22 21.12.2020
4616 Clouds 22 1017 94 10000 3.6 160 10:58 21.12.2020
4617 Clouds 22 1017 94 10000 3.6 160 10:39 21.12.2020
4618 Clouds 21 1017 94 10000 2.6 140 09:56 21.12.2020
4619 Clouds 21 1017 94 10000 2.6 140 09:38 21.12.2020
4620 Clouds 21 1017 94 10000 1.5 130 09:20 21.12.2020
4621 Clouds 21 1017 94 10000 1.5 130 08:26 21.12.2020
4622 Clouds 22 1018 94 10000 1.5 160 06:48 21.12.2020
4623 Clouds 22 1018 88 10000 1.5 160 05:39 21.12.2020
4624 Clouds 23 1018 83 10000 2.6 160 04:30 21.12.2020
4625 Clouds 23 1018 83 10000 4.1 150 00:36 21.12.2020
4626 Clouds 24 1018 78 10000 4.6 150 23:47 20.12.2020
4627 Clouds 26 1017 61 10000 5.1 140 23:20 20.12.2020
4628 Clouds 26 1017 61 10000 5.1 140 22:44 20.12.2020
4629 Clouds 26 1017 61 10000 6.2 140 22:23 20.12.2020
4630 Clouds 26 1017 61 10000 6.2 140 21:42 20.12.2020
4631 Clouds 26 1017 61 10000 6.2 140 21:22 20.12.2020
4632 Clouds 26 1017 61 10000 6.2 140 20:57 20.12.2020
4633 Clouds 26 1017 61 10000 6.2 140 20:37 20.12.2020
4634 Clouds 26 1018 61 10000 6.7 150 20:18 20.12.2020
4635 Clouds 26 1018 61 10000 6.7 150 19:41 20.12.2020
4636 Clear 26 1019 61 10000 6.2 140 19:20 20.12.2020
4637 Clear 26 1019 61 10000 6.2 140 18:45 20.12.2020
4638 Clear 26 1019 61 10000 6.2 140 18:27 20.12.2020
4639 Clear 25 1020 61 10000 6.7 140 17:47 20.12.2020
4640 Clear 25 1020 61 10000 6.7 140 17:28 20.12.2020
4641 Clear 25 1020 61 10000 6.7 140 17:28 20.12.2020
4642 Clouds 25 1020 61 10000 5.1 130 16:47 20.12.2020
4643 Clouds 23 1020 64 10000 3.6 110 16:28 20.12.2020
4644 Clouds 23 1020 64 10000 3.6 110 15:51 20.12.2020
4645 Clouds 23 1020 64 10000 3.6 110 15:27 20.12.2020
4646 Clear 21 1020 73 10000 3.1 110 14:56 20.12.2020
4647 Clear 21 1020 73 10000 3.1 110 14:35 20.12.2020
4648 Clear 21 1020 73 10000 2.6 100 13:49 20.12.2020
4649 Clear 21 1020 73 10000 2.6 100 13:30 20.12.2020
4650 Clear 21 1019 73 10000 2.6 120 12:59 20.12.2020
4651 Clear 21 1019 73 10000 2.6 120 12:40 20.12.2020
4652 Clear 22 1019 68 10000 3.1 120 12:21 20.12.2020
4653 Clear 22 1019 68 10000 3.1 120 11:45 20.12.2020
4654 Clear 22 1019 68 10000 3.1 120 11:26 20.12.2020
4655 Clear 22 1018 68 10000 3.6 120 10:48 20.12.2020
4656 Clear 22 1019 68 10000 4.1 120 10:21 20.12.2020
4657 Clear 22 1019 68 10000 4.1 120 09:46 20.12.2020
4658 Clear 22 1019 68 10000 4.1 120 09:27 20.12.2020
4659 Clouds 22 1019 68 10000 4.6 120 08:59 20.12.2020
4660 Clouds 22 1019 68 10000 4.6 120 08:39 20.12.2020
4661 Clouds 22 1020 68 10000 4.6 120 07:28 20.12.2020
4662 Clouds 22 1021 73 10000 5.1 110 05:52 20.12.2020
4663 Clouds 22 1021 73 10000 3.1 110 02:23 20.12.2020
4664 Clouds 22 1021 73 10000 3.6 110 00:39 20.12.2020
4665 Clouds 24 1020 60 10000 5.7 100 23:22 19.12.2020
4666 Clouds 24 1020 60 10000 5.7 100 22:57 19.12.2020
4667 Clouds 24 1020 60 10000 5.7 100 22:38 19.12.2020
4668 Clouds 25 1020 53 10000 6.2 90 22:19 19.12.2020
4669 Clouds 25 1020 53 10000 6.2 90 21:42 19.12.2020
4670 Clouds 25 1020 53 10000 6.2 90 21:24 19.12.2020
4671 Clouds 24 1021 57 10000 5.7 90 20:45 19.12.2020
4672 Clouds 24 1021 57 10000 5.7 80 20:21 19.12.2020
4673 Clouds 24 1021 57 10000 5.7 80 19:54 19.12.2020
4674 Clouds 24 1021 57 10000 5.7 80 19:36 19.12.2020
4675 Clouds 24 1022 57 10000 5.7 90 18:43 19.12.2020
4676 Clouds 24 1022 57 10000 5.7 90 18:25 19.12.2020
4677 Clouds 24 1023 53 10000 5.7 90 17:48 19.12.2020
4678 Clouds 24 1023 53 10000 5.7 90 17:25 19.12.2020
4679 Clouds 23 1024 56 10000 6.2 80 16:55 19.12.2020
4680 Clouds 23 1024 56 10000 6.2 80 16:36 19.12.2020
4681 Clear 22 1023 68 10000 8.24 62 16:18 19.12.2020
4682 Clear 22 1023 68 10000 8.24 62 15:47 19.12.2020
4683 Clouds 22 1023 60 10000 4.1 80 14:44 19.12.2020
4684 Clouds 21 1022 64 10000 3.6 80 14:23 19.12.2020
4685 Clouds 21 1022 64 10000 3.6 80 13:42 19.12.2020
4686 Clouds 21 1022 64 10000 3.6 80 13:21 19.12.2020
4687 Clouds 21 1022 64 10000 3.6 80 12:46 19.12.2020
4688 Clouds 21 1022 64 10000 3.6 80 12:28 19.12.2020
4689 Clouds 22 1021 64 10000 3.6 60 11:58 19.12.2020
4690 Clouds 22 1021 64 10000 3.6 60 11:40 19.12.2020
4691 Clouds 22 1022 60 10000 3.6 70 10:47 19.12.2020
4692 Clouds 22 1022 60 10000 3.6 70 10:27 19.12.2020
4693 Clouds 22 1022 64 10000 4.1 70 09:58 19.12.2020
4694 Clouds 22 1022 64 10000 4.1 70 09:38 19.12.2020
4695 Clouds 21 1022 64 10000 4.1 50 08:37 19.12.2020
4696 Clouds 21 1022 64 10000 5.1 60 07:53 19.12.2020
4697 Clouds 22 1023 64 10000 5.1 60 07:18 19.12.2020
4698 Clouds 22 1023 64 10000 5.1 60 06:39 19.12.2020
4699 Clouds 22 1023 68 10000 5.7 50 05:19 19.12.2020
4700 Clouds 22 1023 64 10000 5.7 50 03:28 19.12.2020
4701 Clouds 22 1022 68 10000 5.1 50 00:41 19.12.2020
4702 Clouds 22 1022 68 10000 4.6 50 00:18 19.12.2020
4703 Clouds 22 1022 68 10000 4.6 50 23:48 18.12.2020
4704 Clouds 22 1022 68 10000 4.6 50 23:48 18.12.2020
4705 Clouds 22 1022 68 10000 4.6 50 23:23 18.12.2020
4706 Clouds 23 1021 64 10000 4.6 30 22:47 18.12.2020
4707 Clouds 23 1021 64 10000 4.1 20 22:24 18.12.2020
4708 Clouds 23 1021 64 10000 4.1 20 21:50 18.12.2020
4709 Clouds 23 1021 64 10000 4.1 20 21:31 18.12.2020
4710 Clouds 23 1021 69 10000 4.6 30 20:43 18.12.2020
4711 Clouds 23 1022 69 10000 5.7 20 20:22 18.12.2020
4712 Clouds 23 1022 69 10000 5.7 20 19:45 18.12.2020
4713 Clouds 23 1022 69 10000 6.2 20 19:21 18.12.2020
4714 Clouds 23 1022 69 10000 6.2 20 18:43 18.12.2020
4715 Clouds 24 1023 64 10000 5.7 30 18:24 18.12.2020
4716 Clouds 23 1023 73 10000 5.7 30 17:28 18.12.2020
4717 Clouds 23 1023 73 10000 5.7 30 16:55 18.12.2020
4718 Clouds 23 1023 73 10000 5.7 30 16:37 18.12.2020
4719 Clouds 23 1022 73 10000 5.1 20 16:18 18.12.2020
4720 Clouds 23 1022 73 10000 5.1 20 15:41 18.12.2020
4721 Clouds 23 1021 78 10000 4.6 30 15:23 18.12.2020
4722 Clouds 23 1021 78 10000 4.6 30 14:55 18.12.2020
4723 Clouds 23 1021 78 10000 5.1 20 14:22 18.12.2020
4724 Clouds 23 1021 78 10000 5.1 20 13:50 18.12.2020
4725 Clouds 23 1021 78 10000 5.1 20 13:31 18.12.2020
4726 Clouds 23 1020 83 10000 5.7 10 12:50 18.12.2020
4727 Clouds 24 1020 83 10000 4.1 20 12:22 18.12.2020
4728 Clouds 24 1020 83 10000 4.6 20 11:23 18.12.2020
4729 Clouds 24 1020 83 10000 4.6 20 10:40 18.12.2020
4730 Clouds 24 1019 83 10000 5.1 10 10:20 18.12.2020
4731 Clouds 24 1019 83 10000 5.1 10 09:39 18.12.2020
4732 Clouds 24 1019 88 10000 3.6 10 09:21 18.12.2020
4733 Clouds 24 1019 88 10000 3.6 10 08:54 18.12.2020
4734 Clouds 24 1019 88 10000 3.6 10 08:30 18.12.2020
4735 Clouds 24 1019 88 10000 3.6 360 07:39 18.12.2020
4736 Clouds 24 1020 88 10000 3.1 340 07:18 18.12.2020
4737 Clouds 24 1020 88 10000 3.1 340 06:51 18.12.2020
4738 Clouds 23 1020 94 10000 1.5 330 05:42 18.12.2020
4739 Clouds 23 1020 88 10000 1 0 04:51 18.12.2020
4740 Clouds 23 1020 88 10000 1 0 04:51 18.12.2020
4741 Clouds 25 1019 83 10000 3.1 310 01:59 18.12.2020
4742 Clouds 25 1019 83 10000 3.1 310 01:40 18.12.2020
4743 Clouds 26 1018 69 10000 2.1 270 23:59 17.12.2020
4744 Clouds 26 1018 69 10000 2.1 270 23:37 17.12.2020
4745 Clouds 27 1017 65 10000 3.1 260 23:18 17.12.2020
4746 Clouds 27 1017 65 10000 3.1 260 22:45 17.12.2020
4747 Clouds 27 1017 65 10000 3.1 260 22:26 17.12.2020
4748 Clouds 27 1017 65 10000 4.1 230 21:43 17.12.2020
4749 Clouds 27 1017 65 10000 4.1 230 21:43 17.12.2020
4750 Clouds 27 1017 69 10000 4.6 220 21:19 17.12.2020
4751 Clouds 27 1017 69 10000 4.6 220 20:42 17.12.2020
4752 Clouds 27 1018 69 10000 4.6 220 20:19 17.12.2020
4753 Clouds 27 1018 69 10000 4.6 220 19:48 17.12.2020
4754 Clouds 27 1018 69 10000 6.7 220 19:24 17.12.2020
4755 Clouds 27 1018 69 10000 6.7 220 18:44 17.12.2020
4756 Clouds 27 1018 69 10000 6.7 220 18:26 17.12.2020
4757 Clouds 26 1019 74 10000 6.7 210 17:57 17.12.2020
4758 Clouds 26 1019 74 10000 6.7 210 17:33 17.12.2020
4759 Clouds 26 1019 74 10000 5.1 220 16:47 17.12.2020
4760 Clouds 26 1019 74 10000 5.1 220 16:47 17.12.2020
4761 Clouds 26 1019 74 10000 5.1 220 16:28 17.12.2020
4762 Clouds 25 1018 73 10000 5.1 200 15:57 17.12.2020
4763 Clouds 25 1018 73 10000 5.1 200 15:39 17.12.2020
4764 Clouds 24 1018 83 10000 2.6 190 14:57 17.12.2020
4765 Clouds 24 1018 83 10000 2.6 190 14:37 17.12.2020
4766 Clouds 24 1018 83 10000 2.6 190 14:37 17.12.2020
4767 Clouds 22 1017 88 10000 3.1 190 13:59 17.12.2020
4768 Clouds 22 1017 88 10000 3.1 190 13:39 17.12.2020
4769 Clouds 21 1017 94 10000 2.1 160 12:56 17.12.2020
4770 Clouds 21 1017 94 10000 2.1 160 12:33 17.12.2020
4771 Clouds 21 1016 94 10000 2.6 170 11:47 17.12.2020
4772 Clouds 21 1016 94 10000 2.6 170 11:26 17.12.2020
4773 Clear 24 1016 79 10000 5.14 162 10:57 17.12.2020
4774 Clouds 22 1016 88 10000 3.1 170 10:30 17.12.2020
4775 Clouds 22 1016 88 10000 3.1 170 09:35 17.12.2020
4776 Clouds 22 1017 88 10000 1.5 170 08:37 17.12.2020
4777 Clouds 22 1017 88 10000 1.5 170 07:40 17.12.2020
4778 Clouds 22 1017 88 10000 2.6 160 07:18 17.12.2020
4779 Clouds 22 1017 88 10000 2.6 160 06:44 17.12.2020
4780 Clouds 22 1017 88 10000 2.6 160 06:26 17.12.2020
4781 Clouds 24 1017 83 10000 3.6 170 01:40 17.12.2020
4782 Clouds 25 1016 83 10000 5.7 160 23:58 16.12.2020
4783 Clouds 26 1015 78 10000 4.6 170 23:23 16.12.2020
4784 Clouds 26 1015 78 10000 4.6 170 22:58 16.12.2020
4785 Clouds 26 1015 78 10000 4.6 170 22:36 16.12.2020
4786 Clouds 26 1015 74 10000 4.6 160 21:54 16.12.2020
4787 Clouds 26 1015 74 10000 4.6 160 21:36 16.12.2020
4788 Clouds 25 1014 80 10000 6.09 168 20:59 16.12.2020
4789 Clouds 25 1014 80 10000 6.09 168 20:41 16.12.2020
4790 Clouds 27 1016 65 10000 6.7 160 20:19 16.12.2020
4791 Clouds 27 1017 69 10000 6.2 170 19:20 16.12.2020
4792 Clouds 27 1017 69 10000 6.2 170 18:56 16.12.2020
4793 Clouds 27 1017 69 10000 6.2 170 18:31 16.12.2020
4794 Clouds 27 1017 65 10000 5.1 170 17:51 16.12.2020
4795 Clouds 27 1017 65 10000 5.1 170 17:29 16.12.2020
4796 Clouds 26 1018 78 10000 4.6 160 16:40 16.12.2020
4797 Clouds 25 1017 83 10000 3.6 170 16:22 16.12.2020
4798 Clouds 25 1017 83 10000 3.6 170 15:51 16.12.2020
4799 Clouds 25 1017 83 10000 3.6 170 15:28 16.12.2020
4800 Clouds 22 1017 100 10000 1 0 14:48 16.12.2020
4801 Clouds 22 1017 100 10000 1 0 14:29 16.12.2020
4802 Fog 19 1016 100 6000 1 150 13:50 16.12.2020
4803 Fog 19 1016 100 6000 1 150 13:31 16.12.2020
4804 Clouds 20 1016 100 10000 1 0 12:56 16.12.2020
4805 Clouds 20 1016 100 10000 1 0 12:37 16.12.2020
4806 Clouds 19 1015 100 10000 0.5 0 11:41 16.12.2020
4807 Clouds 20 1015 94 10000 4.44 146 11:22 16.12.2020
4808 Clouds 20 1015 94 10000 4.44 146 10:49 16.12.2020
4809 Clouds 20 1015 94 10000 4.23 144 10:26 16.12.2020
4810 Clear 21 1015 94 10000 1 0 09:48 16.12.2020
4811 Clear 21 1016 94 10000 0.5 0 08:45 16.12.2020
4812 Clear 21 1016 94 10000 1.5 120 07:59 16.12.2020
4813 Clear 21 1016 94 10000 1.5 120 07:39 16.12.2020
4814 Clouds 21 1017 94 10000 4.7 136 06:53 16.12.2020
4815 Clouds 23 1017 88 10000 1.5 90 02:26 16.12.2020
4816 Clouds 24 1016 83 10000 3.1 110 01:20 16.12.2020
4817 Clouds 25 1016 83 10000 2.6 60 23:45 15.12.2020
4818 Clouds 25 1015 83 10000 2.6 10 22:48 15.12.2020
4819 Clouds 25 1015 83 10000 2.6 10 22:25 15.12.2020
4820 Clouds 25 1015 83 10000 3.1 330 21:57 15.12.2020
4821 Clouds 25 1015 83 10000 3.1 330 21:38 15.12.2020
4822 Clouds 26 1015 78 10000 2.6 350 21:19 15.12.2020
4823 Clouds 26 1015 78 10000 2.6 350 20:44 15.12.2020
4824 Clouds 25 1016 83 10000 2.1 10 20:25 15.12.2020
4825 Clouds 25 1016 83 10000 2.1 10 19:51 15.12.2020
4826 Clouds 25 1016 83 10000 2.1 10 19:26 15.12.2020
4827 Clouds 26 1018 74 10000 1 0 18:39 15.12.2020
4828 Clouds 26 1018 74 10000 1 0 18:21 15.12.2020
4829 Clouds 26 1018 74 10000 1 0 18:21 15.12.2020
4830 Clouds 26 1018 74 10000 1 0 17:44 15.12.2020
4831 Clouds 25 1018 83 10000 1.5 350 17:23 15.12.2020
4832 Clouds 25 1018 83 10000 1.5 350 16:38 15.12.2020
4833 Clouds 25 1018 83 10000 1.5 350 16:19 15.12.2020
4834 Clouds 25 1018 83 10000 1.5 350 15:37 15.12.2020
4835 Clouds 24 1017 78 10000 0.99 222 15:18 15.12.2020
4836 Clouds 24 1017 78 10000 0.99 222 14:41 15.12.2020
4837 Clouds 20 1017 94 10000 0.5 0 14:19 15.12.2020
4838 Clouds 20 1017 94 10000 0.5 0 13:48 15.12.2020
4839 Clouds 20 1017 94 10000 0.5 0 13:23 15.12.2020
4840 Clouds 20 1017 100 10000 1 0 12:45 15.12.2020
4841 Clouds 20 1017 94 10000 1.95 212 12:19 15.12.2020
4842 Clouds 20 1017 94 10000 1.95 212 11:50 15.12.2020
4843 Clouds 19 1016 93 10000 2.22 201 11:22 15.12.2020
4844 Clouds 19 1016 93 10000 2.22 201 10:47 15.12.2020
4845 Clouds 20 1016 94 10000 2.77 189 10:20 15.12.2020
4846 Clouds 20 1016 94 10000 2.77 189 09:42 15.12.2020
4847 Clouds 20 1016 94 10000 0.5 0 09:23 15.12.2020
4848 Clouds 20 1016 94 10000 0.5 0 08:40 15.12.2020
4849 Clouds 25 1015 81 10000 2.89 180 08:21 15.12.2020
4850 Clouds 25 1015 81 10000 2.89 180 07:43 15.12.2020
4851 Clouds 21 1017 100 10000 1.5 300 06:53 15.12.2020
4852 Clouds 21 1018 94 10000 1 0 05:34 15.12.2020
4853 Clouds 24 1017 88 10000 2.1 180 00:39 15.12.2020
4854 Clouds 25 1017 88 10000 3.1 170 23:48 14.12.2020
4855 Clouds 27 1017 78 10000 3.1 180 23:19 14.12.2020
4856 Clouds 27 1017 78 10000 3.1 180 22:40 14.12.2020
4857 Clouds 27 1017 78 10000 3.6 190 21:56 14.12.2020
4858 Clouds 27 1017 78 10000 3.6 190 21:36 14.12.2020
4859 Clouds 27 1017 74 10000 4.1 200 21:18 14.12.2020
4860 Clouds 27 1017 74 10000 4.1 200 20:43 14.12.2020
4861 Clouds 27 1018 74 10000 5.7 190 20:24 14.12.2020
4862 Clouds 27 1018 74 10000 5.7 190 19:39 14.12.2020
4863 Clouds 27 1019 74 10000 4.1 190 19:21 14.12.2020
4864 Clouds 27 1019 74 10000 4.1 190 18:42 14.12.2020
4865 Clouds 27 1020 78 10000 4.6 180 18:22 14.12.2020
4866 Clouds 27 1020 78 10000 4.6 180 17:34 14.12.2020
4867 Clouds 27 1020 78 10000 4.1 180 16:57 14.12.2020
4868 Clouds 27 1020 78 10000 4.1 180 16:38 14.12.2020
4869 Clouds 25 1020 88 10000 2.6 150 16:18 14.12.2020
4870 Clouds 25 1020 88 10000 2.6 150 15:33 14.12.2020
4871 Clouds 23 1019 100 10000 1.5 150 14:48 14.12.2020
4872 Clouds 23 1019 100 10000 1.5 150 14:29 14.12.2020
4873 Clear 21 1018 100 10000 1 130 13:55 14.12.2020
4874 Clear 21 1018 100 10000 1 130 13:34 14.12.2020
4875 Clear 21 1018 100 10000 2.6 140 12:56 14.12.2020
4876 Clear 21 1018 100 10000 2.6 140 12:31 14.12.2020
4877 Clear 21 1018 100 10000 1.5 140 11:54 14.12.2020
4878 Clear 21 1018 100 10000 2.6 120 11:23 14.12.2020
4879 Clear 21 1018 100 10000 2.6 120 10:27 14.12.2020
4880 Clear 22 1018 100 10000 2.1 120 09:52 14.12.2020
4881 Clear 21 1018 100 10000 2.1 120 08:56 14.12.2020
4882 Clear 21 1018 100 10000 2.1 120 08:38 14.12.2020
4883 Clouds 22 1019 94 10000 2.1 110 07:53 14.12.2020
4884 Clouds 22 1019 94 10000 2.1 100 07:19 14.12.2020
4885 Clouds 22 1019 94 10000 2.1 100 06:33 14.12.2020
4886 Clouds 24 1019 83 10000 2.1 90 03:55 14.12.2020
4887 Clouds 24 1019 78 10000 3.1 50 00:57 14.12.2020
4888 Clouds 24 1019 78 10000 3.1 50 00:37 14.12.2020
4889 Clouds 25 1019 69 10000 2.6 50 00:18 14.12.2020
4890 Clouds 25 1019 69 10000 2.6 50 23:42 13.12.2020
4891 Clouds 25 1018 69 10000 3.6 40 22:52 13.12.2020
4892 Clouds 26 1018 69 10000 4.1 40 22:21 13.12.2020
4893 Clouds 26 1018 69 10000 4.1 40 21:56 13.12.2020
4894 Clouds 26 1018 69 10000 4.1 40 21:36 13.12.2020
4895 Clouds 26 1019 69 10000 3.6 30 20:49 13.12.2020
4896 Clouds 26 1019 69 10000 3.6 30 20:25 13.12.2020
4897 Clouds 26 1019 69 10000 3.1 40 19:46 13.12.2020
4898 Clouds 26 1019 69 10000 3.1 40 19:23 13.12.2020
4899 Clouds 27 1020 65 10000 3.6 50 18:44 13.12.2020
4900 Clouds 27 1021 69 10000 3.6 50 18:22 13.12.2020
4901 Clouds 27 1021 69 10000 3.6 50 17:59 13.12.2020
4902 Clouds 27 1021 69 10000 3.6 50 17:41 13.12.2020
4903 Clear 26 1021 74 10000 1.5 90 17:18 13.12.2020
4904 Clear 26 1021 74 10000 1.5 90 16:42 13.12.2020
4905 Clear 25 1021 73 10000 2.1 100 16:21 13.12.2020
4906 Clear 25 1021 73 10000 2.1 100 15:45 13.12.2020
4907 Clear 22 1020 94 10000 2.54 98 15:24 13.12.2020
4908 Clear 22 1020 94 10000 2.55 98 15:24 13.12.2020
4909 Clear 22 1020 94 10000 2.55 98 14:45 13.12.2020
4910 Clear 22 1020 94 10000 2.79 95 14:27 13.12.2020
4911 Clear 17 1020 93 10000 2.79 95 13:45 13.12.2020
4912 Clear 17 1020 93 10000 2.96 97 13:25 13.12.2020
4913 Clear 17 1019 88 10000 0.5 0 12:52 13.12.2020
4914 Clear 17 1019 88 10000 0.5 0 12:23 13.12.2020
4915 Clouds 24 1018 74 10000 3.39 98 11:47 13.12.2020
4916 Clear 17 1019 93 10000 0.5 0 11:22 13.12.2020
4917 Clear 17 1019 93 10000 0.5 0 10:40 13.12.2020
4918 Clear 17 1018 93 10000 0.5 0 09:58 13.12.2020
4919 Clear 17 1018 93 10000 0.5 0 09:31 13.12.2020
4920 Clear 18 1018 93 10000 1 0 08:35 13.12.2020
4921 Clear 18 1019 93 10000 2.71 98 07:52 13.12.2020
4922 Clear 19 1019 93 10000 0.5 0 05:36 13.12.2020
4923 Clear 22 1019 83 10000 2.1 100 02:42 13.12.2020
4924 Clear 22 1019 83 10000 2.1 100 01:58 13.12.2020
4925 Clear 23 1018 78 10000 2.6 120 00:51 13.12.2020
4926 Clear 23 1018 78 10000 2.6 120 00:33 13.12.2020
4927 Clear 25 1018 69 10000 4.1 120 23:33 12.12.2020
4928 Clouds 26 1018 61 10000 5.1 140 22:56 12.12.2020
4929 Clouds 26 1018 61 10000 5.1 140 22:20 12.12.2020
4930 Clouds 27 1018 61 10000 5.1 130 21:42 12.12.2020
4931 Clouds 27 1018 61 10000 4.6 150 21:18 12.12.2020
4932 Clouds 27 1018 61 10000 4.6 150 20:36 12.12.2020
4933 Clouds 27 1019 57 10000 4.1 150 20:18 12.12.2020
4934 Clouds 27 1019 57 10000 4.1 150 19:46 12.12.2020
4935 Clouds 27 1019 57 10000 4.6 130 19:27 12.12.2020
4936 Clouds 27 1019 57 10000 4.6 130 18:45 12.12.2020
4937 Clouds 27 1019 57 10000 4.6 130 18:27 12.12.2020
4938 Clouds 27 1020 61 10000 4.6 140 17:47 12.12.2020
4939 Clouds 26 1021 65 10000 5.1 120 16:57 12.12.2020
4940 Clear 25 1021 69 10000 3.1 110 16:21 12.12.2020
4941 Clear 25 1021 69 10000 3.1 110 15:45 12.12.2020
4942 Clear 25 1021 69 10000 3.1 110 15:27 12.12.2020
4943 Clouds 23 1020 78 10000 3.6 100 14:48 12.12.2020
4944 Clouds 22 1019 78 10000 3.1 110 13:56 12.12.2020
4945 Clouds 22 1019 78 10000 3.1 110 13:37 12.12.2020
4946 Clouds 22 1019 78 10000 4.1 110 12:58 12.12.2020
4947 Clouds 22 1018 78 10000 2.1 80 11:48 12.12.2020
4948 Clouds 23 1018 73 10000 4.1 110 10:53 12.12.2020
4949 Clouds 23 1018 78 10000 3.1 130 09:46 12.12.2020
4950 Clear 24 1018 68 10000 7.62 96 08:54 12.12.2020
4951 Clear 23 1020 69 10000 8.87 76 02:56 12.12.2020
4952 Clouds 24 1018 60 10000 6.2 90 23:54 11.12.2020
4953 Clouds 25 1018 53 10000 6.7 100 22:28 11.12.2020
4954 Clouds 26 1018 54 10000 6.2 100 20:40 11.12.2020
4955 Clouds 25 1021 57 10000 6.2 90 17:58 11.12.2020
4956 Clouds 24 1021 64 10000 5.7 100 15:54 11.12.2020
4957 Clouds 20 1020 77 10000 3.1 80 13:59 11.12.2020
4958 Clouds 20 1020 77 10000 3.1 80 13:23 11.12.2020
4959 Clouds 18 1019 88 10000 2.6 80 12:18 11.12.2020
4960 Clouds 18 1019 88 10000 2.6 80 12:18 11.12.2020
4961 Clouds 18 1019 88 10000 2.6 80 11:50 11.12.2020
4962 Clouds 17 1019 88 10000 2.1 100 10:45 11.12.2020
4963 Clouds 16 1020 87 10000 4.98 74 08:46 11.12.2020
4964 Clouds 16 1021 87 10000 4.31 86 05:40 11.12.2020
4965 Clouds 16 1022 87 10000 1 0 04:51 11.12.2020
4966 Clouds 17 1021 82 10000 1 0 01:33 11.12.2020
4967 Clouds 21 1020 60 10000 1.5 40 00:20 11.12.2020
4968 Clouds 21 1020 60 10000 2.1 40 22:27 10.12.2020
4969 Clouds 21 1020 56 10000 3.1 40 21:36 10.12.2020
4970 Clouds 21 1020 56 10000 3.1 30 20:39 10.12.2020
4971 Clouds 20 1021 60 10000 3.6 50 19:37 10.12.2020
4972 Clouds 21 1022 60 10000 4.6 40 18:53 10.12.2020
4973 Clouds 22 1021 56 10000 4.1 50 17:52 10.12.2020
4974 Clouds 21 1022 60 10000 4.6 40 16:25 10.12.2020
4975 Clouds 21 1022 60 10000 4.6 40 15:26 10.12.2020
4976 Clouds 20 1021 60 10000 3.6 10 14:50 10.12.2020
4977 Clouds 20 1021 60 10000 3.6 10 14:25 10.12.2020
4978 Clouds 18 1021 68 10000 3.1 350 12:38 10.12.2020
4979 Clouds 19 1020 59 10000 2.6 360 11:32 10.12.2020
4980 Clear 12 1020 87 10000 0.5 0 08:47 10.12.2020
4981 Clear 13 1020 87 10000 1 0 07:37 10.12.2020
4982 Clouds 13 1020 87 10000 1 0 06:40 10.12.2020
4983 Clouds 18 1021 68 10000 2.6 350 02:51 10.12.2020
4984 Clouds 18 1020 63 10000 2.6 330 01:57 10.12.2020
4985 Clouds 20 1020 56 10000 4.1 340 23:50 09.12.2020
4986 Clouds 20 1020 56 10000 6.2 350 20:43 09.12.2020
4987 Clouds 21 1021 52 10000 6.2 360 20:24 09.12.2020
4988 Clouds 21 1021 52 10000 6.2 340 18:58 09.12.2020
4989 Clouds 21 1021 52 10000 6.2 340 18:58 09.12.2020
4990 Clouds 20 1022 52 10000 5.7 350 17:37 09.12.2020
4991 Clouds 20 1022 52 10000 5.7 360 16:40 09.12.2020
4992 Clouds 20 1021 52 10000 5.1 330 16:20 09.12.2020
4993 Clouds 19 1021 55 10000 5.1 340 14:53 09.12.2020
4994 Clouds 19 1021 55 10000 5.1 340 14:27 09.12.2020
4995 Clouds 19 1020 59 10000 6.7 350 13:51 09.12.2020
4996 Clouds 20 1019 56 10000 6.2 360 13:18 09.12.2020
4997 Clouds 20 1019 56 10000 6.2 360 12:43 09.12.2020
4998 Clouds 20 1018 60 10000 5.7 350 11:43 09.12.2020
4999 Clouds 19 1018 68 10000 5.1 320 09:54 09.12.2020
5000 Clouds 19 1018 68 10000 5.7 330 08:42 09.12.2020
5001 Clouds 19 1018 68 10000 5.7 310 06:56 09.12.2020
5002 Clouds 19 1018 68 10000 5.1 310 05:33 09.12.2020
5003 Clouds 19 1017 55 10000 3.1 310 02:43 09.12.2020
5004 Clouds 19 1016 55 10000 3.1 320 00:42 09.12.2020
5005 Clouds 20 1016 56 10000 4.6 340 23:35 08.12.2020
5006 Clouds 20 1016 56 10000 5.7 330 22:26 08.12.2020
5007 Clouds 20 1016 56 10000 5.7 330 22:26 08.12.2020
5008 Clouds 22 1015 53 10000 7.2 340 20:47 08.12.2020
5009 Clouds 21 1016 52 10000 7.2 340 19:31 08.12.2020
5010 Clouds 22 1017 53 10000 7.2 340 18:38 08.12.2020
5011 Clouds 21 1017 56 10000 7.2 350 17:19 08.12.2020
5012 Clouds 20 1016 71 10000 9.21 327 15:23 08.12.2020
5013 Clouds 19 1015 63 10000 7.2 330 13:50 08.12.2020
5014 Clouds 20 1014 60 10000 8.2 340 12:41 08.12.2020
5015 Clouds 20 1013 60 10000 8.2 320 11:55 08.12.2020
5016 Clouds 20 1013 60 10000 8.7 320 10:57 08.12.2020
5017 Clouds 20 1013 60 10000 8.7 320 10:39 08.12.2020
5018 Clouds 20 1013 72 10000 9.3 320 09:38 08.12.2020
5019 Clouds 22 1013 68 10000 8.2 310 07:38 08.12.2020
5020 Clouds 23 1012 78 10000 2.1 310 05:35 08.12.2020
5021 Clouds 24 1011 73 10000 8.2 310 02:29 08.12.2020
5022 Clouds 24 1009 88 10000 8.2 290 00:44 08.12.2020
5023 Rain 26 1008 83 10000 7.7 240 23:25 07.12.2020
5024 Clouds 25 1009 83 10000 11.4 237 22:20 07.12.2020
5025 Clouds 26 1008 83 10000 6.7 230 21:26 07.12.2020
5026 Clouds 26 1009 83 10000 9.3 220 19:23 07.12.2020
5027 Clouds 26 1012 83 10000 7.7 220 17:55 07.12.2020
5028 Clouds 25 1013 88 10000 8.7 220 17:19 07.12.2020
5029 Clouds 25 1013 88 10000 8.7 220 16:28 07.12.2020
5030 Clouds 25 1013 84 10000 11.52 202 15:24 07.12.2020
5031 Clouds 24 1012 83 10000 6.7 210 14:28 07.12.2020
5032 Clouds 24 1012 83 10000 6.7 210 13:35 07.12.2020
5033 Clouds 23 1012 83 10000 3.6 180 11:58 07.12.2020
5034 Clouds 23 1012 83 10000 3.6 180 11:58 07.12.2020
5035 Clouds 23 1012 83 10000 3.6 180 11:38 07.12.2020
5036 Clouds 22 1012 88 10000 3.1 180 10:23 07.12.2020
5037 Clouds 22 1014 88 10000 2.6 160 08:37 07.12.2020
5038 Clouds 22 1014 88 10000 2.6 160 07:23 07.12.2020
5039 Clouds 22 1015 88 10000 3.1 180 05:26 07.12.2020
5040 Clouds 22 1015 94 10000 3.1 160 02:18 07.12.2020
5041 Clouds 24 1015 78 10000 3.6 150 00:31 07.12.2020
5042 Clouds 25 1015 69 10000 4.6 170 22:46 06.12.2020
5043 Clouds 25 1015 57 10000 3.1 170 21:44 06.12.2020
5044 Clouds 25 1015 61 10000 3.1 160 20:35 06.12.2020
5045 Clouds 25 1015 61 10000 3.1 160 20:35 06.12.2020
5046 Clouds 26 1015 65 10000 1.5 230 19:57 06.12.2020
5047 Clouds 24 1015 68 10000 2.98 156 18:53 06.12.2020
5048 Clouds 27 1017 61 10000 2.1 120 17:24 06.12.2020
5049 Clouds 26 1017 65 10000 1.83 130 16:27 06.12.2020
5050 Clouds 24 1016 68 10000 0.78 104 14:21 06.12.2020
5051 Clear 24 1016 70 10000 0.9 107 12:52 06.12.2020
5052 Clear 24 1016 70 10000 0.65 70 12:27 06.12.2020
5053 Clear 24 1016 70 10000 0.65 70 11:37 06.12.2020
5054 Clear 24 1015 70 10000 0.28 80 11:18 06.12.2020
5055 Clear 24 1015 70 10000 0.08 319 10:26 06.12.2020
5056 Clear 24 1015 70 10000 0.28 211 08:49 06.12.2020
5057 Clear 24 1016 70 10000 0.45 239 06:53 06.12.2020
5058 Clouds 22 1017 94 10000 1 0 02:40 06.12.2020
5059 Clouds 23 1017 83 10000 1 0 00:42 06.12.2020
5060 Clouds 23 1017 83 10000 1 0 00:24 06.12.2020
5061 Clouds 25 1016 69 10000 2.6 310 22:52 05.12.2020
5062 Clouds 25 1016 69 10000 2.6 310 22:21 05.12.2020
5063 Clouds 26 1016 69 10000 2.6 320 21:51 05.12.2020
5064 Clouds 26 1016 69 10000 2.6 320 21:26 05.12.2020
5065 Clouds 26 1017 69 10000 2.6 330 19:49 05.12.2020
5066 Clouds 26 1018 69 10000 2.6 290 18:41 05.12.2020
5067 Clouds 25 1018 73 10000 1.5 300 17:34 05.12.2020
5068 Clouds 25 1019 73 10000 1.5 130 16:33 05.12.2020
5069 Clouds 23 1019 83 10000 0.5 0 15:57 05.12.2020
5070 Clouds 21 1018 88 10000 1 0 14:28 05.12.2020
5071 Clear 19 1018 88 10000 0.72 233 12:24 05.12.2020
5072 Clear 19 1018 88 10000 0.72 233 11:47 05.12.2020
5073 Clear 19 1018 93 10000 0.5 0 10:31 05.12.2020
5074 Clear 19 1019 88 10000 0.5 0 07:49 05.12.2020
5075 Clear 19 1019 88 10000 0.5 0 07:24 05.12.2020
5076 Clear 20 1020 88 10000 4.3 121 03:55 05.12.2020
5077 Clouds 24 1019 69 10000 2.6 170 23:55 04.12.2020
5078 Clouds 26 1019 57 10000 4.1 130 22:24 04.12.2020
5079 Clouds 26 1019 54 10000 6.2 120 20:26 04.12.2020
5080 Clouds 25 1021 61 10000 4.6 120 18:53 04.12.2020
5081 Clouds 25 1022 57 10000 4.6 140 18:19 04.12.2020
5082 Clouds 25 1022 57 10000 4.6 140 17:37 04.12.2020
5083 Clouds 24 1022 60 10000 2.6 110 15:46 04.12.2020
5084 Clouds 16 1021 87 10000 1 0 13:40 04.12.2020
5085 Clouds 16 1021 87 10000 1 0 13:22 04.12.2020
5086 Clouds 17 1020 82 10000 1 0 12:54 04.12.2020
5087 Clouds 23 1020 66 10000 7.19 93 10:41 04.12.2020
5088 Clouds 22 1020 68 10000 7.46 87 09:55 04.12.2020
5089 Clouds 22 1021 68 10000 7.97 79 07:20 04.12.2020
5090 Clouds 22 1020 68 10000 7.83 80 06:39 04.12.2020
5091 Clear 23 1022 66 10000 8 68 01:57 04.12.2020
5092 Clear 23 1020 62 10000 6.77 68 22:52 03.12.2020
5093 Clear 23 1020 62 10000 6.77 68 22:30 03.12.2020
5094 Clouds 24 1021 53 10000 5.1 90 20:49 03.12.2020
5095 Clouds 24 1021 53 10000 5.1 100 19:29 03.12.2020
5096 Clouds 24 1022 50 10000 5.7 90 18:53 03.12.2020
5097 Clouds 24 1023 50 10000 5.7 90 18:18 03.12.2020
5098 Clouds 23 1023 56 10000 5.7 90 17:19 03.12.2020
5099 Clouds 23 1023 56 10000 5.1 90 15:55 03.12.2020
5100 Clouds 23 1023 56 10000 5.1 90 15:30 03.12.2020
5101 Clouds 22 1022 64 10000 7.53 62 14:48 03.12.2020
5102 Clouds 22 1021 65 10000 7.74 57 13:36 03.12.2020
5103 Clear 22 1020 65 10000 7.95 59 12:28 03.12.2020
5104 Clear 22 1020 65 10000 7.95 59 11:31 03.12.2020
5105 Clear 22 1020 62 10000 7.64 52 10:18 03.12.2020
5106 Clouds 20 1022 64 10000 8.23 56 06:27 03.12.2020
5107 Clouds 21 1023 64 10000 6.2 50 03:22 03.12.2020
5108 Clouds 21 1022 64 10000 5.7 50 00:57 03.12.2020
5109 Clouds 22 1021 60 10000 5.7 50 22:47 02.12.2020
5110 Clouds 22 1021 60 10000 5.7 50 22:26 02.12.2020
5111 Clouds 23 1021 53 10000 5.7 50 21:18 02.12.2020
5112 Clouds 23 1021 53 10000 5.7 50 20:44 02.12.2020
5113 Clouds 23 1021 53 10000 5.7 50 20:26 02.12.2020
5114 Clouds 23 1022 56 10000 6.2 50 18:37 02.12.2020
5115 Clouds 23 1022 56 10000 6.2 50 17:45 02.12.2020
5116 Clouds 22 1023 56 10000 6.2 60 17:27 02.12.2020
5117 Clouds 21 1021 60 10000 6.2 60 15:21 02.12.2020
5118 Clouds 20 1020 72 10000 7.2 40 12:45 02.12.2020
5119 Clouds 20 1020 68 10000 7.2 30 10:29 02.12.2020
5120 Clear 21 1019 65 10000 8.83 24 09:27 02.12.2020
5121 Clouds 20 1020 60 10000 5.1 30 04:39 02.12.2020
5122 Clouds 22 1017 74 10000 10.93 7 22:21 01.12.2020
5123 Clouds 22 1017 74 10000 10.93 7 21:41 01.12.2020
5124 Clouds 21 1019 73 10000 7.2 10 19:35 01.12.2020
5125 Rain 22 1019 73 10000 5.7 20 17:58 01.12.2020
5126 Rain 21 1019 77 10000 6.2 10 16:36 01.12.2020
5127 Clouds 21 1017 88 10000 6.7 360 13:39 01.12.2020
5128 Rain 21 1016 94 10000 6.7 350 12:25 01.12.2020
5129 Rain 24 1015 78 10000 5.7 350 11:27 01.12.2020
5130 Clouds 24 1014 78 10000 1.5 230 10:39 01.12.2020
5131 Clouds 24 1015 78 10000 1.5 230 08:21 01.12.2020
5132 Clouds 23 1015 78 10000 2.1 230 06:48 01.12.2020
5133 Clouds 25 1014 69 10000 3.1 250 01:53 01.12.2020
5134 Clouds 25 1013 69 10000 1.5 220 00:56 01.12.2020
5135 Clouds 27 1013 61 10000 4.6 190 23:21 30.11.2020
5136 Clouds 27 1013 61 10000 4.6 190 22:44 30.11.2020
5137 Clouds 27 1013 61 10000 4.6 190 22:25 30.11.2020
5138 Clouds 28 1014 54 10000 4.6 210 20:48 30.11.2020
5139 Clouds 28 1015 51 10000 4.1 240 19:42 30.11.2020
5140 Clouds 27 1017 65 10000 5.7 230 18:24 30.11.2020
5141 Clouds 27 1017 65 10000 5.7 230 17:47 30.11.2020
5142 Clouds 26 1017 69 10000 5.1 220 16:55 30.11.2020
5143 Clear 26 1017 69 10000 4.1 220 15:59 30.11.2020
5144 Clear 24 1016 88 10000 2.6 230 14:46 30.11.2020
5145 Clouds 22 1016 94 10000 2.1 230 13:52 30.11.2020
5146 Clouds 21 1016 94 10000 2.1 220 12:26 30.11.2020
5147 Clouds 21 1016 94 10000 1 0 11:58 30.11.2020
5148 Clouds 21 1016 94 10000 1 0 10:26 30.11.2020
5149 Clouds 21 1016 94 10000 2.1 180 09:49 30.11.2020
5150 Clouds 21 1017 100 10000 1 0 07:18 30.11.2020
5151 Clouds 25 1016 73 10000 3.6 150 23:58 29.11.2020
5152 Clouds 26 1016 69 10000 3.1 120 21:51 29.11.2020
5153 Clouds 26 1016 69 10000 3.1 120 21:28 29.11.2020
5154 Clouds 26 1017 69 10000 2.1 210 19:49 29.11.2020
5155 Clouds 26 1018 65 10000 3.6 150 17:47 29.11.2020
5156 Clouds 25 1019 73 10000 2.6 120 15:25 29.11.2020
5157 Clouds 18 1017 93 10000 2.24 94 13:23 29.11.2020
5158 Clear 18 1017 93 10000 0.5 0 11:41 29.11.2020
5159 Clear 18 1016 93 10000 2.22 74 09:42 29.11.2020
5160 Clear 18 1017 93 10000 2.31 83 08:37 29.11.2020
5161 Clouds 24 1018 69 10000 2.1 50 04:40 29.11.2020
5162 Clouds 25 1016 73 10000 3.1 50 23:19 28.11.2020
5163 Clouds 25 1016 73 10000 3.1 50 22:55 28.11.2020
5164 Clouds 27 1017 65 10000 2.6 50 20:44 28.11.2020
5165 Clouds 26 1017 65 10000 3.1 50 19:38 28.11.2020
5166 Clouds 26 1017 65 10000 3.1 50 19:19 28.11.2020
5167 Clouds 26 1018 69 10000 2.6 30 18:27 28.11.2020
5168 Clouds 26 1018 69 10000 3.6 50 17:41 28.11.2020
5169 Clouds 27 1018 61 10000 2.1 130 16:40 28.11.2020
5170 Clouds 22 1017 88 10000 1 0 14:31 28.11.2020
5171 Clear 19 1016 93 10000 2.71 111 11:29 28.11.2020
5172 Clear 21 1016 88 10000 1 0 09:38 28.11.2020
5173 Clouds 25 1018 73 10000 4.6 60 03:56 28.11.2020
5174 Clouds 25 1018 73 10000 4.6 60 03:24 28.11.2020
5175 Clouds 25 1017 69 10000 4.6 90 23:23 27.11.2020
5176 Clouds 25 1017 78 10000 6.2 80 22:54 27.11.2020
5177 Clouds 26 1017 69 10000 4.6 60 20:55 27.11.2020
5178 Clouds 26 1017 69 10000 4.6 60 20:28 27.11.2020
5179 Clouds 26 1018 69 10000 4.6 60 19:22 27.11.2020
5180 Clouds 26 1020 65 10000 3.1 100 16:59 27.11.2020
5181 Clouds 24 1019 78 10000 2.1 100 14:45 27.11.2020
5182 Clouds 22 1018 88 10000 1.5 80 13:21 27.11.2020
5183 Clouds 22 1018 88 10000 1.5 80 12:47 27.11.2020
5184 Clouds 23 1018 83 10000 1.5 110 11:34 27.11.2020
5185 Clouds 23 1018 83 10000 1.5 110 10:49 27.11.2020
5186 Clear 25 1017 71 10000 5.58 86 09:53 27.11.2020
5187 Clouds 24 1020 78 10000 2.1 80 04:32 27.11.2020
5188 Clear 25 1017 70 10000 5.99 77 22:26 26.11.2020
5189 Clear 25 1017 70 10000 5.99 77 21:56 26.11.2020
5190 Clouds 27 1018 57 10000 4.6 80 20:49 26.11.2020
5191 Clouds 26 1020 65 10000 7.2 90 18:37 26.11.2020
5192 Clear 25 1021 69 10000 6.2 90 17:34 26.11.2020
5193 Clouds 24 1021 78 10000 4.1 70 14:39 26.11.2020
5194 Clouds 24 1020 73 10000 3.1 80 12:58 26.11.2020
5195 Clouds 24 1020 73 10000 3.1 80 12:40 26.11.2020
5196 Clouds 24 1020 69 10000 3.1 90 11:20 26.11.2020
5197 Clouds 24 1020 69 10000 3.1 90 10:23 26.11.2020
5198 Clouds 23 1020 73 10000 1 0 09:39 26.11.2020
5199 Clouds 23 1021 78 10000 2.1 90 09:18 26.11.2020
5200 Clouds 23 1021 78 10000 2.1 90 08:34 26.11.2020
5201 Clouds 24 1021 64 10000 3.1 90 02:19 26.11.2020
5202 Clouds 27 1021 51 10000 7.2 100 22:30 25.11.2020
5203 Clouds 27 1021 51 10000 7.2 100 20:38 25.11.2020
5204 Clouds 27 1022 54 10000 6.7 100 19:26 25.11.2020
5205 Clouds 27 1023 51 10000 6.7 110 17:29 25.11.2020
5206 Clouds 26 1023 57 10000 6.7 110 15:46 25.11.2020
5207 Clouds 24 1022 60 10000 4.1 110 14:58 25.11.2020
5208 Clouds 24 1022 60 10000 5.1 110 13:46 25.11.2020
5209 Clouds 24 1021 60 10000 4.6 100 12:57 25.11.2020
5210 Clouds 24 1021 60 10000 4.6 100 12:57 25.11.2020
5211 Clouds 24 1021 64 10000 4.6 100 11:24 25.11.2020
5212 Clouds 24 1020 69 10000 6.7 100 09:21 25.11.2020
5213 Clouds 24 1020 69 10000 6.7 100 08:50 25.11.2020
5214 Clouds 24 1021 73 10000 5.7 100 07:41 25.11.2020
5215 Clouds 24 1021 83 10000 6.7 80 03:49 25.11.2020
5216 Clouds 25 1020 73 10000 6.2 90 01:49 25.11.2020
5217 Clouds 22 1020 88 10000 7.2 110 00:20 25.11.2020
5218 Clouds 22 1020 88 10000 7.2 110 23:35 24.11.2020
5219 Rain 25 1019 78 10000 7.2 90 22:39 24.11.2020
5220 Clouds 24 1019 88 10000 5.1 80 21:43 24.11.2020
5221 Clouds 24 1019 88 10000 5.1 80 21:23 24.11.2020
5222 Rain 26 1019 78 10000 7.2 60 19:48 24.11.2020
5223 Clouds 26 1020 69 10000 7.7 90 17:32 24.11.2020
5224 Clear 25 1020 76 10000 8.74 57 16:58 24.11.2020
5225 Clouds 26 1020 69 10000 6.2 60 16:38 24.11.2020
5226 Clouds 26 1020 69 10000 6.2 60 15:56 24.11.2020
5227 Clouds 26 1019 69 10000 6.7 60 15:20 24.11.2020
5228 Clouds 26 1019 69 10000 6.7 60 14:44 24.11.2020
5229 Clouds 25 1018 73 10000 4.6 60 13:36 24.11.2020
5230 Clouds 25 1018 73 10000 5.1 60 12:39 24.11.2020
5231 Clouds 25 1017 69 10000 4.1 50 11:59 24.11.2020
5232 Clouds 25 1017 69 10000 4.1 50 11:24 24.11.2020
5233 Clouds 25 1017 69 10000 4.1 60 10:25 24.11.2020
5234 Clouds 25 1017 69 10000 4.1 60 09:39 24.11.2020
5235 Clouds 25 1017 69 10000 3.1 50 08:58 24.11.2020
5236 Clouds 25 1017 69 10000 3.1 50 05:53 24.11.2020
5237 Clouds 26 1016 65 10000 6.2 10 00:41 24.11.2020
5238 Clouds 26 1015 69 10000 5.7 360 22:24 23.11.2020
5239 Clouds 27 1015 69 10000 5.7 10 21:29 23.11.2020
5240 Clouds 27 1015 69 10000 6.2 360 20:29 23.11.2020
5241 Clouds 27 1015 69 10000 5.1 360 19:56 23.11.2020
5242 Clouds 27 1016 74 10000 5.1 360 17:53 23.11.2020
5243 Clouds 27 1016 69 10000 4.1 360 16:56 23.11.2020
5244 Clouds 23 1016 94 10000 2.6 360 14:50 23.11.2020
5245 Clouds 21 1015 94 10000 3.72 359 13:56 23.11.2020
5246 Clouds 21 1015 94 10000 0.5 0 12:40 23.11.2020
5247 Clouds 21 1014 94 10000 0.5 0 11:57 23.11.2020
5248 Clouds 21 1014 94 10000 0.5 0 11:38 23.11.2020
5249 Clouds 21 1014 100 10000 2.67 37 09:47 23.11.2020
5250 Clouds 22 1015 94 10000 2.4 47 08:51 23.11.2020
5251 Clouds 22 1015 94 10000 2.98 59 07:56 23.11.2020
5252 Clouds 26 1015 78 10000 2.6 80 02:39 23.11.2020
5253 Clouds 27 1015 74 10000 3.6 80 23:48 22.11.2020
5254 Clouds 27 1014 74 10000 4.6 90 22:22 22.11.2020
5255 Clouds 28 1014 69 10000 5.7 90 21:24 22.11.2020
5256 Clouds 28 1015 69 10000 6.2 70 20:19 22.11.2020
5257 Clouds 28 1015 69 10000 6.2 70 19:23 22.11.2020
5258 Clouds 28 1017 74 10000 7.2 80 18:19 22.11.2020
5259 Clouds 27 1017 74 10000 7.2 80 16:25 22.11.2020
5260 Clouds 26 1017 78 10000 4.6 90 14:58 22.11.2020
5261 Clouds 26 1017 78 10000 5.1 90 13:23 22.11.2020
5262 Clouds 25 1016 83 10000 4.6 90 12:42 22.11.2020
5263 Clouds 25 1016 83 10000 4.6 90 11:39 22.11.2020
5264 Clouds 25 1016 78 10000 4.1 90 10:47 22.11.2020
5265 Clouds 25 1016 78 10000 4.1 90 10:29 22.11.2020
5266 Clouds 23 1018 94 10000 3.1 90 02:47 22.11.2020
5267 Clouds 26 1017 74 10000 5.1 90 23:54 21.11.2020
5268 Clouds 27 1017 69 10000 6.7 70 22:40 21.11.2020
5269 Clouds 27 1017 69 10000 6.2 60 21:30 21.11.2020
5270 Clouds 28 1018 65 10000 6.7 60 20:49 21.11.2020
5271 Clouds 28 1018 65 10000 7.2 60 19:58 21.11.2020
5272 Clouds 28 1018 65 10000 7.2 60 19:37 21.11.2020
5273 Clouds 27 1019 69 10000 7.7 80 18:39 21.11.2020
5274 Clouds 27 1020 74 10000 6.7 80 17:29 21.11.2020
5275 Clouds 27 1020 69 10000 7.2 80 16:44 21.11.2020
5276 Clouds 27 1020 74 10000 6.2 80 15:23 21.11.2020
5277 Clouds 26 1020 74 10000 5.1 80 14:48 21.11.2020
5278 Clouds 26 1020 74 10000 5.1 80 14:27 21.11.2020
5279 Clouds 25 1019 78 10000 4.1 90 12:42 21.11.2020
5280 Clouds 25 1019 83 10000 4.1 80 12:20 21.11.2020
5281 Clouds 24 1019 83 10000 3.6 90 10:57 21.11.2020
5282 Clouds 24 1019 83 10000 3.6 90 10:26 21.11.2020
5283 Clouds 24 1020 83 10000 3.6 90 08:51 21.11.2020
5284 Clouds 25 1021 83 10000 5.1 80 06:51 21.11.2020
5285 Clouds 25 1021 78 10000 5.7 80 04:39 21.11.2020
5286 Clouds 25 1021 78 10000 7.2 90 01:32 21.11.2020
5287 Clouds 26 1020 74 10000 5.7 90 23:59 20.11.2020
5288 Clouds 26 1021 74 10000 7.2 90 22:26 20.11.2020
5289 Clouds 27 1020 65 10000 7.7 90 21:42 20.11.2020
5290 Clouds 27 1020 65 10000 7.7 90 21:21 20.11.2020
5291 Clouds 27 1021 65 10000 7.7 80 19:46 20.11.2020
5292 Clouds 27 1022 65 10000 6.7 100 18:38 20.11.2020
5293 Clouds 27 1023 65 10000 6.2 80 17:52 20.11.2020
5294 Clouds 27 1023 65 10000 6.2 80 17:24 20.11.2020
5295 Clouds 26 1024 61 10000 6.7 80 16:38 20.11.2020
5296 Clouds 26 1023 65 10000 6.7 80 15:57 20.11.2020
5297 Clouds 26 1023 65 10000 6.7 80 15:25 20.11.2020
5298 Clouds 24 1023 69 10000 4.1 80 13:45 20.11.2020
5299 Clouds 24 1023 69 10000 5.1 80 13:18 20.11.2020
5300 Clouds 24 1023 69 10000 5.1 80 12:34 20.11.2020
5301 Clouds 24 1022 64 10000 5.7 90 11:45 20.11.2020
5302 Clouds 24 1022 69 10000 5.1 90 10:53 20.11.2020
5303 Clouds 24 1022 69 10000 6.7 90 08:53 20.11.2020
5304 Clouds 24 1022 69 10000 5.7 90 08:24 20.11.2020
5305 Clear 25 1022 72 10000 11.91 72 05:43 20.11.2020
5306 Clouds 24 1024 69 10000 7.2 90 03:43 20.11.2020
5307 Clouds 25 1022 65 10000 7.7 80 22:35 19.11.2020
5308 Clouds 25 1022 65 10000 8.2 80 21:55 19.11.2020
5309 Clouds 26 1022 57 10000 9.8 90 21:19 19.11.2020
5310 Clouds 26 1022 57 10000 9.8 90 20:31 19.11.2020
5311 Clouds 26 1023 61 10000 9.3 80 19:44 19.11.2020
5312 Clouds 26 1023 61 10000 9.3 80 19:22 19.11.2020
5313 Clouds 26 1024 61 10000 9.3 90 17:38 19.11.2020
5314 Clouds 26 1024 61 10000 9.3 80 16:47 19.11.2020
5315 Clouds 25 1024 65 10000 7.7 90 15:31 19.11.2020
5316 Clouds 25 1023 61 10000 7.2 80 13:59 19.11.2020
5317 Clouds 25 1023 61 10000 7.2 80 13:39 19.11.2020
5318 Clouds 24 1022 69 10000 7.2 80 12:57 19.11.2020
5319 Clouds 24 1022 69 10000 7.2 80 12:34 19.11.2020
5320 Clouds 24 1022 64 10000 8.2 70 11:41 19.11.2020
5321 Clouds 24 1022 64 10000 8.2 70 11:22 19.11.2020
5322 Clouds 24 1022 64 10000 8.2 70 11:22 19.11.2020
5323 Clouds 24 1022 60 10000 9.3 70 10:51 19.11.2020
5324 Clouds 24 1022 60 10000 8.7 70 09:49 19.11.2020
5325 Clouds 24 1022 60 10000 8.7 70 09:28 19.11.2020
5326 Clouds 24 1022 60 10000 8.7 70 08:44 19.11.2020
5327 Clouds 24 1022 64 10000 9.8 60 07:57 19.11.2020
5328 Clouds 25 1022 57 10000 7.7 70 01:48 19.11.2020
5329 Clouds 25 1022 57 10000 7.7 70 01:48 19.11.2020
5330 Clouds 25 1021 57 10000 7.2 70 00:33 19.11.2020
5331 Clouds 25 1021 61 10000 9.3 60 23:32 18.11.2020
5332 Clouds 24 1019 76 10000 13.12 48 22:59 18.11.2020
5333 Clouds 26 1020 65 10000 8.7 70 22:29 18.11.2020
5334 Clouds 26 1020 65 10000 8.7 70 21:44 18.11.2020
5335 Clouds 26 1020 65 10000 8.7 70 21:25 18.11.2020
5336 Clouds 26 1020 65 10000 8.2 70 20:35 18.11.2020
5337 Clouds 26 1021 61 10000 9.3 70 19:42 18.11.2020
5338 Clouds 26 1021 61 10000 9.3 70 19:22 18.11.2020
5339 Clouds 26 1021 65 10000 9.8 70 18:40 18.11.2020
5340 Clouds 25 1022 69 10000 8.7 60 17:44 18.11.2020
5341 Clouds 26 1022 69 10000 9.8 60 16:27 18.11.2020
5342 Clouds 25 1021 73 10000 8.7 60 15:59 18.11.2020
5343 Clouds 24 1021 78 10000 9.3 50 14:41 18.11.2020
5344 Clouds 24 1020 83 10000 8.7 60 13:55 18.11.2020
5345 Clouds 24 1020 83 10000 8.7 60 13:21 18.11.2020
5346 Clouds 25 1019 78 10000 8.2 50 12:42 18.11.2020
5347 Clouds 24 1019 83 10000 8.2 50 11:42 18.11.2020
5348 Clouds 24 1019 83 10000 8.2 50 11:42 18.11.2020
5349 Clouds 24 1019 88 10000 6.7 50 10:54 18.11.2020
5350 Clouds 24 1019 88 10000 6.7 50 10:27 18.11.2020
5351 Clouds 25 1019 78 10000 5.1 40 08:23 18.11.2020
5352 Clouds 25 1019 83 10000 4.1 80 06:37 18.11.2020
5353 Clouds 26 1019 74 10000 4.6 70 01:49 18.11.2020
5354 Clouds 27 1018 69 10000 5.7 50 23:53 17.11.2020
5355 Clouds 27 1017 74 10000 6.2 50 22:53 17.11.2020
5356 Clouds 27 1017 74 10000 6.2 50 22:29 17.11.2020
5357 Clouds 28 1017 69 10000 6.7 50 21:52 17.11.2020
5358 Clouds 28 1017 69 10000 6.7 50 21:30 17.11.2020
5359 Clouds 28 1017 69 10000 6.2 60 20:50 17.11.2020
5360 Clouds 28 1017 69 10000 6.2 60 20:27 17.11.2020
5361 Clouds 29 1018 66 10000 6.2 50 19:56 17.11.2020
5362 Clouds 28 1019 69 10000 5.7 50 18:34 17.11.2020
5363 Clouds 28 1019 65 10000 5.1 60 17:44 17.11.2020
5364 Clouds 27 1019 74 10000 6.2 60 16:54 17.11.2020
5365 Clouds 27 1019 74 10000 4.6 80 16:20 17.11.2020
5366 Clouds 27 1019 74 10000 4.6 80 15:40 17.11.2020
5367 Clouds 26 1019 74 10000 3.6 80 15:22 17.11.2020
5368 Clouds 26 1019 74 10000 3.6 80 14:54 17.11.2020
5369 Clouds 25 1018 73 10000 3.1 60 14:21 17.11.2020
5370 Clouds 25 1018 73 10000 3.1 60 13:34 17.11.2020
5371 Clouds 25 1018 78 10000 2.1 90 12:46 17.11.2020
5372 Clouds 25 1018 78 10000 2.1 60 11:59 17.11.2020
5373 Clouds 25 1018 78 10000 2.1 60 11:40 17.11.2020
5374 Clouds 25 1018 73 10000 2.1 70 10:39 17.11.2020
5375 Clouds 25 1018 73 10000 2.6 90 10:20 17.11.2020
5376 Clouds 25 1018 73 10000 2.6 90 09:48 17.11.2020
5377 Clouds 25 1018 73 10000 2.6 90 08:54 17.11.2020
5378 Clouds 25 1018 78 10000 2.1 90 08:20 17.11.2020
5379 Clouds 25 1018 78 10000 2.1 90 07:34 17.11.2020
5380 Clouds 25 1019 83 10000 2.6 110 04:31 17.11.2020
5381 Clouds 25 1019 88 10000 2.6 80 03:28 17.11.2020
5382 Clouds 26 1019 83 10000 2.1 60 02:29 17.11.2020
5383 Clouds 26 1018 76 10000 5.55 94 00:56 17.11.2020
5384 Clouds 27 1017 74 10000 3.6 90 23:54 16.11.2020
5385 Clouds 27 1017 74 10000 3.6 90 23:32 16.11.2020
5386 Clouds 28 1017 69 10000 4.1 90 22:58 16.11.2020
5387 Clouds 28 1017 69 10000 4.1 90 22:24 16.11.2020
5388 Clouds 28 1017 74 10000 5.1 70 21:56 16.11.2020
5389 Clouds 28 1017 74 10000 5.1 70 21:37 16.11.2020
5390 Clouds 28 1017 69 10000 4.6 90 21:19 16.11.2020
5391 Clouds 28 1017 69 10000 4.6 90 20:26 16.11.2020
5392 Clouds 28 1018 69 10000 5.1 80 19:51 16.11.2020
5393 Clouds 28 1018 69 10000 5.1 80 19:29 16.11.2020
5394 Clouds 29 1019 66 10000 4.6 80 18:50 16.11.2020
5395 Clouds 29 1019 62 10000 4.6 120 18:18 16.11.2020
5396 Clouds 29 1019 62 10000 4.6 120 17:27 16.11.2020
5397 Clouds 28 1020 65 10000 4.1 80 16:57 16.11.2020
5398 Clouds 28 1020 65 10000 4.1 80 16:39 16.11.2020
5399 Clouds 27 1019 74 10000 3.1 90 16:19 16.11.2020
5400 Clouds 27 1019 74 10000 3.1 90 15:43 16.11.2020
5401 Clouds 26 1019 78 10000 3.6 100 15:23 16.11.2020
5402 Clouds 26 1019 78 10000 3.6 100 14:47 16.11.2020
5403 Clouds 25 1018 83 10000 4.1 100 13:37 16.11.2020
5404 Clouds 25 1018 88 10000 4.1 90 12:45 16.11.2020
5405 Clouds 25 1018 88 10000 4.1 90 12:45 16.11.2020
5406 Clouds 25 1018 88 10000 4.1 90 12:45 16.11.2020
5407 Clouds 25 1018 88 10000 4.1 90 12:23 16.11.2020
5408 Clouds 25 1017 83 10000 3.1 80 11:38 16.11.2020
5409 Clouds 26 1017 78 10000 3.6 80 11:19 16.11.2020
5410 Clouds 26 1017 78 10000 3.6 80 10:41 16.11.2020
5411 Clouds 26 1017 78 10000 3.6 80 10:23 16.11.2020
5412 Clouds 25 1017 83 10000 3.6 80 09:43 16.11.2020
5413 Clouds 26 1018 78 10000 3.1 70 09:19 16.11.2020
5414 Clouds 26 1018 78 10000 3.1 70 08:38 16.11.2020
5415 Clouds 26 1018 78 10000 2.6 80 07:44 16.11.2020
5416 Clear 26 1018 78 10000 2.1 80 06:49 16.11.2020
5417 Clear 25 1019 78 10000 2.6 80 05:57 16.11.2020
5418 Clouds 26 1019 78 10000 3.6 90 04:37 16.11.2020
5419 Clouds 26 1018 77 10000 6.48 81 01:57 16.11.2020
5420 Clouds 27 1018 69 10000 3.1 90 01:39 16.11.2020
5421 Clouds 27 1017 69 10000 3.6 100 23:53 15.11.2020
5422 Clouds 28 1017 61 10000 4.1 90 23:22 15.11.2020
5423 Clouds 28 1017 61 10000 4.1 90 22:45 15.11.2020
5424 Clouds 28 1017 61 10000 4.1 90 22:20 15.11.2020
5425 Clouds 29 1017 62 10000 4.6 100 21:43 15.11.2020
5426 Clouds 29 1017 62 10000 4.6 100 21:24 15.11.2020
5427 Clouds 28 1017 65 10000 4.1 130 20:41 15.11.2020
5428 Clouds 29 1018 66 10000 5.1 140 20:18 15.11.2020
5429 Clouds 29 1018 66 10000 5.1 140 19:48 15.11.2020
5430 Clouds 29 1018 66 10000 5.1 140 19:22 15.11.2020
5431 Clouds 29 1018 62 10000 5.1 130 18:56 15.11.2020
5432 Clouds 29 1018 62 10000 5.1 130 18:38 15.11.2020
5433 Clouds 29 1019 58 10000 5.7 140 18:19 15.11.2020
5434 Clouds 29 1019 58 10000 5.7 140 17:44 15.11.2020
5435 Clouds 29 1019 58 10000 5.7 140 17:23 15.11.2020
5436 Clouds 28 1019 65 10000 5.1 140 16:45 15.11.2020
5437 Clouds 27 1019 74 10000 4.1 120 16:20 15.11.2020
5438 Clouds 27 1019 74 10000 4.1 120 15:49 15.11.2020
5439 Clouds 27 1019 74 10000 4.1 120 15:26 15.11.2020
5440 Clouds 26 1018 83 10000 2.6 90 14:56 15.11.2020
5441 Clouds 26 1018 83 10000 2.6 90 14:29 15.11.2020
5442 Clouds 25 1018 78 10000 3.1 90 13:53 15.11.2020
5443 Clouds 25 1018 78 10000 3.1 90 13:35 15.11.2020
5444 Clouds 24 1018 88 10000 1.5 80 12:50 15.11.2020
5445 Clouds 24 1017 88 10000 1.5 90 12:20 15.11.2020
5446 Clouds 24 1017 88 10000 1.5 90 11:45 15.11.2020
5447 Clouds 25 1017 83 10000 3.6 120 11:19 15.11.2020
5448 Clouds 25 1017 83 10000 3.6 120 10:53 15.11.2020
5449 Clouds 25 1017 83 10000 3.6 120 10:31 15.11.2020
5450 Clouds 26 1017 78 10000 4.1 110 09:56 15.11.2020
5451 Clouds 26 1017 78 10000 4.1 110 09:33 15.11.2020
5452 Clouds 25 1017 88 10000 3.1 110 09:00 15.11.2020
5453 Clouds 25 1017 88 10000 3.1 110 08:41 15.11.2020
5454 Clouds 27 1016 78 10000 5.82 103 07:46 15.11.2020
5455 Clouds 26 1018 78 10000 3.6 110 06:42 15.11.2020
5456 Clouds 26 1018 83 10000 2.1 90 04:54 15.11.2020
5457 Clouds 26 1018 83 10000 2.6 90 02:21 15.11.2020
5458 Clouds 27 1017 78 10000 3.6 100 00:36 15.11.2020
5459 Clouds 27 1016 78 10000 4.1 100 23:54 14.11.2020
5460 Clouds 28 1016 74 10000 4.1 90 22:59 14.11.2020
5461 Clouds 28 1016 74 10000 4.1 90 22:41 14.11.2020
5462 Clouds 28 1016 74 10000 4.6 90 22:19 14.11.2020
5463 Clouds 28 1016 74 10000 4.6 90 21:39 14.11.2020
5464 Clouds 29 1016 70 10000 5.1 80 21:20 14.11.2020
5465 Clouds 29 1016 70 10000 5.1 80 20:47 14.11.2020
5466 Clouds 29 1016 70 10000 5.1 80 20:24 14.11.2020
5467 Clouds 30 1017 66 10000 5.1 150 19:36 14.11.2020
5468 Clouds 29 1018 66 10000 4.6 130 18:59 14.11.2020
5469 Clouds 29 1018 66 10000 4.6 130 18:39 14.11.2020
5470 Clouds 30 1018 62 10000 4.1 140 18:21 14.11.2020
5471 Clouds 30 1018 62 10000 4.1 140 17:44 14.11.2020
5472 Clouds 30 1018 62 10000 4.1 140 17:26 14.11.2020
5473 Clouds 29 1018 70 10000 4.6 120 16:52 14.11.2020
5474 Clouds 29 1018 70 10000 4.6 120 16:31 14.11.2020
5475 Clouds 28 1018 78 10000 3.1 110 15:55 14.11.2020
5476 Clouds 28 1018 78 10000 3.1 110 15:31 14.11.2020
5477 Clouds 26 1018 83 10000 2.1 100 14:56 14.11.2020
5478 Clouds 26 1018 83 10000 2.1 100 14:30 14.11.2020
5479 Clouds 26 1017 83 10000 2.1 100 13:52 14.11.2020
5480 Clouds 26 1017 83 10000 2.1 100 13:30 14.11.2020
5481 Clouds 25 1016 88 10000 2.1 90 12:52 14.11.2020
5482 Clouds 25 1016 88 10000 2.1 90 12:33 14.11.2020
5483 Clouds 25 1016 88 10000 1.5 90 11:56 14.11.2020
5484 Clouds 25 1016 88 10000 1.5 90 11:37 14.11.2020
5485 Clouds 25 1016 88 10000 1 0 10:59 14.11.2020
5486 Clouds 25 1016 88 10000 1 0 10:38 14.11.2020
5487 Clouds 25 1016 88 10000 1 0 10:38 14.11.2020
5488 Clouds 26 1016 88 10000 2.1 90 10:20 14.11.2020
5489 Clouds 26 1016 88 10000 2.1 90 09:43 14.11.2020
5490 Clouds 26 1016 88 10000 2.1 90 09:23 14.11.2020
5491 Clouds 26 1017 88 10000 2.6 110 08:40 14.11.2020
5492 Clouds 26 1017 88 10000 1.5 100 08:20 14.11.2020
5493 Clouds 26 1017 88 10000 1.5 100 07:41 14.11.2020
5494 Clouds 26 1017 88 10000 1.5 90 06:43 14.11.2020
5495 Clouds 26 1017 88 10000 1.5 90 06:20 14.11.2020
5496 Clouds 26 1018 88 10000 1.5 90 04:53 14.11.2020
5497 Clouds 27 1016 78 10000 2.1 100 01:48 14.11.2020
5498 Clouds 27 1016 83 10000 2.6 130 00:25 14.11.2020
5499 Clouds 28 1015 74 10000 3.6 140 23:33 13.11.2020
5500 Clouds 28 1015 74 10000 4.1 150 22:58 13.11.2020
5501 Clouds 28 1015 74 10000 4.1 150 22:39 13.11.2020
5502 Clouds 29 1015 70 10000 5.1 140 22:20 13.11.2020
5503 Clouds 29 1015 70 10000 5.1 140 21:44 13.11.2020
5504 Clouds 29 1015 70 10000 5.1 140 21:23 13.11.2020
5505 Clouds 29 1016 74 10000 4.6 140 20:51 13.11.2020
5506 Clouds 29 1016 74 10000 4.6 140 20:32 13.11.2020
5507 Clouds 29 1016 70 10000 5.1 150 19:54 13.11.2020
5508 Clouds 29 1016 70 10000 5.1 150 19:36 13.11.2020
5509 Clouds 29 1017 70 10000 5.1 140 19:18 13.11.2020
5510 Clouds 29 1017 70 10000 5.1 140 18:32 13.11.2020
5511 Clouds 30 1017 66 10000 5.7 140 17:43 13.11.2020
5512 Clouds 29 1018 70 10000 3.6 150 17:21 13.11.2020
5513 Clouds 29 1018 70 10000 3.6 150 16:51 13.11.2020
5514 Clouds 29 1018 70 10000 3.6 150 16:25 13.11.2020
5515 Clouds 28 1017 74 10000 4.6 150 15:58 13.11.2020
5516 Clouds 28 1017 74 10000 4.6 150 15:33 13.11.2020
5517 Clear 28 1016 78 10000 3.1 150 14:55 13.11.2020
5518 Clear 28 1016 78 10000 3.1 150 14:36 13.11.2020
5519 Clear 25 1016 94 10000 2.6 150 14:18 13.11.2020
5520 Clear 25 1016 94 10000 2.6 150 14:18 13.11.2020
5521 Clear 25 1016 94 10000 2.6 150 14:18 13.11.2020
5522 Clear 25 1016 94 10000 2.6 150 13:31 13.11.2020
5523 Clear 25 1015 94 10000 2.6 160 12:52 13.11.2020
5524 Clear 25 1015 94 10000 2.6 160 12:27 13.11.2020
5525 Clear 25 1015 94 10000 1.5 170 11:58 13.11.2020
5526 Clear 25 1015 94 10000 1.5 170 11:39 13.11.2020
5527 Clear 24 1015 100 10000 3.1 150 11:19 13.11.2020
5528 Clear 24 1015 100 10000 3.1 150 10:41 13.11.2020
5529 Clear 24 1015 100 10000 3.1 150 10:22 13.11.2020
5530 Clear 25 1014 94 10000 3.1 160 09:47 13.11.2020
5531 Clear 25 1014 94 10000 3.1 160 09:25 13.11.2020
5532 Clear 25 1014 94 10000 3.1 160 09:25 13.11.2020
5533 Clear 25 1015 94 10000 2.1 170 08:52 13.11.2020
5534 Clear 25 1015 94 10000 2.1 170 08:22 13.11.2020
5535 Clouds 25 1015 94 10000 2.1 160 07:48 13.11.2020
5536 Clouds 25 1015 94 10000 2.1 160 07:27 13.11.2020
5537 Clouds 26 1016 88 10000 2.6 160 06:50 13.11.2020
5538 Clouds 26 1016 88 10000 3.6 150 06:20 13.11.2020
5539 Clouds 26 1016 88 10000 3.6 150 05:39 13.11.2020
5540 Clouds 26 1016 88 10000 1.5 180 02:22 13.11.2020
5541 Clouds 26 1015 88 10000 1.5 180 01:36 13.11.2020
5542 Clouds 26 1014 88 10000 2.1 170 00:34 13.11.2020
5543 Clouds 27 1014 78 10000 5.1 160 23:43 12.11.2020
5544 Clouds 28 1014 74 10000 6.2 170 23:20 12.11.2020
5545 Clouds 28 1014 74 10000 6.2 170 22:52 12.11.2020
5546 Clouds 28 1014 74 10000 6.2 170 22:33 12.11.2020
5547 Clouds 29 1014 74 10000 6.2 160 21:56 12.11.2020
5548 Clouds 29 1014 74 10000 6.2 160 21:37 12.11.2020
5549 Clouds 29 1014 74 10000 6.2 160 21:37 12.11.2020
5550 Clouds 28 1014 74 10000 5.7 170 21:18 12.11.2020
5551 Clouds 28 1014 74 10000 5.7 170 20:40 12.11.2020
5552 Clouds 28 1015 74 10000 6.2 180 20:21 12.11.2020
5553 Clouds 28 1015 74 10000 6.2 180 19:49 12.11.2020
5554 Clouds 28 1015 74 10000 6.2 180 19:31 12.11.2020
5555 Clouds 29 1015 74 10000 7.7 150 18:52 12.11.2020
5556 Clouds 29 1015 74 10000 7.7 150 18:24 12.11.2020
5557 Clouds 28 1016 74 10000 7.2 160 17:55 12.11.2020
5558 Clouds 28 1016 74 10000 7.2 160 17:30 12.11.2020
5559 Clouds 28 1016 74 10000 7.7 160 16:58 12.11.2020
5560 Clouds 28 1016 74 10000 7.7 160 16:39 12.11.2020
5561 Clouds 28 1016 78 10000 5.7 180 16:21 12.11.2020
5562 Clouds 28 1016 78 10000 5.7 180 15:42 12.11.2020
5563 Clouds 28 1016 78 10000 5.7 180 15:23 12.11.2020
5564 Clouds 27 1016 78 10000 4.6 170 14:46 12.11.2020
5565 Clouds 27 1016 78 10000 4.6 170 14:26 12.11.2020
5566 Clouds 26 1015 83 10000 4.6 170 13:55 12.11.2020
5567 Clouds 26 1015 83 10000 4.6 170 13:37 12.11.2020
5568 Clouds 26 1015 88 10000 3.6 160 13:18 12.11.2020
5569 Clouds 26 1015 88 10000 3.6 160 12:42 12.11.2020
5570 Clouds 26 1014 83 10000 4.1 150 12:19 12.11.2020
5571 Clouds 26 1014 83 10000 4.1 150 11:47 12.11.2020
5572 Clouds 26 1014 83 10000 4.1 150 11:27 12.11.2020
5573 Clouds 26 1014 83 10000 5.7 160 10:41 12.11.2020
5574 Clouds 26 1014 83 10000 5.7 160 10:23 12.11.2020
5575 Clouds 26 1014 83 10000 6.2 150 09:47 12.11.2020
5576 Clouds 26 1014 83 10000 6.2 150 09:23 12.11.2020
5577 Clouds 26 1014 79 10000 10.08 129 08:57 12.11.2020
5578 Clouds 26 1015 83 10000 5.1 160 08:39 12.11.2020
5579 Clouds 26 1015 83 10000 5.1 160 08:39 12.11.2020
5580 Clouds 26 1015 83 10000 5.1 160 08:19 12.11.2020
5581 Clouds 26 1015 83 10000 5.1 160 07:42 12.11.2020
5582 Clouds 26 1015 83 10000 5.1 160 07:19 12.11.2020
5583 Clouds 26 1016 83 10000 5.7 160 06:49 12.11.2020
5584 Clouds 26 1016 88 10000 4.1 150 05:23 12.11.2020
5585 Clouds 24 1016 94 3400 5.7 200 03:21 12.11.2020
5586 Clouds 26 1015 94 10000 5.1 150 01:33 12.11.2020
5587 Clouds 25 1014 94 10000 5.7 180 23:58 11.11.2020
5588 Clouds 25 1014 94 10000 5.7 180 23:25 11.11.2020
5589 Clouds 25 1014 94 8000 7.2 170 22:58 11.11.2020
5590 Clouds 25 1014 94 8000 7.2 170 22:39 11.11.2020
5591 Clouds 24 1014 100 6000 6.7 170 22:19 11.11.2020
5592 Clouds 25 1014 94 3200 6.7 160 21:41 11.11.2020
5593 Clouds 25 1014 94 3200 6.7 160 21:23 11.11.2020
5594 Rain 28 1014 78 10000 8.2 170 20:57 11.11.2020
5595 Rain 28 1014 78 10000 8.2 170 20:39 11.11.2020
5596 Rain 26 1014 88 10000 8.7 170 20:20 11.11.2020
5597 Rain 26 1014 88 10000 8.7 170 19:48 11.11.2020
5598 Clouds 28 1015 78 10000 7.2 170 19:30 11.11.2020
5599 Clouds 28 1015 78 10000 7.2 170 18:50 11.11.2020
5600 Clouds 28 1015 78 10000 7.2 170 18:31 11.11.2020
5601 Clouds 29 1015 79 10000 7.7 150 17:42 11.11.2020
5602 Clouds 29 1016 79 10000 8.2 160 17:22 11.11.2020
5603 Clouds 29 1016 79 10000 8.2 160 16:50 11.11.2020
5604 Clouds 29 1016 79 10000 8.2 160 16:32 11.11.2020
5605 Rain 28 1015 83 10000 7.7 150 15:50 11.11.2020
5606 Rain 28 1015 83 10000 7.7 150 15:27 11.11.2020
5607 Clouds 27 1015 83 10000 6.2 160 14:55 11.11.2020
5608 Clouds 27 1015 83 10000 6.2 160 14:35 11.11.2020
5609 Clouds 26 1014 88 10000 5.7 150 13:56 11.11.2020
5610 Clouds 26 1014 88 10000 5.7 150 13:33 11.11.2020
5611 Clouds 26 1014 88 10000 5.7 150 13:33 11.11.2020
5612 Clouds 26 1014 88 10000 5.7 160 12:42 11.11.2020
5613 Clouds 26 1013 88 10000 6.2 160 12:20 11.11.2020
5614 Clouds 26 1013 88 10000 6.2 160 11:49 11.11.2020
5615 Clouds 26 1013 88 10000 6.2 160 11:29 11.11.2020
5616 Clouds 26 1013 88 10000 6.2 160 10:41 11.11.2020
5617 Clouds 26 1013 88 10000 6.2 160 10:22 11.11.2020
5618 Clouds 26 1013 88 10000 6.2 160 09:46 11.11.2020
5619 Clouds 26 1013 88 10000 6.2 160 09:28 11.11.2020
5620 Clouds 26 1013 94 10000 5.7 150 08:46 11.11.2020
5621 Clouds 26 1013 94 10000 5.7 150 08:27 11.11.2020
5622 Clouds 27 1014 88 10000 6.7 140 07:49 11.11.2020
5623 Clouds 27 1014 88 10000 6.7 150 07:18 11.11.2020
5624 Clouds 27 1014 88 10000 6.7 150 06:26 11.11.2020
5625 Clouds 27 1014 94 10000 5.1 150 04:30 11.11.2020
5626 Clouds 27 1012 88 10000 4.6 150 01:31 11.11.2020
5627 Clouds 28 1012 83 10000 5.7 160 00:28 11.11.2020
5628 Clear 27 1012 88 10000 5.1 160 23:49 10.11.2020
5629 Clear 27 1012 88 10000 5.1 160 23:24 10.11.2020
5630 Clouds 28 1012 83 10000 6.7 150 22:57 10.11.2020
5631 Clouds 28 1012 83 10000 6.7 150 22:27 10.11.2020
5632 Clouds 29 1011 79 10000 8.2 140 21:44 10.11.2020
5633 Clouds 29 1011 79 10000 8.2 140 21:25 10.11.2020
5634 Clouds 28 1012 83 10000 8.2 150 20:59 10.11.2020
5635 Clouds 28 1012 83 10000 8.2 150 20:41 10.11.2020
5636 Clouds 28 1012 83 10000 8.2 150 20:22 10.11.2020
5637 Clouds 28 1012 83 10000 8.2 160 19:47 10.11.2020
5638 Clouds 28 1012 83 10000 8.2 160 19:28 10.11.2020
5639 Clouds 29 1013 79 10000 8.7 150 18:58 10.11.2020
5640 Clouds 29 1013 79 10000 8.7 150 18:39 10.11.2020
5641 Clouds 29 1013 83 10000 8.7 150 18:18 10.11.2020
5642 Clouds 29 1013 83 10000 8.7 150 17:43 10.11.2020
5643 Clouds 29 1013 83 10000 8.7 150 17:25 10.11.2020
5644 Clouds 29 1014 79 10000 8.7 150 16:44 10.11.2020
5645 Clouds 29 1014 79 10000 8.7 150 16:24 10.11.2020
5646 Clouds 28 1014 83 10000 8.2 150 15:56 10.11.2020
5647 Clouds 28 1014 83 10000 8.2 150 15:37 10.11.2020
5648 Clouds 28 1013 83 10000 7.2 140 15:19 10.11.2020
5649 Clouds 28 1013 83 10000 7.2 140 14:41 10.11.2020
5650 Clouds 27 1012 88 10000 5.7 150 14:21 10.11.2020
5651 Clouds 27 1012 88 10000 5.7 150 13:41 10.11.2020
5652 Clouds 27 1012 88 10000 6.7 140 13:22 10.11.2020
5653 Clouds 27 1012 88 10000 6.7 140 12:56 10.11.2020
5654 Clouds 27 1012 88 10000 6.7 140 12:38 10.11.2020
5655 Clouds 27 1012 88 10000 6.2 140 12:19 10.11.2020
5656 Clouds 27 1012 88 10000 6.2 140 11:38 10.11.2020
5657 Clouds 27 1011 88 10000 6.7 140 11:19 10.11.2020
5658 Clouds 27 1011 88 10000 6.7 140 10:42 10.11.2020
5659 Clouds 27 1011 88 10000 6.7 140 10:23 10.11.2020
5660 Clouds 27 1011 88 10000 7.2 140 09:47 10.11.2020
5661 Clouds 27 1011 88 10000 7.2 140 09:26 10.11.2020
5662 Clouds 27 1011 88 10000 6.7 130 08:57 10.11.2020
5663 Clouds 27 1011 88 10000 6.7 130 08:29 10.11.2020
5664 Clouds 27 1012 88 10000 5.7 130 07:47 10.11.2020
5665 Clouds 27 1012 88 10000 5.7 130 07:26 10.11.2020
5666 Clouds 27 1012 88 10000 5.7 130 06:42 10.11.2020
5667 Clouds 27 1012 88 10000 5.7 130 05:56 10.11.2020
5668 Clouds 27 1012 88 10000 5.7 130 05:24 10.11.2020
5669 Clouds 27 1012 88 10000 6.2 130 02:48 10.11.2020
5670 Clouds 27 1011 88 10000 6.7 130 01:32 10.11.2020
5671 Clouds 27 1011 88 10000 5.7 130 00:23 10.11.2020
5672 Clouds 27 1010 88 10000 8.2 140 23:38 09.11.2020
5673 Clouds 28 1009 83 10000 8.7 150 22:54 09.11.2020
5674 Clouds 28 1009 83 10000 8.7 150 22:36 09.11.2020
5675 Clouds 28 1009 78 10000 9.8 140 22:18 09.11.2020
5676 Clouds 28 1009 78 10000 9.8 140 21:39 09.11.2020
5677 Clouds 28 1009 83 10000 8.2 140 21:19 09.11.2020
5678 Clouds 28 1009 83 10000 8.2 140 20:39 09.11.2020
5679 Clouds 29 1010 74 10000 9.3 140 20:21 09.11.2020
5680 Rain 29 1010 74 10000 9.3 140 19:42 09.11.2020
5681 Clouds 29 1010 74 10000 9.3 140 19:22 09.11.2020
5682 Clouds 29 1010 74 10000 10.3 150 18:46 09.11.2020
5683 Clouds 29 1010 74 10000 9.3 150 18:21 09.11.2020
5684 Clouds 29 1010 74 10000 9.3 150 17:57 09.11.2020
5685 Clouds 29 1010 74 10000 9.3 150 17:38 09.11.2020
5686 Clouds 28 1011 78 10000 10.3 140 17:20 09.11.2020
5687 Clouds 26 1011 83 9000 7.2 120 16:37 09.11.2020
5688 Clouds 26 1011 83 9000 7.2 120 16:18 09.11.2020
5689 Clouds 26 1011 83 9000 7.2 120 15:41 09.11.2020
5690 Clouds 25 1011 88 9000 9.8 110 15:20 09.11.2020
5691 Clouds 25 1011 88 9000 9.8 110 14:44 09.11.2020
5692 Clouds 25 1011 88 9000 9.8 110 14:25 09.11.2020
5693 Rain 24 1010 94 10000 8.7 110 13:46 09.11.2020
5694 Clouds 25 1009 94 10000 3.1 110 13:20 09.11.2020
5695 Clouds 25 1009 94 10000 3.1 110 12:47 09.11.2020
5696 Rain 25 1009 94 10000 3.1 110 12:25 09.11.2020
5697 Thunderstorm 26 1008 88 10000 4.1 130 11:56 09.11.2020
5698 Thunderstorm 26 1008 88 10000 4.1 130 11:37 09.11.2020
5699 Clouds 26 1008 88 10000 5.7 140 11:18 09.11.2020
5700 Clouds 26 1008 88 10000 5.7 140 10:42 09.11.2020
5701 Clouds 26 1008 88 10000 5.7 140 10:23 09.11.2020
5702 Clouds 26 1008 88 10000 6.7 150 09:45 09.11.2020
5703 Clouds 26 1008 88 10000 6.7 150 09:23 09.11.2020
5704 Clouds 26 1008 88 10000 7.2 140 08:39 09.11.2020
5705 Thunderstorm 26 1008 88 10000 7.7 150 08:19 09.11.2020
5706 Thunderstorm 26 1008 88 10000 7.7 150 07:39 09.11.2020
5707 Clouds 26 1008 88 10000 8.7 140 07:19 09.11.2020
5708 Clouds 26 1008 88 10000 8.7 140 06:23 09.11.2020
5709 Clouds 26 1007 88 10000 10.3 140 03:19 09.11.2020
5710 Clouds 27 1008 81 10000 15.82 122 01:43 09.11.2020
5711 Rain 26 1006 88 10000 10.3 120 00:58 09.11.2020
5712 Clouds 26 1005 83 7021 15.83 124 23:51 08.11.2020
5713 Clouds 26 1006 88 10000 10.8 120 23:29 08.11.2020
5714 Rain 26 1006 88 10000 10.8 120 22:46 08.11.2020
5715 Clouds 26 1006 88 10000 10.8 120 22:22 08.11.2020
5716 Clouds 25 1006 94 10000 9.8 120 21:54 08.11.2020
5717 Clouds 25 1006 94 10000 9.8 120 21:36 08.11.2020
5718 Clouds 24 1006 100 2200 9.8 120 21:18 08.11.2020
5719 Clouds 24 1006 100 2200 9.8 120 20:39 08.11.2020
5720 Rain 25 1006 94 10000 8.7 110 20:20 08.11.2020
5721 Rain 25 1006 94 10000 8.7 110 19:56 08.11.2020
5722 Rain 25 1006 94 10000 8.7 110 19:37 08.11.2020
5723 Clouds 25 1008 88 10000 8.7 110 19:18 08.11.2020
5724 Clouds 25 1008 88 10000 8.7 110 18:45 08.11.2020
5725 Clouds 24 1009 94 8000 8.2 110 18:21 08.11.2020
5726 Clouds 24 1009 94 8000 8.2 110 17:57 08.11.2020
5727 Clouds 24 1009 94 8000 8.2 110 17:36 08.11.2020
5728 Rain 24 1009 94 1700 9.8 110 17:18 08.11.2020
5729 Rain 24 1009 94 1700 9.8 110 16:39 08.11.2020
5730 Rain 24 1009 94 4200 7.7 100 16:21 08.11.2020
5731 Rain 24 1009 94 4200 7.7 100 15:50 08.11.2020
5732 Rain 24 1009 94 4200 7.7 100 15:28 08.11.2020
5733 Rain 24 1009 94 6000 7.7 100 14:44 08.11.2020
5734 Rain 24 1009 94 6000 7.7 100 14:24 08.11.2020
5735 Rain 24 1008 94 10000 5.7 100 13:57 08.11.2020
5736 Rain 24 1008 94 10000 5.7 100 13:39 08.11.2020
5737 Rain 24 1008 94 10000 6.2 100 13:20 08.11.2020
5738 Rain 24 1008 94 10000 6.2 100 12:41 08.11.2020
5739 Clouds 24 1008 94 10000 6.2 100 12:23 08.11.2020
5740 Rain 24 1008 94 10000 7.2 110 11:56 08.11.2020
5741 Rain 24 1008 94 10000 7.2 110 11:38 08.11.2020
5742 Rain 24 1008 94 10000 7.2 90 11:19 08.11.2020
5743 Rain 24 1008 94 10000 7.2 90 10:47 08.11.2020
5744 Rain 24 1008 94 10000 5.7 100 10:18 08.11.2020
5745 Rain 24 1008 94 10000 5.7 100 09:42 08.11.2020
5746 Rain 24 1008 94 10000 5.7 100 09:24 08.11.2020
5747 Rain 24 1009 94 10000 5.1 100 08:47 08.11.2020
5748 Rain 24 1009 94 10000 5.1 100 08:27 08.11.2020
5749 Clouds 24 1010 94 10000 6.2 90 07:53 08.11.2020
5750 Rain 24 1010 94 10000 6.2 90 07:33 08.11.2020
5751 Rain 24 1011 94 10000 5.1 100 06:45 08.11.2020
5752 Clouds 24 1011 94 9000 6.2 120 05:55 08.11.2020
5753 Rain 24 1012 88 7000 9.8 120 04:54 08.11.2020
5754 Rain 23 1012 94 6000 5.7 120 03:27 08.11.2020
5755 Rain 24 1011 88 10000 5.1 120 01:20 08.11.2020
5756 Rain 24 1011 88 10000 5.1 120 00:49 08.11.2020
5757 Rain 24 1011 88 10000 4.6 120 00:20 08.11.2020
5758 Rain 24 1011 88 10000 4.6 120 23:40 07.11.2020
5759 Rain 24 1011 88 10000 4.6 120 23:22 07.11.2020
5760 Clouds 22 1012 100 600 7.2 130 22:40 07.11.2020
5761 Clouds 22 1012 100 600 7.2 130 22:21 07.11.2020
5762 Clouds 27 1011 78 10000 6.7 100 21:44 07.11.2020
5763 Clouds 27 1011 78 10000 7.2 110 21:21 07.11.2020
5764 Clouds 27 1011 78 10000 7.2 110 20:48 07.11.2020
5765 Clouds 27 1011 78 10000 7.2 110 20:30 07.11.2020
5766 Clouds 27 1012 74 10000 6.7 110 19:50 07.11.2020
5767 Clouds 27 1012 74 10000 6.7 110 19:28 07.11.2020
5768 Clouds 27 1013 78 10000 7.2 100 18:45 07.11.2020
5769 Clouds 27 1013 78 10000 7.2 100 18:27 07.11.2020
5770 Clouds 27 1014 78 10000 5.7 100 17:59 07.11.2020
5771 Clouds 27 1014 78 10000 5.7 100 17:37 07.11.2020
5772 Clouds 26 1014 78 10000 6.2 100 16:57 07.11.2020
5773 Clouds 26 1014 78 10000 6.2 100 16:39 07.11.2020
5774 Clouds 26 1014 78 10000 6.7 110 16:20 07.11.2020
5775 Clouds 26 1014 78 10000 6.7 110 15:42 07.11.2020
5776 Clouds 26 1014 78 10000 6.7 110 15:22 07.11.2020
5777 Clouds 26 1013 78 10000 5.1 100 14:48 07.11.2020
5778 Clouds 26 1013 78 10000 5.1 100 14:29 07.11.2020
5779 Clouds 26 1013 83 10000 4.6 100 13:56 07.11.2020
5780 Clouds 26 1013 83 10000 4.6 100 13:31 07.11.2020
5781 Clouds 26 1012 78 10000 5.1 90 12:52 07.11.2020
5782 Clouds 26 1012 78 10000 5.1 90 12:25 07.11.2020
5783 Clouds 26 1012 78 10000 5.1 90 11:43 07.11.2020
5784 Clouds 26 1012 78 10000 5.1 90 11:22 07.11.2020
5785 Clouds 25 1012 83 10000 4.6 100 10:45 07.11.2020
5786 Clouds 25 1012 83 10000 4.6 100 10:27 07.11.2020
5787 Clouds 26 1013 74 10000 5.7 90 09:53 07.11.2020
5788 Clouds 26 1013 74 10000 5.7 90 09:34 07.11.2020
5789 Clouds 26 1013 74 10000 5.1 90 08:53 07.11.2020
5790 Clouds 26 1013 74 10000 5.1 90 08:35 07.11.2020
5791 Clouds 26 1014 78 10000 5.1 100 07:51 07.11.2020
5792 Clouds 26 1014 78 10000 7.2 100 07:19 07.11.2020
5793 Clouds 26 1014 78 10000 7.2 100 06:47 07.11.2020
5794 Clouds 26 1015 83 10000 6.2 100 05:23 07.11.2020
5795 Clouds 25 1014 78 10000 5.1 110 03:23 07.11.2020
5796 Clouds 24 1014 88 10000 5.7 100 01:28 07.11.2020
5797 Rain 25 1014 83 10000 4.6 110 00:43 07.11.2020
5798 Clouds 26 1013 78 10000 5.7 100 23:50 06.11.2020
5799 Clouds 28 1013 69 10000 6.7 90 23:20 06.11.2020
5800 Clouds 28 1013 69 10000 6.7 90 22:41 06.11.2020
5801 Clouds 27 1013 78 10000 5.1 110 22:19 06.11.2020
5802 Clouds 27 1013 78 10000 5.1 110 21:45 06.11.2020
5803 Clouds 27 1013 78 10000 5.1 110 21:21 06.11.2020
5804 Clouds 28 1013 69 10000 7.2 100 20:52 06.11.2020
5805 Clouds 28 1013 69 10000 7.2 100 20:22 06.11.2020
5806 Clouds 29 1014 62 10000 8.2 100 19:56 06.11.2020
5807 Clouds 29 1014 62 10000 8.2 100 19:38 06.11.2020
5808 Clouds 29 1014 62 10000 8.2 100 19:19 06.11.2020
5809 Clouds 29 1015 62 10000 6.7 90 18:45 06.11.2020
5810 Clouds 29 1015 62 10000 6.7 90 18:23 06.11.2020
5811 Clouds 28 1016 69 10000 7.7 110 17:51 06.11.2020
5812 Clouds 28 1016 69 10000 7.7 110 17:25 06.11.2020
5813 Clouds 28 1016 69 10000 6.2 100 16:49 06.11.2020
5814 Clouds 28 1016 69 10000 6.2 100 16:27 06.11.2020
5815 Clouds 27 1016 74 10000 6.7 100 15:49 06.11.2020
5816 Clouds 27 1016 74 10000 6.7 100 15:28 06.11.2020
5817 Clouds 26 1016 78 10000 5.1 100 14:53 06.11.2020
5818 Clouds 26 1016 78 10000 5.1 100 14:25 06.11.2020
5819 Clouds 24 1015 88 10000 3.1 100 13:45 06.11.2020
5820 Clouds 24 1015 88 10000 3.1 100 13:23 06.11.2020
5821 Clouds 24 1015 88 10000 3.1 100 12:45 06.11.2020
5822 Clouds 24 1015 88 10000 3.1 100 12:23 06.11.2020
5823 Clouds 25 1015 88 10000 3.1 90 11:46 06.11.2020
5824 Clouds 25 1015 88 10000 3.1 90 11:27 06.11.2020
5825 Clouds 25 1015 88 10000 3.1 100 10:41 06.11.2020
5826 Clouds 25 1015 88 10000 3.1 100 10:23 06.11.2020
5827 Clouds 25 1015 83 10000 4.1 100 09:48 06.11.2020
5828 Clouds 25 1015 83 10000 4.1 90 09:21 06.11.2020
5829 Clouds 25 1015 83 10000 4.1 90 08:50 06.11.2020
5830 Clouds 25 1015 83 10000 4.1 90 08:28 06.11.2020
5831 Clouds 25 1016 88 10000 3.1 100 07:49 06.11.2020
5832 Clouds 25 1016 88 10000 3.1 100 07:30 06.11.2020
5833 Clouds 25 1016 88 10000 3.6 90 06:57 06.11.2020
5834 Clouds 25 1017 88 10000 4.1 100 05:44 06.11.2020
5835 Clouds 25 1017 83 10000 4.6 100 03:46 06.11.2020
5836 Clouds 25 1017 83 10000 5.1 100 00:49 06.11.2020
5837 Clouds 25 1017 78 10000 5.1 100 00:19 06.11.2020
5838 Clouds 25 1017 78 10000 5.1 100 23:30 05.11.2020
5839 Clouds 26 1016 78 10000 6.7 90 22:57 05.11.2020
5840 Clouds 26 1016 78 10000 6.7 90 22:37 05.11.2020
5841 Clouds 26 1017 74 10000 6.7 90 22:18 05.11.2020
5842 Clouds 26 1017 74 10000 6.7 90 21:42 05.11.2020
5843 Clouds 26 1017 74 10000 6.7 90 21:42 05.11.2020
5844 Clouds 26 1017 74 10000 6.7 90 21:21 05.11.2020
5845 Clouds 27 1017 69 10000 8.7 90 20:48 05.11.2020
5846 Clouds 27 1017 69 10000 8.7 90 20:28 05.11.2020
5847 Clouds 28 1017 69 10000 7.7 100 19:59 05.11.2020
5848 Clouds 28 1017 69 10000 7.7 100 19:40 05.11.2020
5849 Clouds 28 1017 69 10000 7.7 100 19:22 05.11.2020
5850 Clouds 27 1018 78 10000 9.3 100 18:42 05.11.2020
5851 Clouds 27 1018 78 10000 9.3 100 18:24 05.11.2020
5852 Clouds 27 1019 74 10000 8.2 100 17:52 05.11.2020
5853 Clouds 27 1019 74 10000 8.2 100 17:27 05.11.2020
5854 Clouds 27 1019 74 10000 8.2 100 16:53 05.11.2020
5855 Clouds 27 1019 74 10000 8.2 100 16:29 05.11.2020
5856 Clouds 26 1019 78 10000 6.2 100 15:57 05.11.2020
5857 Clouds 26 1019 78 10000 6.2 100 15:39 05.11.2020
5858 Clouds 26 1019 83 10000 5.7 100 15:20 05.11.2020
5859 Clouds 26 1019 83 10000 5.7 100 14:44 05.11.2020
5860 Clouds 26 1019 83 10000 5.7 100 14:24 05.11.2020
5861 Clouds 25 1018 88 10000 5.1 90 13:41 05.11.2020
5862 Clouds 25 1018 88 10000 5.1 90 13:23 05.11.2020
5863 Clouds 25 1018 88 10000 5.1 90 13:23 05.11.2020
5864 Clouds 25 1018 83 10000 4.1 100 12:45 05.11.2020
5865 Clouds 25 1018 83 10000 4.1 100 12:23 05.11.2020
5866 Clouds 24 1018 88 10000 2.6 100 11:46 05.11.2020
5867 Clouds 24 1018 88 10000 2.6 100 11:25 05.11.2020
5868 Clouds 23 1018 94 10000 3.6 120 10:52 05.11.2020
5869 Clouds 23 1018 94 10000 3.6 120 10:28 05.11.2020
5870 Clouds 25 1018 83 10000 6.7 110 09:53 05.11.2020
5871 Rain 25 1018 83 10000 6.7 110 09:25 05.11.2020
5872 Clouds 24 1019 88 10000 5.1 100 08:59 05.11.2020
5873 Clouds 24 1019 88 10000 5.1 100 08:41 05.11.2020
5874 Clouds 24 1019 88 10000 5.1 100 08:23 05.11.2020
5875 Clouds 25 1019 88 10000 7.7 100 07:29 05.11.2020
5876 Clouds 25 1020 88 10000 6.2 100 06:51 05.11.2020
5877 Clouds 25 1020 88 10000 6.2 100 06:32 05.11.2020
5878 Clouds 26 1020 78 10000 7.7 90 03:45 05.11.2020
5879 Clouds 25 1019 83 10000 7.2 80 00:45 05.11.2020
5880 Clouds 26 1019 74 10000 8.2 90 00:20 05.11.2020
5881 Clouds 26 1019 74 10000 8.2 90 23:43 04.11.2020
5882 Clouds 26 1019 74 10000 8.2 90 23:24 04.11.2020
5883 Clouds 26 1019 78 10000 7.7 90 22:42 04.11.2020
5884 Clouds 26 1019 78 10000 7.7 90 22:22 04.11.2020
5885 Clouds 27 1019 69 10000 7.7 80 22:22 04.11.2020
5886 Clouds 27 1019 69 10000 7.7 80 21:47 04.11.2020
5887 Clouds 27 1019 69 10000 7.7 80 21:27 04.11.2020
5888 Clouds 28 1019 65 10000 9.3 80 20:54 04.11.2020
5889 Clouds 28 1019 65 10000 9.3 80 20:35 04.11.2020
5890 Clouds 28 1019 65 10000 9.3 80 20:35 04.11.2020
5891 Clouds 28 1019 65 10000 9.8 80 19:59 04.11.2020
5892 Clouds 28 1019 65 10000 9.8 80 19:40 04.11.2020
5893 Clouds 28 1019 65 10000 9.8 80 19:40 04.11.2020
5894 Clouds 28 1019 65 10000 9.8 80 19:22 04.11.2020
5895 Clouds 28 1020 65 10000 8.7 80 18:41 04.11.2020
5896 Clouds 27 1021 65 10000 9.8 90 18:22 04.11.2020
5897 Clouds 27 1021 65 10000 9.8 90 17:47 04.11.2020
5898 Clouds 27 1021 65 10000 9.8 90 17:27 04.11.2020
5899 Clouds 27 1021 65 10000 8.7 90 16:46 04.11.2020
5900 Clouds 27 1021 65 10000 8.7 90 16:27 04.11.2020
5901 Clouds 27 1020 65 10000 8.2 90 15:59 04.11.2020
5902 Clouds 27 1020 65 10000 8.2 90 15:40 04.11.2020
5903 Clouds 26 1020 65 10000 9.3 90 15:20 04.11.2020
5904 Clouds 26 1020 65 10000 9.3 90 14:44 04.11.2020
5905 Clouds 26 1020 65 10000 9.3 90 14:24 04.11.2020
5906 Clouds 26 1019 65 10000 7.7 90 13:51 04.11.2020
5907 Clouds 26 1019 65 10000 7.7 90 13:21 04.11.2020
5908 Clouds 26 1019 61 10000 7.2 80 12:57 04.11.2020
5909 Clouds 26 1019 61 10000 7.2 80 12:39 04.11.2020
5910 Clouds 26 1018 61 10000 7.2 80 12:21 04.11.2020
5911 Clouds 26 1018 61 10000 7.2 80 11:44 04.11.2020
5912 Clouds 25 1018 65 10000 8.2 70 11:21 04.11.2020
5913 Clouds 25 1018 65 10000 8.2 70 10:48 04.11.2020
5914 Clouds 25 1018 65 10000 8.2 70 10:23 04.11.2020
5915 Clouds 25 1018 65 10000 7.7 70 09:55 04.11.2020
5916 Clouds 25 1018 75 10000 12.39 57 09:27 04.11.2020
5917 Clouds 25 1018 75 10000 12.39 57 08:47 04.11.2020
5918 Clouds 25 1019 65 10000 6.2 80 08:22 04.11.2020
5919 Clouds 25 1019 65 10000 6.2 80 07:56 04.11.2020
5920 Clouds 25 1019 65 10000 6.2 80 07:30 04.11.2020
5921 Clouds 25 1020 61 10000 6.2 90 06:56 04.11.2020
5922 Clouds 25 1020 61 10000 6.2 90 06:37 04.11.2020
5923 Clouds 25 1020 61 10000 6.2 90 06:37 04.11.2020
5924 Clouds 25 1020 61 10000 7.2 80 04:18 04.11.2020
5925 Clouds 25 1019 61 10000 8.2 80 02:28 04.11.2020
5926 Clouds 25 1019 61 10000 7.7 80 00:57 04.11.2020
5927 Clouds 25 1018 65 10000 7.2 80 23:48 03.11.2020
5928 Clouds 25 1018 65 10000 7.2 80 23:24 03.11.2020
5929 Clouds 25 1017 78 10000 12.5 61 22:42 03.11.2020
5930 Clouds 26 1018 61 10000 8.2 70 22:21 03.11.2020
5931 Clouds 26 1018 61 10000 8.2 70 21:59 03.11.2020
5932 Clouds 26 1018 61 10000 8.2 70 21:40 03.11.2020
5933 Clouds 26 1018 61 10000 8.2 70 21:21 03.11.2020
5934 Clouds 26 1018 61 10000 9.3 80 20:45 03.11.2020
5935 Clouds 26 1018 61 10000 9.3 80 20:26 03.11.2020
5936 Clouds 26 1018 61 10000 9.8 80 19:44 03.11.2020
5937 Clouds 26 1018 61 10000 9.8 80 19:23 03.11.2020
5938 Clouds 26 1018 61 10000 9.8 80 19:23 03.11.2020
5939 Clouds 26 1019 61 10000 9.8 70 18:46 03.11.2020
5940 Clouds 26 1020 57 10000 8.2 80 18:21 03.11.2020
5941 Clouds 26 1020 57 10000 8.2 80 17:59 03.11.2020
5942 Clouds 26 1020 57 10000 8.2 80 17:41 03.11.2020
5943 Clouds 25 1020 65 10000 8.7 80 17:22 03.11.2020
5944 Clouds 25 1020 65 10000 8.7 80 16:45 03.11.2020
5945 Clouds 25 1020 65 10000 8.7 80 16:45 03.11.2020
5946 Clouds 25 1020 65 10000 8.7 80 16:23 03.11.2020
5947 Clouds 25 1020 61 10000 8.7 80 15:46 03.11.2020
5948 Clouds 25 1020 61 10000 8.7 80 15:25 03.11.2020
5949 Clouds 24 1019 64 10000 9.3 80 14:52 03.11.2020
5950 Clouds 24 1019 64 10000 9.3 80 14:33 03.11.2020
5951 Clouds 24 1018 69 10000 8.7 70 13:46 03.11.2020
5952 Clouds 24 1018 69 10000 8.7 70 13:23 03.11.2020
5953 Clouds 24 1018 69 10000 9.3 70 12:59 03.11.2020
5954 Clouds 24 1018 69 10000 9.3 70 12:37 03.11.2020
5955 Clouds 24 1017 69 10000 11.3 60 12:19 03.11.2020
5956 Clouds 24 1017 69 10000 11.3 60 11:41 03.11.2020
5957 Clouds 24 1017 69 10000 9.8 70 11:20 03.11.2020
5958 Clouds 24 1017 69 10000 9.8 70 11:20 03.11.2020
5959 Clouds 24 1017 69 10000 9.8 70 10:39 03.11.2020
5960 Clouds 24 1017 69 10000 9.3 70 10:21 03.11.2020
5961 Clouds 24 1017 69 10000 9.3 70 09:51 03.11.2020
5962 Clouds 24 1017 69 10000 9.3 70 09:33 03.11.2020
5963 Clouds 24 1017 69 10000 9.3 70 09:33 03.11.2020
5964 Clouds 24 1017 69 10000 9.3 70 08:55 03.11.2020
5965 Clouds 24 1017 69 10000 9.3 70 08:35 03.11.2020
5966 Clouds 25 1017 65 10000 9.8 60 07:49 03.11.2020
5967 Clouds 25 1017 65 10000 9.8 60 07:22 03.11.2020
5968 Clouds 25 1018 65 10000 9.3 60 06:45 03.11.2020
5969 Clouds 26 1018 61 10000 9.8 60 05:19 03.11.2020
5970 Clouds 26 1016 74 10000 10.3 50 01:51 03.11.2020
5971 Clouds 26 1016 74 10000 10.3 50 00:40 03.11.2020
5972 Clouds 27 1015 74 10000 10.8 50 23:48 02.11.2020
5973 Clouds 27 1015 74 10000 10.8 50 23:29 02.11.2020
5974 Rain 27 1014 74 10000 8.7 40 22:49 02.11.2020
5975 Rain 27 1014 74 10000 8.7 40 22:30 02.11.2020
5976 Rain 27 1014 74 10000 8.7 40 22:30 02.11.2020
5977 Clouds 25 1015 94 9000 8.7 40 21:58 02.11.2020
5978 Clouds 25 1015 94 9000 8.7 40 21:37 02.11.2020
5979 Rain 29 1014 70 10000 6.2 50 21:19 02.11.2020
5980 Rain 29 1014 70 10000 6.2 50 20:39 02.11.2020
5981 Rain 29 1014 74 10000 4.1 50 20:19 02.11.2020
5982 Rain 29 1014 74 10000 4.1 50 19:44 02.11.2020
5983 Rain 29 1014 74 10000 4.1 50 19:26 02.11.2020
5984 Rain 29 1014 74 10000 4.1 50 19:26 02.11.2020
5985 Clouds 28 1015 78 10000 4.1 50 18:43 02.11.2020
5986 Clouds 28 1015 78 10000 4.1 50 18:22 02.11.2020
5987 Clouds 29 1016 70 10000 4.1 40 17:59 02.11.2020
5988 Clouds 29 1016 70 10000 4.1 40 17:40 02.11.2020
5989 Clouds 28 1016 78 10000 3.1 40 17:21 02.11.2020
5990 Clouds 28 1016 78 10000 3.1 40 16:48 02.11.2020
5991 Clouds 28 1016 78 10000 3.1 40 16:24 02.11.2020
5992 Clouds 28 1016 78 10000 3.1 40 15:50 02.11.2020
5993 Clouds 28 1016 78 10000 3.1 40 15:25 02.11.2020
5994 Clouds 28 1016 83 10000 1.5 80 14:59 02.11.2020
5995 Clouds 28 1016 83 10000 1.5 80 14:40 02.11.2020
5996 Clouds 24 1015 94 10000 0.5 0 14:18 02.11.2020
5997 Clouds 24 1015 94 10000 0.5 0 13:44 02.11.2020
5998 Clouds 24 1015 94 10000 0.5 0 13:21 02.11.2020
5999 Clouds 24 1015 94 10000 2.71 26 12:42 02.11.2020
6000 Clouds 24 1015 94 10000 3.51 34 12:21 02.11.2020
6001 Clouds 24 1015 94 10000 3.51 34 11:45 02.11.2020
6002 Clouds 24 1015 94 10000 1 0 11:19 02.11.2020
6003 Clouds 24 1015 94 10000 1 0 10:43 02.11.2020
6004 Clouds 24 1015 94 10000 1 0 10:22 02.11.2020
6005 Clouds 25 1015 88 10000 2.1 160 09:51 02.11.2020
6006 Clouds 25 1015 88 10000 2.1 160 09:24 02.11.2020
6007 Clouds 26 1015 94 10000 1.5 120 08:46 02.11.2020
6008 Clouds 26 1015 94 10000 1.5 120 08:26 02.11.2020
6009 Clouds 26 1016 94 10000 1 0 07:50 02.11.2020
6010 Clouds 26 1016 94 10000 1 0 07:22 02.11.2020
6011 Clouds 26 1016 94 10000 0.5 0 06:36 02.11.2020
6012 Clear 27 1017 88 10000 1 0 03:35 02.11.2020
6013 Clear 27 1016 88 10000 2.1 100 01:25 02.11.2020
6014 Clouds 27 1016 88 10000 2.1 80 00:36 02.11.2020
6015 Clouds 27 1016 88 10000 2.6 80 23:42 01.11.2020
6016 Clouds 27 1016 88 10000 2.6 80 23:24 01.11.2020
6017 Clouds 27 1016 78 10000 5.1 90 22:46 01.11.2020
6018 Clouds 27 1016 78 10000 5.1 90 22:26 01.11.2020
6019 Clouds 30 1016 70 10000 3.1 110 21:59 01.11.2020
6020 Clouds 30 1016 70 10000 3.1 110 21:59 01.11.2020
6021 Clouds 30 1016 70 10000 3.1 110 21:38 01.11.2020
6022 Clouds 30 1016 70 10000 3.1 110 21:20 01.11.2020
6023 Clouds 30 1016 66 10000 3.6 150 20:42 01.11.2020
6024 Rain 30 1016 66 10000 3.6 150 20:23 01.11.2020
6025 Clouds 31 1017 66 10000 4.6 140 19:43 01.11.2020
6026 Clouds 31 1017 66 10000 4.6 140 19:25 01.11.2020
6027 Clouds 31 1018 62 10000 4.1 130 18:44 01.11.2020
6028 Clouds 31 1018 66 10000 3.1 130 18:20 01.11.2020
6029 Clouds 31 1018 66 10000 3.1 130 18:20 01.11.2020
6030 Clouds 31 1018 66 10000 3.1 130 17:59 01.11.2020
6031 Clouds 31 1018 66 10000 3.1 130 17:41 01.11.2020
6032 Clouds 29 1019 74 10000 4.1 110 17:21 01.11.2020
6033 Clouds 29 1019 74 10000 4.1 110 16:41 01.11.2020
6034 Clouds 29 1019 74 10000 4.6 100 16:19 01.11.2020
6035 Clouds 29 1019 74 10000 4.6 100 15:54 01.11.2020
6036 Clouds 29 1019 74 10000 4.6 100 15:36 01.11.2020
6037 Clouds 28 1018 78 10000 4.1 90 15:18 01.11.2020
6038 Clouds 28 1018 78 10000 4.1 90 14:43 01.11.2020
6039 Clouds 28 1018 78 10000 4.1 90 14:21 01.11.2020
6040 Clouds 27 1018 83 10000 2.6 90 13:48 01.11.2020
6041 Clouds 27 1018 83 10000 2.6 90 13:30 01.11.2020
6042 Clouds 26 1017 94 10000 3.1 90 12:44 01.11.2020
6043 Clouds 26 1017 88 10000 2.6 80 12:23 01.11.2020
6044 Clouds 26 1017 88 10000 2.6 80 11:52 01.11.2020
6045 Clouds 26 1017 88 10000 5.1 100 11:19 01.11.2020
6046 Clouds 26 1017 88 10000 5.1 100 10:43 01.11.2020
6047 Clouds 26 1017 88 10000 5.1 100 10:43 01.11.2020
6048 Clouds 26 1017 88 10000 5.1 100 10:24 01.11.2020
6049 Clouds 27 1017 83 10000 3.1 90 09:57 01.11.2020
6050 Clouds 27 1017 83 10000 3.1 90 09:39 01.11.2020
6051 Clouds 27 1017 83 10000 4.1 90 08:47 01.11.2020
6052 Clouds 27 1017 83 10000 4.1 90 08:23 01.11.2020
6053 Clouds 27 1018 83 10000 4.1 100 07:40 01.11.2020
6054 Clouds 28 1019 78 10000 4.6 90 04:31 01.11.2020
6055 Clear 28 1017 79 10000 9.46 69 01:51 01.11.2020
6056 Clouds 28 1018 74 10000 4.6 80 00:43 01.11.2020
6057 Clouds 29 1018 66 10000 5.7 90 23:26 31.10.2020
6058 Clouds 29 1017 70 10000 5.1 70 22:58 31.10.2020
6059 Clouds 29 1017 70 10000 5.1 70 22:39 31.10.2020
6060 Clouds 30 1017 62 10000 6.7 90 22:20 31.10.2020
6061 Clouds 30 1017 62 10000 6.7 90 21:44 31.10.2020
6062 Clouds 30 1018 62 10000 7.2 90 21:19 31.10.2020
6063 Clouds 30 1018 62 10000 7.2 90 20:38 31.10.2020
6064 Clouds 30 1018 66 10000 5.7 70 20:18 31.10.2020
6065 Clouds 30 1018 66 10000 5.7 70 19:41 31.10.2020
6066 Clouds 30 1018 66 10000 5.7 70 19:22 31.10.2020
6067 Clouds 29 1019 74 10000 5.7 70 18:47 31.10.2020
6068 Clouds 29 1019 74 10000 5.7 90 18:24 31.10.2020
6069 Clouds 29 1019 74 10000 5.7 90 17:40 31.10.2020
6070 Clouds 29 1019 74 10000 5.7 90 17:22 31.10.2020
6071 Clouds 29 1019 74 10000 5.1 80 16:44 31.10.2020
6072 Clouds 29 1019 74 10000 5.1 80 16:26 31.10.2020
6073 Clouds 28 1019 74 10000 5.1 80 15:45 31.10.2020
6074 Clouds 28 1019 74 10000 5.1 80 15:25 31.10.2020
6075 Clouds 28 1018 78 10000 3.1 100 14:52 31.10.2020
6076 Clouds 28 1018 78 10000 3.1 100 14:31 31.10.2020
6077 Clouds 26 1017 88 10000 2.6 100 13:50 31.10.2020
6078 Clouds 26 1017 88 10000 2.6 100 13:27 31.10.2020
6079 Clouds 26 1017 88 10000 2.6 100 12:43 31.10.2020
6080 Clouds 26 1017 88 10000 2.1 90 12:18 31.10.2020
6081 Clouds 26 1017 88 10000 2.1 90 11:39 31.10.2020
6082 Clouds 26 1016 83 10000 2.1 80 11:20 31.10.2020
6083 Clouds 26 1016 83 10000 2.1 80 10:37 31.10.2020
6084 Clear 27 1015 77 10000 4.61 70 09:48 31.10.2020
6085 Clouds 25 1016 88 10000 1 0 09:29 31.10.2020
6086 Clouds 25 1016 88 10000 1 0 08:52 31.10.2020
6087 Clear 24 1016 94 10000 1 0 08:20 31.10.2020
6088 Clear 24 1016 94 10000 1 0 08:20 31.10.2020
6089 Clear 24 1016 94 10000 1 0 07:28 31.10.2020
6090 Clear 27 1015 76 10000 4.27 61 06:47 31.10.2020
6091 Clouds 27 1017 83 10000 1.5 100 06:29 31.10.2020
6092 Clouds 27 1017 83 10000 2.1 100 03:47 31.10.2020
6093 Clouds 27 1016 83 10000 2.1 100 02:20 31.10.2020
6094 Clouds 28 1015 78 10000 1.5 50 00:49 31.10.2020
6095 Clouds 28 1015 78 10000 2.6 30 23:53 30.10.2020
6096 Clouds 28 1015 78 10000 2.6 30 23:28 30.10.2020
6097 Clouds 30 1014 62 10000 1.5 110 22:56 30.10.2020
6098 Clouds 30 1014 62 10000 1.5 110 22:37 30.10.2020
6099 Clouds 31 1014 58 10000 2.6 170 22:18 30.10.2020
6100 Clouds 31 1014 58 10000 2.6 170 21:41 30.10.2020
6101 Clouds 31 1014 58 10000 2.6 170 21:22 30.10.2020
6102 Clouds 30 1014 70 10000 3.1 160 20:43 30.10.2020
6103 Clouds 30 1014 70 10000 3.1 160 20:24 30.10.2020
6104 Clouds 30 1015 66 10000 3.1 210 19:52 30.10.2020
6105 Clouds 30 1015 66 10000 3.1 210 19:19 30.10.2020
6106 Clouds 30 1015 66 10000 3.1 210 18:52 30.10.2020
6107 Clouds 30 1015 66 10000 3.1 210 18:33 30.10.2020
6108 Clouds 29 1015 70 10000 3.1 190 17:56 30.10.2020
6109 Clouds 29 1015 70 10000 3.1 190 17:36 30.10.2020
6110 Clouds 29 1015 74 10000 4.6 170 17:18 30.10.2020
6111 Clouds 29 1015 74 10000 4.6 170 16:49 30.10.2020
6112 Clouds 29 1016 74 10000 4.1 180 16:19 30.10.2020
6113 Clouds 29 1016 74 10000 4.1 180 15:41 30.10.2020
6114 Clouds 27 1015 88 10000 1.5 180 15:20 30.10.2020
6115 Clouds 27 1015 88 10000 1.5 180 14:45 30.10.2020
6116 Clouds 27 1015 88 10000 1.5 180 14:26 30.10.2020
6117 Clouds 25 1015 94 10000 1.5 180 13:47 30.10.2020
6118 Clouds 25 1015 94 10000 1.5 180 13:23 30.10.2020
6119 Clouds 24 1014 94 10000 1.5 160 12:56 30.10.2020
6120 Clouds 24 1014 94 10000 1.5 160 12:23 30.10.2020
6121 Clouds 24 1014 94 10000 3.85 139 11:57 30.10.2020
6122 Clouds 24 1014 94 10000 3.85 139 11:57 30.10.2020
6123 Clouds 24 1014 94 10000 3.85 139 11:57 30.10.2020
6124 Clouds 24 1014 94 10000 3.85 139 11:36 30.10.2020
6125 Clouds 24 1014 94 10000 1.5 170 11:18 30.10.2020
6126 Clouds 24 1014 94 10000 1.5 170 10:40 30.10.2020
6127 Clouds 24 1014 94 10000 1.5 170 10:21 30.10.2020
6128 Clouds 25 1014 94 10000 1 0 09:43 30.10.2020
6129 Clouds 25 1014 94 10000 1 0 09:20 30.10.2020
6130 Clouds 26 1015 88 10000 2.1 160 08:39 30.10.2020
6131 Clouds 25 1015 94 10000 2.6 160 08:20 30.10.2020
6132 Clouds 25 1015 94 10000 2.6 160 07:46 30.10.2020
6133 Clouds 25 1015 94 10000 2.6 160 07:27 30.10.2020
6134 Clouds 25 1016 94 10000 2.6 150 06:21 30.10.2020
6135 Clouds 25 1016 94 10000 5.53 145 04:26 30.10.2020
6136 Clear 27 1015 83 10000 2.6 160 01:39 30.10.2020
6137 Clouds 27 1014 83 10000 4.1 150 00:31 30.10.2020
6138 Clouds 28 1014 78 10000 4.1 150 23:47 29.10.2020
6139 Clouds 28 1014 78 10000 4.1 150 23:29 29.10.2020
6140 Clouds 29 1013 74 10000 4.6 170 22:48 29.10.2020
6141 Clouds 29 1013 74 10000 4.6 170 22:27 29.10.2020
6142 Clouds 29 1013 74 10000 5.1 180 21:51 29.10.2020
6143 Clouds 29 1013 74 10000 5.1 180 21:26 29.10.2020
6144 Clouds 30 1014 70 10000 5.7 180 20:57 29.10.2020
6145 Clouds 30 1014 70 10000 5.7 180 20:39 29.10.2020
6146 Clouds 30 1015 70 10000 5.7 160 20:18 29.10.2020
6147 Clouds 30 1015 70 10000 5.7 160 19:39 29.10.2020
6148 Clouds 30 1015 70 10000 5.7 160 19:19 29.10.2020
6149 Clouds 31 1015 70 10000 6.7 160 18:46 29.10.2020
6150 Clouds 31 1015 70 10000 6.7 160 18:26 29.10.2020
6151 Clouds 30 1016 74 10000 7.2 160 17:43 29.10.2020
6152 Clouds 30 1016 74 10000 6.7 150 17:24 29.10.2020
6153 Clouds 30 1016 74 10000 6.7 150 16:54 29.10.2020
6154 Clouds 29 1016 74 10000 5.7 140 16:23 29.10.2020
6155 Clouds 29 1016 74 10000 5.7 140 15:59 29.10.2020
6156 Clouds 29 1016 74 10000 5.7 140 15:40 29.10.2020
6157 Clouds 29 1016 74 10000 5.7 140 15:22 29.10.2020
6158 Clouds 28 1016 78 10000 5.1 140 14:58 29.10.2020
6159 Clouds 28 1016 78 10000 5.1 140 14:39 29.10.2020
6160 Clouds 28 1016 78 10000 5.1 140 14:39 29.10.2020
6161 Clouds 27 1016 88 10000 3.1 150 14:18 29.10.2020
6162 Clouds 27 1016 88 10000 3.1 150 13:40 29.10.2020
6163 Clouds 27 1016 88 10000 3.1 150 13:22 29.10.2020
6164 Clouds 26 1015 88 10000 3.6 140 12:41 29.10.2020
6165 Clouds 26 1015 88 10000 2.6 130 12:19 29.10.2020
6166 Clouds 26 1015 88 10000 2.6 130 11:47 29.10.2020
6167 Clouds 26 1015 88 10000 2.6 130 11:25 29.10.2020
6168 Clouds 26 1015 88 10000 3.1 130 10:38 29.10.2020
6169 Clouds 26 1015 94 10000 2.6 130 10:20 29.10.2020
6170 Clouds 26 1015 94 10000 2.6 130 09:53 29.10.2020
6171 Clouds 26 1015 94 10000 2.6 130 09:28 29.10.2020
6172 Clouds 26 1016 88 10000 3.1 130 08:56 29.10.2020
6173 Clouds 26 1016 88 10000 3.1 130 08:34 29.10.2020
6174 Clouds 26 1016 88 10000 2.6 130 07:54 29.10.2020
6175 Clouds 26 1016 88 10000 2.6 130 07:35 29.10.2020
6176 Clouds 27 1017 83 10000 3.1 110 06:57 29.10.2020
6177 Clouds 27 1017 83 10000 3.1 110 05:35 29.10.2020
6178 Clouds 27 1017 83 10000 3.1 110 04:45 29.10.2020
6179 Clouds 28 1015 79 10000 7.74 95 01:24 29.10.2020
6180 Clear 28 1015 80 10000 7.85 100 00:31 29.10.2020
6181 Clear 28 1014 80 10000 7.42 95 23:48 28.10.2020
6182 Clear 28 1014 80 10000 7.39 100 23:22 28.10.2020
6183 Clear 28 1014 80 10000 7.39 100 22:45 28.10.2020
6184 Clouds 29 1015 70 10000 6.7 120 22:26 28.10.2020
6185 Clouds 29 1015 70 10000 6.7 120 21:58 28.10.2020
6186 Clouds 29 1015 70 10000 6.7 120 21:40 28.10.2020
6187 Clouds 30 1015 70 10000 7.2 110 21:19 28.10.2020
6188 Clouds 30 1015 70 10000 7.2 110 20:41 28.10.2020
6189 Clouds 30 1015 70 10000 7.2 110 20:22 28.10.2020
6190 Clouds 30 1016 70 10000 7.7 110 19:50 28.10.2020
6191 Clouds 30 1016 70 10000 7.7 110 19:28 28.10.2020
6192 Clouds 30 1017 66 10000 7.7 110 18:47 28.10.2020
6193 Clouds 30 1017 66 10000 7.7 110 18:21 28.10.2020
6194 Clouds 30 1018 70 10000 7.7 110 17:45 28.10.2020
6195 Clouds 30 1018 70 10000 7.7 110 17:25 28.10.2020
6196 Clouds 29 1018 70 10000 6.7 110 16:57 28.10.2020
6197 Clouds 29 1018 70 10000 6.7 110 16:38 28.10.2020
6198 Clear 28 1018 80 10000 9.05 90 16:20 28.10.2020
6199 Clouds 28 1018 78 10000 5.1 100 15:37 28.10.2020
6200 Clear 28 1018 80 10000 8.62 83 15:18 28.10.2020
6201 Clear 28 1018 80 10000 8.62 83 14:42 28.10.2020
6202 Clear 27 1017 81 10000 8.46 78 14:22 28.10.2020
6203 Clear 27 1017 81 10000 8.2 79 12:42 28.10.2020
6204 Clear 27 1016 80 10000 7.88 84 12:22 28.10.2020
6205 Clear 27 1016 80 10000 7.88 84 11:56 28.10.2020
6206 Clouds 26 1016 88 10000 2.6 100 11:36 28.10.2020
6207 Clear 27 1016 80 10000 7.74 85 11:18 28.10.2020
6208 Clear 27 1016 80 10000 7.74 85 10:44 28.10.2020
6209 Clear 27 1017 83 10000 3.1 100 10:26 28.10.2020
6210 Clear 27 1017 83 10000 3.1 100 09:43 28.10.2020
6211 Clear 27 1017 83 10000 3.1 100 09:23 28.10.2020
6212 Clouds 27 1017 88 10000 2.6 100 08:50 28.10.2020
6213 Clouds 27 1017 88 10000 2.6 100 08:29 28.10.2020
6214 Clouds 27 1018 88 10000 2.6 100 07:52 28.10.2020
6215 Clouds 27 1018 88 10000 2.6 100 07:31 28.10.2020
6216 Clouds 27 1018 88 10000 3.1 90 06:42 28.10.2020
6217 Clouds 27 1018 88 10000 3.1 90 06:42 28.10.2020
6218 Clouds 27 1018 88 10000 3.1 90 06:23 28.10.2020
6219 Clouds 27 1019 88 10000 3.1 90 05:22 28.10.2020
6220 Clouds 27 1019 88 10000 3.1 90 04:28 28.10.2020
6221 Clouds 27 1018 94 10000 3.1 90 02:26 28.10.2020
6222 Clouds 27 1018 88 10000 2.1 90 01:52 28.10.2020
6223 Clouds 28 1017 83 10000 3.6 100 00:29 28.10.2020
6224 Clouds 29 1017 74 10000 4.6 110 23:45 27.10.2020
6225 Clouds 30 1017 70 10000 4.6 110 23:20 27.10.2020
6226 Clouds 28 1016 79 10000 5.76 84 22:44 27.10.2020
6227 Clouds 30 1017 70 10000 4.6 110 22:19 27.10.2020
6228 Clouds 30 1017 70 10000 4.6 110 22:19 27.10.2020
6229 Clouds 30 1017 70 10000 4.6 110 21:56 27.10.2020
6230 Clouds 30 1017 70 10000 4.6 110 21:37 27.10.2020
6231 Clouds 30 1017 70 10000 4.6 110 21:37 27.10.2020
6232 Clouds 30 1017 70 10000 4.6 110 21:37 27.10.2020
6233 Clouds 30 1017 70 10000 5.1 110 21:19 27.10.2020
6234 Clouds 30 1017 70 10000 5.1 110 20:45 27.10.2020
6235 Clouds 30 1017 70 10000 5.1 110 20:23 27.10.2020
6236 Clouds 30 1018 70 10000 5.1 100 19:40 27.10.2020
6237 Clouds 30 1018 70 10000 5.1 100 19:21 27.10.2020
6238 Clouds 30 1018 70 10000 5.7 100 18:59 27.10.2020
6239 Clouds 30 1018 70 10000 5.7 100 18:40 27.10.2020
6240 Clouds 30 1018 70 10000 5.7 100 18:40 27.10.2020
6241 Clouds 30 1019 66 10000 4.6 100 18:20 27.10.2020
6242 Clouds 30 1019 66 10000 4.6 100 17:44 27.10.2020
6243 Clouds 29 1019 74 10000 5.1 110 17:22 27.10.2020
6244 Clouds 29 1019 74 10000 5.1 110 16:57 27.10.2020
6245 Clouds 29 1019 74 10000 5.1 110 16:39 27.10.2020
6246 Clouds 28 1019 83 10000 5.1 100 16:20 27.10.2020
6247 Clouds 28 1019 83 10000 5.1 100 15:40 27.10.2020
6248 Clouds 28 1019 83 10000 4.1 100 15:21 27.10.2020
6249 Clouds 28 1019 83 10000 4.1 100 14:48 27.10.2020
6250 Clouds 28 1019 83 10000 4.1 100 14:29 27.10.2020
6251 Clouds 26 1018 88 10000 3.1 100 13:54 27.10.2020
6252 Clouds 26 1018 88 10000 3.1 100 13:24 27.10.2020
6253 Clear 26 1018 94 10000 2.6 110 12:42 27.10.2020
6254 Clear 26 1018 94 10000 2.6 110 12:24 27.10.2020
6255 Clear 26 1017 88 10000 2.6 90 11:44 27.10.2020
6256 Clear 26 1017 88 10000 2.6 90 11:26 27.10.2020
6257 Clouds 26 1017 88 10000 3.1 90 10:51 27.10.2020
6258 Clouds 26 1017 88 10000 3.1 90 10:33 27.10.2020
6259 Clouds 26 1017 83 10000 2.6 80 09:47 27.10.2020
6260 Clouds 26 1017 83 10000 2.6 80 09:27 27.10.2020
6261 Clouds 26 1018 88 10000 2.6 90 08:49 27.10.2020
6262 Clouds 26 1018 88 10000 2.6 90 08:26 27.10.2020
6263 Clouds 26 1018 94 10000 1.5 80 07:47 27.10.2020
6264 Clouds 26 1018 94 10000 1.5 80 07:29 27.10.2020
6265 Clear 26 1018 88 10000 2.1 80 06:39 27.10.2020
6266 Clouds 26 1018 88 10000 1.5 80 06:19 27.10.2020
6267 Clouds 26 1018 88 10000 1.5 80 05:44 27.10.2020
6268 Clouds 26 1018 88 10000 1.5 90 04:57 27.10.2020
6269 Clouds 25 1018 88 10000 4.6 200 02:35 27.10.2020
6270 Clouds 28 1017 78 10000 3.1 120 00:59 27.10.2020
6271 Clouds 28 1016 74 10000 3.6 100 23:53 26.10.2020
6272 Clouds 28 1016 74 10000 3.6 100 23:32 26.10.2020
6273 Clouds 30 1016 62 10000 3.1 130 22:52 26.10.2020
6274 Clouds 30 1016 62 10000 3.1 130 22:28 26.10.2020
6275 Clouds 30 1016 58 10000 4.1 130 21:51 26.10.2020
6276 Rain 30 1016 58 10000 4.1 130 21:21 26.10.2020
6277 Clouds 30 1017 62 10000 4.6 130 20:58 26.10.2020
6278 Clouds 30 1017 62 10000 4.6 130 20:40 26.10.2020
6279 Clear 29 1017 70 10000 4.6 130 20:22 26.10.2020
6280 Clear 29 1017 70 10000 4.6 130 19:48 26.10.2020
6281 Clear 29 1017 70 10000 4.6 130 19:26 26.10.2020
6282 Clear 28 1017 78 10000 5.1 130 18:46 26.10.2020
6283 Clear 28 1017 78 10000 5.1 130 18:25 26.10.2020
6284 Clear 28 1018 74 10000 4.1 120 17:59 26.10.2020
6285 Clear 28 1018 74 10000 4.1 120 17:39 26.10.2020
6286 Clear 28 1018 78 10000 4.6 130 17:21 26.10.2020
6287 Clear 28 1018 78 10000 4.6 130 16:43 26.10.2020
6288 Clear 27 1017 83 10000 3.6 120 16:21 26.10.2020
6289 Clear 27 1017 83 10000 3.6 120 15:43 26.10.2020
6290 Clear 27 1017 83 10000 3.6 120 15:25 26.10.2020
6291 Clear 25 1016 94 10000 2.6 130 14:53 26.10.2020
6292 Clear 25 1016 94 10000 2.6 130 14:34 26.10.2020
6293 Clouds 28 1016 77 10000 4.16 115 13:45 26.10.2020
6294 Clear 25 1015 94 10000 2.1 110 13:24 26.10.2020
6295 Clear 25 1015 94 10000 2.1 110 12:52 26.10.2020
6296 Clear 25 1015 94 10000 2.1 110 12:31 26.10.2020
6297 Clear 25 1015 88 10000 2.6 90 11:57 26.10.2020
6298 Clear 25 1015 88 10000 2.6 90 11:39 26.10.2020
6299 Clear 25 1015 88 10000 2.6 90 11:39 26.10.2020
6300 Clear 25 1014 88 10000 4.1 160 11:21 26.10.2020
6301 Clear 25 1014 88 10000 4.1 160 10:48 26.10.2020
6302 Clear 25 1014 88 10000 4.1 160 10:26 26.10.2020
6303 Clouds 24 1014 94 10000 2.1 200 09:51 26.10.2020
6304 Clouds 24 1014 94 10000 2.1 200 09:28 26.10.2020
6305 Clouds 23 1015 100 10000 1.5 260 08:50 26.10.2020
6306 Clouds 23 1015 100 10000 1.5 260 08:22 26.10.2020
6307 Rain 23 1015 100 10000 4.1 220 07:38 26.10.2020
6308 Rain 23 1015 94 9000 4.1 230 07:18 26.10.2020
6309 Rain 24 1016 94 9000 8.2 230 05:30 26.10.2020
6310 Clear 27 1015 94 10000 1.5 140 04:18 26.10.2020
6311 Clear 27 1014 88 10000 2.1 170 03:20 26.10.2020
6312 Clear 27 1014 88 10000 2.1 170 03:20 26.10.2020
6313 Clear 27 1014 88 10000 2.1 170 03:20 26.10.2020
6314 Clear 27 1014 88 10000 2.1 170 03:20 26.10.2020
6315 Clear 27 1014 88 10000 3.6 140 01:34 26.10.2020
6316 Clear 26 1013 94 10000 3.1 150 00:33 26.10.2020
6317 Clear 27 1013 88 10000 3.1 150 23:45 25.10.2020
6318 Clear 27 1013 88 10000 3.1 150 23:22 25.10.2020
6319 Clouds 27 1012 83 10000 3.6 120 22:44 25.10.2020
6320 Clouds 27 1012 83 10000 3.6 120 22:25 25.10.2020
6321 Clouds 26 1012 94 10000 3.1 140 21:49 25.10.2020
6322 Clouds 26 1012 94 10000 3.1 140 21:30 25.10.2020
6323 Clouds 25 1013 94 10000 2.1 90 20:58 25.10.2020
6324 Clouds 25 1013 94 10000 2.1 90 20:39 25.10.2020
6325 Rain 28 1012 79 10000 7.08 133 20:19 25.10.2020
6326 Rain 28 1012 79 10000 7.08 133 19:49 25.10.2020
6327 Rain 27 1015 94 10000 5.1 140 19:25 25.10.2020
6328 Rain 27 1015 94 10000 5.1 140 18:57 25.10.2020
6329 Rain 27 1015 94 10000 5.1 140 18:57 25.10.2020
6330 Rain 27 1015 94 10000 5.1 140 18:38 25.10.2020
6331 Rain 27 1015 94 10000 5.1 140 18:38 25.10.2020
6332 Rain 27 1015 94 10000 5.1 140 18:38 25.10.2020
6333 Rain 27 1015 88 10000 4.6 160 18:20 25.10.2020
6334 Clouds 27 1015 88 10000 4.6 160 17:40 25.10.2020
6335 Clouds 27 1015 88 10000 4.6 160 17:21 25.10.2020
6336 Clouds 25 1015 94 10000 3.1 140 16:58 25.10.2020
6337 Clouds 25 1015 94 10000 3.1 140 16:39 25.10.2020
6338 Clouds 25 1015 94 10000 3.1 140 16:20 25.10.2020
6339 Rain 23 1016 94 9000 3.1 80 15:47 25.10.2020
6340 Rain 23 1016 94 9000 3.1 80 15:26 25.10.2020
6341 Rain 23 1016 88 9000 2.6 120 14:47 25.10.2020
6342 Rain 23 1016 88 9000 2.6 120 14:28 25.10.2020
6343 Rain 23 1015 94 6000 6.2 180 13:44 25.10.2020
6344 Rain 23 1015 94 6000 6.2 180 13:21 25.10.2020
6345 Rain 26 1014 94 10000 0.5 0 12:49 25.10.2020
6346 Rain 26 1014 94 10000 0.5 0 12:27 25.10.2020
6347 Rain 27 1013 88 10000 3.6 130 11:57 25.10.2020
6348 Rain 27 1013 88 10000 3.6 130 11:39 25.10.2020
6349 Rain 27 1013 88 10000 3.6 130 11:39 25.10.2020
6350 Clouds 27 1012 88 10000 3.6 130 11:19 25.10.2020
6351 Rain 27 1012 88 10000 3.6 130 10:44 25.10.2020
6352 Rain 27 1012 88 10000 3.6 130 10:25 25.10.2020
6353 Clouds 27 1012 88 10000 3.1 140 09:48 25.10.2020
6354 Clouds 26 1013 94 10000 3.1 150 09:20 25.10.2020
6355 Clouds 26 1013 94 10000 3.1 150 08:51 25.10.2020
6356 Clouds 26 1013 94 10000 3.1 150 08:32 25.10.2020
6357 Clouds 27 1013 88 10000 2.6 130 07:53 25.10.2020
6358 Clouds 27 1013 88 10000 2.6 130 07:34 25.10.2020
6359 Clouds 27 1013 88 10000 3.6 140 06:51 25.10.2020
6360 Clouds 27 1014 88 10000 3.6 140 05:59 25.10.2020
6361 Clouds 26 1014 94 10000 3.6 120 04:52 25.10.2020
6362 Clouds 26 1013 88 10000 11.27 154 03:44 25.10.2020
6363 Rain 23 1013 94 9000 3.1 210 01:47 25.10.2020
6364 Rain 27 1012 88 10000 3.6 120 00:49 25.10.2020
6365 Clouds 26 1012 94 10000 2.1 90 00:20 25.10.2020
6366 Clouds 26 1012 94 10000 2.1 90 23:54 24.10.2020
6367 Clouds 26 1012 94 10000 2.1 90 23:26 24.10.2020
6368 Clouds 24 1012 94 10000 2.6 70 22:55 24.10.2020
6369 Clouds 24 1012 94 10000 2.6 70 22:37 24.10.2020
6370 Clouds 24 1013 88 10000 2.6 180 22:19 24.10.2020
6371 Rain 24 1013 88 10000 2.6 180 21:41 24.10.2020
6372 Rain 24 1013 88 10000 2.6 180 21:21 24.10.2020
6373 Rain 27 1013 88 10000 4.6 110 20:47 24.10.2020
6374 Clouds 27 1013 88 10000 4.6 110 20:23 24.10.2020
6375 Clouds 27 1014 83 10000 3.1 90 19:55 24.10.2020
6376 Rain 27 1014 83 10000 3.1 90 19:37 24.10.2020
6377 Clouds 27 1015 88 10000 3.1 130 19:19 24.10.2020
6378 Clouds 27 1015 88 10000 3.1 130 18:42 24.10.2020
6379 Clouds 26 1015 88 10000 3.6 90 18:22 24.10.2020
6380 Clouds 26 1015 88 10000 3.6 90 17:39 24.10.2020
6381 Clouds 26 1015 88 10000 3.6 90 17:20 24.10.2020
6382 Clouds 25 1015 100 10000 3.1 100 16:45 24.10.2020
6383 Clouds 25 1015 100 10000 3.1 100 16:22 24.10.2020
6384 Clouds 25 1014 94 10000 2.1 120 15:40 24.10.2020
6385 Clouds 25 1014 94 10000 2.1 120 15:19 24.10.2020
6386 Clouds 25 1014 94 10000 1.5 120 14:50 24.10.2020
6387 Clouds 25 1014 94 10000 1.5 120 14:28 24.10.2020
6388 Rain 24 1014 100 10000 5.1 120 13:46 24.10.2020
6389 Rain 24 1014 100 10000 5.1 120 13:24 24.10.2020
6390 Rain 24 1014 94 10000 4.6 130 12:46 24.10.2020
6391 Rain 24 1014 94 10000 4.6 130 12:21 24.10.2020
6392 Rain 24 1014 94 7000 5.1 120 11:53 24.10.2020
6393 Rain 24 1014 94 7000 5.1 120 11:35 24.10.2020
6394 Rain 26 1013 83 10000 2.6 90 10:54 24.10.2020
6395 Rain 26 1013 83 10000 2.6 90 10:33 24.10.2020
6396 Clouds 26 1013 83 10000 4.1 110 09:50 24.10.2020
6397 Clouds 26 1013 83 10000 4.1 110 09:32 24.10.2020
6398 Clouds 27 1014 78 10000 4.1 100 08:59 24.10.2020
6399 Clouds 27 1014 78 10000 4.1 100 08:19 24.10.2020
6400 Clear 26 1014 83 10000 3.1 90 07:54 24.10.2020
6401 Clear 26 1014 83 10000 3.1 90 07:25 24.10.2020
6402 Clear 27 1015 78 10000 4.1 100 06:53 24.10.2020
6403 Clear 27 1015 78 10000 4.1 100 06:53 24.10.2020
6404 Clear 27 1015 78 10000 4.1 100 06:23 24.10.2020
6405 Clouds 27 1015 65 10000 3.6 120 03:35 24.10.2020
6406 Clouds 27 1014 69 10000 4.1 100 01:40 24.10.2020
6407 Clouds 27 1014 74 10000 4.6 100 00:41 24.10.2020
6408 Clouds 27 1014 74 10000 4.6 100 00:21 24.10.2020
6409 Clouds 29 1014 62 10000 5.1 110 23:49 23.10.2020
6410 Clouds 29 1014 62 10000 5.1 110 23:26 23.10.2020
6411 Clouds 29 1014 58 10000 5.7 100 22:57 23.10.2020
6412 Clouds 29 1014 58 10000 5.7 100 22:39 23.10.2020
6413 Clouds 29 1014 58 10000 6.2 110 22:18 23.10.2020
6414 Clouds 29 1014 58 10000 6.2 110 21:45 23.10.2020
6415 Clouds 29 1014 58 10000 6.2 110 21:24 23.10.2020
6416 Clouds 29 1014 54 10000 6.2 90 20:41 23.10.2020
6417 Clouds 29 1014 54 10000 6.2 90 20:23 23.10.2020
6418 Clouds 29 1015 54 10000 6.2 100 19:52 23.10.2020
6419 Clouds 29 1015 54 10000 6.2 100 19:32 23.10.2020
6420 Clouds 29 1016 58 10000 6.2 100 18:55 23.10.2020
6421 Clouds 29 1016 58 10000 6.2 100 18:34 23.10.2020
6422 Clouds 29 1016 62 10000 6.2 110 17:51 23.10.2020
6423 Clouds 29 1016 62 10000 6.2 110 17:26 23.10.2020
6424 Clouds 28 1016 65 10000 5.1 100 16:56 23.10.2020
6425 Clouds 28 1016 65 10000 5.1 100 16:56 23.10.2020
6426 Clouds 28 1016 65 10000 5.1 100 16:37 23.10.2020
6427 Clouds 28 1016 65 10000 5.1 100 16:37 23.10.2020
6428 Clouds 27 1015 74 10000 3.6 100 16:18 23.10.2020
6429 Clouds 27 1015 74 10000 3.6 100 15:42 23.10.2020
6430 Clouds 27 1015 74 10000 3.6 100 15:23 23.10.2020
6431 Clouds 25 1015 78 10000 3.1 90 14:51 23.10.2020
6432 Clouds 25 1015 78 10000 3.1 90 14:33 23.10.2020
6433 Clouds 25 1015 73 10000 2.6 100 13:56 23.10.2020
6434 Clouds 25 1015 73 10000 2.6 100 13:37 23.10.2020
6435 Clouds 25 1014 78 10000 2.6 100 13:18 23.10.2020
6436 Clouds 25 1014 78 10000 2.6 100 12:42 23.10.2020
6437 Clouds 25 1014 78 10000 2.6 100 12:23 23.10.2020
6438 Clouds 25 1014 78 10000 2.6 100 11:42 23.10.2020
6439 Clouds 25 1014 78 10000 2.6 100 11:20 23.10.2020
6440 Clouds 25 1014 78 10000 2.6 90 10:43 23.10.2020
6441 Clouds 25 1014 78 10000 2.6 90 10:23 23.10.2020
6442 Clouds 25 1014 83 10000 3.1 90 09:43 23.10.2020
6443 Clouds 25 1014 83 10000 3.1 90 09:23 23.10.2020
6444 Clouds 26 1015 78 10000 2.6 100 08:52 23.10.2020
6445 Clouds 26 1015 78 10000 2.6 100 08:28 23.10.2020
6446 Clouds 26 1015 78 10000 3.1 100 07:28 23.10.2020
6447 Clouds 26 1016 74 10000 3.1 100 06:52 23.10.2020
6448 Clouds 27 1016 69 10000 4.6 120 06:20 23.10.2020
6449 Clear 27 1016 74 10000 5.1 110 04:42 23.10.2020
6450 Clear 27 1015 74 10000 4.1 100 02:28 23.10.2020
6451 Clouds 28 1014 74 10000 4.6 100 00:54 23.10.2020
6452 Clouds 28 1014 74 10000 4.6 100 00:32 23.10.2020
6453 Clouds 26 1014 88 10000 3.6 160 23:38 22.10.2020
6454 Clouds 28 1014 74 10000 6.2 110 23:19 22.10.2020
6455 Clouds 28 1014 74 10000 6.2 110 22:45 22.10.2020
6456 Clouds 28 1014 74 10000 6.2 110 22:26 22.10.2020
6457 Clouds 29 1014 70 10000 6.2 110 21:56 22.10.2020
6458 Clouds 29 1014 70 10000 6.2 110 21:37 22.10.2020
6459 Clouds 29 1015 66 10000 6.2 110 21:18 22.10.2020
6460 Clouds 29 1015 66 10000 6.2 110 20:42 22.10.2020
6461 Clouds 29 1015 66 10000 6.2 110 20:24 22.10.2020
6462 Clouds 29 1015 66 10000 6.7 110 19:43 22.10.2020
6463 Clouds 28 1016 69 10000 6.2 110 19:20 22.10.2020
6464 Clouds 28 1016 69 10000 6.2 110 18:44 22.10.2020
6465 Clouds 28 1016 74 10000 6.2 110 18:22 22.10.2020
6466 Clouds 28 1016 74 10000 6.2 110 17:58 22.10.2020
6467 Clouds 28 1016 74 10000 6.2 110 17:39 22.10.2020
6468 Clouds 26 1016 78 10000 6.2 100 17:20 22.10.2020
6469 Clouds 26 1016 78 10000 6.2 100 16:42 22.10.2020
6470 Clouds 26 1016 78 10000 6.2 100 16:23 22.10.2020
6471 Clouds 26 1015 83 10000 5.1 100 15:48 22.10.2020
6472 Clouds 26 1015 83 10000 5.1 100 15:26 22.10.2020
6473 Clouds 25 1015 83 10000 4.6 100 14:50 22.10.2020
6474 Clouds 25 1015 83 10000 4.6 100 14:27 22.10.2020
6475 Clouds 24 1015 88 10000 5.7 180 13:50 22.10.2020
6476 Clouds 24 1015 88 10000 5.7 180 13:25 22.10.2020
6477 Clouds 25 1014 88 10000 3.1 100 12:57 22.10.2020
6478 Clouds 25 1014 88 10000 3.1 100 12:27 22.10.2020
6479 Clouds 25 1013 88 10000 2.6 100 11:50 22.10.2020
6480 Clouds 24 1014 88 10000 6.2 140 11:21 22.10.2020
6481 Clouds 24 1014 88 10000 6.2 140 10:52 22.10.2020
6482 Clouds 24 1014 88 10000 6.2 140 10:30 22.10.2020
6483 Clouds 24 1014 94 10000 1.5 150 09:59 22.10.2020
6484 Clouds 24 1014 94 10000 1.5 150 09:41 22.10.2020
6485 Clouds 25 1014 94 10000 2.1 130 08:57 22.10.2020
6486 Clouds 25 1014 94 10000 2.1 130 08:38 22.10.2020
6487 Clouds 25 1014 94 10000 2.6 130 08:18 22.10.2020
6488 Clouds 25 1014 94 10000 2.6 130 07:43 22.10.2020
6489 Clouds 26 1015 88 10000 3.1 100 06:59 22.10.2020
6490 Clouds 26 1015 88 10000 3.1 100 06:36 22.10.2020
6491 Clouds 26 1016 88 10000 3.6 110 05:42 22.10.2020
6492 Clouds 25 1015 83 10000 1.5 80 05:20 22.10.2020
6493 Clouds 24 1015 94 6000 7.2 150 01:57 22.10.2020
6494 Clouds 24 1014 94 10000 1 0 00:27 22.10.2020
6495 Rain 24 1014 94 4000 5.7 160 23:57 21.10.2020
6496 Rain 24 1014 94 4000 5.7 160 23:35 21.10.2020
6497 Rain 25 1014 83 9000 3.1 110 22:54 21.10.2020
6498 Rain 25 1014 83 9000 3.1 110 22:36 21.10.2020
6499 Rain 25 1015 83 9000 6.2 100 22:18 21.10.2020
6500 Clouds 25 1015 83 9000 6.2 100 21:42 21.10.2020
6501 Rain 25 1015 88 10000 4.6 110 21:19 21.10.2020
6502 Rain 25 1015 88 10000 4.6 110 20:48 21.10.2020
6503 Rain 25 1015 88 9000 5.1 130 20:19 21.10.2020
6504 Clouds 25 1015 88 9000 5.1 130 19:56 21.10.2020
6505 Rain 24 1016 94 2400 5.1 160 19:36 21.10.2020
6506 Rain 24 1015 94 3800 8.7 130 19:18 21.10.2020
6507 Rain 24 1015 94 3800 8.7 130 18:45 21.10.2020
6508 Clouds 25 1015 88 10000 5.7 80 18:21 21.10.2020
6509 Rain 25 1015 88 10000 5.7 80 17:42 21.10.2020
6510 Clouds 24 1016 94 3700 4.1 120 17:19 21.10.2020
6511 Rain 24 1016 94 3700 4.1 120 16:41 21.10.2020
6512 Rain 24 1016 94 3700 4.1 120 16:21 21.10.2020
6513 Rain 25 1016 88 9000 4.1 80 15:55 21.10.2020
6514 Rain 26 1015 88 10000 3.6 90 15:37 21.10.2020
6515 Clouds 26 1015 88 10000 3.6 90 15:18 21.10.2020
6516 Clouds 26 1014 88 10000 3.1 90 14:43 21.10.2020
6517 Clouds 26 1014 88 10000 3.1 90 14:23 21.10.2020
6518 Clouds 25 1014 88 10000 2.1 120 13:42 21.10.2020
6519 Rain 25 1014 88 10000 2.1 120 13:23 21.10.2020
6520 Rain 28 1013 74 10000 11.22 100 12:46 21.10.2020
6521 Rain 25 1013 83 10000 2.1 100 12:24 21.10.2020
6522 Rain 25 1013 83 10000 2.1 100 11:59 21.10.2020
6523 Rain 25 1013 83 10000 2.1 100 11:39 21.10.2020
6524 Clouds 25 1013 83 10000 2.1 100 11:19 21.10.2020
6525 Thunderstorm 23 1013 88 9000 9.8 130 10:41 21.10.2020
6526 Thunderstorm 23 1013 88 9000 9.8 130 10:21 21.10.2020
6527 Rain 25 1012 83 10000 2.6 110 09:49 21.10.2020
6528 Rain 25 1012 83 10000 2.6 110 09:28 21.10.2020
6529 Thunderstorm 25 1013 88 9000 5.1 130 08:42 21.10.2020
6530 Thunderstorm 25 1013 88 9000 5.1 130 08:24 21.10.2020
6531 Rain 27 1013 78 10000 4.6 110 07:56 21.10.2020
6532 Rain 27 1013 78 10000 4.6 110 07:56 21.10.2020
6533 Clouds 27 1013 78 10000 4.6 110 07:24 21.10.2020
6534 Clouds 27 1013 78 10000 6.7 110 06:46 21.10.2020
6535 Clouds 27 1013 78 10000 6.7 110 06:24 21.10.2020
6536 Clouds 27 1013 83 10000 7.2 120 03:38 21.10.2020
6537 Clouds 27 1012 83 10000 3.6 90 00:31 21.10.2020
6538 Clouds 28 1012 83 10000 5.1 90 23:35 20.10.2020
6539 Clouds 29 1012 74 10000 5.7 90 22:47 20.10.2020
6540 Clouds 29 1012 74 10000 5.7 90 22:25 20.10.2020
6541 Clouds 28 1012 78 10000 5.1 90 21:47 20.10.2020
6542 Clouds 28 1012 78 10000 5.1 90 21:19 20.10.2020
6543 Clouds 28 1013 83 10000 6.7 80 20:43 20.10.2020
6544 Clouds 28 1013 83 10000 6.7 80 20:24 20.10.2020
6545 Clouds 28 1014 74 10000 5.1 100 19:55 20.10.2020
6546 Clouds 28 1014 74 10000 5.1 100 19:37 20.10.2020
6547 Clouds 28 1014 74 10000 5.1 100 19:19 20.10.2020
6548 Clouds 26 1014 83 10000 5.1 100 18:38 20.10.2020
6549 Clouds 27 1014 79 10000 8.91 88 17:59 20.10.2020
6550 Rain 27 1014 79 10000 8.91 88 17:40 20.10.2020
6551 Rain 28 1015 74 10000 6.2 100 17:22 20.10.2020
6552 Clouds 28 1015 74 10000 6.2 100 16:42 20.10.2020
6553 Rain 28 1015 74 10000 6.2 100 16:24 20.10.2020
6554 Clouds 28 1014 78 10000 3.6 100 15:49 20.10.2020
6555 Clouds 28 1014 78 10000 3.6 100 15:30 20.10.2020
6556 Clouds 27 1014 78 10000 5.1 110 14:47 20.10.2020
6557 Clouds 27 1014 78 10000 5.1 110 14:26 20.10.2020
6558 Clouds 26 1013 88 10000 3.6 110 13:59 20.10.2020
6559 Clouds 26 1013 88 10000 3.6 110 13:41 20.10.2020
6560 Clouds 26 1013 88 10000 3.6 110 13:20 20.10.2020
6561 Clouds 26 1013 83 10000 3.6 100 12:51 20.10.2020
6562 Clouds 26 1013 83 10000 3.6 100 12:30 20.10.2020
6563 Clouds 26 1013 83 10000 4.1 100 11:47 20.10.2020
6564 Clouds 26 1013 88 10000 3.1 100 11:28 20.10.2020
6565 Clouds 26 1013 88 10000 3.1 100 10:46 20.10.2020
6566 Clouds 26 1013 83 10000 3.1 100 10:25 20.10.2020
6567 Clouds 26 1013 83 10000 3.1 100 09:44 20.10.2020
6568 Clouds 26 1013 83 10000 3.1 100 09:44 20.10.2020
6569 Clouds 26 1013 83 10000 3.1 100 09:20 20.10.2020
6570 Clouds 27 1013 78 10000 3.6 100 08:40 20.10.2020
6571 Clouds 27 1013 78 10000 3.6 100 08:19 20.10.2020
6572 Clouds 27 1014 78 10000 2.6 100 07:44 20.10.2020
6573 Clouds 27 1014 78 10000 2.6 100 07:21 20.10.2020
6574 Clouds 27 1014 78 10000 4.1 110 06:20 20.10.2020
6575 Clouds 26 1014 88 10000 2.1 110 04:27 20.10.2020
6576 Clouds 25 1013 83 10000 3.1 100 02:30 20.10.2020
6577 Clouds 27 1013 78 10000 4.1 90 01:22 20.10.2020
6578 Clouds 28 1013 74 10000 3.6 100 00:51 20.10.2020
6579 Clouds 28 1013 74 10000 3.6 100 00:26 20.10.2020
6580 Clouds 28 1012 74 10000 4.6 90 23:51 19.10.2020
6581 Clouds 28 1012 74 10000 4.6 90 23:25 19.10.2020
6582 Rain 29 1013 70 10000 4.6 90 22:54 19.10.2020
6583 Clouds 29 1013 70 10000 4.6 90 22:26 19.10.2020
6584 Clouds 28 1013 74 10000 2.6 100 21:50 19.10.2020
6585 Clouds 28 1013 74 10000 2.6 100 21:24 19.10.2020
6586 Clouds 26 1014 83 10000 3.6 80 20:59 19.10.2020
6587 Clouds 26 1014 83 10000 3.6 80 20:39 19.10.2020
6588 Clouds 26 1014 83 10000 3.6 80 20:39 19.10.2020
6589 Clouds 26 1014 83 10000 3.6 80 20:18 19.10.2020
6590 Rain 26 1015 83 10000 3.6 50 19:42 19.10.2020
6591 Rain 26 1015 83 10000 3.6 50 19:19 19.10.2020
6592 Clouds 26 1015 83 10000 3.1 50 18:50 19.10.2020
6593 Clouds 26 1015 83 10000 3.1 50 18:20 19.10.2020
6594 Rain 26 1015 83 10000 0.5 0 17:47 19.10.2020
6595 Rain 26 1015 83 10000 0.5 0 17:26 19.10.2020
6596 Rain 25 1015 88 10000 2.6 210 16:53 19.10.2020
6597 Rain 25 1015 88 10000 2.6 210 16:29 19.10.2020
6598 Clouds 28 1013 75 10000 10.18 88 15:47 19.10.2020
6599 Clouds 28 1013 75 10000 10.2 88 15:26 19.10.2020
6600 Clouds 28 1013 75 10000 10.2 88 14:57 19.10.2020
6601 Clouds 28 1013 76 10000 10.05 88 14:28 19.10.2020
6602 Clouds 28 1013 76 10000 10.05 88 13:59 19.10.2020
6603 Clouds 28 1013 75 10000 10.2 88 13:59 19.10.2020
6604 Rain 28 1013 76 10000 10.05 88 13:41 19.10.2020
6605 Clouds 28 1012 76 10000 9.83 87 13:22 19.10.2020
6606 Rain 28 1012 76 10000 9.83 87 12:43 19.10.2020
6607 Clouds 27 1012 77 10000 10.09 89 12:25 19.10.2020
6608 Rain 27 1012 77 10000 10.09 89 11:42 19.10.2020
6609 Rain 24 1013 94 9000 4.6 110 11:21 19.10.2020
6610 Rain 24 1013 94 9000 4.6 110 10:44 19.10.2020
6611 Rain 24 1013 94 9000 4.6 110 10:23 19.10.2020
6612 Rain 25 1014 94 10000 3.1 90 09:56 19.10.2020
6613 Rain 25 1014 94 10000 3.1 90 09:24 19.10.2020
6614 Clouds 25 1014 88 9000 9.3 110 08:49 19.10.2020
6615 Clouds 25 1014 88 9000 9.3 110 08:24 19.10.2020
6616 Rain 27 1015 78 10000 4.6 80 07:56 19.10.2020
6617 Rain 26 1015 83 10000 4.1 90 07:20 19.10.2020
6618 Clouds 27 1016 78 10000 3.6 90 06:20 19.10.2020
6619 Clouds 27 1015 78 10000 5.1 90 04:30 19.10.2020
6620 Clouds 27 1015 78 10000 5.1 80 03:44 19.10.2020
6621 Clouds 26 1014 83 10000 6.2 90 00:59 19.10.2020
6622 Clouds 26 1014 83 10000 6.2 90 00:25 19.10.2020
6623 Clouds 27 1014 74 10000 7.2 100 23:48 18.10.2020
6624 Clouds 27 1014 74 10000 7.2 100 23:26 18.10.2020
6625 Clouds 26 1014 78 10000 7.2 110 22:53 18.10.2020
6626 Clouds 26 1014 78 10000 7.2 110 22:23 18.10.2020
6627 Clouds 26 1014 78 10000 7.2 110 21:56 18.10.2020
6628 Clouds 26 1014 78 10000 7.2 110 21:37 18.10.2020
6629 Clouds 27 1015 74 10000 7.7 110 21:18 18.10.2020
6630 Clouds 27 1015 74 10000 7.7 110 20:40 18.10.2020
6631 Clouds 27 1015 74 10000 7.7 110 20:21 18.10.2020
6632 Clouds 27 1016 78 10000 5.7 90 19:44 18.10.2020
6633 Clouds 27 1016 78 10000 5.7 90 19:44 18.10.2020
6634 Clouds 27 1016 78 10000 5.7 90 19:44 18.10.2020